<?xml version='1.0' encoding='UTF-8'?><gpx version="1.1" creator="JPX - https://github.com/jenetics/jpx" xmlns="http://www.topografix.com/GPX/1/1"><trk><trkseg><trkpt lat="41.87855814890226" lon="12.483507292003717"><ele>38.0</ele><time>2026-03-24T12:39:56.999Z</time></trkpt><trkpt lat="41.878605199796404" lon="12.48358946043711"><ele>38.0</ele><time>2026-03-24T12:39:57.999Z</time></trkpt><trkpt lat="41.87864847846357" lon="12.483688822489173"><ele>38.0</ele><time>2026-03-24T12:39:58.999Z</time></trkpt><trkpt lat="41.87867110434529" lon="12.483769136333814"><ele>38.0</ele><time>2026-03-24T12:39:59.999Z</time></trkpt><trkpt lat="41.878685664354904" lon="12.483868993309754"><ele>38.0</ele><time>2026-03-24T12:40:00.999Z</time></trkpt><trkpt lat="41.8787322121504" lon="12.484034429547597"><ele>38.0</ele><time>2026-03-24T12:40:01.999Z</time></trkpt><trkpt lat="41.87880138341993" lon="12.484229071861042"><ele>41.0</ele><time>2026-03-24T12:40:02.999Z</time></trkpt><trkpt lat="41.879006323181414" lon="12.484804844357592"><ele>41.0</ele><time>2026-03-24T12:40:04.999Z</time></trkpt><trkpt lat="41.879047248687165" lon="12.484915487756208"><ele>41.0</ele><time>2026-03-24T12:40:05.999Z</time></trkpt><trkpt lat="41.8790736955443" lon="12.484992217340949"><ele>41.0</ele><time>2026-03-24T12:40:06.999Z</time></trkpt><trkpt lat="41.87910284276142" lon="12.485067500217484"><ele>41.0</ele><time>2026-03-24T12:40:08.999Z</time></trkpt><trkpt lat="41.87913739556088" lon="12.485193927610954"><ele>41.0</ele><time>2026-03-24T12:40:23Z</time></trkpt><trkpt lat="41.87918584532953" lon="12.485323370583481"><ele>41.0</ele><time>2026-03-24T12:40:24Z</time></trkpt><trkpt lat="41.87923825485647" lon="12.485464541887737"><ele>42.25</ele><time>2026-03-24T12:40:25Z</time></trkpt><trkpt lat="41.879304680103004" lon="12.485614552795072"><ele>43.5</ele><time>2026-03-24T12:40:26Z</time></trkpt><trkpt lat="41.87937703308017" lon="12.485774868732943"><ele>44.75</ele><time>2026-03-24T12:40:27Z</time></trkpt><trkpt lat="41.87945392930627" lon="12.485957824612347"><ele>46.0</ele><time>2026-03-24T12:40:28Z</time></trkpt><trkpt lat="41.87953237000362" lon="12.4861622400635"><ele>46.4</ele><time>2026-03-24T12:40:29Z</time></trkpt><trkpt lat="41.87958646690988" lon="12.486295844291325"><ele>46.8</ele><time>2026-03-24T12:40:30Z</time></trkpt><trkpt lat="41.879632822574116" lon="12.486434446059324"><ele>47.199999999999996</ele><time>2026-03-24T12:40:31Z</time></trkpt><trkpt lat="41.879674226563445" lon="12.486526116763075"><ele>47.599999999999994</ele><time>2026-03-24T12:40:32Z</time></trkpt><trkpt lat="41.87958897247289" lon="12.486658536170589"><ele>48.0</ele><time>2026-03-24T12:40:33Z</time></trkpt><trkpt lat="41.8795079755025" lon="12.486729868609329"><ele>48.0</ele><time>2026-03-24T12:40:34Z</time></trkpt><trkpt lat="41.87940034742238" lon="12.486824140581634"><ele>48.0</ele><time>2026-03-24T12:40:35Z</time></trkpt><trkpt lat="41.87927261318229" lon="12.486935923254128"><ele>48.0</ele><time>2026-03-24T12:40:36Z</time></trkpt><trkpt lat="41.87914814261406" lon="12.487057675716127"><ele>48.0</ele><time>2026-03-24T12:40:37Z</time></trkpt><trkpt lat="41.8790027951161" lon="12.487165536383067"><ele>47.0</ele><time>2026-03-24T12:40:38Z</time></trkpt><trkpt lat="41.87884940430575" lon="12.487311503607746"><ele>46.0</ele><time>2026-03-24T12:40:39Z</time></trkpt><trkpt lat="41.8787327345904" lon="12.487424668363502"><ele>45.0</ele><time>2026-03-24T12:40:40Z</time></trkpt><trkpt lat="41.87861591329004" lon="12.487537980146842"><ele>45.0</ele><time>2026-03-24T12:40:41Z</time></trkpt><trkpt lat="41.87852401810776" lon="12.487652429186518"><ele>45.0</ele><time>2026-03-24T12:40:42Z</time></trkpt><trkpt lat="41.87842290495607" lon="12.487744778380549"><ele>45.0</ele><time>2026-03-24T12:40:43Z</time></trkpt><trkpt lat="41.87833991250247" lon="12.48782747267594"><ele>45.0</ele><time>2026-03-24T12:40:44Z</time></trkpt><trkpt lat="41.87826760972569" lon="12.487897872921064"><ele>45.0</ele><time>2026-03-24T12:40:45Z</time></trkpt><trkpt lat="41.87820556017208" lon="12.487938139655883"><ele>45.2</ele><time>2026-03-24T12:40:46Z</time></trkpt><trkpt lat="41.87812507374645" lon="12.48800925133348"><ele>45.4</ele><time>2026-03-24T12:40:48Z</time></trkpt><trkpt lat="41.878050580588486" lon="12.48804703141307"><ele>45.599999999999994</ele><time>2026-03-24T12:40:50Z</time></trkpt><trkpt lat="41.878002346044845" lon="12.48810267531392"><ele>45.8</ele><time>2026-03-24T12:41:09Z</time></trkpt><trkpt lat="41.877909930815946" lon="12.488285605628427"><ele>46.0</ele><time>2026-03-24T12:41:11Z</time></trkpt><trkpt lat="41.87785766433852" lon="12.488412530732202"><ele>46.0</ele><time>2026-03-24T12:41:12Z</time></trkpt><trkpt lat="41.87779270014728" lon="12.488533281431218"><ele>46.0</ele><time>2026-03-24T12:41:13Z</time></trkpt><trkpt lat="41.877695590964066" lon="12.488667765960564"><ele>46.0</ele><time>2026-03-24T12:41:14Z</time></trkpt><trkpt lat="41.87758333164531" lon="12.488829910868091"><ele>46.0</ele><time>2026-03-24T12:41:15Z</time></trkpt><trkpt lat="41.87748842642329" lon="12.488995104145975"><ele>46.333333333333336</ele><time>2026-03-24T12:41:16Z</time></trkpt><trkpt lat="41.877396084253434" lon="12.489168156829804"><ele>46.666666666666664</ele><time>2026-03-24T12:41:17Z</time></trkpt><trkpt lat="41.8772953067353" lon="12.489324794941382"><ele>47.0</ele><time>2026-03-24T12:41:18Z</time></trkpt><trkpt lat="41.8772001533257" lon="12.48946002714278"><ele>47.0</ele><time>2026-03-24T12:41:19Z</time></trkpt><trkpt lat="41.87709856606705" lon="12.489570469932398"><ele>47.0</ele><time>2026-03-24T12:41:20Z</time></trkpt><trkpt lat="41.87698533109865" lon="12.489637210116012"><ele>47.0</ele><time>2026-03-24T12:41:21Z</time></trkpt><trkpt lat="41.876888580793434" lon="12.489654753282522"><ele>47.0</ele><time>2026-03-24T12:41:22Z</time></trkpt><trkpt lat="41.87679777488049" lon="12.489616750992715"><ele>47.0</ele><time>2026-03-24T12:41:23Z</time></trkpt><trkpt lat="41.87673009151448" lon="12.489564274363858"><ele>47.33333333333333</ele><time>2026-03-24T12:41:24Z</time></trkpt><trkpt lat="41.87668735989358" lon="12.489491611214111"><ele>47.666666666666664</ele><time>2026-03-24T12:41:26Z</time></trkpt><trkpt lat="41.876587801598156" lon="12.489459598310662"><ele>48.0</ele><time>2026-03-24T12:41:30Z</time></trkpt><trkpt lat="41.877053841451044" lon="12.489655390801673"><ele>47.75</ele><time>2026-03-24T12:41:34Z</time></trkpt><trkpt lat="41.877144348657126" lon="12.489586544545853"><ele>47.5</ele><time>2026-03-24T12:41:35Z</time></trkpt><trkpt lat="41.87723612129258" lon="12.489479935189165"><ele>47.25</ele><time>2026-03-24T12:41:36Z</time></trkpt><trkpt lat="41.87732456070363" lon="12.489336069371973"><ele>47.0</ele><time>2026-03-24T12:41:37Z</time></trkpt><trkpt lat="41.877426388090235" lon="12.489153892701047"><ele>47.0</ele><time>2026-03-24T12:41:38Z</time></trkpt><trkpt lat="41.87754027146456" lon="12.48898129895352"><ele>47.0</ele><time>2026-03-24T12:41:39Z</time></trkpt><trkpt lat="41.87765447897406" lon="12.488819963346554"><ele>47.0</ele><time>2026-03-24T12:41:40Z</time></trkpt><trkpt lat="41.8777493716504" lon="12.488684960899295"><ele>46.8</ele><time>2026-03-24T12:41:41Z</time></trkpt><trkpt lat="41.877824983236536" lon="12.48858996533644"><ele>46.6</ele><time>2026-03-24T12:41:42Z</time></trkpt><trkpt lat="41.87790067559114" lon="12.48853695643232"><ele>46.4</ele><time>2026-03-24T12:41:43Z</time></trkpt><trkpt lat="41.87798245650423" lon="12.488522748475594"><ele>46.199999999999996</ele><time>2026-03-24T12:41:44Z</time></trkpt><trkpt lat="41.87807427577469" lon="12.488535385797585"><ele>46.0</ele><time>2026-03-24T12:41:45Z</time></trkpt><trkpt lat="41.878177733855104" lon="12.48856059595871"><ele>46.0</ele><time>2026-03-24T12:41:46Z</time></trkpt><trkpt lat="41.878274699223994" lon="12.488611956756918"><ele>46.0</ele><time>2026-03-24T12:41:47Z</time></trkpt><trkpt lat="41.87836613360224" lon="12.488701871199545"><ele>46.0</ele><time>2026-03-24T12:41:48Z</time></trkpt><trkpt lat="41.8784742442132" lon="12.488848433517362"><ele>46.0</ele><time>2026-03-24T12:41:49Z</time></trkpt><trkpt lat="41.878603222839985" lon="12.489001380679131"><ele>46.4</ele><time>2026-03-24T12:41:50Z</time></trkpt><trkpt lat="41.87870476955485" lon="12.489128881749087"><ele>46.8</ele><time>2026-03-24T12:41:51Z</time></trkpt><trkpt lat="41.87878122734833" lon="12.489231694102767"><ele>47.199999999999996</ele><time>2026-03-24T12:41:52Z</time></trkpt><trkpt lat="41.87883459193001" lon="12.489325812101745"><ele>47.599999999999994</ele><time>2026-03-24T12:41:53Z</time></trkpt><trkpt lat="41.87886575628932" lon="12.489432560709634"><ele>48.0</ele><time>2026-03-24T12:41:54Z</time></trkpt><trkpt lat="41.878849228128125" lon="12.48955794592773"><ele>46.5</ele><time>2026-03-24T12:41:55Z</time></trkpt><trkpt lat="41.878796933294" lon="12.489670622331044"><ele>45.0</ele><time>2026-03-24T12:41:56Z</time></trkpt><trkpt lat="41.87872192311908" lon="12.489784176501606"><ele>43.5</ele><time>2026-03-24T12:41:57Z</time></trkpt><trkpt lat="41.878629840061855" lon="12.489916485287168"><ele>42.0</ele><time>2026-03-24T12:41:58Z</time></trkpt><trkpt lat="41.87852831350867" lon="12.490083460714853"><ele>42.0</ele><time>2026-03-24T12:41:59Z</time></trkpt><trkpt lat="41.87841364077937" lon="12.49028618125284"><ele>42.0</ele><time>2026-03-24T12:42:00Z</time></trkpt><trkpt lat="41.87829606445614" lon="12.490513100864748"><ele>42.0</ele><time>2026-03-24T12:42:00.998Z</time></trkpt><trkpt lat="41.87817816731656" lon="12.49072535074029"><ele>42.0</ele><time>2026-03-24T12:42:01.998Z</time></trkpt><trkpt lat="41.8780434452789" lon="12.490957156748975"><ele>42.0</ele><time>2026-03-24T12:42:02.998Z</time></trkpt><trkpt lat="41.87787262513265" lon="12.491213133633781"><ele>41.5</ele><time>2026-03-24T12:42:03.998Z</time></trkpt><trkpt lat="41.877660430036556" lon="12.491503820929216"><ele>41.0</ele><time>2026-03-24T12:42:04.998Z</time></trkpt><trkpt lat="41.87748004210058" lon="12.491717140774977"><ele>41.0</ele><time>2026-03-24T12:42:05.998Z</time></trkpt><trkpt lat="41.8773152817156" lon="12.491924567996916"><ele>41.0</ele><time>2026-03-24T12:42:06.998Z</time></trkpt><trkpt lat="41.87715084512272" lon="12.49212266838749"><ele>41.0</ele><time>2026-03-24T12:42:07.998Z</time></trkpt><trkpt lat="41.87700785392753" lon="12.492317865411472"><ele>40.666666666666664</ele><time>2026-03-24T12:42:08.998Z</time></trkpt><trkpt lat="41.87687274893592" lon="12.4925037069455"><ele>40.333333333333336</ele><time>2026-03-24T12:42:09.998Z</time></trkpt><trkpt lat="41.876758435463586" lon="12.492752555235253"><ele>40.0</ele><time>2026-03-24T12:42:10.998Z</time></trkpt><trkpt lat="41.87662953693754" lon="12.493013338477846"><ele>40.0</ele><time>2026-03-24T12:42:11.998Z</time></trkpt><trkpt lat="41.8764499600423" lon="12.493262239998055"><ele>40.0</ele><time>2026-03-24T12:42:12.999Z</time></trkpt><trkpt lat="41.87626360207271" lon="12.493555112835045"><ele>39.0</ele><time>2026-03-24T12:42:13.999Z</time></trkpt><trkpt lat="41.87605600515478" lon="12.4937980239802"><ele>38.0</ele><time>2026-03-24T12:42:14.999Z</time></trkpt><trkpt lat="41.87589574578172" lon="12.494013255290199"><ele>38.0</ele><time>2026-03-24T12:42:15.999Z</time></trkpt><trkpt lat="41.87574251180286" lon="12.494242190272027"><ele>38.0</ele><time>2026-03-24T12:42:16.999Z</time></trkpt><trkpt lat="41.875593640136294" lon="12.49446275565703"><ele>37.666666666666664</ele><time>2026-03-24T12:42:17.999Z</time></trkpt><trkpt lat="41.87545022737578" lon="12.494672427555178"><ele>37.333333333333336</ele><time>2026-03-24T12:42:18.999Z</time></trkpt><trkpt lat="41.8753162300992" lon="12.49485784222775"><ele>37.0</ele><time>2026-03-24T12:42:19.999Z</time></trkpt><trkpt lat="41.87519036598983" lon="12.495030697439734"><ele>38.66666666666667</ele><time>2026-03-24T12:42:20.999Z</time></trkpt><trkpt lat="41.87507067855691" lon="12.495213340565607"><ele>40.333333333333336</ele><time>2026-03-24T12:42:21.999Z</time></trkpt><trkpt lat="41.87495261426403" lon="12.49537316408732"><ele>42.0</ele><time>2026-03-24T12:42:22.999Z</time></trkpt><trkpt lat="41.87482137478092" lon="12.495555636442836"><ele>42.0</ele><time>2026-03-24T12:42:23.999Z</time></trkpt><trkpt lat="41.87469625036214" lon="12.495729896103288"><ele>42.0</ele><time>2026-03-24T12:42:24.999Z</time></trkpt><trkpt lat="41.87460216314363" lon="12.495863565191557"><ele>42.0</ele><time>2026-03-24T12:42:25.999Z</time></trkpt><trkpt lat="41.874525571752855" lon="12.495975437687"><ele>42.0</ele><time>2026-03-24T12:42:26.999Z</time></trkpt><trkpt lat="41.87446787530421" lon="12.496056712444334"><ele>42.0</ele><time>2026-03-24T12:42:27.999Z</time></trkpt><trkpt lat="41.87441781512301" lon="12.496119897971406"><ele>42.0</ele><time>2026-03-24T12:42:28.999Z</time></trkpt><trkpt lat="41.87434287656399" lon="12.496197487159257"><ele>42.0</ele><time>2026-03-24T12:42:30.999Z</time></trkpt><trkpt lat="41.874288909451806" lon="12.49628714799829"><ele>42.0</ele><time>2026-03-24T12:42:33.999Z</time></trkpt><trkpt lat="41.874232844294156" lon="12.496352583152815"><ele>42.0</ele><time>2026-03-24T12:43:39Z</time></trkpt><trkpt lat="41.874171153566444" lon="12.496424584084744"><ele>42.0</ele><time>2026-03-24T12:43:40Z</time></trkpt><trkpt lat="41.87400224059772" lon="12.496429773663241"><ele>41.25</ele><time>2026-03-24T12:43:41Z</time></trkpt><trkpt lat="41.873887532299065" lon="12.496422887707558"><ele>40.5</ele><time>2026-03-24T12:43:42Z</time></trkpt><trkpt lat="41.87375051403478" lon="12.496390456896952"><ele>39.75</ele><time>2026-03-24T12:43:43Z</time></trkpt><trkpt lat="41.87360012254472" lon="12.496384201038381"><ele>39.0</ele><time>2026-03-24T12:43:44Z</time></trkpt><trkpt lat="41.8734332721251" lon="12.496374750627117"><ele>38.666666666666664</ele><time>2026-03-24T12:43:45Z</time></trkpt><trkpt lat="41.87326038740321" lon="12.496363489603768"><ele>38.33333333333333</ele><time>2026-03-24T12:43:46Z</time></trkpt><trkpt lat="41.87309132076334" lon="12.496349043587157"><ele>38.0</ele><time>2026-03-24T12:43:47Z</time></trkpt><trkpt lat="41.87294075467993" lon="12.496341467128937"><ele>38.0</ele><time>2026-03-24T12:43:48Z</time></trkpt><trkpt lat="41.872799177352505" lon="12.496327765689433"><ele>38.0</ele><time>2026-03-24T12:43:49Z</time></trkpt><trkpt lat="41.87266285710595" lon="12.496314590535414"><ele>38.0</ele><time>2026-03-24T12:43:50Z</time></trkpt><trkpt lat="41.87253836924919" lon="12.496304113955325"><ele>38.0</ele><time>2026-03-24T12:43:51Z</time></trkpt><trkpt lat="41.87242711992719" lon="12.496293916619079"><ele>37.857142857142854</ele><time>2026-03-24T12:43:52Z</time></trkpt><trkpt lat="41.87233847985436" lon="12.496281984954976"><ele>37.714285714285715</ele><time>2026-03-24T12:43:53Z</time></trkpt><trkpt lat="41.87226607560537" lon="12.496275098401378"><ele>37.57142857142857</ele><time>2026-03-24T12:43:54Z</time></trkpt><trkpt lat="41.87220174155188" lon="12.496267704265495"><ele>37.42857142857143</ele><time>2026-03-24T12:43:55Z</time></trkpt><trkpt lat="41.87212907039738" lon="12.496246055200714"><ele>37.285714285714285</ele><time>2026-03-24T12:43:57Z</time></trkpt><trkpt lat="41.8720573766026" lon="12.496217584582633"><ele>37.142857142857146</ele><time>2026-03-24T12:45:30Z</time></trkpt><trkpt lat="41.87199371211892" lon="12.496218668335903"><ele>37.0</ele><time>2026-03-24T12:47:49.001Z</time></trkpt><trkpt lat="41.87193434688659" lon="12.496275315090832"><ele>37.0</ele><time>2026-03-24T12:51:06Z</time></trkpt><trkpt lat="41.871828145882866" lon="12.496302997782955"><ele>37.0</ele><time>2026-03-24T12:51:09Z</time></trkpt><trkpt lat="41.87175941707766" lon="12.496315153192471"><ele>37.0</ele><time>2026-03-24T12:51:10Z</time></trkpt><trkpt lat="41.87166344467022" lon="12.496311215568985"><ele>37.0</ele><time>2026-03-24T12:51:11Z</time></trkpt><trkpt lat="41.87156470108811" lon="12.496296830172293"><ele>37.0</ele><time>2026-03-24T12:51:12.001Z</time></trkpt><trkpt lat="41.87148445330084" lon="12.496282533879052"><ele>37.0</ele><time>2026-03-24T12:51:13.001Z</time></trkpt><trkpt lat="41.87140111917069" lon="12.496265047462392"><ele>37.0</ele><time>2026-03-24T12:51:14.001Z</time></trkpt><trkpt lat="41.871313537096675" lon="12.496245875844432"><ele>37.0</ele><time>2026-03-24T12:51:15.001Z</time></trkpt><trkpt lat="41.87123665199206" lon="12.496240917138111"><ele>37.0</ele><time>2026-03-24T12:51:16.001Z</time></trkpt><trkpt lat="41.87116295352333" lon="12.496240347721036"><ele>37.0</ele><time>2026-03-24T12:51:17.001Z</time></trkpt><trkpt lat="41.871062013391615" lon="12.49622789863358"><ele>37.0</ele><time>2026-03-24T12:51:18.001Z</time></trkpt><trkpt lat="41.87093286396962" lon="12.496218684666797"><ele>34.25</ele><time>2026-03-24T12:51:19.001Z</time></trkpt><trkpt lat="41.87080369408454" lon="12.496213253281963"><ele>31.5</ele><time>2026-03-24T12:51:20.001Z</time></trkpt><trkpt lat="41.87068687961603" lon="12.496204732608945"><ele>28.75</ele><time>2026-03-24T12:51:21.001Z</time></trkpt><trkpt lat="41.87057431990048" lon="12.496193454296979"><ele>26.0</ele><time>2026-03-24T12:51:22.001Z</time></trkpt><trkpt lat="41.87046356043193" lon="12.496187824681517"><ele>26.0</ele><time>2026-03-24T12:51:23.001Z</time></trkpt><trkpt lat="41.87035333396106" lon="12.496177045781602"><ele>26.0</ele><time>2026-03-24T12:51:24.001Z</time></trkpt><trkpt lat="41.87024766436962" lon="12.496166348656587"><ele>26.0</ele><time>2026-03-24T12:51:25.001Z</time></trkpt><trkpt lat="41.870154135671946" lon="12.496158485137872"><ele>26.0</ele><time>2026-03-24T12:51:26.001Z</time></trkpt><trkpt lat="41.87007614135653" lon="12.496155481085005"><ele>26.0</ele><time>2026-03-24T12:51:27.001Z</time></trkpt><trkpt lat="41.86991026503964" lon="12.496114990609039"><ele>26.25</ele><time>2026-03-24T12:51:28.001Z</time></trkpt><trkpt lat="41.86979458263081" lon="12.496101996309708"><ele>26.5</ele><time>2026-03-24T12:51:29.001Z</time></trkpt><trkpt lat="41.8696723238996" lon="12.496089612440144"><ele>26.75</ele><time>2026-03-24T12:51:30.001Z</time></trkpt><trkpt lat="41.86954187125824" lon="12.496079245133133"><ele>27.0</ele><time>2026-03-24T12:51:31.001Z</time></trkpt><trkpt lat="41.86939027158189" lon="12.496068084061823"><ele>27.25</ele><time>2026-03-24T12:51:32.001Z</time></trkpt><trkpt lat="41.86924452773031" lon="12.496058836411654"><ele>27.5</ele><time>2026-03-24T12:51:33.001Z</time></trkpt><trkpt lat="41.869103013521126" lon="12.496049798619538"><ele>27.75</ele><time>2026-03-24T12:51:34.001Z</time></trkpt><trkpt lat="41.86896893741893" lon="12.496037628707677"><ele>28.0</ele><time>2026-03-24T12:51:35.001Z</time></trkpt><trkpt lat="41.868821271037014" lon="12.496023267430832"><ele>28.0</ele><time>2026-03-24T12:51:36.001Z</time></trkpt><trkpt lat="41.868678086681996" lon="12.496025450630043"><ele>28.0</ele><time>2026-03-24T12:51:37.001Z</time></trkpt><trkpt lat="41.86855032415738" lon="12.496032743055391"><ele>28.0</ele><time>2026-03-24T12:51:38.001Z</time></trkpt><trkpt lat="41.86843420916396" lon="12.496042387373695"><ele>28.0</ele><time>2026-03-24T12:51:39.001Z</time></trkpt><trkpt lat="41.868341773768016" lon="12.49603566301519"><ele>28.500000000000004</ele><time>2026-03-24T12:51:40.001Z</time></trkpt><trkpt lat="41.86826593214137" lon="12.496031905664466"><ele>29.0</ele><time>2026-03-24T12:51:41.001Z</time></trkpt><trkpt lat="41.868191999443866" lon="12.496043870196383"><ele>29.5</ele><time>2026-03-24T12:51:43.001Z</time></trkpt><trkpt lat="41.868088475842285" lon="12.496039138995272"><ele>30.0</ele><time>2026-03-24T12:51:45.001Z</time></trkpt><trkpt lat="41.86799008757082" lon="12.496048058398204"><ele>30.500000000000004</ele><time>2026-03-24T12:51:49.001Z</time></trkpt><trkpt lat="41.86791830738565" lon="12.496070855846147"><ele>31.0</ele><time>2026-03-24T12:51:54.001Z</time></trkpt><trkpt lat="41.86786255343383" lon="12.496129994370417"><ele>31.000000000000004</ele><time>2026-03-24T12:51:57.001Z</time></trkpt><trkpt lat="41.86777200619522" lon="12.496141875698612"><ele>31.0</ele><time>2026-03-24T12:51:58.001Z</time></trkpt><trkpt lat="41.86765850570509" lon="12.496142472848739"><ele>31.0</ele><time>2026-03-24T12:51:59.001Z</time></trkpt><trkpt lat="41.86757255521042" lon="12.496157848853613"><ele>31.0</ele><time>2026-03-24T12:52:00.001Z</time></trkpt><trkpt lat="41.86750735313575" lon="12.496170433726691"><ele>31.000000000000004</ele><time>2026-03-24T12:52:01.001Z</time></trkpt><trkpt lat="41.86744531962424" lon="12.496233487352928"><ele>31.0</ele><time>2026-03-24T12:52:03.001Z</time></trkpt><trkpt lat="41.86746531619345" lon="12.496372997408233"><ele>29.4</ele><time>2026-03-24T12:52:05.001Z</time></trkpt><trkpt lat="41.867524389115836" lon="12.496436644133976"><ele>27.8</ele><time>2026-03-24T12:52:06.001Z</time></trkpt><trkpt lat="41.86761381026733" lon="12.496492185951066"><ele>26.2</ele><time>2026-03-24T12:52:07.001Z</time></trkpt><trkpt lat="41.8677295052965" lon="12.496355315610051"><ele>24.599999999999998</ele><time>2026-03-24T12:52:08.001Z</time></trkpt><trkpt lat="41.86784440759932" lon="12.496337247750231"><ele>23.0</ele><time>2026-03-24T12:52:09.001Z</time></trkpt><trkpt lat="41.86799074058248" lon="12.496304513729097"><ele>22.0</ele><time>2026-03-24T12:52:10.001Z</time></trkpt><trkpt lat="41.86815958018223" lon="12.496295305216728"><ele>21.0</ele><time>2026-03-24T12:52:11.001Z</time></trkpt><trkpt lat="41.86833323524709" lon="12.496279990073658"><ele>20.0</ele><time>2026-03-24T12:52:12.001Z</time></trkpt><trkpt lat="41.86852754223049" lon="12.496266992417839"><ele>19.5</ele><time>2026-03-24T12:52:13.001Z</time></trkpt><trkpt lat="41.86875349329635" lon="12.496263585562938"><ele>19.0</ele><time>2026-03-24T12:52:14.001Z</time></trkpt><trkpt lat="41.8689971532403" lon="12.496271062848995"><ele>19.0</ele><time>2026-03-24T12:52:15.001Z</time></trkpt><trkpt lat="41.869231569473975" lon="12.496286115439739"><ele>19.0</ele><time>2026-03-24T12:52:16.001Z</time></trkpt><trkpt lat="41.86949001604727" lon="12.496311699578202"><ele>21.0</ele><time>2026-03-24T12:52:17.001Z</time></trkpt><trkpt lat="41.86975282415393" lon="12.49633573307656"><ele>23.0</ele><time>2026-03-24T12:52:18.001Z</time></trkpt><trkpt lat="41.87001010020077" lon="12.496356071020069"><ele>26.0</ele><time>2026-03-24T12:52:19.001Z</time></trkpt><trkpt lat="41.87027745109716" lon="12.496376974758673"><ele>29.0</ele><time>2026-03-24T12:52:20.001Z</time></trkpt><trkpt lat="41.87051873375539" lon="12.496397648565148"><ele>29.0</ele><time>2026-03-24T12:52:21.001Z</time></trkpt><trkpt lat="41.87073581258048" lon="12.496415811913034"><ele>29.0</ele><time>2026-03-24T12:52:22.001Z</time></trkpt><trkpt lat="41.87093645703065" lon="12.496432824398633"><ele>29.0</ele><time>2026-03-24T12:52:23.001Z</time></trkpt><trkpt lat="41.87112342800705" lon="12.496446496056073"><ele>31.666666666666664</ele><time>2026-03-24T12:52:24.001Z</time></trkpt><trkpt lat="41.871303015597505" lon="12.49646252647823"><ele>34.333333333333336</ele><time>2026-03-24T12:52:25.001Z</time></trkpt><trkpt lat="41.871489966736995" lon="12.496481283751397"><ele>37.0</ele><time>2026-03-24T12:52:26.001Z</time></trkpt><trkpt lat="41.87167388697781" lon="12.496499887769797"><ele>38.0</ele><time>2026-03-24T12:52:27.001Z</time></trkpt><trkpt lat="41.871860675616674" lon="12.496517466647624"><ele>39.0</ele><time>2026-03-24T12:52:28.001Z</time></trkpt><trkpt lat="41.87203381043171" lon="12.49653091543337"><ele>40.0</ele><time>2026-03-24T12:52:29.001Z</time></trkpt><trkpt lat="41.87219108961472" lon="12.49654432802591"><ele>40.0</ele><time>2026-03-24T12:52:30.001Z</time></trkpt><trkpt lat="41.872331481270166" lon="12.496555059309301"><ele>40.0</ele><time>2026-03-24T12:52:31Z</time></trkpt><trkpt lat="41.8724599112278" lon="12.496565763158955"><ele>40.0</ele><time>2026-03-24T12:52:32Z</time></trkpt><trkpt lat="41.87257055225846" lon="12.496573733057623"><ele>40.0</ele><time>2026-03-24T12:52:33Z</time></trkpt><trkpt lat="41.87266285241303" lon="12.496582622965805"><ele>39.66666666666667</ele><time>2026-03-24T12:52:34Z</time></trkpt><trkpt lat="41.8727463391799" lon="12.496591886920234"><ele>39.333333333333336</ele><time>2026-03-24T12:52:35Z</time></trkpt><trkpt lat="41.872817393805065" lon="12.496595759518254"><ele>39.0</ele><time>2026-03-24T12:52:36Z</time></trkpt><trkpt lat="41.87291509177475" lon="12.49659519720826"><ele>38.666666666666664</ele><time>2026-03-24T12:52:38Z</time></trkpt><trkpt lat="41.872992536765615" lon="12.496612836399043"><ele>38.33333333333333</ele><time>2026-03-24T12:52:59Z</time></trkpt><trkpt lat="41.87307018282816" lon="12.4966194118383"><ele>38.0</ele><time>2026-03-24T12:53:00Z</time></trkpt><trkpt lat="41.873184594858614" lon="12.496635167300042"><ele>38.0</ele><time>2026-03-24T12:53:01Z</time></trkpt><trkpt lat="41.873307222292816" lon="12.496652101736753"><ele>38.0</ele><time>2026-03-24T12:53:02Z</time></trkpt><trkpt lat="41.87344246973244" lon="12.496666083773125"><ele>38.0</ele><time>2026-03-24T12:53:03Z</time></trkpt><trkpt lat="41.873600006617714" lon="12.496674139985744"><ele>38.0</ele><time>2026-03-24T12:53:04Z</time></trkpt><trkpt lat="41.87375804896101" lon="12.496680472918534"><ele>38.25</ele><time>2026-03-24T12:53:05Z</time></trkpt><trkpt lat="41.87390939507997" lon="12.496683802638312"><ele>38.5</ele><time>2026-03-24T12:53:06Z</time></trkpt><trkpt lat="41.87405854719838" lon="12.49668287758213"><ele>38.75</ele><time>2026-03-24T12:53:07Z</time></trkpt><trkpt lat="41.87420616797828" lon="12.496676742295875"><ele>39.0</ele><time>2026-03-24T12:53:08Z</time></trkpt><trkpt lat="41.874342994060264" lon="12.496671457947663"><ele>39.6</ele><time>2026-03-24T12:53:09Z</time></trkpt><trkpt lat="41.87446675886294" lon="12.49666741428449"><ele>40.2</ele><time>2026-03-24T12:53:10Z</time></trkpt><trkpt lat="41.87456977362042" lon="12.496653784216393"><ele>40.800000000000004</ele><time>2026-03-24T12:53:11Z</time></trkpt><trkpt lat="41.874658931466776" lon="12.496648966143148"><ele>41.4</ele><time>2026-03-24T12:53:12Z</time></trkpt><trkpt lat="41.8747374008781" lon="12.496620406341872"><ele>42.0</ele><time>2026-03-24T12:53:14Z</time></trkpt><trkpt lat="41.874775678973236" lon="12.496504316911722"><ele>42.0</ele><time>2026-03-24T12:53:34Z</time></trkpt><trkpt lat="41.87482291562537" lon="12.4963934433242"><ele>42.0</ele><time>2026-03-24T12:53:35Z</time></trkpt><trkpt lat="41.874836104309736" lon="12.496213407971736"><ele>42.0</ele><time>2026-03-24T12:53:36Z</time></trkpt><trkpt lat="41.87481079233586" lon="12.496042884503417"><ele>42.0</ele><time>2026-03-24T12:53:37Z</time></trkpt><trkpt lat="41.874777988839135" lon="12.495891016065665"><ele>42.0</ele><time>2026-03-24T12:53:38Z</time></trkpt><trkpt lat="41.874774521305085" lon="12.495748068429075"><ele>42.0</ele><time>2026-03-24T12:53:39Z</time></trkpt><trkpt lat="41.874781124179385" lon="12.495633058387073"><ele>42.0</ele><time>2026-03-24T12:53:40Z</time></trkpt><trkpt lat="41.874902746904226" lon="12.49551872209505"><ele>42.0</ele><time>2026-03-24T12:53:41Z</time></trkpt><trkpt lat="41.87503732608648" lon="12.495378582679804"><ele>40.333333333333336</ele><time>2026-03-24T12:53:42Z</time></trkpt><trkpt lat="41.87516186056727" lon="12.495195403303695"><ele>38.66666666666667</ele><time>2026-03-24T12:53:43Z</time></trkpt><trkpt lat="41.87529756221337" lon="12.494991738976408"><ele>37.0</ele><time>2026-03-24T12:53:44Z</time></trkpt><trkpt lat="41.87546377013381" lon="12.494758426131991"><ele>37.5</ele><time>2026-03-24T12:53:45Z</time></trkpt><trkpt lat="41.87563888914466" lon="12.494498745982597"><ele>38.0</ele><time>2026-03-24T12:53:46Z</time></trkpt><trkpt lat="41.875831790469725" lon="12.494233054525187"><ele>38.0</ele><time>2026-03-24T12:53:47Z</time></trkpt><trkpt lat="41.876035487580666" lon="12.493944076568626"><ele>38.0</ele><time>2026-03-24T12:53:48Z</time></trkpt><trkpt lat="41.876235243363176" lon="12.493653451045104"><ele>39.0</ele><time>2026-03-24T12:53:49Z</time></trkpt><trkpt lat="41.87641003785768" lon="12.493381288747198"><ele>40.0</ele><time>2026-03-24T12:53:50Z</time></trkpt><trkpt lat="41.87658828392997" lon="12.49314668437146"><ele>37.5</ele><time>2026-03-24T12:53:51Z</time></trkpt><trkpt lat="41.87675060795201" lon="12.492917297623983"><ele>35.0</ele><time>2026-03-24T12:53:52.001Z</time></trkpt><trkpt lat="41.87688364577155" lon="12.492654319897897"><ele>35.0</ele><time>2026-03-24T12:53:53.001Z</time></trkpt><trkpt lat="41.877063865340546" lon="12.492390287807016"><ele>35.0</ele><time>2026-03-24T12:53:54.001Z</time></trkpt><trkpt lat="41.87726537347702" lon="12.492114777889775"><ele>34.5</ele><time>2026-03-24T12:53:55.001Z</time></trkpt><trkpt lat="41.87749163855435" lon="12.491850384047687"><ele>34.0</ele><time>2026-03-24T12:53:56.001Z</time></trkpt><trkpt lat="41.87769630458563" lon="12.491607023914913"><ele>34.0</ele><time>2026-03-24T12:53:57.001Z</time></trkpt><trkpt lat="41.87787160591608" lon="12.491390967485572"><ele>34.0</ele><time>2026-03-24T12:53:58.001Z</time></trkpt><trkpt lat="41.87801965603046" lon="12.491184566574612"><ele>36.66666666666667</ele><time>2026-03-24T12:53:59.001Z</time></trkpt><trkpt lat="41.878154797999876" lon="12.49096129425497"><ele>39.333333333333336</ele><time>2026-03-24T12:54:00.001Z</time></trkpt><trkpt lat="41.87828395769925" lon="12.49073496252294"><ele>42.0</ele><time>2026-03-24T12:54:01.001Z</time></trkpt><trkpt lat="41.87839698498618" lon="12.490532707402155"><ele>42.0</ele><time>2026-03-24T12:54:02.001Z</time></trkpt><trkpt lat="41.87849219078425" lon="12.490370321820569"><ele>42.0</ele><time>2026-03-24T12:54:03.001Z</time></trkpt><trkpt lat="41.87857843836692" lon="12.490222111164485"><ele>42.0</ele><time>2026-03-24T12:54:04.001Z</time></trkpt><trkpt lat="41.87865482122244" lon="12.490086674036736"><ele>42.0</ele><time>2026-03-24T12:54:05.001Z</time></trkpt><trkpt lat="41.87873367894381" lon="12.48997342769647"><ele>42.0</ele><time>2026-03-24T12:54:06.001Z</time></trkpt><trkpt lat="41.878807020227065" lon="12.489907814535275"><ele>42.0</ele><time>2026-03-24T12:54:07.001Z</time></trkpt><trkpt lat="41.878871063489" lon="12.489849211627313"><ele>42.0</ele><time>2026-03-24T12:54:08.001Z</time></trkpt><trkpt lat="41.878940349833066" lon="12.489784556745853"><ele>42.0</ele><time>2026-03-24T12:54:09.001Z</time></trkpt><trkpt lat="41.879003098683356" lon="12.48972573043483"><ele>42.0</ele><time>2026-03-24T12:54:10.001Z</time></trkpt><trkpt lat="41.87904108543645" lon="12.489645253898178"><ele>42.0</ele><time>2026-03-24T12:54:11.001Z</time></trkpt><trkpt lat="41.879037726223245" lon="12.48955815040568"><ele>43.2</ele><time>2026-03-24T12:54:12.001Z</time></trkpt><trkpt lat="41.8790010418629" lon="12.489467154035351"><ele>44.400000000000006</ele><time>2026-03-24T12:54:13.001Z</time></trkpt><trkpt lat="41.87893371817327" lon="12.489368564926913"><ele>45.599999999999994</ele><time>2026-03-24T12:54:14.001Z</time></trkpt><trkpt lat="41.87886653781097" lon="12.48924198684321"><ele>46.8</ele><time>2026-03-24T12:54:15.001Z</time></trkpt><trkpt lat="41.87877019192828" lon="12.489124329447368"><ele>48.0</ele><time>2026-03-24T12:54:16.001Z</time></trkpt><trkpt lat="41.87866273063907" lon="12.489016507098041"><ele>48.0</ele><time>2026-03-24T12:54:17.001Z</time></trkpt><trkpt lat="41.87855708782167" lon="12.488894513124245"><ele>48.0</ele><time>2026-03-24T12:54:18.001Z</time></trkpt><trkpt lat="41.878463270633404" lon="12.488787598799451"><ele>48.0</ele><time>2026-03-24T12:54:19.001Z</time></trkpt><trkpt lat="41.87838065078258" lon="12.488681155132069"><ele>48.0</ele><time>2026-03-24T12:54:20.001Z</time></trkpt><trkpt lat="41.87830508806167" lon="12.488589809387157"><ele>47.666666666666664</ele><time>2026-03-24T12:54:21.001Z</time></trkpt><trkpt lat="41.87823695912843" lon="12.488506207311868"><ele>47.333333333333336</ele><time>2026-03-24T12:54:22.001Z</time></trkpt><trkpt lat="41.87817623380617" lon="12.48843565991293"><ele>47.0</ele><time>2026-03-24T12:54:23.001Z</time></trkpt><trkpt lat="41.87812415556455" lon="12.48836845022659"><ele>46.66666666666667</ele><time>2026-03-24T12:54:24.001Z</time></trkpt><trkpt lat="41.878082104232604" lon="12.488292537288729"><ele>46.333333333333336</ele><time>2026-03-24T12:54:25.001Z</time></trkpt><trkpt lat="41.87802898291533" lon="12.488232422770237"><ele>46.0</ele><time>2026-03-24T12:54:27.001Z</time></trkpt><trkpt lat="41.87813125011003" lon="12.488091485786656"><ele>46.0</ele><time>2026-03-24T12:54:28.001Z</time></trkpt><trkpt lat="41.87821008756163" lon="12.48803196564063"><ele>46.0</ele><time>2026-03-24T12:54:29.001Z</time></trkpt><trkpt lat="41.87831302775055" lon="12.487935480964385"><ele>46.0</ele><time>2026-03-24T12:54:30.001Z</time></trkpt><trkpt lat="41.87841746062604" lon="12.487823622113767"><ele>46.0</ele><time>2026-03-24T12:54:31.001Z</time></trkpt><trkpt lat="41.878507238165646" lon="12.487722586823923"><ele>45.8</ele><time>2026-03-24T12:54:32.001Z</time></trkpt><trkpt lat="41.8785929187674" lon="12.487631724452509"><ele>45.599999999999994</ele><time>2026-03-24T12:54:33.001Z</time></trkpt><trkpt lat="41.87867896938102" lon="12.487555630094997"><ele>45.4</ele><time>2026-03-24T12:54:34.001Z</time></trkpt><trkpt lat="41.878763820986094" lon="12.487485712755978"><ele>45.2</ele><time>2026-03-24T12:54:35.001Z</time></trkpt><trkpt lat="41.87883558261498" lon="12.487422868167819"><ele>45.0</ele><time>2026-03-24T12:54:35.999Z</time></trkpt><trkpt lat="41.87888542964837" lon="12.487366449719008"><ele>45.0</ele><time>2026-03-24T12:54:36.999Z</time></trkpt><trkpt lat="41.87895009035213" lon="12.487308150887312"><ele>45.0</ele><time>2026-03-24T12:54:39.999Z</time></trkpt><trkpt lat="41.87899587272937" lon="12.487227081449252"><ele>45.0</ele><time>2026-03-24T12:54:43.999Z</time></trkpt><trkpt lat="41.87893788504764" lon="12.487120725253325"><ele>45.0</ele><time>2026-03-24T12:54:44.999Z</time></trkpt><trkpt lat="41.878882615220824" lon="12.487049723862551"><ele>45.0</ele><time>2026-03-24T12:54:46.999Z</time></trkpt><trkpt lat="41.87882043279632" lon="12.486915621839906"><ele>45.0</ele><time>2026-03-24T12:54:49.999Z</time></trkpt><trkpt lat="41.878783132395434" lon="12.48683194089674"><ele>45.2</ele><time>2026-03-24T12:54:50.999Z</time></trkpt><trkpt lat="41.8787276503759" lon="12.486744094610511"><ele>45.4</ele><time>2026-03-24T12:54:51.999Z</time></trkpt><trkpt lat="41.87868695545485" lon="12.486645400503471"><ele>45.599999999999994</ele><time>2026-03-24T12:54:52.999Z</time></trkpt><trkpt lat="41.878656081252856" lon="12.486548406846902"><ele>45.8</ele><time>2026-03-24T12:54:53.999Z</time></trkpt><trkpt lat="41.878612754657176" lon="12.48642173903437"><ele>46.0</ele><time>2026-03-24T12:54:54.999Z</time></trkpt><trkpt lat="41.878558179494995" lon="12.486271923666424"><ele>45.8</ele><time>2026-03-24T12:54:56Z</time></trkpt><trkpt lat="41.87850106989241" lon="12.486152475148753"><ele>45.599999999999994</ele><time>2026-03-24T12:54:57Z</time></trkpt><trkpt lat="41.878439750555" lon="12.486031947106277"><ele>45.4</ele><time>2026-03-24T12:54:58Z</time></trkpt><trkpt lat="41.87837612924897" lon="12.485909386854253"><ele>45.2</ele><time>2026-03-24T12:54:59Z</time></trkpt><trkpt lat="41.878317446588824" lon="12.485798933583004"><ele>45.0</ele><time>2026-03-24T12:55:00Z</time></trkpt><trkpt lat="41.87826456714301" lon="12.48569430159075"><ele>45.0</ele><time>2026-03-24T12:55:01Z</time></trkpt><trkpt lat="41.87821462792328" lon="12.485600489479346"><ele>45.0</ele><time>2026-03-24T12:55:02Z</time></trkpt><trkpt lat="41.87817189143236" lon="12.485511708150979"><ele>45.0</ele><time>2026-03-24T12:55:03Z</time></trkpt><trkpt lat="41.87818570153395" lon="12.485398672709245"><ele>45.0</ele><time>2026-03-24T12:55:04Z</time></trkpt><trkpt lat="41.87820454843417" lon="12.48528127782954"><ele>45.0</ele><time>2026-03-24T12:55:05Z</time></trkpt><trkpt lat="41.87823120821947" lon="12.48516855596273"><ele>45.0</ele><time>2026-03-24T12:55:06Z</time></trkpt><trkpt lat="41.87825382710427" lon="12.485062501331466"><ele>44.666666666666664</ele><time>2026-03-24T12:55:07Z</time></trkpt><trkpt lat="41.878288603759444" lon="12.484971228722612"><ele>44.333333333333336</ele><time>2026-03-24T12:55:08Z</time></trkpt><trkpt lat="41.87839396556168" lon="12.484931331449738"><ele>44.0</ele><time>2026-03-24T12:55:09Z</time></trkpt><trkpt lat="41.8784538650299" lon="12.484866509724448"><ele>43.66666666666667</ele><time>2026-03-24T12:55:10Z</time></trkpt><trkpt lat="41.878515196852156" lon="12.484834590785452"><ele>43.333333333333336</ele><time>2026-03-24T12:55:11Z</time></trkpt><trkpt lat="41.878582458946696" lon="12.484846448308078"><ele>43.0</ele><time>2026-03-24T12:55:12Z</time></trkpt><trkpt lat="41.87864784863797" lon="12.484889302214482"><ele>42.66666666666667</ele><time>2026-03-24T12:55:13Z</time></trkpt><trkpt lat="41.87872688474423" lon="12.484937865745245"><ele>42.333333333333336</ele><time>2026-03-24T12:55:14Z</time></trkpt><trkpt lat="41.87880408450134" lon="12.484984618008204"><ele>42.0</ele><time>2026-03-24T12:55:15Z</time></trkpt><trkpt lat="41.878877903654946" lon="12.48503715738316"><ele>41.666666666666664</ele><time>2026-03-24T12:55:16Z</time></trkpt><trkpt lat="41.87896094238147" lon="12.485093096530646"><ele>41.33333333333333</ele><time>2026-03-24T12:55:17Z</time></trkpt><trkpt lat="41.879037610849956" lon="12.48514102442175"><ele>41.0</ele><time>2026-03-24T12:55:18Z</time></trkpt><trkpt lat="41.87912384760555" lon="12.485156371785646"><ele>41.0</ele><time>2026-03-24T12:55:19Z</time></trkpt><trkpt lat="41.879219748335224" lon="12.485127246320374"><ele>41.0</ele><time>2026-03-24T12:55:20Z</time></trkpt><trkpt lat="41.87932718295531" lon="12.485072485660025"><ele>41.0</ele><time>2026-03-24T12:55:21Z</time></trkpt><trkpt lat="41.87944728764783" lon="12.485004767025565"><ele>41.0</ele><time>2026-03-24T12:55:22Z</time></trkpt><trkpt lat="41.87954784405443" lon="12.484951696345833"><ele>41.0</ele><time>2026-03-24T12:55:23Z</time></trkpt><trkpt lat="41.8796516639846" lon="12.484900178890074"><ele>41.0</ele><time>2026-03-24T12:55:24Z</time></trkpt><trkpt lat="41.87975233849538" lon="12.4848588898622"><ele>41.0</ele><time>2026-03-24T12:55:25Z</time></trkpt><trkpt lat="41.87984907535565" lon="12.484824064249263"><ele>41.0</ele><time>2026-03-24T12:55:26Z</time></trkpt><trkpt lat="41.87993185822598" lon="12.484784945092773"><ele>41.0</ele><time>2026-03-24T12:55:27Z</time></trkpt><trkpt lat="41.88000844751846" lon="12.484753261966178"><ele>40.99999999999999</ele><time>2026-03-24T12:55:28Z</time></trkpt><trkpt lat="41.88007724215254" lon="12.484720943914915"><ele>41.0</ele><time>2026-03-24T12:55:29Z</time></trkpt><trkpt lat="41.88014714437791" lon="12.484690075553981"><ele>41.0</ele><time>2026-03-24T12:55:30Z</time></trkpt><trkpt lat="41.88020724049751" lon="12.484656939834766"><ele>41.0</ele><time>2026-03-24T12:55:31Z</time></trkpt><trkpt lat="41.88028742564046" lon="12.4846106119127"><ele>41.0</ele><time>2026-03-24T12:55:33Z</time></trkpt><trkpt lat="41.88035484778876" lon="12.484569935435257"><ele>40.99999999999999</ele><time>2026-03-24T12:55:37Z</time></trkpt><trkpt lat="41.880424981519674" lon="12.48453536435604"><ele>41.0</ele><time>2026-03-24T12:55:42Z</time></trkpt><trkpt lat="41.88048562604611" lon="12.484495425341114"><ele>40.4</ele><time>2026-03-24T12:56:23.001Z</time></trkpt><trkpt lat="41.880588887380355" lon="12.48445951630717"><ele>39.8</ele><time>2026-03-24T12:56:25.001Z</time></trkpt><trkpt lat="41.88064907549892" lon="12.484538475592434"><ele>39.199999999999996</ele><time>2026-03-24T12:56:26.001Z</time></trkpt><trkpt lat="41.88070220844916" lon="12.484614303732705"><ele>38.599999999999994</ele><time>2026-03-24T12:56:27.001Z</time></trkpt><trkpt lat="41.88077491992755" lon="12.484707612327988"><ele>38.0</ele><time>2026-03-24T12:56:28.001Z</time></trkpt><trkpt lat="41.88083674041335" lon="12.484785561113059"><ele>38.0</ele><time>2026-03-24T12:56:29.001Z</time></trkpt><trkpt lat="41.880905370202996" lon="12.484869621004217"><ele>38.0</ele><time>2026-03-24T12:56:30.001Z</time></trkpt><trkpt lat="41.88097607049852" lon="12.48495645578392"><ele>38.0</ele><time>2026-03-24T12:56:31.001Z</time></trkpt><trkpt lat="41.88104656603159" lon="12.485048280355253"><ele>38.0</ele><time>2026-03-24T12:56:32.001Z</time></trkpt><trkpt lat="41.881121472367944" lon="12.485141957254088"><ele>38.0</ele><time>2026-03-24T12:56:33.001Z</time></trkpt><trkpt lat="41.88119056970767" lon="12.485233268853483"><ele>37.4</ele><time>2026-03-24T12:56:34.001Z</time></trkpt><trkpt lat="41.8812573570903" lon="12.485323136765452"><ele>36.8</ele><time>2026-03-24T12:56:35.001Z</time></trkpt><trkpt lat="41.88132974393269" lon="12.485424673241734"><ele>36.2</ele><time>2026-03-24T12:56:37.001Z</time></trkpt><trkpt lat="41.8813959345324" lon="12.485505537581908"><ele>35.6</ele><time>2026-03-24T12:56:39.001Z</time></trkpt><trkpt lat="41.88145413251387" lon="12.485582680136131"><ele>35.0</ele><time>2026-03-24T12:56:40.001Z</time></trkpt><trkpt lat="41.88153464832192" lon="12.485682947402582"><ele>35.0</ele><time>2026-03-24T12:56:41.001Z</time></trkpt><trkpt lat="41.88161043855545" lon="12.485776889861226"><ele>35.0</ele><time>2026-03-24T12:56:41.999Z</time></trkpt><trkpt lat="41.88171340690745" lon="12.485908384376268"><ele>35.0</ele><time>2026-03-24T12:56:42.999Z</time></trkpt><trkpt lat="41.881803455988205" lon="12.486023154427478"><ele>35.0</ele><time>2026-03-24T12:56:43.999Z</time></trkpt><trkpt lat="41.8818875319727" lon="12.48613147235203"><ele>35.0</ele><time>2026-03-24T12:56:44.999Z</time></trkpt><trkpt lat="41.881960492386064" lon="12.486232480564249"><ele>35.0</ele><time>2026-03-24T12:56:45.999Z</time></trkpt><trkpt lat="41.88204543318389" lon="12.486340755763512"><ele>35.0</ele><time>2026-03-24T12:56:46.999Z</time></trkpt><trkpt lat="41.88213831452589" lon="12.486465872922896"><ele>35.0</ele><time>2026-03-24T12:56:47.999Z</time></trkpt><trkpt lat="41.88225944336531" lon="12.486620176534236"><ele>33.33333333333333</ele><time>2026-03-24T12:56:48.999Z</time></trkpt><trkpt lat="41.882375242899904" lon="12.486764935195826"><ele>31.666666666666664</ele><time>2026-03-24T12:56:49.999Z</time></trkpt><trkpt lat="41.88251581354048" lon="12.4869466337838"><ele>30.0</ele><time>2026-03-24T12:56:50.999Z</time></trkpt><trkpt lat="41.88264166883726" lon="12.487104863906072"><ele>29.666666666666664</ele><time>2026-03-24T12:56:51.999Z</time></trkpt><trkpt lat="41.88275605176039" lon="12.487251046256505"><ele>29.333333333333332</ele><time>2026-03-24T12:56:52.999Z</time></trkpt><trkpt lat="41.882879548817385" lon="12.487401194876831"><ele>29.0</ele><time>2026-03-24T12:56:53.999Z</time></trkpt><trkpt lat="41.8829890405639" lon="12.487542307572609"><ele>29.0</ele><time>2026-03-24T12:56:54.999Z</time></trkpt><trkpt lat="41.883092650830285" lon="12.48767262683303"><ele>29.0</ele><time>2026-03-24T12:56:55.999Z</time></trkpt><trkpt lat="41.883196514709525" lon="12.487807630427696"><ele>29.0</ele><time>2026-03-24T12:56:56.999Z</time></trkpt><trkpt lat="41.8833210370237" lon="12.487964219486319"><ele>27.5</ele><time>2026-03-24T12:56:57.999Z</time></trkpt><trkpt lat="41.8834343988096" lon="12.488105219271832"><ele>26.0</ele><time>2026-03-24T12:56:58.999Z</time></trkpt><trkpt lat="41.883526778477446" lon="12.488223544097156"><ele>24.5</ele><time>2026-03-24T12:56:59.999Z</time></trkpt><trkpt lat="41.88361191796215" lon="12.488330011244923"><ele>23.0</ele><time>2026-03-24T12:57:01Z</time></trkpt><trkpt lat="41.883687544027424" lon="12.488424021630754"><ele>23.0</ele><time>2026-03-24T12:57:02Z</time></trkpt><trkpt lat="41.883748874105734" lon="12.48850188900198"><ele>23.0</ele><time>2026-03-24T12:57:03Z</time></trkpt><trkpt lat="41.88380765353678" lon="12.4885884113146"><ele>23.0</ele><time>2026-03-24T12:57:05Z</time></trkpt><trkpt lat="41.883855618746885" lon="12.488643791080797"><ele>23.0</ele><time>2026-03-24T12:57:22Z</time></trkpt><trkpt lat="41.88390745326607" lon="12.488705420869792"><ele>23.0</ele><time>2026-03-24T12:57:24Z</time></trkpt><trkpt lat="41.88396906659902" lon="12.488776512891608"><ele>23.0</ele><time>2026-03-24T12:57:26Z</time></trkpt><trkpt lat="41.88404452212767" lon="12.488861072441033"><ele>23.166666666666668</ele><time>2026-03-24T12:57:28Z</time></trkpt><trkpt lat="41.884137034594374" lon="12.488955629713347"><ele>23.333333333333336</ele><time>2026-03-24T12:57:30Z</time></trkpt><trkpt lat="41.88419175352516" lon="12.489009135543151"><ele>23.5</ele><time>2026-03-24T12:57:31Z</time></trkpt><trkpt lat="41.88425655023849" lon="12.489063832988368"><ele>23.666666666666668</ele><time>2026-03-24T12:57:32Z</time></trkpt><trkpt lat="41.884324707131334" lon="12.489119752921509"><ele>23.833333333333332</ele><time>2026-03-24T12:57:33Z</time></trkpt><trkpt lat="41.884392571029224" lon="12.489179943642215"><ele>24.0</ele><time>2026-03-24T12:57:34Z</time></trkpt><trkpt lat="41.884461919706084" lon="12.489240405678022"><ele>24.2</ele><time>2026-03-24T12:57:35Z</time></trkpt><trkpt lat="41.88453340772523" lon="12.489238432682777"><ele>24.4</ele><time>2026-03-24T12:57:38Z</time></trkpt><trkpt lat="41.884606232548265" lon="12.489266227973486"><ele>24.6</ele><time>2026-03-24T12:57:51Z</time></trkpt><trkpt lat="41.88473018778231" lon="12.48930921657228"><ele>24.8</ele><time>2026-03-24T12:57:53Z</time></trkpt><trkpt lat="41.884772936084865" lon="12.489391367032548"><ele>25.0</ele><time>2026-03-24T12:57:54Z</time></trkpt><trkpt lat="41.884862423885856" lon="12.489299663975968"><ele>25.0</ele><time>2026-03-24T12:57:56Z</time></trkpt><trkpt lat="41.88495169105805" lon="12.489179875324638"><ele>25.0</ele><time>2026-03-24T12:57:59Z</time></trkpt><trkpt lat="41.88500635687206" lon="12.48906220034988"><ele>25.0</ele><time>2026-03-24T12:58:00Z</time></trkpt><trkpt lat="41.88506835439605" lon="12.488952714779384"><ele>25.0</ele><time>2026-03-24T12:58:01Z</time></trkpt><trkpt lat="41.88512310788798" lon="12.488818407100208"><ele>25.0</ele><time>2026-03-24T12:58:03Z</time></trkpt><trkpt lat="41.885165773693515" lon="12.488741731655024"><ele>25.666666666666668</ele><time>2026-03-24T12:58:04Z</time></trkpt><trkpt lat="41.88525493699063" lon="12.488606750603063"><ele>26.333333333333336</ele><time>2026-03-24T12:58:05Z</time></trkpt><trkpt lat="41.88535254091914" lon="12.488410232787718"><ele>27.0</ele><time>2026-03-24T12:58:06Z</time></trkpt><trkpt lat="41.88545152931969" lon="12.488227842501162"><ele>27.0</ele><time>2026-03-24T12:58:07Z</time></trkpt><trkpt lat="41.88556026379971" lon="12.488026875992835"><ele>27.0</ele><time>2026-03-24T12:58:08Z</time></trkpt><trkpt lat="41.88567915744777" lon="12.487805462459104"><ele>27.0</ele><time>2026-03-24T12:58:09Z</time></trkpt><trkpt lat="41.88578083191861" lon="12.487621897519993"><ele>25.666666666666668</ele><time>2026-03-24T12:58:10Z</time></trkpt><trkpt lat="41.88586920926756" lon="12.487427280503251"><ele>24.333333333333336</ele><time>2026-03-24T12:58:11Z</time></trkpt><trkpt lat="41.88599052821543" lon="12.487242078963053"><ele>23.0</ele><time>2026-03-24T12:58:12Z</time></trkpt><trkpt lat="41.886110037242766" lon="12.487023950352022"><ele>26.333333333333336</ele><time>2026-03-24T12:58:13Z</time></trkpt><trkpt lat="41.88622444103039" lon="12.486811982106532"><ele>29.666666666666668</ele><time>2026-03-24T12:58:14Z</time></trkpt><trkpt lat="41.88632540706742" lon="12.486622161863833"><ele>33.0</ele><time>2026-03-24T12:58:15Z</time></trkpt><trkpt lat="41.8864520307417" lon="12.48638506799745"><ele>31.0</ele><time>2026-03-24T12:58:16.001Z</time></trkpt><trkpt lat="41.8865523427505" lon="12.486181714502806"><ele>29.0</ele><time>2026-03-24T12:58:17.001Z</time></trkpt><trkpt lat="41.88664921181683" lon="12.486005743394387"><ele>27.0</ele><time>2026-03-24T12:58:18.001Z</time></trkpt><trkpt lat="41.886731817596655" lon="12.485852440556384"><ele>27.0</ele><time>2026-03-24T12:58:19.001Z</time></trkpt><trkpt lat="41.88680355985033" lon="12.485715525290262"><ele>27.000000000000004</ele><time>2026-03-24T12:58:20.001Z</time></trkpt><trkpt lat="41.88686945689852" lon="12.485596368533079"><ele>27.000000000000004</ele><time>2026-03-24T12:58:21.001Z</time></trkpt><trkpt lat="41.88692353257963" lon="12.48549783839505"><ele>27.0</ele><time>2026-03-24T12:58:22.001Z</time></trkpt><trkpt lat="41.886964303412654" lon="12.485412917596127"><ele>27.0</ele><time>2026-03-24T12:58:23.001Z</time></trkpt><trkpt lat="41.887004592867136" lon="12.485321703131651"><ele>27.0</ele><time>2026-03-24T12:58:24.001Z</time></trkpt><trkpt lat="41.88704874094395" lon="12.48523039187598"><ele>27.0</ele><time>2026-03-24T12:58:25.001Z</time></trkpt><trkpt lat="41.88709409539016" lon="12.485135775687546"><ele>27.0</ele><time>2026-03-24T12:58:26.001Z</time></trkpt><trkpt lat="41.88713647197012" lon="12.485046394279296"><ele>27.0</ele><time>2026-03-24T12:58:27.001Z</time></trkpt><trkpt lat="41.887218584039616" lon="12.484924791888867"><ele>27.0</ele><time>2026-03-24T12:58:29.001Z</time></trkpt><trkpt lat="41.887264877376154" lon="12.484837481280238"><ele>27.0</ele><time>2026-03-24T12:58:30.001Z</time></trkpt><trkpt lat="41.88731146631482" lon="12.484750747462908"><ele>27.0</ele><time>2026-03-24T12:58:31.001Z</time></trkpt><trkpt lat="41.88736078741337" lon="12.484659943687454"><ele>27.000000000000004</ele><time>2026-03-24T12:58:32.001Z</time></trkpt><trkpt lat="41.88743234110962" lon="12.48453163739867"><ele>27.000000000000004</ele><time>2026-03-24T12:58:34.001Z</time></trkpt><trkpt lat="41.88747534367337" lon="12.48443040290028"><ele>27.0</ele><time>2026-03-24T12:58:36.001Z</time></trkpt><trkpt lat="41.88754058223304" lon="12.484311816360552"><ele>27.0</ele><time>2026-03-24T12:58:38.001Z</time></trkpt><trkpt lat="41.88760177975257" lon="12.48420678132723"><ele>26.666666666666668</ele><time>2026-03-24T12:58:39.001Z</time></trkpt><trkpt lat="41.88764489895478" lon="12.484134752772581"><ele>26.333333333333336</ele><time>2026-03-24T12:58:40.001Z</time></trkpt><trkpt lat="41.887696410518174" lon="12.484043668039948"><ele>26.0</ele><time>2026-03-24T12:58:41.001Z</time></trkpt><trkpt lat="41.88774948656446" lon="12.483946418743884"><ele>25.666666666666668</ele><time>2026-03-24T12:58:42.001Z</time></trkpt><trkpt lat="41.887810417498905" lon="12.483859057467123"><ele>25.333333333333336</ele><time>2026-03-24T12:58:43.001Z</time></trkpt><trkpt lat="41.88786514657757" lon="12.483769722528415"><ele>25.0</ele><time>2026-03-24T12:58:44.001Z</time></trkpt><trkpt lat="41.88791951298526" lon="12.483689039397262"><ele>25.000000000000004</ele><time>2026-03-24T12:58:45.001Z</time></trkpt><trkpt lat="41.88796004070578" lon="12.483622029007753"><ele>25.0</ele><time>2026-03-24T12:58:46.001Z</time></trkpt><trkpt lat="41.88800495149436" lon="12.483546044162788"><ele>25.0</ele><time>2026-03-24T12:58:46.999Z</time></trkpt><trkpt lat="41.888052937281515" lon="12.48346335958333"><ele>25.0</ele><time>2026-03-24T12:58:47.999Z</time></trkpt><trkpt lat="41.8881135458398" lon="12.48336326685364"><ele>25.000000000000004</ele><time>2026-03-24T12:58:48.999Z</time></trkpt><trkpt lat="41.888163052803556" lon="12.483278166995724"><ele>25.0</ele><time>2026-03-24T12:58:49.999Z</time></trkpt><trkpt lat="41.888211281125926" lon="12.483206152975328"><ele>25.000000000000004</ele><time>2026-03-24T12:58:50.999Z</time></trkpt><trkpt lat="41.888267835589176" lon="12.483139105591786"><ele>25.0</ele><time>2026-03-24T12:58:51.999Z</time></trkpt><trkpt lat="41.88834084834173" lon="12.483043478852078"><ele>25.0</ele><time>2026-03-24T12:58:52.999Z</time></trkpt><trkpt lat="41.888399312591474" lon="12.48293763940904"><ele>25.0</ele><time>2026-03-24T12:58:53.999Z</time></trkpt><trkpt lat="41.88844988318979" lon="12.48284973752108"><ele>25.000000000000004</ele><time>2026-03-24T12:58:54.999Z</time></trkpt><trkpt lat="41.888494314420086" lon="12.48276979938204"><ele>25.0</ele><time>2026-03-24T12:58:55.999Z</time></trkpt><trkpt lat="41.88853448987175" lon="12.482702736324185"><ele>25.2</ele><time>2026-03-24T12:58:56.999Z</time></trkpt><trkpt lat="41.88862525420819" lon="12.482568123040597"><ele>25.4</ele><time>2026-03-24T12:58:58.999Z</time></trkpt><trkpt lat="41.888682151214766" lon="12.482492282462147"><ele>25.6</ele><time>2026-03-24T12:58:59.999Z</time></trkpt><trkpt lat="41.88874778485178" lon="12.482400598263952"><ele>25.8</ele><time>2026-03-24T12:59:00.999Z</time></trkpt><trkpt lat="41.88881839326134" lon="12.482296710272296"><ele>26.0</ele><time>2026-03-24T12:59:01.999Z</time></trkpt><trkpt lat="41.8888805419956" lon="12.482202774246172"><ele>25.999999999999996</ele><time>2026-03-24T12:59:02.999Z</time></trkpt><trkpt lat="41.88894093063079" lon="12.482120052491215"><ele>26.0</ele><time>2026-03-24T12:59:03.999Z</time></trkpt><trkpt lat="41.88898259413182" lon="12.48203335822934"><ele>26.0</ele><time>2026-03-24T12:59:04.999Z</time></trkpt><trkpt lat="41.88902125810254" lon="12.481934229388726"><ele>26.0</ele><time>2026-03-24T12:59:05.999Z</time></trkpt><trkpt lat="41.88905273848123" lon="12.481830260058377"><ele>25.999999999999996</ele><time>2026-03-24T12:59:07Z</time></trkpt><trkpt lat="41.88909373276324" lon="12.481731307698015"><ele>26.0</ele><time>2026-03-24T12:59:08Z</time></trkpt><trkpt lat="41.8891426413591" lon="12.481637668240332"><ele>25.4</ele><time>2026-03-24T12:59:09Z</time></trkpt><trkpt lat="41.889185250142006" lon="12.481558173748057"><ele>24.8</ele><time>2026-03-24T12:59:10Z</time></trkpt><trkpt lat="41.88920416587647" lon="12.481467883229655"><ele>24.2</ele><time>2026-03-24T12:59:11Z</time></trkpt><trkpt lat="41.889263696048666" lon="12.481312050873482"><ele>23.599999999999998</ele><time>2026-03-24T12:59:13Z</time></trkpt><trkpt lat="41.88929812744543" lon="12.481224117041737"><ele>23.0</ele><time>2026-03-24T12:59:14Z</time></trkpt><trkpt lat="41.889456762828246" lon="12.48119198637141"><ele>22.5</ele><time>2026-03-24T12:59:15Z</time></trkpt><trkpt lat="41.88957674740607" lon="12.481142619457371"><ele>22.0</ele><time>2026-03-24T12:59:16Z</time></trkpt><trkpt lat="41.889703005987734" lon="12.481088842656654"><ele>21.5</ele><time>2026-03-24T12:59:17Z</time></trkpt><trkpt lat="41.88980790673821" lon="12.481044211733355"><ele>21.0</ele><time>2026-03-24T12:59:18Z</time></trkpt><trkpt lat="41.889902253239605" lon="12.481001778388238"><ele>21.0</ele><time>2026-03-24T12:59:19Z</time></trkpt><trkpt lat="41.88999389009803" lon="12.480980763758893"><ele>21.0</ele><time>2026-03-24T12:59:20Z</time></trkpt><trkpt lat="41.89008960676587" lon="12.480938065060633"><ele>21.0</ele><time>2026-03-24T12:59:21Z</time></trkpt><trkpt lat="41.8901918546855" lon="12.48089960852742"><ele>21.0</ele><time>2026-03-24T12:59:22Z</time></trkpt><trkpt lat="41.89027976535689" lon="12.48086495651696"><ele>21.0</ele><time>2026-03-24T12:59:23Z</time></trkpt><trkpt lat="41.89035481490112" lon="12.480831979397975"><ele>20.6</ele><time>2026-03-24T12:59:24Z</time></trkpt><trkpt lat="41.89045177884225" lon="12.480763345749525"><ele>20.200000000000003</ele><time>2026-03-24T12:59:26Z</time></trkpt><trkpt lat="41.890550437986775" lon="12.48070945862829"><ele>19.799999999999997</ele><time>2026-03-24T12:59:28Z</time></trkpt><trkpt lat="41.89063490919583" lon="12.480697900250156"><ele>19.4</ele><time>2026-03-24T12:59:30Z</time></trkpt><trkpt lat="41.89070140263379" lon="12.480690920967833"><ele>19.0</ele><time>2026-03-24T12:59:34Z</time></trkpt><trkpt lat="41.890839936987376" lon="12.480644810243248"><ele>20.2</ele><time>2026-03-24T12:59:56Z</time></trkpt><trkpt lat="41.89093794839669" lon="12.480582211827178"><ele>21.4</ele><time>2026-03-24T12:59:57Z</time></trkpt><trkpt lat="41.89102773347491" lon="12.480543670057669"><ele>22.6</ele><time>2026-03-24T12:59:58Z</time></trkpt><trkpt lat="41.89112293056137" lon="12.480503099674591"><ele>23.8</ele><time>2026-03-24T12:59:59Z</time></trkpt><trkpt lat="41.89123489623434" lon="12.480456186287995"><ele>25.0</ele><time>2026-03-24T13:00:00Z</time></trkpt><trkpt lat="41.89135073274261" lon="12.480412484605852"><ele>25.0</ele><time>2026-03-24T13:00:01Z</time></trkpt><trkpt lat="41.891449547255895" lon="12.48037643694958"><ele>25.0</ele><time>2026-03-24T13:00:02Z</time></trkpt><trkpt lat="41.891546680699726" lon="12.480349509646931"><ele>25.0</ele><time>2026-03-24T13:00:03Z</time></trkpt><trkpt lat="41.89164320786129" lon="12.480331548864227"><ele>25.0</ele><time>2026-03-24T13:00:04Z</time></trkpt><trkpt lat="41.891734237097126" lon="12.480324862719712"><ele>25.0</ele><time>2026-03-24T13:00:05Z</time></trkpt><trkpt lat="41.891813433250874" lon="12.48032658897009"><ele>24.833333333333336</ele><time>2026-03-24T13:00:06Z</time></trkpt><trkpt lat="41.891886777426734" lon="12.480350690442416"><ele>24.666666666666668</ele><time>2026-03-24T13:00:07Z</time></trkpt><trkpt lat="41.891964545996224" lon="12.480379265077524"><ele>24.5</ele><time>2026-03-24T13:00:08Z</time></trkpt><trkpt lat="41.89203948948156" lon="12.48041035901727"><ele>24.333333333333336</ele><time>2026-03-24T13:00:09Z</time></trkpt><trkpt lat="41.89210819608703" lon="12.480439640247779"><ele>24.166666666666668</ele><time>2026-03-24T13:00:10Z</time></trkpt><trkpt lat="41.89221329260669" lon="12.48048443008757"><ele>24.0</ele><time>2026-03-24T13:00:12Z</time></trkpt><trkpt lat="41.89230987505046" lon="12.480525761629819"><ele>25.0</ele><time>2026-03-24T13:00:14Z</time></trkpt><trkpt lat="41.89237593267375" lon="12.480554942323856"><ele>26.0</ele><time>2026-03-24T13:00:15.001Z</time></trkpt><trkpt lat="41.89245030644257" lon="12.480591818936864"><ele>27.0</ele><time>2026-03-24T13:00:16.001Z</time></trkpt><trkpt lat="41.89253035001821" lon="12.480652351233644"><ele>28.0</ele><time>2026-03-24T13:00:17.001Z</time></trkpt><trkpt lat="41.892599264785616" lon="12.480699288452058"><ele>29.0</ele><time>2026-03-24T13:00:18.001Z</time></trkpt><trkpt lat="41.89266359502682" lon="12.480760222164111"><ele>30.0</ele><time>2026-03-24T13:00:19.001Z</time></trkpt><trkpt lat="41.892737879724905" lon="12.48080685652622"><ele>30.333333333333332</ele><time>2026-03-24T13:00:20.001Z</time></trkpt><trkpt lat="41.892800543384524" lon="12.480879344080114"><ele>30.666666666666664</ele><time>2026-03-24T13:00:21.001Z</time></trkpt><trkpt lat="41.892856953420576" lon="12.48095662463208"><ele>31.0</ele><time>2026-03-24T13:00:22.001Z</time></trkpt><trkpt lat="41.89291248811196" lon="12.481036197277634"><ele>31.333333333333332</ele><time>2026-03-24T13:00:23.001Z</time></trkpt><trkpt lat="41.892958333477715" lon="12.481131025610985"><ele>31.666666666666664</ele><time>2026-03-24T13:00:24.001Z</time></trkpt><trkpt lat="41.89301732502254" lon="12.481207742856776"><ele>32.0</ele><time>2026-03-24T13:00:25.001Z</time></trkpt><trkpt lat="41.8930748534858" lon="12.481279676246867"><ele>32.166666666666664</ele><time>2026-03-24T13:00:26.001Z</time></trkpt><trkpt lat="41.893135006270754" lon="12.481348919376032"><ele>32.33333333333333</ele><time>2026-03-24T13:00:27.001Z</time></trkpt><trkpt lat="41.893189687426734" lon="12.48141100025586"><ele>32.5</ele><time>2026-03-24T13:00:28.001Z</time></trkpt><trkpt lat="41.89327547692724" lon="12.481514089862596"><ele>32.666666666666664</ele><time>2026-03-24T13:00:30.001Z</time></trkpt><trkpt lat="41.89333111343562" lon="12.481580553276972"><ele>32.833333333333336</ele><time>2026-03-24T13:00:32.001Z</time></trkpt><trkpt lat="41.89340138544134" lon="12.481639658241312"><ele>33.0</ele><time>2026-03-24T13:00:38.001Z</time></trkpt><trkpt lat="41.893463942545665" lon="12.48170960972995"><ele>33.0</ele><time>2026-03-24T13:00:39.001Z</time></trkpt><trkpt lat="41.893519330392245" lon="12.481764856357897"><ele>33.0</ele><time>2026-03-24T13:00:40.001Z</time></trkpt><trkpt lat="41.89357559222533" lon="12.481809031462122"><ele>33.0</ele><time>2026-03-24T13:00:41.001Z</time></trkpt><trkpt lat="41.89367504872471" lon="12.481853283822025"><ele>33.0</ele><time>2026-03-24T13:00:43.001Z</time></trkpt><trkpt lat="41.89379130619594" lon="12.48187728199116"><ele>33.0</ele><time>2026-03-24T13:00:45.001Z</time></trkpt><trkpt lat="41.89386124493253" lon="12.48189442108985"><ele>33.0</ele><time>2026-03-24T13:00:46.001Z</time></trkpt><trkpt lat="41.8939356712037" lon="12.481920479389988"><ele>33.0</ele><time>2026-03-24T13:00:47.001Z</time></trkpt><trkpt lat="41.89402130060702" lon="12.481919449893914"><ele>33.0</ele><time>2026-03-24T13:00:48.001Z</time></trkpt><trkpt lat="41.89411989913384" lon="12.481944863556953"><ele>33.0</ele><time>2026-03-24T13:00:49.001Z</time></trkpt><trkpt lat="41.894210049942146" lon="12.481987455394462"><ele>33.0</ele><time>2026-03-24T13:00:50.001Z</time></trkpt><trkpt lat="41.894284857723314" lon="12.482045003275973"><ele>33.0</ele><time>2026-03-24T13:00:51.001Z</time></trkpt><trkpt lat="41.89436588812552" lon="12.48206344965258"><ele>32.166666666666664</ele><time>2026-03-24T13:00:52.001Z</time></trkpt><trkpt lat="41.89444597344934" lon="12.48207365586624"><ele>31.333333333333336</ele><time>2026-03-24T13:00:53Z</time></trkpt><trkpt lat="41.894522064261565" lon="12.482082343052346"><ele>30.5</ele><time>2026-03-24T13:00:54Z</time></trkpt><trkpt lat="41.89459481043454" lon="12.482090037400283"><ele>29.666666666666668</ele><time>2026-03-24T13:00:55Z</time></trkpt><trkpt lat="41.8946646998126" lon="12.48209703958366"><ele>28.833333333333336</ele><time>2026-03-24T13:00:56Z</time></trkpt><trkpt lat="41.89477497739978" lon="12.482101565121612"><ele>28.0</ele><time>2026-03-24T13:00:58Z</time></trkpt><trkpt lat="41.89485007498659" lon="12.48209642821858"><ele>27.666666666666668</ele><time>2026-03-24T13:01:00Z</time></trkpt><trkpt lat="41.89492299874546" lon="12.482080528389224"><ele>27.333333333333336</ele><time>2026-03-24T13:01:02Z</time></trkpt><trkpt lat="41.894990049226315" lon="12.48206389011467"><ele>27.0</ele><time>2026-03-24T13:01:04Z</time></trkpt><trkpt lat="41.89505166035531" lon="12.482045712631768"><ele>26.666666666666664</ele><time>2026-03-24T13:01:06Z</time></trkpt><trkpt lat="41.89512241498277" lon="12.482056596386906"><ele>26.333333333333332</ele><time>2026-03-24T13:01:08Z</time></trkpt><trkpt lat="41.89525143963688" lon="12.48214784427443"><ele>26.0</ele><time>2026-03-24T13:01:29Z</time></trkpt><trkpt lat="41.89535290233403" lon="12.48223665783504"><ele>26.0</ele><time>2026-03-24T13:01:31Z</time></trkpt><trkpt lat="41.89540687208541" lon="12.482287817593889"><ele>26.0</ele><time>2026-03-24T13:01:32Z</time></trkpt><trkpt lat="41.89548984460921" lon="12.482608565515315"><ele>26.0</ele><time>2026-03-24T13:01:34Z</time></trkpt><trkpt lat="41.89555876304549" lon="12.482640003346942"><ele>26.0</ele><time>2026-03-24T13:01:35Z</time></trkpt><trkpt lat="41.895752820459684" lon="12.482335625452087"><ele>25.999999999999996</ele><time>2026-03-24T13:01:36Z</time></trkpt><trkpt lat="41.89582631000656" lon="12.482301732448738"><ele>26.0</ele><time>2026-03-24T13:01:37Z</time></trkpt><trkpt lat="41.895904036834644" lon="12.482265885032191"><ele>26.0</ele><time>2026-03-24T13:01:38Z</time></trkpt><trkpt lat="41.89597269265111" lon="12.482234221135979"><ele>26.0</ele><time>2026-03-24T13:01:39Z</time></trkpt><trkpt lat="41.896089724230094" lon="12.48218651424878"><ele>25.999999999999996</ele><time>2026-03-24T13:01:41Z</time></trkpt><trkpt lat="41.896153497344095" lon="12.482162871537284"><ele>26.0</ele><time>2026-03-24T13:01:42Z</time></trkpt><trkpt lat="41.89626675853442" lon="12.482120882028406"><ele>26.666666666666664</ele><time>2026-03-24T13:01:44Z</time></trkpt><trkpt lat="41.896372599553516" lon="12.482081643409462"><ele>27.333333333333332</ele><time>2026-03-24T13:01:46Z</time></trkpt><trkpt lat="41.89645028930794" lon="12.482052841331726"><ele>28.0</ele><time>2026-03-24T13:01:48Z</time></trkpt><trkpt lat="41.896518664311486" lon="12.482027492594712"><ele>28.666666666666664</ele><time>2026-03-24T13:01:50Z</time></trkpt><trkpt lat="41.896589170242834" lon="12.482051044079956"><ele>29.333333333333332</ele><time>2026-03-24T13:01:54Z</time></trkpt><trkpt lat="41.89664785196612" lon="12.48217433458299"><ele>30.0</ele><time>2026-03-24T13:01:57Z</time></trkpt><trkpt lat="41.896681326502645" lon="12.482336421827403"><ele>30.333333333333332</ele><time>2026-03-24T13:01:59.001Z</time></trkpt><trkpt lat="41.896694949293774" lon="12.482423178992596"><ele>30.666666666666664</ele><time>2026-03-24T13:02:00.001Z</time></trkpt><trkpt lat="41.8967067149088" lon="12.48251508601323"><ele>31.0</ele><time>2026-03-24T13:02:01.001Z</time></trkpt><trkpt lat="41.89672620272467" lon="12.482620985292005"><ele>31.333333333333332</ele><time>2026-03-24T13:02:02.001Z</time></trkpt><trkpt lat="41.8967448493217" lon="12.482741441550772"><ele>31.666666666666664</ele><time>2026-03-24T13:02:03.001Z</time></trkpt><trkpt lat="41.8967709668157" lon="12.482874118032136"><ele>32.0</ele><time>2026-03-24T13:02:04.001Z</time></trkpt><trkpt lat="41.8967878801753" lon="12.48297982802166"><ele>32.0</ele><time>2026-03-24T13:02:05.001Z</time></trkpt><trkpt lat="41.896808157943894" lon="12.483108825789353"><ele>32.0</ele><time>2026-03-24T13:02:07.001Z</time></trkpt><trkpt lat="41.896827637313656" lon="12.483201292353924"><ele>32.0</ele><time>2026-03-24T13:02:09.001Z</time></trkpt><trkpt lat="41.8968369937347" lon="12.48332397757988"><ele>32.0</ele><time>2026-03-24T13:02:11.001Z</time></trkpt><trkpt lat="41.8968611865354" lon="12.483461388398652"><ele>32.0</ele><time>2026-03-24T13:02:13.001Z</time></trkpt><trkpt lat="41.896892259969896" lon="12.483618109163704"><ele>31.999999999999996</ele><time>2026-03-24T13:02:15.001Z</time></trkpt><trkpt lat="41.89690853713234" lon="12.483701497848331"><ele>32.0</ele><time>2026-03-24T13:02:16.001Z</time></trkpt><trkpt lat="41.89692459374314" lon="12.483786107601631"><ele>32.0</ele><time>2026-03-24T13:02:17.001Z</time></trkpt><trkpt lat="41.896951377897814" lon="12.48388808499799"><ele>32.0</ele><time>2026-03-24T13:02:19.001Z</time></trkpt><trkpt lat="41.89698191890632" lon="12.48402734131248"><ele>31.999999999999996</ele><time>2026-03-24T13:02:21.001Z</time></trkpt><trkpt lat="41.89700888219408" lon="12.48411845303729"><ele>32.0</ele><time>2026-03-24T13:02:22.001Z</time></trkpt><trkpt lat="41.897034662895805" lon="12.484225171075622"><ele>31.999999999999996</ele><time>2026-03-24T13:02:23.001Z</time></trkpt><trkpt lat="41.89705938537635" lon="12.484335134558375"><ele>32.0</ele><time>2026-03-24T13:02:24.001Z</time></trkpt><trkpt lat="41.89708418311434" lon="12.484442424595702"><ele>32.0</ele><time>2026-03-24T13:02:25.001Z</time></trkpt><trkpt lat="41.89710777113446" lon="12.484557619812081"><ele>32.0</ele><time>2026-03-24T13:02:26.001Z</time></trkpt><trkpt lat="41.89713729478619" lon="12.484667780070422"><ele>31.999999999999996</ele><time>2026-03-24T13:02:27.001Z</time></trkpt><trkpt lat="41.89716201295392" lon="12.48475636645915"><ele>32.0</ele><time>2026-03-24T13:02:28.001Z</time></trkpt><trkpt lat="41.897185083016474" lon="12.484864746329817"><ele>34.0</ele><time>2026-03-24T13:02:30.001Z</time></trkpt><trkpt lat="41.89720892989599" lon="12.484974000837497"><ele>36.0</ele><time>2026-03-24T13:02:33.001Z</time></trkpt><trkpt lat="41.8971551785113" lon="12.485104905095485"><ele>38.0</ele><time>2026-03-24T13:02:36.001Z</time></trkpt><trkpt lat="41.89708940814867" lon="12.485144134723166"><ele>40.0</ele><time>2026-03-24T13:02:37.001Z</time></trkpt><trkpt lat="41.897010111834646" lon="12.485190605359515"><ele>42.0</ele><time>2026-03-24T13:02:38.001Z</time></trkpt><trkpt lat="41.89691791957655" lon="12.485242638215137"><ele>42.0</ele><time>2026-03-24T13:02:39.001Z</time></trkpt><trkpt lat="41.89683520004406" lon="12.485270874403431"><ele>42.0</ele><time>2026-03-24T13:02:40.001Z</time></trkpt><trkpt lat="41.896741818996325" lon="12.485288758869185"><ele>42.0</ele><time>2026-03-24T13:02:41.001Z</time></trkpt><trkpt lat="41.89667696478758" lon="12.485317211929354"><ele>42.0</ele><time>2026-03-24T13:02:42.001Z</time></trkpt><trkpt lat="41.89660747443862" lon="12.485342702605154"><ele>42.0</ele><time>2026-03-24T13:02:43.001Z</time></trkpt><trkpt lat="41.89654356215971" lon="12.485379237712543"><ele>42.0</ele><time>2026-03-24T13:02:44.001Z</time></trkpt><trkpt lat="41.89648235291414" lon="12.485405811160074"><ele>43.0</ele><time>2026-03-24T13:02:45.001Z</time></trkpt><trkpt lat="41.89638194268286" lon="12.485440778856516"><ele>44.0</ele><time>2026-03-24T13:02:47.001Z</time></trkpt><trkpt lat="41.896304825794275" lon="12.48546392558846"><ele>45.0</ele><time>2026-03-24T13:02:49.001Z</time></trkpt><trkpt lat="41.89623776133671" lon="12.485508257155239"><ele>46.0</ele><time>2026-03-24T13:02:52.001Z</time></trkpt><trkpt lat="41.89619578461474" lon="12.48561263846268"><ele>47.0</ele><time>2026-03-24T13:02:56.001Z</time></trkpt><trkpt lat="41.896211686205966" lon="12.485727909130077"><ele>48.0</ele><time>2026-03-24T13:02:58.001Z</time></trkpt><trkpt lat="41.89621565595973" lon="12.485820185254077"><ele>48.0</ele><time>2026-03-24T13:03:01Z</time></trkpt><trkpt lat="41.896222404862385" lon="12.485926622415041"><ele>48.0</ele><time>2026-03-24T13:03:04Z</time></trkpt><trkpt lat="41.896232230501276" lon="12.486027125133472"><ele>48.0</ele><time>2026-03-24T13:03:06Z</time></trkpt><trkpt lat="41.89623820641283" lon="12.48614687352824"><ele>48.0</ele><time>2026-03-24T13:03:08Z</time></trkpt><trkpt lat="41.896240302930806" lon="12.48625607446493"><ele>48.0</ele><time>2026-03-24T13:03:10Z</time></trkpt><trkpt lat="41.896234132519275" lon="12.486383477580441"><ele>48.0</ele><time>2026-03-24T13:03:12Z</time></trkpt><trkpt lat="41.89624253118963" lon="12.486484205574023"><ele>48.333333333333336</ele><time>2026-03-24T13:03:15Z</time></trkpt><trkpt lat="41.89625322090806" lon="12.486573706168135"><ele>48.66666666666667</ele><time>2026-03-24T13:03:20Z</time></trkpt><trkpt lat="41.89628017238178" lon="12.486656656469577"><ele>49.0</ele><time>2026-03-24T13:03:27Z</time></trkpt><trkpt lat="41.89625230077541" lon="12.486803652033483"><ele>49.333333333333336</ele><time>2026-03-24T13:03:29Z</time></trkpt><trkpt lat="41.89628299550055" lon="12.486882526686596"><ele>49.66666666666667</ele><time>2026-03-24T13:03:30Z</time></trkpt><trkpt lat="41.89633389880933" lon="12.486980251760148"><ele>50.0</ele><time>2026-03-24T13:03:32Z</time></trkpt><trkpt lat="41.89643650380875" lon="12.487010606596707"><ele>50.00000000000001</ele><time>2026-03-24T13:03:34Z</time></trkpt><trkpt lat="41.896534908610846" lon="12.486993285794851"><ele>50.0</ele><time>2026-03-24T13:03:36Z</time></trkpt><trkpt lat="41.89659844594806" lon="12.48701351943897"><ele>50.0</ele><time>2026-03-24T13:03:38Z</time></trkpt><trkpt lat="41.89666483718148" lon="12.487005815136351"><ele>50.0</ele><time>2026-03-24T13:03:40Z</time></trkpt><trkpt lat="41.89673508778772" lon="12.486986947043157"><ele>50.00000000000001</ele><time>2026-03-24T13:03:41Z</time></trkpt><trkpt lat="41.8968181382543" lon="12.487025084916839"><ele>50.0</ele><time>2026-03-24T13:03:42Z</time></trkpt><trkpt lat="41.89688478711585" lon="12.487009146964944"><ele>51.5</ele><time>2026-03-24T13:03:43Z</time></trkpt><trkpt lat="41.89699879440442" lon="12.486994142120668"><ele>53.0</ele><time>2026-03-24T13:03:45Z</time></trkpt><trkpt lat="41.897109034531624" lon="12.486979479028895"><ele>54.5</ele><time>2026-03-24T13:03:47Z</time></trkpt><trkpt lat="41.89720745691508" lon="12.486953890934002"><ele>56.0</ele><time>2026-03-24T13:03:49Z</time></trkpt><trkpt lat="41.89733050682764" lon="12.486926109113636"><ele>56.0</ele><time>2026-03-24T13:03:51Z</time></trkpt><trkpt lat="41.89744438248194" lon="12.486900879161254"><ele>55.99999999999999</ele><time>2026-03-24T13:03:53Z</time></trkpt><trkpt lat="41.89751985799331" lon="12.486865521704102"><ele>55.99999999999999</ele><time>2026-03-24T13:03:55Z</time></trkpt><trkpt lat="41.89761705945099" lon="12.486831699823586"><ele>56.0</ele><time>2026-03-24T13:03:57Z</time></trkpt><trkpt lat="41.897725759492396" lon="12.486821920278532"><ele>56.0</ele><time>2026-03-24T13:04:04Z</time></trkpt><trkpt lat="41.89779572273768" lon="12.486811353646955"><ele>55.16666666666667</ele><time>2026-03-24T13:04:05Z</time></trkpt><trkpt lat="41.897875546701734" lon="12.486794765419328"><ele>54.333333333333336</ele><time>2026-03-24T13:04:06Z</time></trkpt><trkpt lat="41.89799513296853" lon="12.486782489663604"><ele>53.5</ele><time>2026-03-24T13:04:08Z</time></trkpt><trkpt lat="41.898068315869324" lon="12.486774762376763"><ele>52.66666666666667</ele><time>2026-03-24T13:04:09Z</time></trkpt><trkpt lat="41.89814428247442" lon="12.486772861932554"><ele>51.833333333333336</ele><time>2026-03-24T13:04:10Z</time></trkpt><trkpt lat="41.89821787134029" lon="12.486773682734619"><ele>51.0</ele><time>2026-03-24T13:04:11.001Z</time></trkpt><trkpt lat="41.898291812382475" lon="12.486770035870423"><ele>51.0</ele><time>2026-03-24T13:04:12.001Z</time></trkpt><trkpt lat="41.89837092624172" lon="12.486766500945999"><ele>51.0</ele><time>2026-03-24T13:04:13.001Z</time></trkpt><trkpt lat="41.89844685011537" lon="12.486768876674406"><ele>51.0</ele><time>2026-03-24T13:04:14.001Z</time></trkpt><trkpt lat="41.89852448355767" lon="12.486772648686564"><ele>51.0</ele><time>2026-03-24T13:04:15.001Z</time></trkpt><trkpt lat="41.898602463813795" lon="12.486775696561391"><ele>51.0</ele><time>2026-03-24T13:04:16.001Z</time></trkpt><trkpt lat="41.8986787285929" lon="12.486780149771116"><ele>51.0</ele><time>2026-03-24T13:04:17.001Z</time></trkpt><trkpt lat="41.89875124347938" lon="12.486788504940911"><ele>51.285714285714285</ele><time>2026-03-24T13:04:18.001Z</time></trkpt><trkpt lat="41.89881940994347" lon="12.486803581727454"><ele>51.57142857142857</ele><time>2026-03-24T13:04:19.001Z</time></trkpt><trkpt lat="41.89888470752044" lon="12.48682130586704"><ele>51.85714285714286</ele><time>2026-03-24T13:04:20.001Z</time></trkpt><trkpt lat="41.89895211472802" lon="12.486847111911134"><ele>52.14285714285714</ele><time>2026-03-24T13:04:21.001Z</time></trkpt><trkpt lat="41.8990187657763" lon="12.48687681162275"><ele>52.42857142857142</ele><time>2026-03-24T13:04:22.001Z</time></trkpt><trkpt lat="41.89908632629896" lon="12.486912280268353"><ele>52.714285714285715</ele><time>2026-03-24T13:04:23.001Z</time></trkpt><trkpt lat="41.89915047502347" lon="12.486954846795392"><ele>53.0</ele><time>2026-03-24T13:04:24.001Z</time></trkpt><trkpt lat="41.89921754903116" lon="12.486997543792697"><ele>53.50000000000001</ele><time>2026-03-24T13:04:25.001Z</time></trkpt><trkpt lat="41.89928337596157" lon="12.487049444867486"><ele>54.0</ele><time>2026-03-24T13:04:26.001Z</time></trkpt><trkpt lat="41.899345138867396" lon="12.487111714722676"><ele>54.5</ele><time>2026-03-24T13:04:27.001Z</time></trkpt><trkpt lat="41.899404891409304" lon="12.487180672164797"><ele>55.0</ele><time>2026-03-24T13:04:28.001Z</time></trkpt><trkpt lat="41.89946027413328" lon="12.487252502576569"><ele>55.50000000000001</ele><time>2026-03-24T13:04:29.001Z</time></trkpt><trkpt lat="41.89951889621513" lon="12.487327952059902"><ele>56.0</ele><time>2026-03-24T13:04:30.001Z</time></trkpt><trkpt lat="41.8995745482697" lon="12.48740756017124"><ele>56.16666666666667</ele><time>2026-03-24T13:04:31.001Z</time></trkpt><trkpt lat="41.899630068997126" lon="12.487479649852613"><ele>56.333333333333336</ele><time>2026-03-24T13:04:32.001Z</time></trkpt><trkpt lat="41.899684788694344" lon="12.487556401646941"><ele>56.5</ele><time>2026-03-24T13:04:33.001Z</time></trkpt><trkpt lat="41.89974386638526" lon="12.487634177215453"><ele>56.66666666666667</ele><time>2026-03-24T13:04:34.001Z</time></trkpt><trkpt lat="41.89980366355414" lon="12.487715051189136"><ele>56.833333333333336</ele><time>2026-03-24T13:04:35.001Z</time></trkpt><trkpt lat="41.89985557101689" lon="12.487795910127048"><ele>57.0</ele><time>2026-03-24T13:04:36.001Z</time></trkpt><trkpt lat="41.8999127505323" lon="12.487875018401379"><ele>57.0</ele><time>2026-03-24T13:04:37.001Z</time></trkpt><trkpt lat="41.89997075520609" lon="12.487952457646891"><ele>57.0</ele><time>2026-03-24T13:04:38.001Z</time></trkpt><trkpt lat="41.90002650073419" lon="12.4880318594797"><ele>57.0</ele><time>2026-03-24T13:04:39.001Z</time></trkpt><trkpt lat="41.90008731436472" lon="12.488112833501567"><ele>57.0</ele><time>2026-03-24T13:04:40.001Z</time></trkpt><trkpt lat="41.90014739275339" lon="12.488190550454785"><ele>57.0</ele><time>2026-03-24T13:04:41.001Z</time></trkpt><trkpt lat="41.90020630692712" lon="12.488274555219549"><ele>57.0</ele><time>2026-03-24T13:04:42.001Z</time></trkpt><trkpt lat="41.900263832695636" lon="12.488352472648785"><ele>56.833333333333336</ele><time>2026-03-24T13:04:43.001Z</time></trkpt><trkpt lat="41.90033137086104" lon="12.488437898634336"><ele>56.66666666666667</ele><time>2026-03-24T13:04:44.001Z</time></trkpt><trkpt lat="41.900393689099644" lon="12.488527112350328"><ele>56.5</ele><time>2026-03-24T13:04:45.001Z</time></trkpt><trkpt lat="41.90045556182692" lon="12.488620730127222"><ele>56.333333333333336</ele><time>2026-03-24T13:04:46.001Z</time></trkpt><trkpt lat="41.90051489934561" lon="12.488703247597025"><ele>56.16666666666667</ele><time>2026-03-24T13:04:47.001Z</time></trkpt><trkpt lat="41.90056812103398" lon="12.488780695540742"><ele>56.0</ele><time>2026-03-24T13:04:48.001Z</time></trkpt><trkpt lat="41.90062047716064" lon="12.488856244562243"><ele>56.66666666666667</ele><time>2026-03-24T13:04:49.001Z</time></trkpt><trkpt lat="41.900671606808345" lon="12.488928912586335"><ele>57.333333333333336</ele><time>2026-03-24T13:04:50.001Z</time></trkpt><trkpt lat="41.90072828160737" lon="12.48901329204554"><ele>58.0</ele><time>2026-03-24T13:04:51.001Z</time></trkpt><trkpt lat="41.90079161711134" lon="12.489099330943192"><ele>58.66666666666667</ele><time>2026-03-24T13:04:52.001Z</time></trkpt><trkpt lat="41.90085383084004" lon="12.489189631553453"><ele>59.333333333333336</ele><time>2026-03-24T13:04:53.001Z</time></trkpt><trkpt lat="41.900921730931024" lon="12.489279669971395"><ele>60.0</ele><time>2026-03-24T13:04:54.001Z</time></trkpt><trkpt lat="41.900981421799386" lon="12.48937357018593"><ele>60.0</ele><time>2026-03-24T13:04:55.001Z</time></trkpt><trkpt lat="41.901046786381386" lon="12.489469394789904"><ele>60.0</ele><time>2026-03-24T13:04:56.001Z</time></trkpt><trkpt lat="41.90110512176827" lon="12.489549381895257"><ele>60.0</ele><time>2026-03-24T13:04:57.001Z</time></trkpt><trkpt lat="41.90115475456717" lon="12.489620881395016"><ele>60.0</ele><time>2026-03-24T13:04:58.001Z</time></trkpt><trkpt lat="41.9012102423656" lon="12.489696172402523"><ele>60.0</ele><time>2026-03-24T13:04:59.001Z</time></trkpt><trkpt lat="41.901264924093034" lon="12.489775284898439"><ele>60.0</ele><time>2026-03-24T13:05:00.001Z</time></trkpt><trkpt lat="41.901324165718" lon="12.489858911716208"><ele>60.833333333333336</ele><time>2026-03-24T13:05:01.001Z</time></trkpt><trkpt lat="41.90138457343302" lon="12.489943808986752"><ele>61.66666666666667</ele><time>2026-03-24T13:05:02.001Z</time></trkpt><trkpt lat="41.9014390547953" lon="12.490023016500354"><ele>62.5</ele><time>2026-03-24T13:05:03.001Z</time></trkpt><trkpt lat="41.90148735253269" lon="12.490093667636632"><ele>63.333333333333336</ele><time>2026-03-24T13:05:04.001Z</time></trkpt><trkpt lat="41.901538276280554" lon="12.49015844227887"><ele>64.16666666666667</ele><time>2026-03-24T13:05:04.999Z</time></trkpt><trkpt lat="41.90158325046045" lon="12.490223362235184"><ele>65.0</ele><time>2026-03-24T13:05:05.999Z</time></trkpt><trkpt lat="41.90165833714658" lon="12.490314946729992"><ele>65.0</ele><time>2026-03-24T13:05:07.999Z</time></trkpt><trkpt lat="41.90170021982697" lon="12.490383362728561"><ele>65.0</ele><time>2026-03-24T13:05:09.999Z</time></trkpt><trkpt lat="41.901781649097934" lon="12.49050047321718"><ele>65.0</ele><time>2026-03-24T13:05:11.999Z</time></trkpt><trkpt lat="41.901838804908735" lon="12.490550001808042"><ele>65.0</ele><time>2026-03-24T13:05:12.999Z</time></trkpt><trkpt lat="41.901873224515676" lon="12.49063217539441"><ele>65.0</ele><time>2026-03-24T13:05:13.999Z</time></trkpt><trkpt lat="41.90192975370966" lon="12.49068705217669"><ele>65.0</ele><time>2026-03-24T13:05:14.999Z</time></trkpt><trkpt lat="41.90197882427608" lon="12.490757230250686"><ele>66.33333333333334</ele><time>2026-03-24T13:05:15.999Z</time></trkpt><trkpt lat="41.902021130927174" lon="12.490844039290003"><ele>67.66666666666667</ele><time>2026-03-24T13:05:16.999Z</time></trkpt><trkpt lat="41.902081485184254" lon="12.490904102392223"><ele>69.0</ele><time>2026-03-24T13:05:17.999Z</time></trkpt><trkpt lat="41.90213383982703" lon="12.490987332649937"><ele>70.33333333333333</ele><time>2026-03-24T13:05:18.999Z</time></trkpt><trkpt lat="41.90219181169483" lon="12.491062019835823"><ele>71.66666666666666</ele><time>2026-03-24T13:05:19.999Z</time></trkpt><trkpt lat="41.902246028951346" lon="12.491149561673314"><ele>73.0</ele><time>2026-03-24T13:05:20.999Z</time></trkpt><trkpt lat="41.90229704725074" lon="12.491239840968857"><ele>72.6</ele><time>2026-03-24T13:05:21.999Z</time></trkpt><trkpt lat="41.902357927767056" lon="12.491326425274554"><ele>72.19999999999999</ele><time>2026-03-24T13:05:22.999Z</time></trkpt><trkpt lat="41.90241858754736" lon="12.491413162357722"><ele>71.8</ele><time>2026-03-24T13:05:23.999Z</time></trkpt><trkpt lat="41.90248154156717" lon="12.4915032345468"><ele>71.39999999999999</ele><time>2026-03-24T13:05:24.999Z</time></trkpt><trkpt lat="41.90254690873538" lon="12.491596728299223"><ele>71.0</ele><time>2026-03-24T13:05:25.999Z</time></trkpt><trkpt lat="41.90261315921112" lon="12.491672857044668"><ele>71.0</ele><time>2026-03-24T13:05:26.999Z</time></trkpt><trkpt lat="41.90266478577496" lon="12.491769092429927"><ele>71.0</ele><time>2026-03-24T13:05:28Z</time></trkpt><trkpt lat="41.90272256114481" lon="12.491851206779554"><ele>71.0</ele><time>2026-03-24T13:05:29Z</time></trkpt><trkpt lat="41.90277273917564" lon="12.491933214563154"><ele>71.0</ele><time>2026-03-24T13:05:30Z</time></trkpt><trkpt lat="41.90283454036712" lon="12.492005811465551"><ele>71.0</ele><time>2026-03-24T13:05:32Z</time></trkpt><trkpt lat="41.90287251777842" lon="12.492075734895279"><ele>71.0</ele><time>2026-03-24T13:05:36Z</time></trkpt><trkpt lat="41.9029261883988" lon="12.492150533185724"><ele>71.66666666666667</ele><time>2026-03-24T13:05:43Z</time></trkpt><trkpt lat="41.903016492752144" lon="12.492265092770873"><ele>72.33333333333334</ele><time>2026-03-24T13:05:45Z</time></trkpt><trkpt lat="41.90307845673562" lon="12.492332486524994"><ele>73.0</ele><time>2026-03-24T13:05:46Z</time></trkpt><trkpt lat="41.903107923941135" lon="12.49241099959824"><ele>73.66666666666667</ele><time>2026-03-24T13:05:47Z</time></trkpt><trkpt lat="41.903143802723974" lon="12.492491957141809"><ele>74.33333333333333</ele><time>2026-03-24T13:05:48Z</time></trkpt><trkpt lat="41.90320000955869" lon="12.492573350862731"><ele>75.0</ele><time>2026-03-24T13:05:49Z</time></trkpt><trkpt lat="41.903265514119404" lon="12.49264337632289"><ele>75.0</ele><time>2026-03-24T13:05:50Z</time></trkpt><trkpt lat="41.903324750649396" lon="12.492719483957327"><ele>75.0</ele><time>2026-03-24T13:05:51Z</time></trkpt><trkpt lat="41.90338596792039" lon="12.49279963029796"><ele>75.0</ele><time>2026-03-24T13:05:52Z</time></trkpt><trkpt lat="41.9034452946948" lon="12.492879354009471"><ele>75.0</ele><time>2026-03-24T13:05:53Z</time></trkpt><trkpt lat="41.903504626589154" lon="12.492961567990376"><ele>75.0</ele><time>2026-03-24T13:05:54Z</time></trkpt><trkpt lat="41.903566358638365" lon="12.493048816109129"><ele>75.0</ele><time>2026-03-24T13:05:55Z</time></trkpt><trkpt lat="41.90362967949723" lon="12.493139032115565"><ele>73.16666666666667</ele><time>2026-03-24T13:05:56Z</time></trkpt><trkpt lat="41.90368692806468" lon="12.49322439905092"><ele>71.33333333333333</ele><time>2026-03-24T13:05:57Z</time></trkpt><trkpt lat="41.903746175587465" lon="12.493306056085512"><ele>69.5</ele><time>2026-03-24T13:05:58Z</time></trkpt><trkpt lat="41.9038029768221" lon="12.493386497623485"><ele>67.66666666666666</ele><time>2026-03-24T13:05:59Z</time></trkpt><trkpt lat="41.90385825246211" lon="12.493468763212695"><ele>65.83333333333333</ele><time>2026-03-24T13:06:00Z</time></trkpt><trkpt lat="41.90391122401717" lon="12.493548711456057"><ele>64.0</ele><time>2026-03-24T13:06:01Z</time></trkpt><trkpt lat="41.90395543072725" lon="12.493612090257269"><ele>64.0</ele><time>2026-03-24T13:06:02Z</time></trkpt><trkpt lat="41.90398977809908" lon="12.493753557297875"><ele>64.0</ele><time>2026-03-24T13:06:04Z</time></trkpt><trkpt lat="41.90396438179406" lon="12.493885180936015"><ele>64.0</ele><time>2026-03-24T13:06:06Z</time></trkpt><trkpt lat="41.9039801666946" lon="12.494009049872956"><ele>64.0</ele><time>2026-03-24T13:06:08Z</time></trkpt><trkpt lat="41.90403011660936" lon="12.494074643810468"><ele>64.0</ele><time>2026-03-24T13:06:09Z</time></trkpt><trkpt lat="41.90408187653956" lon="12.494164601665792"><ele>64.16666666666666</ele><time>2026-03-24T13:06:10Z</time></trkpt><trkpt lat="41.90412909351319" lon="12.49424879733533"><ele>64.33333333333333</ele><time>2026-03-24T13:06:11Z</time></trkpt><trkpt lat="41.904186460338614" lon="12.494368096919354"><ele>64.5</ele><time>2026-03-24T13:06:13Z</time></trkpt><trkpt lat="41.90422068946591" lon="12.494456835042952"><ele>64.66666666666667</ele><time>2026-03-24T13:06:16Z</time></trkpt><trkpt lat="41.90417468002159" lon="12.494566397753582"><ele>64.83333333333334</ele><time>2026-03-24T13:06:20Z</time></trkpt><trkpt lat="41.904119924857824" lon="12.494620224449744"><ele>65.0</ele><time>2026-03-24T13:06:23Z</time></trkpt><trkpt lat="41.90405054358457" lon="12.494720933968903"><ele>67.4</ele><time>2026-03-24T13:06:26.001Z</time></trkpt><trkpt lat="41.903979337453165" lon="12.494786749233649"><ele>69.8</ele><time>2026-03-24T13:06:28.001Z</time></trkpt><trkpt lat="41.90389040206556" lon="12.494878678113304"><ele>72.2</ele><time>2026-03-24T13:06:30.001Z</time></trkpt><trkpt lat="41.90384057053956" lon="12.494932332181486"><ele>74.6</ele><time>2026-03-24T13:06:31.001Z</time></trkpt><trkpt lat="41.9037520808274" lon="12.495035195619272"><ele>77.0</ele><time>2026-03-24T13:06:33.001Z</time></trkpt><trkpt lat="41.903697324887325" lon="12.495136143289391"><ele>77.0</ele><time>2026-03-24T13:06:35.001Z</time></trkpt><trkpt lat="41.90365516015986" lon="12.495208790953939"><ele>77.0</ele><time>2026-03-24T13:06:39.001Z</time></trkpt><trkpt lat="41.90370840418228" lon="12.495314788716653"><ele>77.0</ele><time>2026-03-24T13:06:40.001Z</time></trkpt><trkpt lat="41.903777650150204" lon="12.495466956645826"><ele>77.0</ele><time>2026-03-24T13:06:42.001Z</time></trkpt><trkpt lat="41.90383287552061" lon="12.495543091218925"><ele>77.0</ele><time>2026-03-24T13:06:43.001Z</time></trkpt><trkpt lat="41.903881507234466" lon="12.495618792125217"><ele>77.16666666666667</ele><time>2026-03-24T13:06:44.001Z</time></trkpt><trkpt lat="41.9039329298604" lon="12.495695414480375"><ele>77.33333333333334</ele><time>2026-03-24T13:06:45.001Z</time></trkpt><trkpt lat="41.90398625563352" lon="12.495792225739324"><ele>77.5</ele><time>2026-03-24T13:06:46.001Z</time></trkpt><trkpt lat="41.90403067593237" lon="12.495858450553717"><ele>77.66666666666667</ele><time>2026-03-24T13:06:47.001Z</time></trkpt><trkpt lat="41.90409672329839" lon="12.495966885544329"><ele>77.83333333333333</ele><time>2026-03-24T13:06:49.001Z</time></trkpt><trkpt lat="41.90414963168267" lon="12.49606509474564"><ele>78.0</ele><time>2026-03-24T13:06:51.001Z</time></trkpt><trkpt lat="41.90422259136081" lon="12.496173651746485"><ele>78.66666666666667</ele><time>2026-03-24T13:06:53.001Z</time></trkpt><trkpt lat="41.90427698498216" lon="12.496259080731315"><ele>79.33333333333333</ele><time>2026-03-24T13:06:54.001Z</time></trkpt><trkpt lat="41.904324115852724" lon="12.496322722713938"><ele>80.0</ele><time>2026-03-24T13:06:55.001Z</time></trkpt><trkpt lat="41.90440309165697" lon="12.496445855982024"><ele>80.66666666666666</ele><time>2026-03-24T13:06:57.001Z</time></trkpt><trkpt lat="41.90445501447437" lon="12.496524801184933"><ele>81.33333333333333</ele><time>2026-03-24T13:06:59.001Z</time></trkpt><trkpt lat="41.90449749138381" lon="12.496592565459382"><ele>82.0</ele><time>2026-03-24T13:07:01.001Z</time></trkpt><trkpt lat="41.90454426540681" lon="12.496656776333753"><ele>82.0</ele><time>2026-03-24T13:07:03.001Z</time></trkpt><trkpt lat="41.90459941220654" lon="12.496758927101705"><ele>82.0</ele><time>2026-03-24T13:07:06.001Z</time></trkpt><trkpt lat="41.9045522804518" lon="12.496916944695306"><ele>82.0</ele><time>2026-03-24T13:07:09.001Z</time></trkpt><trkpt lat="41.90448962299683" lon="12.497040787022907"><ele>82.0</ele><time>2026-03-24T13:07:10.999Z</time></trkpt><trkpt lat="41.90447693317948" lon="12.497259244960743"><ele>79.5</ele><time>2026-03-24T13:07:12.999Z</time></trkpt><trkpt lat="41.90455013881064" lon="12.497348697500302"><ele>77.0</ele><time>2026-03-24T13:07:13.999Z</time></trkpt><trkpt lat="41.904636038449" lon="12.497458928225434"><ele>74.5</ele><time>2026-03-24T13:07:14.999Z</time></trkpt><trkpt lat="41.90473029447429" lon="12.497585089177834"><ele>72.0</ele><time>2026-03-24T13:07:15.999Z</time></trkpt><trkpt lat="41.904862129059794" lon="12.497756481950425"><ele>72.0</ele><time>2026-03-24T13:07:16.999Z</time></trkpt><trkpt lat="41.9049609959635" lon="12.497910570907953"><ele>72.0</ele><time>2026-03-24T13:07:17.999Z</time></trkpt><trkpt lat="41.9050148981593" lon="12.498011003555014"><ele>72.0</ele><time>2026-03-24T13:07:18.999Z</time></trkpt><trkpt lat="41.90509996816975" lon="12.498096406707871"><ele>72.0</ele><time>2026-03-24T13:07:19.999Z</time></trkpt><trkpt lat="41.905156487579426" lon="12.498174505746361"><ele>72.0</ele><time>2026-03-24T13:07:20.999Z</time></trkpt><trkpt lat="41.90522882441118" lon="12.49828529907072"><ele>72.5</ele><time>2026-03-24T13:07:22.999Z</time></trkpt><trkpt lat="41.9053087733094" lon="12.498439153979064"><ele>73.0</ele><time>2026-03-24T13:07:24.999Z</time></trkpt><trkpt lat="41.90538289836037" lon="12.498550599780069"><ele>73.5</ele><time>2026-03-24T13:07:25.999Z</time></trkpt><trkpt lat="41.90547235556835" lon="12.498663246897333"><ele>74.0</ele><time>2026-03-24T13:07:26.999Z</time></trkpt><trkpt lat="41.90555132366318" lon="12.49878320797135"><ele>74.0</ele><time>2026-03-24T13:07:28Z</time></trkpt><trkpt lat="41.90562574493087" lon="12.4989035145316"><ele>74.0</ele><time>2026-03-24T13:07:29Z</time></trkpt><trkpt lat="41.905705049178884" lon="12.499022930192746"><ele>74.0</ele><time>2026-03-24T13:07:30Z</time></trkpt><trkpt lat="41.90577682797522" lon="12.499128503962192"><ele>74.0</ele><time>2026-03-24T13:07:31Z</time></trkpt><trkpt lat="41.90584672388947" lon="12.499231709659984"><ele>74.0</ele><time>2026-03-24T13:07:32Z</time></trkpt><trkpt lat="41.90591452632503" lon="12.499329764210097"><ele>74.0</ele><time>2026-03-24T13:07:33Z</time></trkpt><trkpt lat="41.905980987621696" lon="12.4994320702082"><ele>74.0</ele><time>2026-03-24T13:07:34Z</time></trkpt><trkpt lat="41.90603986900225" lon="12.499525009987288"><ele>74.0</ele><time>2026-03-24T13:07:35Z</time></trkpt><trkpt lat="41.90609614983925" lon="12.499607641499177"><ele>74.0</ele><time>2026-03-24T13:07:36Z</time></trkpt><trkpt lat="41.906142664793386" lon="12.499682795176282"><ele>74.0</ele><time>2026-03-24T13:07:37Z</time></trkpt><trkpt lat="41.906186578202046" lon="12.499753334788265"><ele>74.0</ele><time>2026-03-24T13:07:38Z</time></trkpt><trkpt lat="41.90623457244519" lon="12.499821691010942"><ele>74.16666666666667</ele><time>2026-03-24T13:07:39Z</time></trkpt><trkpt lat="41.90627987852941" lon="12.499897658586844"><ele>74.33333333333334</ele><time>2026-03-24T13:07:40Z</time></trkpt><trkpt lat="41.906337915047196" lon="12.499996843972855"><ele>74.5</ele><time>2026-03-24T13:07:41Z</time></trkpt><trkpt lat="41.9063965814841" lon="12.500075413376745"><ele>74.66666666666667</ele><time>2026-03-24T13:07:42Z</time></trkpt><trkpt lat="41.90644870169042" lon="12.500143613421885"><ele>74.83333333333333</ele><time>2026-03-24T13:07:43Z</time></trkpt><trkpt lat="41.90653437979121" lon="12.50024888167765"><ele>75.0</ele><time>2026-03-24T13:07:45Z</time></trkpt><trkpt lat="41.90660936120469" lon="12.50034125998953"><ele>75.2</ele><time>2026-03-24T13:07:47Z</time></trkpt><trkpt lat="41.90666577695211" lon="12.500440623021857"><ele>75.4</ele><time>2026-03-24T13:07:49Z</time></trkpt><trkpt lat="41.906736247858866" lon="12.500550558720397"><ele>75.6</ele><time>2026-03-24T13:07:51Z</time></trkpt><trkpt lat="41.90682610774008" lon="12.500664795600514"><ele>75.8</ele><time>2026-03-24T13:07:53Z</time></trkpt><trkpt lat="41.906895097492225" lon="12.500764024083061"><ele>76.0</ele><time>2026-03-24T13:07:55Z</time></trkpt><trkpt lat="41.906957029851796" lon="12.500855229076684"><ele>76.0</ele><time>2026-03-24T13:07:57Z</time></trkpt><trkpt lat="41.90702446599466" lon="12.500928802295597"><ele>76.0</ele><time>2026-03-24T13:07:59Z</time></trkpt><trkpt lat="41.90708873369147" lon="12.501030110320075"><ele>76.0</ele><time>2026-03-24T13:08:01Z</time></trkpt><trkpt lat="41.9071255462743" lon="12.501099158411092"><ele>76.0</ele><time>2026-03-24T13:08:02Z</time></trkpt><trkpt lat="41.90716700956277" lon="12.501167415537678"><ele>76.0</ele><time>2026-03-24T13:08:03Z</time></trkpt><trkpt lat="41.907227998961844" lon="12.501271946410903"><ele>76.0</ele><time>2026-03-24T13:08:05Z</time></trkpt><trkpt lat="41.90728025636105" lon="12.50134333237503"><ele>76.0</ele><time>2026-03-24T13:08:07Z</time></trkpt><trkpt lat="41.9073923569665" lon="12.501269402096664"><ele>76.0</ele><time>2026-03-24T13:08:11Z</time></trkpt><trkpt lat="41.907449927892735" lon="12.501209477952516"><ele>76.0</ele><time>2026-03-24T13:08:12Z</time></trkpt><trkpt lat="41.907512354751816" lon="12.50112139228885"><ele>76.0</ele><time>2026-03-24T13:08:13Z</time></trkpt><trkpt lat="41.90758524368975" lon="12.501040494697344"><ele>76.0</ele><time>2026-03-24T13:08:14Z</time></trkpt><trkpt lat="41.90765465909452" lon="12.500953224338888"><ele>75.33333333333333</ele><time>2026-03-24T13:08:15Z</time></trkpt><trkpt lat="41.90772307748018" lon="12.500869242591703"><ele>74.66666666666666</ele><time>2026-03-24T13:08:16Z</time></trkpt><trkpt lat="41.90779329689915" lon="12.500780579934851"><ele>74.0</ele><time>2026-03-24T13:08:17Z</time></trkpt><trkpt lat="41.90785105598603" lon="12.500700169247857"><ele>73.33333333333333</ele><time>2026-03-24T13:08:18Z</time></trkpt><trkpt lat="41.90790748791124" lon="12.500628031315342"><ele>72.66666666666667</ele><time>2026-03-24T13:08:19Z</time></trkpt><trkpt lat="41.90797055835634" lon="12.500569499924254"><ele>72.0</ele><time>2026-03-24T13:08:20Z</time></trkpt><trkpt lat="41.908022519364295" lon="12.500510514858048"><ele>72.0</ele><time>2026-03-24T13:08:21Z</time></trkpt><trkpt lat="41.90808015231857" lon="12.500439283429605"><ele>72.0</ele><time>2026-03-24T13:08:22Z</time></trkpt><trkpt lat="41.90813594068821" lon="12.500366170989054"><ele>72.0</ele><time>2026-03-24T13:08:23Z</time></trkpt><trkpt lat="41.908185690548436" lon="12.500299801354442"><ele>72.0</ele><time>2026-03-24T13:08:24.001Z</time></trkpt><trkpt lat="41.90823472141946" lon="12.50023270923783"><ele>72.0</ele><time>2026-03-24T13:08:25.001Z</time></trkpt><trkpt lat="41.90831838895132" lon="12.500133377077344"><ele>72.0</ele><time>2026-03-24T13:08:27.001Z</time></trkpt><trkpt lat="41.90838526373552" lon="12.500057452153943"><ele>72.2</ele><time>2026-03-24T13:08:29.001Z</time></trkpt><trkpt lat="41.90850810571052" lon="12.500144921132721"><ele>72.4</ele><time>2026-03-24T13:08:31.001Z</time></trkpt><trkpt lat="41.90856465813828" lon="12.500221484839097"><ele>72.6</ele><time>2026-03-24T13:08:32.001Z</time></trkpt><trkpt lat="41.90862564885175" lon="12.500318022533923"><ele>72.8</ele><time>2026-03-24T13:08:33.001Z</time></trkpt><trkpt lat="41.90868005586843" lon="12.500406912586579"><ele>73.0</ele><time>2026-03-24T13:08:34.001Z</time></trkpt><trkpt lat="41.90873099701013" lon="12.500477965886157"><ele>72.4</ele><time>2026-03-24T13:08:35.001Z</time></trkpt><trkpt lat="41.908778002104455" lon="12.500552668944966"><ele>71.8</ele><time>2026-03-24T13:08:36.001Z</time></trkpt><trkpt lat="41.90885572768671" lon="12.500654589344979"><ele>71.2</ele><time>2026-03-24T13:08:38.001Z</time></trkpt><trkpt lat="41.908900033729196" lon="12.500716605709759"><ele>70.6</ele><time>2026-03-24T13:08:40.001Z</time></trkpt><trkpt lat="41.90895728597949" lon="12.5008577481868"><ele>70.0</ele><time>2026-03-24T13:08:43.001Z</time></trkpt><trkpt lat="41.90897712851427" lon="12.500970082554133"><ele>70.0</ele><time>2026-03-24T13:08:44.001Z</time></trkpt><trkpt lat="41.90898627536187" lon="12.501086394689422"><ele>70.0</ele><time>2026-03-24T13:08:45.001Z</time></trkpt><trkpt lat="41.90900102010566" lon="12.50118543303733"><ele>70.0</ele><time>2026-03-24T13:08:46.001Z</time></trkpt><trkpt lat="41.909040399613716" lon="12.501253015801433"><ele>70.0</ele><time>2026-03-24T13:08:47.001Z</time></trkpt><trkpt lat="41.90908935419718" lon="12.501309954887788"><ele>70.0</ele><time>2026-03-24T13:08:48.001Z</time></trkpt><trkpt lat="41.90916125605016" lon="12.50137918009754"><ele>70.0</ele><time>2026-03-24T13:08:50.001Z</time></trkpt><trkpt lat="41.9092030595182" lon="12.501445069991226"><ele>70.0</ele><time>2026-03-24T13:08:55.001Z</time></trkpt><trkpt lat="41.909241751969034" lon="12.501522500143048"><ele>70.6</ele><time>2026-03-24T13:09:11.001Z</time></trkpt><trkpt lat="41.90929064663491" lon="12.501583163612098"><ele>71.2</ele><time>2026-03-24T13:09:12.001Z</time></trkpt><trkpt lat="41.90935627481348" lon="12.501665779842655"><ele>71.8</ele><time>2026-03-24T13:09:13.001Z</time></trkpt><trkpt lat="41.90941997364467" lon="12.501745401600497"><ele>72.4</ele><time>2026-03-24T13:09:14.001Z</time></trkpt><trkpt lat="41.909497920623465" lon="12.501837638454512"><ele>73.0</ele><time>2026-03-24T13:09:15.001Z</time></trkpt><trkpt lat="41.90957871590098" lon="12.501934664101821"><ele>73.0</ele><time>2026-03-24T13:09:16.001Z</time></trkpt><trkpt lat="41.909653077480264" lon="12.502025988086135"><ele>73.0</ele><time>2026-03-24T13:09:17Z</time></trkpt><trkpt lat="41.909721300087725" lon="12.50211154462207"><ele>73.0</ele><time>2026-03-24T13:09:18Z</time></trkpt><trkpt lat="41.90978458831663" lon="12.502191082743577"><ele>73.0</ele><time>2026-03-24T13:09:19Z</time></trkpt><trkpt lat="41.90984236228435" lon="12.50226437877807"><ele>73.0</ele><time>2026-03-24T13:09:20Z</time></trkpt><trkpt lat="41.909895196643" lon="12.502332338218956"><ele>73.0</ele><time>2026-03-24T13:09:21Z</time></trkpt><trkpt lat="41.909948043675854" lon="12.50240438112195"><ele>74.4</ele><time>2026-03-24T13:09:22Z</time></trkpt><trkpt lat="41.90999127899816" lon="12.502468640842952"><ele>75.8</ele><time>2026-03-24T13:09:23Z</time></trkpt><trkpt lat="41.91007350984131" lon="12.502596247294033"><ele>77.2</ele><time>2026-03-24T13:09:24Z</time></trkpt><trkpt lat="41.910137330345414" lon="12.502729532477447"><ele>78.6</ele><time>2026-03-24T13:09:26Z</time></trkpt><trkpt lat="41.910194606803174" lon="12.502845383129578"><ele>80.0</ele><time>2026-03-24T13:09:28Z</time></trkpt><trkpt lat="41.9102528802746" lon="12.50293588035287"><ele>80.0</ele><time>2026-03-24T13:09:30Z</time></trkpt><trkpt lat="41.91031045473727" lon="12.503013487531861"><ele>80.0</ele><time>2026-03-24T13:09:33Z</time></trkpt><trkpt lat="41.91037632209443" lon="12.503094800128613"><ele>80.0</ele><time>2026-03-24T13:09:35Z</time></trkpt><trkpt lat="41.9104234799678" lon="12.503155411462831"><ele>80.0</ele><time>2026-03-24T13:09:36Z</time></trkpt><trkpt lat="41.91047299151185" lon="12.50322277337459"><ele>80.0</ele><time>2026-03-24T13:09:37Z</time></trkpt><trkpt lat="41.91053621598172" lon="12.503308087258503"><ele>80.0</ele><time>2026-03-24T13:09:38Z</time></trkpt><trkpt lat="41.91060045328213" lon="12.503399843299594"><ele>80.0</ele><time>2026-03-24T13:09:39Z</time></trkpt><trkpt lat="41.91065993676658" lon="12.50347619860864"><ele>80.0</ele><time>2026-03-24T13:09:40Z</time></trkpt><trkpt lat="41.91071454432551" lon="12.50355136255654"><ele>80.0</ele><time>2026-03-24T13:09:41Z</time></trkpt><trkpt lat="41.91077485163395" lon="12.503642734856589"><ele>80.0</ele><time>2026-03-24T13:09:42Z</time></trkpt><trkpt lat="41.91084004887902" lon="12.503727280477639"><ele>80.0</ele><time>2026-03-24T13:09:43Z</time></trkpt><trkpt lat="41.91089305192022" lon="12.503806003121149"><ele>80.0</ele><time>2026-03-24T13:09:44Z</time></trkpt><trkpt lat="41.91095167822254" lon="12.503870169457759"><ele>79.2</ele><time>2026-03-24T13:09:45Z</time></trkpt><trkpt lat="41.9110053457581" lon="12.503942704229809"><ele>78.4</ele><time>2026-03-24T13:09:46Z</time></trkpt><trkpt lat="41.91108608132743" lon="12.504002939138822"><ele>77.6</ele><time>2026-03-24T13:09:47Z</time></trkpt><trkpt lat="41.91114511061461" lon="12.50406669240213"><ele>76.8</ele><time>2026-03-24T13:09:48Z</time></trkpt><trkpt lat="41.9112258646475" lon="12.504187944346434"><ele>76.0</ele><time>2026-03-24T13:09:50Z</time></trkpt><trkpt lat="41.91129499636622" lon="12.504302905131622"><ele>76.0</ele><time>2026-03-24T13:09:52Z</time></trkpt><trkpt lat="41.911356476679394" lon="12.504389285353207"><ele>76.0</ele><time>2026-03-24T13:09:54Z</time></trkpt><trkpt lat="41.911438131920804" lon="12.50450699665223"><ele>76.0</ele><time>2026-03-24T13:09:57Z</time></trkpt><trkpt lat="41.91150321891002" lon="12.504596999000679"><ele>76.0</ele><time>2026-03-24T13:09:58Z</time></trkpt><trkpt lat="41.91157820312309" lon="12.504701162418456"><ele>76.0</ele><time>2026-03-24T13:09:59Z</time></trkpt><trkpt lat="41.91165581975953" lon="12.504810565780224"><ele>75.75</ele><time>2026-03-24T13:10:00Z</time></trkpt><trkpt lat="41.91174828259226" lon="12.504940836833748"><ele>75.5</ele><time>2026-03-24T13:10:01Z</time></trkpt><trkpt lat="41.91183482860572" lon="12.505069279317235"><ele>75.25</ele><time>2026-03-24T13:10:02Z</time></trkpt><trkpt lat="41.91192661062592" lon="12.505205472157458"><ele>75.0</ele><time>2026-03-24T13:10:03Z</time></trkpt><trkpt lat="41.91203035530753" lon="12.50535932679592"><ele>74.0</ele><time>2026-03-24T13:10:04Z</time></trkpt><trkpt lat="41.91213178463244" lon="12.50549727315635"><ele>73.0</ele><time>2026-03-24T13:10:05Z</time></trkpt><trkpt lat="41.91222209516619" lon="12.505630805063817"><ele>72.0</ele><time>2026-03-24T13:10:06Z</time></trkpt><trkpt lat="41.9123086666148" lon="12.505757169401011"><ele>71.0</ele><time>2026-03-24T13:10:07Z</time></trkpt><trkpt lat="41.9123925293119" lon="12.505878729797189"><ele>71.0</ele><time>2026-03-24T13:10:08Z</time></trkpt><trkpt lat="41.912469440922976" lon="12.505992231004146"><ele>71.0</ele><time>2026-03-24T13:10:09Z</time></trkpt><trkpt lat="41.91254292458537" lon="12.50609854993772"><ele>71.0</ele><time>2026-03-24T13:10:10Z</time></trkpt><trkpt lat="41.9126102858479" lon="12.506193558803808"><ele>71.0</ele><time>2026-03-24T13:10:11Z</time></trkpt><trkpt lat="41.91266144656875" lon="12.506270074146139"><ele>71.0</ele><time>2026-03-24T13:10:12Z</time></trkpt><trkpt lat="41.912706601749434" lon="12.50633536042314"><ele>70.2</ele><time>2026-03-24T13:10:13Z</time></trkpt><trkpt lat="41.912771856531236" lon="12.50642545878791"><ele>69.39999999999999</ele><time>2026-03-24T13:10:15Z</time></trkpt><trkpt lat="41.91283044672134" lon="12.506499809103309"><ele>68.6</ele><time>2026-03-24T13:10:18.001Z</time></trkpt><trkpt lat="41.91291362788785" lon="12.506622573653571"><ele>67.8</ele><time>2026-03-24T13:10:40.001Z</time></trkpt><trkpt lat="41.91296965248025" lon="12.506717683916003"><ele>67.0</ele><time>2026-03-24T13:10:41.001Z</time></trkpt><trkpt lat="41.91303003874407" lon="12.506812225846017"><ele>67.0</ele><time>2026-03-24T13:10:42.001Z</time></trkpt><trkpt lat="41.9131070257069" lon="12.506926899973884"><ele>67.0</ele><time>2026-03-24T13:10:43.001Z</time></trkpt><trkpt lat="41.91319444177727" lon="12.507057523896954"><ele>67.0</ele><time>2026-03-24T13:10:44.001Z</time></trkpt><trkpt lat="41.91328546985207" lon="12.507183767935254"><ele>67.0</ele><time>2026-03-24T13:10:45.001Z</time></trkpt><trkpt lat="41.91337250281154" lon="12.507312503641993"><ele>66.8</ele><time>2026-03-24T13:10:46.001Z</time></trkpt><trkpt lat="41.91345383807485" lon="12.507433549166565"><ele>66.6</ele><time>2026-03-24T13:10:47.001Z</time></trkpt><trkpt lat="41.913527987414994" lon="12.507542701726274"><ele>66.39999999999999</ele><time>2026-03-24T13:10:48.001Z</time></trkpt><trkpt lat="41.91360453010447" lon="12.507643486507382"><ele>66.2</ele><time>2026-03-24T13:10:49.001Z</time></trkpt><trkpt lat="41.913673822323716" lon="12.507744589569683"><ele>66.0</ele><time>2026-03-24T13:10:50.001Z</time></trkpt><trkpt lat="41.91373560916919" lon="12.507843410966318"><ele>65.2</ele><time>2026-03-24T13:10:51.001Z</time></trkpt><trkpt lat="41.91379732928128" lon="12.507931813439738"><ele>64.39999999999999</ele><time>2026-03-24T13:10:52.001Z</time></trkpt><trkpt lat="41.913856064113595" lon="12.50801575581813"><ele>63.6</ele><time>2026-03-24T13:10:53.001Z</time></trkpt><trkpt lat="41.91390731786448" lon="12.50809519297516"><ele>62.8</ele><time>2026-03-24T13:10:54.001Z</time></trkpt><trkpt lat="41.91397423496233" lon="12.508190405439167"><ele>62.0</ele><time>2026-03-24T13:10:55.001Z</time></trkpt><trkpt lat="41.914051717983874" lon="12.508298231525329"><ele>62.0</ele><time>2026-03-24T13:10:56.001Z</time></trkpt><trkpt lat="41.914135619410786" lon="12.508424967148256"><ele>62.0</ele><time>2026-03-24T13:10:57.001Z</time></trkpt><trkpt lat="41.91422716858088" lon="12.50855413632667"><ele>62.0</ele><time>2026-03-24T13:10:58.001Z</time></trkpt><trkpt lat="41.91431832721665" lon="12.50869312818548"><ele>62.0</ele><time>2026-03-24T13:10:59.001Z</time></trkpt><trkpt lat="41.91441411162746" lon="12.508839847690655"><ele>61.333333333333336</ele><time>2026-03-24T13:11:00.001Z</time></trkpt><trkpt lat="41.91451306724874" lon="12.508983296852653"><ele>60.66666666666667</ele><time>2026-03-24T13:11:01.001Z</time></trkpt><trkpt lat="41.9146158685569" lon="12.509133242669716"><ele>60.0</ele><time>2026-03-24T13:11:02.001Z</time></trkpt><trkpt lat="41.91472040683825" lon="12.509283570971037"><ele>60.0</ele><time>2026-03-24T13:11:03.001Z</time></trkpt><trkpt lat="41.91481788457058" lon="12.509434129975267"><ele>60.0</ele><time>2026-03-24T13:11:04.001Z</time></trkpt><trkpt lat="41.91491919687086" lon="12.50958011200671"><ele>60.0</ele><time>2026-03-24T13:11:05.001Z</time></trkpt><trkpt lat="41.91502359272219" lon="12.509738924294188"><ele>59.0</ele><time>2026-03-24T13:11:06.001Z</time></trkpt><trkpt lat="41.9151293899123" lon="12.509895964464773"><ele>58.0</ele><time>2026-03-24T13:11:07.001Z</time></trkpt><trkpt lat="41.915233500115846" lon="12.510052280486692"><ele>57.0</ele><time>2026-03-24T13:11:08.001Z</time></trkpt><trkpt lat="41.91536949194962" lon="12.510241250315104"><ele>55.33333333333333</ele><time>2026-03-24T13:11:09.001Z</time></trkpt><trkpt lat="41.91548807387082" lon="12.510424671192135"><ele>53.666666666666664</ele><time>2026-03-24T13:11:10.001Z</time></trkpt><trkpt lat="41.91560114631525" lon="12.510584224045177"><ele>52.0</ele><time>2026-03-24T13:11:11.001Z</time></trkpt><trkpt lat="41.915713543477196" lon="12.510749966434057"><ele>52.0</ele><time>2026-03-24T13:11:12.001Z</time></trkpt><trkpt lat="41.91582365857839" lon="12.510910765362803"><ele>52.0</ele><time>2026-03-24T13:11:13.001Z</time></trkpt><trkpt lat="41.91592612941043" lon="12.511067257315148"><ele>52.0</ele><time>2026-03-24T13:11:14.001Z</time></trkpt><trkpt lat="41.916031616579495" lon="12.511228068447101"><ele>52.0</ele><time>2026-03-24T13:11:15.001Z</time></trkpt><trkpt lat="41.916146055275235" lon="12.511395422167318"><ele>52.0</ele><time>2026-03-24T13:11:16.001Z</time></trkpt><trkpt lat="41.916260619046014" lon="12.51156043149765"><ele>52.0</ele><time>2026-03-24T13:11:17.001Z</time></trkpt><trkpt lat="41.91637469260791" lon="12.511731904171619"><ele>52.0</ele><time>2026-03-24T13:11:18.001Z</time></trkpt><trkpt lat="41.916502488075245" lon="12.511920378762518"><ele>52.0</ele><time>2026-03-24T13:11:19.002Z</time></trkpt><trkpt lat="41.91662058808497" lon="12.512096313156883"><ele>52.0</ele><time>2026-03-24T13:11:20.002Z</time></trkpt><trkpt lat="41.91673095854465" lon="12.512257362282877"><ele>52.0</ele><time>2026-03-24T13:11:21.002Z</time></trkpt><trkpt lat="41.916838137718706" lon="12.51241787632315"><ele>52.0</ele><time>2026-03-24T13:11:22.002Z</time></trkpt><trkpt lat="41.91695259394035" lon="12.512589589369435"><ele>52.0</ele><time>2026-03-24T13:11:23Z</time></trkpt><trkpt lat="41.91707057823637" lon="12.512762197175608"><ele>51.33333333333333</ele><time>2026-03-24T13:11:24Z</time></trkpt><trkpt lat="41.91718236392484" lon="12.512921609220081"><ele>50.66666666666667</ele><time>2026-03-24T13:11:25Z</time></trkpt><trkpt lat="41.91729793796557" lon="12.513087538752691"><ele>50.0</ele><time>2026-03-24T13:11:26Z</time></trkpt><trkpt lat="41.91743072138341" lon="12.513275756026488"><ele>49.0</ele><time>2026-03-24T13:11:27Z</time></trkpt><trkpt lat="41.91756972465878" lon="12.513472668257874"><ele>48.0</ele><time>2026-03-24T13:11:28Z</time></trkpt><trkpt lat="41.9176883795596" lon="12.513649763938748"><ele>47.0</ele><time>2026-03-24T13:11:29Z</time></trkpt><trkpt lat="41.91779739984125" lon="12.513817634266434"><ele>46.666666666666664</ele><time>2026-03-24T13:11:30Z</time></trkpt><trkpt lat="41.917915607567096" lon="12.513996064859823"><ele>46.333333333333336</ele><time>2026-03-24T13:11:31Z</time></trkpt><trkpt lat="41.9180410746" lon="12.514177583883628"><ele>46.0</ele><time>2026-03-24T13:11:32Z</time></trkpt><trkpt lat="41.91815405045147" lon="12.514341721559871"><ele>46.0</ele><time>2026-03-24T13:11:33Z</time></trkpt><trkpt lat="41.91828036105964" lon="12.514530687856984"><ele>46.0</ele><time>2026-03-24T13:11:34Z</time></trkpt><trkpt lat="41.91842592903666" lon="12.514746130549625"><ele>46.0</ele><time>2026-03-24T13:11:35Z</time></trkpt><trkpt lat="41.91856154664745" lon="12.514938732238537"><ele>46.333333333333336</ele><time>2026-03-24T13:11:36Z</time></trkpt><trkpt lat="41.91868329486745" lon="12.51511293911199"><ele>46.666666666666664</ele><time>2026-03-24T13:11:37Z</time></trkpt><trkpt lat="41.91879276268913" lon="12.515278976269887"><ele>47.0</ele><time>2026-03-24T13:11:38Z</time></trkpt><trkpt lat="41.91890145746971" lon="12.51544638969449"><ele>47.0</ele><time>2026-03-24T13:11:39Z</time></trkpt><trkpt lat="41.919015052500214" lon="12.515605163234055"><ele>47.0</ele><time>2026-03-24T13:11:40Z</time></trkpt><trkpt lat="41.91912301365882" lon="12.515769482931544"><ele>47.0</ele><time>2026-03-24T13:11:41Z</time></trkpt><trkpt lat="41.919221129871275" lon="12.515918721921166"><ele>47.0</ele><time>2026-03-24T13:11:42Z</time></trkpt><trkpt lat="41.91930392676067" lon="12.516034785326807"><ele>47.0</ele><time>2026-03-24T13:11:43Z</time></trkpt><trkpt lat="41.91937114224259" lon="12.51612161395846"><ele>47.0</ele><time>2026-03-24T13:11:44Z</time></trkpt><trkpt lat="41.919428380266694" lon="12.516198838149224"><ele>47.0</ele><time>2026-03-24T13:11:45Z</time></trkpt><trkpt lat="41.919478255451125" lon="12.516273566640352"><ele>47.0</ele><time>2026-03-24T13:11:46Z</time></trkpt><trkpt lat="41.919536351977094" lon="12.516356019057298"><ele>47.2</ele><time>2026-03-24T13:11:47Z</time></trkpt><trkpt lat="41.91958508520568" lon="12.516429148776423"><ele>47.400000000000006</ele><time>2026-03-24T13:11:48Z</time></trkpt><trkpt lat="41.919663042228976" lon="12.51653483667567"><ele>47.599999999999994</ele><time>2026-03-24T13:11:50Z</time></trkpt><trkpt lat="41.91973899565352" lon="12.516650564841212"><ele>47.8</ele><time>2026-03-24T13:11:52Z</time></trkpt><trkpt lat="41.91980338311882" lon="12.516741761596508"><ele>48.0</ele><time>2026-03-24T13:11:53Z</time></trkpt><trkpt lat="41.91985508738924" lon="12.51681692285015"><ele>48.0</ele><time>2026-03-24T13:11:54Z</time></trkpt><trkpt lat="41.919945038640456" lon="12.516918868889766"><ele>48.0</ele><time>2026-03-24T13:11:56Z</time></trkpt><trkpt lat="41.92001610736076" lon="12.516982475629726"><ele>48.0</ele><time>2026-03-24T13:11:58Z</time></trkpt><trkpt lat="41.920087193101786" lon="12.517043518420648"><ele>48.0</ele><time>2026-03-24T13:12:00Z</time></trkpt><trkpt lat="41.92017071147287" lon="12.51710163745272"><ele>48.0</ele><time>2026-03-24T13:12:02Z</time></trkpt><trkpt lat="41.92024414077707" lon="12.517144610099146"><ele>48.8</ele><time>2026-03-24T13:12:03Z</time></trkpt><trkpt lat="41.92033496429118" lon="12.517195671764814"><ele>49.599999999999994</ele><time>2026-03-24T13:12:04Z</time></trkpt><trkpt lat="41.92041684715942" lon="12.51724633854051"><ele>50.400000000000006</ele><time>2026-03-24T13:12:05Z</time></trkpt><trkpt lat="41.92051365893166" lon="12.517308816920618"><ele>51.2</ele><time>2026-03-24T13:12:06Z</time></trkpt><trkpt lat="41.92059963328501" lon="12.517363273194912"><ele>52.0</ele><time>2026-03-24T13:12:07Z</time></trkpt><trkpt lat="41.92067948624173" lon="12.517412857643386"><ele>51.99999999999999</ele><time>2026-03-24T13:12:08.001Z</time></trkpt><trkpt lat="41.92074801555195" lon="12.517460073315242"><ele>52.0</ele><time>2026-03-24T13:12:09.001Z</time></trkpt><trkpt lat="41.92080880376463" lon="12.517496200859817"><ele>52.0</ele><time>2026-03-24T13:12:10.001Z</time></trkpt><trkpt lat="41.92087544471087" lon="12.517545978091283"><ele>52.0</ele><time>2026-03-24T13:12:11.001Z</time></trkpt><trkpt lat="41.92094195807317" lon="12.517591051084501"><ele>51.99999999999999</ele><time>2026-03-24T13:12:14.001Z</time></trkpt><trkpt lat="41.92102941110276" lon="12.517630083823015"><ele>52.0</ele><time>2026-03-24T13:12:54.001Z</time></trkpt><trkpt lat="41.921086074074736" lon="12.517671388489873"><ele>52.0</ele><time>2026-03-24T13:12:55.001Z</time></trkpt><trkpt lat="41.9211562526964" lon="12.517737338678893"><ele>52.0</ele><time>2026-03-24T13:12:57.001Z</time></trkpt><trkpt lat="41.92126250334798" lon="12.517806279089953"><ele>52.0</ele><time>2026-03-24T13:12:58.001Z</time></trkpt><trkpt lat="41.921370075742445" lon="12.517883541117817"><ele>52.0</ele><time>2026-03-24T13:12:59.001Z</time></trkpt><trkpt lat="41.921496977779476" lon="12.517998631666265"><ele>51.666666666666664</ele><time>2026-03-24T13:13:00.001Z</time></trkpt><trkpt lat="41.92162638831586" lon="12.518136545977264"><ele>51.33333333333333</ele><time>2026-03-24T13:13:01.001Z</time></trkpt><trkpt lat="41.92174370449955" lon="12.518263351800915"><ele>51.0</ele><time>2026-03-24T13:13:02.001Z</time></trkpt><trkpt lat="41.92184650269512" lon="12.518378741039852"><ele>50.833333333333336</ele><time>2026-03-24T13:13:03.001Z</time></trkpt><trkpt lat="41.92192782811917" lon="12.518469146357118"><ele>50.66666666666667</ele><time>2026-03-24T13:13:04.001Z</time></trkpt><trkpt lat="41.92198594623191" lon="12.51853673835509"><ele>50.5</ele><time>2026-03-24T13:13:05.001Z</time></trkpt><trkpt lat="41.92206330684727" lon="12.518612900574286"><ele>50.333333333333336</ele><time>2026-03-24T13:13:07.001Z</time></trkpt><trkpt lat="41.92211617227282" lon="12.51867248259596"><ele>50.16666666666667</ele><time>2026-03-24T13:13:09.001Z</time></trkpt><trkpt lat="41.92217682374797" lon="12.518733059739798"><ele>50.0</ele><time>2026-03-24T13:13:11.001Z</time></trkpt><trkpt lat="41.922233452007795" lon="12.518795223369048"><ele>50.4</ele><time>2026-03-24T13:13:13.001Z</time></trkpt><trkpt lat="41.92231600127934" lon="12.518885786861928"><ele>50.8</ele><time>2026-03-24T13:13:16.002Z</time></trkpt><trkpt lat="41.92238047548844" lon="12.518966472388232"><ele>51.2</ele><time>2026-03-24T13:13:17.002Z</time></trkpt><trkpt lat="41.92246117788523" lon="12.519061699961204"><ele>51.6</ele><time>2026-03-24T13:13:18.002Z</time></trkpt><trkpt lat="41.92251838586697" lon="12.519136544664489"><ele>52.0</ele><time>2026-03-24T13:13:19.002Z</time></trkpt><trkpt lat="41.92259993493507" lon="12.519213798407112"><ele>51.99999999999999</ele><time>2026-03-24T13:13:20.002Z</time></trkpt><trkpt lat="41.922668141287346" lon="12.519294482412336"><ele>52.0</ele><time>2026-03-24T13:13:21.002Z</time></trkpt><trkpt lat="41.922733358513554" lon="12.51936565276358"><ele>52.0</ele><time>2026-03-24T13:13:22.002Z</time></trkpt><trkpt lat="41.922793215686944" lon="12.519432925498393"><ele>52.0</ele><time>2026-03-24T13:13:23.002Z</time></trkpt><trkpt lat="41.92285008606412" lon="12.519487953942184"><ele>51.99999999999999</ele><time>2026-03-24T13:13:24.002Z</time></trkpt><trkpt lat="41.92290015381506" lon="12.519553918530459"><ele>52.0</ele><time>2026-03-24T13:13:25.002Z</time></trkpt><trkpt lat="41.9229499054916" lon="12.519620687066745"><ele>52.75</ele><time>2026-03-24T13:13:26.002Z</time></trkpt><trkpt lat="41.923032699896986" lon="12.519702119402451"><ele>53.5</ele><time>2026-03-24T13:13:27.002Z</time></trkpt><trkpt lat="41.92312466609017" lon="12.519806537637686"><ele>54.25</ele><time>2026-03-24T13:13:28.002Z</time></trkpt><trkpt lat="41.923207130232505" lon="12.519903051695346"><ele>55.0</ele><time>2026-03-24T13:13:29Z</time></trkpt><trkpt lat="41.92330270288005" lon="12.520012849874913"><ele>54.75</ele><time>2026-03-24T13:13:30Z</time></trkpt><trkpt lat="41.92340916851039" lon="12.520134858438423"><ele>54.5</ele><time>2026-03-24T13:13:31Z</time></trkpt><trkpt lat="41.92350670779606" lon="12.520235170967469"><ele>54.25</ele><time>2026-03-24T13:13:32Z</time></trkpt><trkpt lat="41.92359989294091" lon="12.52033720170837"><ele>54.0</ele><time>2026-03-24T13:13:33Z</time></trkpt><trkpt lat="41.92369049880007" lon="12.520428112280792"><ele>53.800000000000004</ele><time>2026-03-24T13:13:34Z</time></trkpt><trkpt lat="41.923774764803355" lon="12.520512044907418"><ele>53.60000000000001</ele><time>2026-03-24T13:13:35Z</time></trkpt><trkpt lat="41.923856835752446" lon="12.520591364684096"><ele>53.4</ele><time>2026-03-24T13:13:36Z</time></trkpt><trkpt lat="41.923941312477325" lon="12.52066496327183"><ele>53.2</ele><time>2026-03-24T13:13:37Z</time></trkpt><trkpt lat="41.9240184977145" lon="12.520737832834564"><ele>53.0</ele><time>2026-03-24T13:13:38Z</time></trkpt><trkpt lat="41.924113678792054" lon="12.520825318937792"><ele>53.0</ele><time>2026-03-24T13:13:39Z</time></trkpt><trkpt lat="41.92422589070692" lon="12.520953987838398"><ele>53.0</ele><time>2026-03-24T13:13:40Z</time></trkpt><trkpt lat="41.92432942679671" lon="12.521080792483449"><ele>53.0</ele><time>2026-03-24T13:13:41Z</time></trkpt><trkpt lat="41.92442386696586" lon="12.52119991494776"><ele>53.0</ele><time>2026-03-24T13:13:42Z</time></trkpt><trkpt lat="41.92448657824355" lon="12.521285503790189"><ele>52.8</ele><time>2026-03-24T13:13:43Z</time></trkpt><trkpt lat="41.924573008067064" lon="12.521402085023702"><ele>52.599999999999994</ele><time>2026-03-24T13:13:45Z</time></trkpt><trkpt lat="41.92466906620423" lon="12.521536908688724"><ele>52.400000000000006</ele><time>2026-03-24T13:13:47Z</time></trkpt><trkpt lat="41.92470281534294" lon="12.521629014054966"><ele>52.2</ele><time>2026-03-24T13:13:48Z</time></trkpt><trkpt lat="41.92479474087057" lon="12.521708888652716"><ele>52.0</ele><time>2026-03-24T13:13:50Z</time></trkpt><trkpt lat="41.92485324824335" lon="12.521782211433877"><ele>52.0</ele><time>2026-03-24T13:13:52Z</time></trkpt><trkpt lat="41.92490060087356" lon="12.5218468875011"><ele>52.0</ele><time>2026-03-24T13:13:55Z</time></trkpt><trkpt lat="41.92493885535257" lon="12.521924889795308"><ele>52.0</ele><time>2026-03-24T13:14:28.001Z</time></trkpt><trkpt lat="41.92502034845041" lon="12.522033967788254"><ele>52.0</ele><time>2026-03-24T13:14:30.001Z</time></trkpt><trkpt lat="41.92511745886187" lon="12.522132435261916"><ele>52.0</ele><time>2026-03-24T13:14:31.001Z</time></trkpt><trkpt lat="41.92522526449856" lon="12.522235440484275"><ele>51.25</ele><time>2026-03-24T13:14:32.001Z</time></trkpt><trkpt lat="41.92534159826437" lon="12.52235071506199"><ele>50.5</ele><time>2026-03-24T13:14:33.001Z</time></trkpt><trkpt lat="41.92543898031319" lon="12.522453166103848"><ele>49.75</ele><time>2026-03-24T13:14:34.001Z</time></trkpt><trkpt lat="41.92552640563716" lon="12.522546010444206"><ele>49.0</ele><time>2026-03-24T13:14:35.001Z</time></trkpt><trkpt lat="41.925611981717246" lon="12.522638197747138"><ele>49.0</ele><time>2026-03-24T13:14:36.001Z</time></trkpt><trkpt lat="41.92570403643857" lon="12.52272733153393"><ele>49.0</ele><time>2026-03-24T13:14:37.001Z</time></trkpt><trkpt lat="41.925815696969266" lon="12.52284180751046"><ele>49.0</ele><time>2026-03-24T13:14:38.001Z</time></trkpt><trkpt lat="41.925923060637004" lon="12.522957387373893"><ele>49.0</ele><time>2026-03-24T13:14:39.001Z</time></trkpt><trkpt lat="41.926018035015545" lon="12.523067981644704"><ele>48.800000000000004</ele><time>2026-03-24T13:14:40.001Z</time></trkpt><trkpt lat="41.92611286024471" lon="12.52318993010187"><ele>48.6</ele><time>2026-03-24T13:14:41.001Z</time></trkpt><trkpt lat="41.926199884347234" lon="12.523300436882282"><ele>48.4</ele><time>2026-03-24T13:14:42.001Z</time></trkpt><trkpt lat="41.9262784132265" lon="12.523391864496089"><ele>48.2</ele><time>2026-03-24T13:14:43.001Z</time></trkpt><trkpt lat="41.926350238548785" lon="12.523473422571806"><ele>48.0</ele><time>2026-03-24T13:14:44.001Z</time></trkpt><trkpt lat="41.926428537828805" lon="12.523562061780048"><ele>48.0</ele><time>2026-03-24T13:14:45.001Z</time></trkpt><trkpt lat="41.92651884912469" lon="12.523657211926174"><ele>48.0</ele><time>2026-03-24T13:14:46.001Z</time></trkpt><trkpt lat="41.92662321876082" lon="12.523756478785668"><ele>48.0</ele><time>2026-03-24T13:14:47.001Z</time></trkpt><trkpt lat="41.92672254783119" lon="12.523841621562333"><ele>48.0</ele><time>2026-03-24T13:14:48.001Z</time></trkpt><trkpt lat="41.926812488882085" lon="12.523923200953794"><ele>49.5</ele><time>2026-03-24T13:14:49.001Z</time></trkpt><trkpt lat="41.926903822520174" lon="12.5240059378895"><ele>51.0</ele><time>2026-03-24T13:14:50.001Z</time></trkpt><trkpt lat="41.92700095487317" lon="12.524089832211857"><ele>52.5</ele><time>2026-03-24T13:14:51.001Z</time></trkpt><trkpt lat="41.92710191614053" lon="12.524174841711556"><ele>54.0</ele><time>2026-03-24T13:14:52.001Z</time></trkpt><trkpt lat="41.92720558523189" lon="12.52426117712594"><ele>54.0</ele><time>2026-03-24T13:14:53.001Z</time></trkpt><trkpt lat="41.927313863850124" lon="12.524359855776648"><ele>54.0</ele><time>2026-03-24T13:14:54.001Z</time></trkpt><trkpt lat="41.92745954463673" lon="12.524486028675497"><ele>54.0</ele><time>2026-03-24T13:14:55.001Z</time></trkpt><trkpt lat="41.9276163856299" lon="12.524630382183794"><ele>52.33333333333333</ele><time>2026-03-24T13:14:56.001Z</time></trkpt><trkpt lat="41.92776291611471" lon="12.524757551626173"><ele>50.666666666666664</ele><time>2026-03-24T13:14:57.001Z</time></trkpt><trkpt lat="41.92792701479824" lon="12.524900768170774"><ele>49.0</ele><time>2026-03-24T13:14:58.001Z</time></trkpt><trkpt lat="41.928088286249775" lon="12.525035027755342"><ele>49.0</ele><time>2026-03-24T13:14:59.001Z</time></trkpt><trkpt lat="41.928239216334774" lon="12.525163232804742"><ele>49.0</ele><time>2026-03-24T13:15:00.001Z</time></trkpt><trkpt lat="41.92839198625786" lon="12.525296535959093"><ele>49.0</ele><time>2026-03-24T13:15:01.001Z</time></trkpt><trkpt lat="41.928532130845774" lon="12.525420106192293"><ele>47.0</ele><time>2026-03-24T13:15:02.001Z</time></trkpt><trkpt lat="41.92866223911146" lon="12.525532959292393"><ele>45.0</ele><time>2026-03-24T13:15:03.001Z</time></trkpt><trkpt lat="41.92878778729383" lon="12.525638525488048"><ele>43.0</ele><time>2026-03-24T13:15:04.001Z</time></trkpt><trkpt lat="41.92890679834116" lon="12.525739276199603"><ele>41.0</ele><time>2026-03-24T13:15:05.001Z</time></trkpt><trkpt lat="41.92904073340106" lon="12.525854805209269"><ele>41.0</ele><time>2026-03-24T13:15:06.001Z</time></trkpt><trkpt lat="41.929178815479816" lon="12.525971454486674"><ele>41.0</ele><time>2026-03-24T13:15:07.001Z</time></trkpt><trkpt lat="41.929303605524716" lon="12.526073876930813"><ele>41.0</ele><time>2026-03-24T13:15:08.001Z</time></trkpt><trkpt lat="41.92941915920172" lon="12.52616864244382"><ele>41.0</ele><time>2026-03-24T13:15:09.001Z</time></trkpt><trkpt lat="41.92953478348338" lon="12.52626170809059"><ele>39.8</ele><time>2026-03-24T13:15:10.001Z</time></trkpt><trkpt lat="41.92964649546312" lon="12.526351388527724"><ele>38.599999999999994</ele><time>2026-03-24T13:15:11.001Z</time></trkpt><trkpt lat="41.92974860956962" lon="12.526428991707604"><ele>37.4</ele><time>2026-03-24T13:15:12.001Z</time></trkpt><trkpt lat="41.92983837863836" lon="12.526501502828381"><ele>36.2</ele><time>2026-03-24T13:15:13.001Z</time></trkpt><trkpt lat="41.92991273616958" lon="12.526558886629237"><ele>35.0</ele><time>2026-03-24T13:15:14.001Z</time></trkpt><trkpt lat="41.929982954298595" lon="12.52660661341219"><ele>35.0</ele><time>2026-03-24T13:15:15.001Z</time></trkpt><trkpt lat="41.93005421607798" lon="12.52664756528285"><ele>35.0</ele><time>2026-03-24T13:15:16.001Z</time></trkpt><trkpt lat="41.930120394065824" lon="12.526688180669325"><ele>35.0</ele><time>2026-03-24T13:15:17.001Z</time></trkpt><trkpt lat="41.93018289461712" lon="12.526729622707144"><ele>35.0</ele><time>2026-03-24T13:15:18.001Z</time></trkpt><trkpt lat="41.93025132723966" lon="12.526779800684281"><ele>35.0</ele><time>2026-03-24T13:15:19.002Z</time></trkpt><trkpt lat="41.93031647680869" lon="12.52682856224802"><ele>35.0</ele><time>2026-03-24T13:15:20.002Z</time></trkpt><trkpt lat="41.930397922859" lon="12.526893597194867"><ele>35.33333333333333</ele><time>2026-03-24T13:15:21.002Z</time></trkpt><trkpt lat="41.93048250292039" lon="12.526961900950424"><ele>35.666666666666664</ele><time>2026-03-24T13:15:22.002Z</time></trkpt><trkpt lat="41.93054971650021" lon="12.52701498744953"><ele>36.0</ele><time>2026-03-24T13:15:23.002Z</time></trkpt><trkpt lat="41.93061908406726" lon="12.527067377856765"><ele>36.333333333333336</ele><time>2026-03-24T13:15:24.002Z</time></trkpt><trkpt lat="41.930690667966566" lon="12.527115007290726"><ele>36.66666666666667</ele><time>2026-03-24T13:15:25.002Z</time></trkpt><trkpt lat="41.930781965279806" lon="12.527204624879117"><ele>37.0</ele><time>2026-03-24T13:15:27.002Z</time></trkpt><trkpt lat="41.930891159087345" lon="12.527250581116924"><ele>37.6</ele><time>2026-03-24T13:15:29.002Z</time></trkpt><trkpt lat="41.93095191407556" lon="12.527300305108577"><ele>38.2</ele><time>2026-03-24T13:15:30.002Z</time></trkpt><trkpt lat="41.93102164251788" lon="12.527359692484625"><ele>38.8</ele><time>2026-03-24T13:15:31.002Z</time></trkpt><trkpt lat="41.93111425996676" lon="12.527440520843099"><ele>39.4</ele><time>2026-03-24T13:15:32.002Z</time></trkpt><trkpt lat="41.93123172321218" lon="12.527536717256229"><ele>40.0</ele><time>2026-03-24T13:15:33.002Z</time></trkpt><trkpt lat="41.931339796469565" lon="12.527621574218868"><ele>40.0</ele><time>2026-03-24T13:15:34.002Z</time></trkpt><trkpt lat="41.93144782141743" lon="12.52770706035436"><ele>40.0</ele><time>2026-03-24T13:15:35Z</time></trkpt><trkpt lat="41.931549044820535" lon="12.527787375617065"><ele>40.0</ele><time>2026-03-24T13:15:36Z</time></trkpt><trkpt lat="41.93164428955325" lon="12.52786450696561"><ele>40.0</ele><time>2026-03-24T13:15:37Z</time></trkpt><trkpt lat="41.931735843048855" lon="12.527939100688323"><ele>39.66666666666667</ele><time>2026-03-24T13:15:38Z</time></trkpt><trkpt lat="41.93181994096771" lon="12.528011999097801"><ele>39.333333333333336</ele><time>2026-03-24T13:15:39Z</time></trkpt><trkpt lat="41.931891766582766" lon="12.528071750404326"><ele>39.0</ele><time>2026-03-24T13:15:40Z</time></trkpt><trkpt lat="41.931957490992836" lon="12.528133363833733"><ele>38.666666666666664</ele><time>2026-03-24T13:15:41Z</time></trkpt><trkpt lat="41.93201930991193" lon="12.52820115012045"><ele>38.33333333333333</ele><time>2026-03-24T13:15:42Z</time></trkpt><trkpt lat="41.932080026036786" lon="12.528270348663652"><ele>38.0</ele><time>2026-03-24T13:15:43Z</time></trkpt><trkpt lat="41.9321334592313" lon="12.528330542905596"><ele>38.0</ele><time>2026-03-24T13:15:44Z</time></trkpt><trkpt lat="41.93218680089338" lon="12.528391362527561"><ele>38.0</ele><time>2026-03-24T13:15:45Z</time></trkpt><trkpt lat="41.932243174757566" lon="12.528467778488379"><ele>38.0</ele><time>2026-03-24T13:15:46Z</time></trkpt><trkpt lat="41.9323225895519" lon="12.528527084495087"><ele>38.0</ele><time>2026-03-24T13:15:47Z</time></trkpt><trkpt lat="41.93237449495444" lon="12.528587882117113"><ele>38.0</ele><time>2026-03-24T13:15:48Z</time></trkpt><trkpt lat="41.932453959720235" lon="12.528665702003286"><ele>38.0</ele><time>2026-03-24T13:15:50Z</time></trkpt><trkpt lat="41.93250458034018" lon="12.528739991685779"><ele>38.199999999999996</ele><time>2026-03-24T13:15:52Z</time></trkpt><trkpt lat="41.93258401012869" lon="12.528790963647312"><ele>38.4</ele><time>2026-03-24T13:16:18Z</time></trkpt><trkpt lat="41.932643032319575" lon="12.528837798608375"><ele>38.599999999999994</ele><time>2026-03-24T13:16:20Z</time></trkpt><trkpt lat="41.932732155208846" lon="12.528909827235044"><ele>38.8</ele><time>2026-03-24T13:16:22Z</time></trkpt><trkpt lat="41.93282502649186" lon="12.528996776952823"><ele>39.0</ele><time>2026-03-24T13:16:24Z</time></trkpt><trkpt lat="41.93291463071216" lon="12.5290843253028"><ele>39.0</ele><time>2026-03-24T13:16:26.001Z</time></trkpt><trkpt lat="41.93296897618714" lon="12.529132895541718"><ele>39.0</ele><time>2026-03-24T13:16:27.001Z</time></trkpt><trkpt lat="41.93303580982866" lon="12.52919407879582"><ele>39.0</ele><time>2026-03-24T13:16:28.001Z</time></trkpt><trkpt lat="41.933097591796205" lon="12.529264280306823"><ele>39.0</ele><time>2026-03-24T13:16:29.001Z</time></trkpt><trkpt lat="41.9331603416099" lon="12.529378412029422"><ele>39.0</ele><time>2026-03-24T13:16:30.001Z</time></trkpt><trkpt lat="41.9332442009998" lon="12.529492713027839"><ele>38.4</ele><time>2026-03-24T13:16:31.001Z</time></trkpt><trkpt lat="41.93331434984906" lon="12.529594259467892"><ele>37.8</ele><time>2026-03-24T13:16:32.001Z</time></trkpt><trkpt lat="41.93336056512067" lon="12.52967247645653"><ele>37.2</ele><time>2026-03-24T13:16:33.001Z</time></trkpt><trkpt lat="41.93341441236431" lon="12.529759201392762"><ele>36.6</ele><time>2026-03-24T13:16:35.001Z</time></trkpt><trkpt lat="41.933450585825426" lon="12.529829502701796"><ele>36.0</ele><time>2026-03-24T13:17:10.001Z</time></trkpt><trkpt lat="41.9335633754718" lon="12.530020175880841"><ele>36.0</ele><time>2026-03-24T13:17:12.001Z</time></trkpt><trkpt lat="41.933644118550895" lon="12.530144043159398"><ele>36.0</ele><time>2026-03-24T13:17:13.001Z</time></trkpt><trkpt lat="41.933739162660814" lon="12.530296465730245"><ele>36.0</ele><time>2026-03-24T13:17:14.001Z</time></trkpt><trkpt lat="41.933839358788006" lon="12.5304482586113"><ele>36.0</ele><time>2026-03-24T13:17:15.001Z</time></trkpt><trkpt lat="41.933939456668384" lon="12.530615186387188"><ele>35.666666666666664</ele><time>2026-03-24T13:17:16.001Z</time></trkpt><trkpt lat="41.93405204107812" lon="12.530812151246865"><ele>35.33333333333333</ele><time>2026-03-24T13:17:17.001Z</time></trkpt><trkpt lat="41.93416447647314" lon="12.53101809642432"><ele>35.0</ele><time>2026-03-24T13:17:18.001Z</time></trkpt><trkpt lat="41.93425624764596" lon="12.531200911379749"><ele>36.666666666666664</ele><time>2026-03-24T13:17:19.001Z</time></trkpt><trkpt lat="41.934346540183604" lon="12.531388660913134"><ele>38.333333333333336</ele><time>2026-03-24T13:17:20.001Z</time></trkpt><trkpt lat="41.93443352734748" lon="12.53157697246165"><ele>40.0</ele><time>2026-03-24T13:17:21.001Z</time></trkpt><trkpt lat="41.93451122538897" lon="12.531765410346395"><ele>40.0</ele><time>2026-03-24T13:17:22.001Z</time></trkpt><trkpt lat="41.93457537299723" lon="12.531939701741141"><ele>40.0</ele><time>2026-03-24T13:17:23.001Z</time></trkpt><trkpt lat="41.934640458649326" lon="12.532093345936591"><ele>40.0</ele><time>2026-03-24T13:17:24.001Z</time></trkpt><trkpt lat="41.93469457688904" lon="12.532250105796654"><ele>40.0</ele><time>2026-03-24T13:17:25.001Z</time></trkpt><trkpt lat="41.934749306070614" lon="12.532401433380487"><ele>38.66666666666667</ele><time>2026-03-24T13:17:26.001Z</time></trkpt><trkpt lat="41.93479359008826" lon="12.532534032431023"><ele>37.333333333333336</ele><time>2026-03-24T13:17:27.001Z</time></trkpt><trkpt lat="41.93481471023132" lon="12.532655804182921"><ele>36.0</ele><time>2026-03-24T13:17:28.001Z</time></trkpt><trkpt lat="41.934840155359154" lon="12.532740544828194"><ele>34.666666666666664</ele><time>2026-03-24T13:17:29.001Z</time></trkpt><trkpt lat="41.93486477459031" lon="12.53282119876998"><ele>33.33333333333333</ele><time>2026-03-24T13:17:30.001Z</time></trkpt><trkpt lat="41.93489368997802" lon="12.532915927150706"><ele>32.0</ele><time>2026-03-24T13:17:31.001Z</time></trkpt><trkpt lat="41.93493461964194" lon="12.533050014926545"><ele>32.4</ele><time>2026-03-24T13:17:32.001Z</time></trkpt><trkpt lat="41.93497999348623" lon="12.533198081314318"><ele>32.800000000000004</ele><time>2026-03-24T13:17:33.001Z</time></trkpt><trkpt lat="41.93501231032699" lon="12.533302906891576"><ele>33.2</ele><time>2026-03-24T13:17:34.001Z</time></trkpt><trkpt lat="41.9350579779902" lon="12.533424023085518"><ele>33.6</ele><time>2026-03-24T13:17:36.001Z</time></trkpt><trkpt lat="41.93508873730947" lon="12.533587736242755"><ele>34.0</ele><time>2026-03-24T13:17:38.002Z</time></trkpt><trkpt lat="41.93510827988183" lon="12.533694806710955"><ele>34.5</ele><time>2026-03-24T13:17:39.002Z</time></trkpt><trkpt lat="41.93512308252504" lon="12.533803955786196"><ele>35.0</ele><time>2026-03-24T13:17:40.002Z</time></trkpt><trkpt lat="41.93512789798356" lon="12.533911848547966"><ele>35.5</ele><time>2026-03-24T13:17:41Z</time></trkpt><trkpt lat="41.93514556986066" lon="12.53400999800448"><ele>36.0</ele><time>2026-03-24T13:17:42Z</time></trkpt><trkpt lat="41.935166624882136" lon="12.534113598264094"><ele>36.5</ele><time>2026-03-24T13:17:43Z</time></trkpt><trkpt lat="41.935201830819885" lon="12.534206243420293"><ele>37.0</ele><time>2026-03-24T13:17:44Z</time></trkpt><trkpt lat="41.93521616171407" lon="12.534300234058326"><ele>37.0</ele><time>2026-03-24T13:17:45Z</time></trkpt><trkpt lat="41.93521376499454" lon="12.534400841123547"><ele>37.0</ele><time>2026-03-24T13:17:46Z</time></trkpt><trkpt lat="41.935202689130314" lon="12.534507685535262"><ele>37.0</ele><time>2026-03-24T13:17:47Z</time></trkpt><trkpt lat="41.93512752897777" lon="12.53462330357793"><ele>37.0</ele><time>2026-03-24T13:17:48Z</time></trkpt><trkpt lat="41.93504699789935" lon="12.534776226133921"><ele>37.0</ele><time>2026-03-24T13:17:49Z</time></trkpt><trkpt lat="41.93497236196077" lon="12.534911164785411"><ele>36.833333333333336</ele><time>2026-03-24T13:17:50Z</time></trkpt><trkpt lat="41.93491140158913" lon="12.535024045935787"><ele>36.66666666666667</ele><time>2026-03-24T13:17:51Z</time></trkpt><trkpt lat="41.934853571917536" lon="12.535131016123596"><ele>36.5</ele><time>2026-03-24T13:17:52Z</time></trkpt><trkpt lat="41.934807372177914" lon="12.535229187784338"><ele>36.333333333333336</ele><time>2026-03-24T13:17:53Z</time></trkpt><trkpt lat="41.93475718969207" lon="12.535307614584426"><ele>36.166666666666664</ele><time>2026-03-24T13:17:54Z</time></trkpt><trkpt lat="41.934718449393245" lon="12.535375797463043"><ele>36.0</ele><time>2026-03-24T13:17:55Z</time></trkpt><trkpt lat="41.93481954034753" lon="12.535614107146388"><ele>36.0</ele><time>2026-03-24T13:17:57Z</time></trkpt><trkpt lat="41.93487453134163" lon="12.53573384448627"><ele>36.0</ele><time>2026-03-24T13:17:59Z</time></trkpt><trkpt lat="41.93491356182365" lon="12.535803437946784"><ele>36.0</ele><time>2026-03-24T13:18:02Z</time></trkpt><trkpt lat="41.93496538954363" lon="12.535923398684439"><ele>36.0</ele><time>2026-03-24T13:18:20Z</time></trkpt><trkpt lat="41.93501298746153" lon="12.536026840215753"><ele>36.0</ele><time>2026-03-24T13:18:21Z</time></trkpt><trkpt lat="41.93506745153937" lon="12.53611730464317"><ele>37.25</ele><time>2026-03-24T13:18:22Z</time></trkpt><trkpt lat="41.935138669499715" lon="12.536220956925325"><ele>38.5</ele><time>2026-03-24T13:18:23Z</time></trkpt><trkpt lat="41.93520981784509" lon="12.53632663367501"><ele>39.75</ele><time>2026-03-24T13:18:24Z</time></trkpt><trkpt lat="41.93529946323027" lon="12.536459775441019"><ele>41.0</ele><time>2026-03-24T13:18:25Z</time></trkpt><trkpt lat="41.93537843978611" lon="12.536581724459888"><ele>41.0</ele><time>2026-03-24T13:18:26Z</time></trkpt><trkpt lat="41.93545514486486" lon="12.536705249637018"><ele>41.0</ele><time>2026-03-24T13:18:27Z</time></trkpt><trkpt lat="41.935526534932734" lon="12.536849996125587"><ele>41.0</ele><time>2026-03-24T13:18:28Z</time></trkpt><trkpt lat="41.93558657628022" lon="12.536989051674471"><ele>41.0</ele><time>2026-03-24T13:18:29Z</time></trkpt><trkpt lat="41.93564372807973" lon="12.537126178544488"><ele>41.4</ele><time>2026-03-24T13:18:30Z</time></trkpt><trkpt lat="41.9356920052073" lon="12.537250341266121"><ele>41.8</ele><time>2026-03-24T13:18:31Z</time></trkpt><trkpt lat="41.93572115205452" lon="12.537366468131154"><ele>42.199999999999996</ele><time>2026-03-24T13:18:32Z</time></trkpt><trkpt lat="41.93575490192882" lon="12.537454395434535"><ele>42.599999999999994</ele><time>2026-03-24T13:18:33Z</time></trkpt><trkpt lat="41.935786052319024" lon="12.537535227529288"><ele>43.0</ele><time>2026-03-24T13:18:34Z</time></trkpt><trkpt lat="41.93584578120713" lon="12.537686939339208"><ele>43.16666666666667</ele><time>2026-03-24T13:18:36.001Z</time></trkpt><trkpt lat="41.93589898777735" lon="12.537767881542843"><ele>43.333333333333336</ele><time>2026-03-24T13:18:37.001Z</time></trkpt><trkpt lat="41.93592262198715" lon="12.537867767284109"><ele>43.5</ele><time>2026-03-24T13:18:38.001Z</time></trkpt><trkpt lat="41.93598119005862" lon="12.537951365304641"><ele>43.666666666666664</ele><time>2026-03-24T13:18:39.001Z</time></trkpt><trkpt lat="41.9360303125466" lon="12.538047504195305"><ele>43.83333333333333</ele><time>2026-03-24T13:18:40.001Z</time></trkpt><trkpt lat="41.93607786990153" lon="12.538137141117113"><ele>44.0</ele><time>2026-03-24T13:18:41.001Z</time></trkpt><trkpt lat="41.936131056086275" lon="12.538228518130296"><ele>44.0</ele><time>2026-03-24T13:18:42.001Z</time></trkpt><trkpt lat="41.93617714225986" lon="12.538312407653823"><ele>44.0</ele><time>2026-03-24T13:18:43.001Z</time></trkpt><trkpt lat="41.93621616851242" lon="12.538379774826899"><ele>44.0</ele><time>2026-03-24T13:18:44.001Z</time></trkpt><trkpt lat="41.936287625206155" lon="12.538490980409286"><ele>44.0</ele><time>2026-03-24T13:18:46.001Z</time></trkpt><trkpt lat="41.9363517449313" lon="12.538595298218542"><ele>44.0</ele><time>2026-03-24T13:18:48.001Z</time></trkpt><trkpt lat="41.93642116696059" lon="12.538705251865938"><ele>42.400000000000006</ele><time>2026-03-24T13:18:50.001Z</time></trkpt><trkpt lat="41.93647851437574" lon="12.538789114907981"><ele>40.800000000000004</ele><time>2026-03-24T13:18:51.001Z</time></trkpt><trkpt lat="41.9365556045951" lon="12.53889269177328"><ele>39.2</ele><time>2026-03-24T13:18:52.001Z</time></trkpt><trkpt lat="41.936617219568255" lon="12.539004329881816"><ele>37.6</ele><time>2026-03-24T13:18:53.001Z</time></trkpt><trkpt lat="41.93670159153942" lon="12.539078317058046"><ele>36.0</ele><time>2026-03-24T13:18:54.001Z</time></trkpt><trkpt lat="41.93679195572035" lon="12.539167812701635"><ele>35.25</ele><time>2026-03-24T13:18:55.001Z</time></trkpt><trkpt lat="41.93691089507208" lon="12.539252379411952"><ele>34.5</ele><time>2026-03-24T13:18:56.001Z</time></trkpt><trkpt lat="41.937025453136414" lon="12.539323200790747"><ele>33.75</ele><time>2026-03-24T13:18:57.001Z</time></trkpt><trkpt lat="41.93713709302525" lon="12.539384876288603"><ele>33.0</ele><time>2026-03-24T13:18:58.001Z</time></trkpt><trkpt lat="41.93724233001305" lon="12.539446587565681"><ele>33.0</ele><time>2026-03-24T13:18:59.001Z</time></trkpt><trkpt lat="41.937331213291486" lon="12.539512873516271"><ele>33.0</ele><time>2026-03-24T13:19:00.001Z</time></trkpt><trkpt lat="41.93740818019827" lon="12.539580859834553"><ele>33.0</ele><time>2026-03-24T13:19:01.001Z</time></trkpt><trkpt lat="41.93747749072924" lon="12.539652937664673"><ele>33.0</ele><time>2026-03-24T13:19:02.001Z</time></trkpt><trkpt lat="41.93754802747183" lon="12.539742168766246"><ele>33.0</ele><time>2026-03-24T13:19:03.001Z</time></trkpt><trkpt lat="41.937605701137585" lon="12.539852840467569"><ele>33.0</ele><time>2026-03-24T13:19:04.001Z</time></trkpt><trkpt lat="41.93763816889731" lon="12.539958631365527"><ele>33.0</ele><time>2026-03-24T13:19:05.001Z</time></trkpt><trkpt lat="41.93764948134212" lon="12.540079238169712"><ele>33.0</ele><time>2026-03-24T13:19:06.001Z</time></trkpt><trkpt lat="41.93767120388873" lon="12.540209522263174"><ele>33.0</ele><time>2026-03-24T13:19:07.001Z</time></trkpt><trkpt lat="41.93769583133082" lon="12.540367556121764"><ele>33.0</ele><time>2026-03-24T13:19:08.001Z</time></trkpt><trkpt lat="41.937727744981736" lon="12.540599538848891"><ele>32.0</ele><time>2026-03-24T13:19:09.001Z</time></trkpt><trkpt lat="41.93775643849879" lon="12.540816357219452"><ele>31.0</ele><time>2026-03-24T13:19:10.001Z</time></trkpt><trkpt lat="41.937783593947145" lon="12.541015091993174"><ele>30.0</ele><time>2026-03-24T13:19:11.001Z</time></trkpt><trkpt lat="41.937804895615756" lon="12.541212648105507"><ele>30.5</ele><time>2026-03-24T13:19:12.001Z</time></trkpt><trkpt lat="41.9378306407149" lon="12.541411483355265"><ele>31.0</ele><time>2026-03-24T13:19:13.001Z</time></trkpt><trkpt lat="41.93781816235797" lon="12.541603022247276"><ele>31.5</ele><time>2026-03-24T13:19:14.001Z</time></trkpt><trkpt lat="41.93778049605442" lon="12.541788266228384"><ele>32.0</ele><time>2026-03-24T13:19:15.001Z</time></trkpt><trkpt lat="41.937755202967985" lon="12.541973585677798"><ele>34.25</ele><time>2026-03-24T13:19:16.001Z</time></trkpt><trkpt lat="41.93772929159456" lon="12.542161594759584"><ele>36.5</ele><time>2026-03-24T13:19:17.001Z</time></trkpt><trkpt lat="41.937701851038334" lon="12.542359245375637"><ele>38.75</ele><time>2026-03-24T13:19:18.001Z</time></trkpt><trkpt lat="41.93769504428975" lon="12.542528600403342"><ele>41.0</ele><time>2026-03-24T13:19:19.001Z</time></trkpt><trkpt lat="41.937681162004154" lon="12.54262894011493"><ele>41.0</ele><time>2026-03-24T13:19:20.001Z</time></trkpt><trkpt lat="41.93766002622065" lon="12.542765911574138"><ele>41.0</ele><time>2026-03-24T13:19:21.001Z</time></trkpt><trkpt lat="41.937641776038674" lon="12.5429020595999"><ele>41.0</ele><time>2026-03-24T13:19:22.001Z</time></trkpt><trkpt lat="41.93762418553116" lon="12.543040946372956"><ele>41.0</ele><time>2026-03-24T13:19:23.001Z</time></trkpt><trkpt lat="41.93760419978522" lon="12.54318133042682"><ele>41.0</ele><time>2026-03-24T13:19:24.001Z</time></trkpt><trkpt lat="41.93758197921625" lon="12.543331246219982"><ele>42.0</ele><time>2026-03-24T13:19:25.001Z</time></trkpt><trkpt lat="41.937558239265286" lon="12.543483209086727"><ele>43.0</ele><time>2026-03-24T13:19:26.001Z</time></trkpt><trkpt lat="41.937536358701365" lon="12.543634349713107"><ele>44.0</ele><time>2026-03-24T13:19:27.001Z</time></trkpt><trkpt lat="41.93751798556885" lon="12.543768690659036"><ele>45.0</ele><time>2026-03-24T13:19:28.001Z</time></trkpt><trkpt lat="41.937501836660424" lon="12.54391254638029"><ele>46.0</ele><time>2026-03-24T13:19:29.001Z</time></trkpt><trkpt lat="41.93747821158513" lon="12.544043317450576"><ele>46.5</ele><time>2026-03-24T13:19:30.001Z</time></trkpt><trkpt lat="41.93747878972607" lon="12.544169975489833"><ele>47.0</ele><time>2026-03-24T13:19:31.001Z</time></trkpt><trkpt lat="41.93750330044215" lon="12.54435873827682"><ele>47.5</ele><time>2026-03-24T13:19:32.001Z</time></trkpt><trkpt lat="41.937553777153674" lon="12.544497669822773"><ele>48.0</ele><time>2026-03-24T13:19:33.001Z</time></trkpt><trkpt lat="41.9376160082955" lon="12.54460718293853"><ele>46.0</ele><time>2026-03-24T13:19:34.001Z</time></trkpt><trkpt lat="41.93767015053339" lon="12.544683170674773"><ele>44.0</ele><time>2026-03-24T13:19:35.001Z</time></trkpt><trkpt lat="41.93772481923829" lon="12.54476527706721"><ele>42.0</ele><time>2026-03-24T13:19:37.001Z</time></trkpt><trkpt lat="41.937849474687454" lon="12.544986025578769"><ele>40.0</ele><time>2026-03-24T13:20:37Z</time></trkpt><trkpt lat="41.937942171304414" lon="12.545128657247444"><ele>40.0</ele><time>2026-03-24T13:20:38Z</time></trkpt><trkpt lat="41.93805560827025" lon="12.545301997586092"><ele>40.0</ele><time>2026-03-24T13:20:39Z</time></trkpt><trkpt lat="41.938177940202145" lon="12.54548559638636"><ele>40.0</ele><time>2026-03-24T13:20:40Z</time></trkpt><trkpt lat="41.93827453511039" lon="12.545633990309996"><ele>39.6</ele><time>2026-03-24T13:20:41Z</time></trkpt><trkpt lat="41.938355983603856" lon="12.545766793315257"><ele>39.2</ele><time>2026-03-24T13:20:42Z</time></trkpt><trkpt lat="41.93842478610849" lon="12.545879901383813"><ele>38.8</ele><time>2026-03-24T13:20:43Z</time></trkpt><trkpt lat="41.93848628144723" lon="12.545992351609739"><ele>38.4</ele><time>2026-03-24T13:20:44Z</time></trkpt><trkpt lat="41.93854743012226" lon="12.546106749921718"><ele>38.0</ele><time>2026-03-24T13:20:45Z</time></trkpt><trkpt lat="41.93862116869151" lon="12.546243147645635"><ele>40.666666666666664</ele><time>2026-03-24T13:20:46Z</time></trkpt><trkpt lat="41.93870688864807" lon="12.546424966296387"><ele>43.333333333333336</ele><time>2026-03-24T13:20:47.001Z</time></trkpt><trkpt lat="41.93881576611012" lon="12.54662403792234"><ele>46.0</ele><time>2026-03-24T13:20:48.001Z</time></trkpt><trkpt lat="41.938922727373246" lon="12.546793708070268"><ele>46.0</ele><time>2026-03-24T13:20:49.001Z</time></trkpt><trkpt lat="41.939018149250785" lon="12.546975269153018"><ele>46.0</ele><time>2026-03-24T13:20:50.001Z</time></trkpt><trkpt lat="41.939082745153904" lon="12.547196408907006"><ele>46.0</ele><time>2026-03-24T13:20:51.001Z</time></trkpt><trkpt lat="41.93916201826521" lon="12.547432278291657"><ele>45.333333333333336</ele><time>2026-03-24T13:20:52.001Z</time></trkpt><trkpt lat="41.939227827181355" lon="12.547640074410442"><ele>44.666666666666664</ele><time>2026-03-24T13:20:53.001Z</time></trkpt><trkpt lat="41.93928789626179" lon="12.5478391585235"><ele>44.0</ele><time>2026-03-24T13:20:54.001Z</time></trkpt><trkpt lat="41.93934513048275" lon="12.548041824208875"><ele>43.0</ele><time>2026-03-24T13:20:55.001Z</time></trkpt><trkpt lat="41.93938090056857" lon="12.548228146075285"><ele>42.0</ele><time>2026-03-24T13:20:56.001Z</time></trkpt><trkpt lat="41.93941488530095" lon="12.548434385672602"><ele>41.0</ele><time>2026-03-24T13:20:57.001Z</time></trkpt><trkpt lat="41.93945072719875" lon="12.548650275370836"><ele>38.666666666666664</ele><time>2026-03-24T13:20:58.001Z</time></trkpt><trkpt lat="41.93950458999137" lon="12.548858125492469"><ele>36.333333333333336</ele><time>2026-03-24T13:20:59.001Z</time></trkpt><trkpt lat="41.939559854792265" lon="12.549074944407774"><ele>34.0</ele><time>2026-03-24T13:21:00.001Z</time></trkpt><trkpt lat="41.93963075061198" lon="12.549299407083684"><ele>34.0</ele><time>2026-03-24T13:21:01.001Z</time></trkpt><trkpt lat="41.939711259378136" lon="12.549520728930155"><ele>34.0</ele><time>2026-03-24T13:21:02.001Z</time></trkpt><trkpt lat="41.93977846004666" lon="12.549727822244353"><ele>34.0</ele><time>2026-03-24T13:21:03.001Z</time></trkpt><trkpt lat="41.939849612258904" lon="12.549926191343108"><ele>33.66666666666667</ele><time>2026-03-24T13:21:04.001Z</time></trkpt><trkpt lat="41.93992625115715" lon="12.550133774793647"><ele>33.333333333333336</ele><time>2026-03-24T13:21:05.001Z</time></trkpt><trkpt lat="41.94000664913816" lon="12.550315080664022"><ele>33.0</ele><time>2026-03-24T13:21:06.001Z</time></trkpt><trkpt lat="41.94008235250436" lon="12.550507100483543"><ele>33.0</ele><time>2026-03-24T13:21:07.001Z</time></trkpt><trkpt lat="41.940160590771264" lon="12.550692616247174"><ele>33.0</ele><time>2026-03-24T13:21:08.001Z</time></trkpt><trkpt lat="41.94023783011123" lon="12.55085855303743"><ele>33.0</ele><time>2026-03-24T13:21:09.001Z</time></trkpt><trkpt lat="41.94031210868813" lon="12.551012997162228"><ele>33.0</ele><time>2026-03-24T13:21:10.001Z</time></trkpt><trkpt lat="41.94039495188822" lon="12.551143188657681"><ele>32.333333333333336</ele><time>2026-03-24T13:21:11.001Z</time></trkpt><trkpt lat="41.94048501899868" lon="12.55125504004039"><ele>31.666666666666664</ele><time>2026-03-24T13:21:12.001Z</time></trkpt><trkpt lat="41.940555764146936" lon="12.551346276116881"><ele>31.0</ele><time>2026-03-24T13:21:13.001Z</time></trkpt><trkpt lat="41.94060851613969" lon="12.551408357255298"><ele>30.333333333333332</ele><time>2026-03-24T13:21:14.001Z</time></trkpt><trkpt lat="41.940672829835336" lon="12.551473010434716"><ele>29.666666666666664</ele><time>2026-03-24T13:21:16.001Z</time></trkpt><trkpt lat="41.940720725306136" lon="12.551529952496995"><ele>29.0</ele><time>2026-03-24T13:21:18.001Z</time></trkpt><trkpt lat="41.94076715721039" lon="12.55160528516964"><ele>29.0</ele><time>2026-03-24T13:21:20.001Z</time></trkpt><trkpt lat="41.94081665775545" lon="12.551694348049937"><ele>29.0</ele><time>2026-03-24T13:21:26.001Z</time></trkpt><trkpt lat="41.9408795261947" lon="12.55182563771261"><ele>29.0</ele><time>2026-03-24T13:21:28.001Z</time></trkpt><trkpt lat="41.94091800121804" lon="12.551920443481738"><ele>29.0</ele><time>2026-03-24T13:21:29.001Z</time></trkpt><trkpt lat="41.94097845246109" lon="12.552045099425385"><ele>29.0</ele><time>2026-03-24T13:21:31.001Z</time></trkpt><trkpt lat="41.94102297909024" lon="12.552152255462024"><ele>29.799999999999997</ele><time>2026-03-24T13:21:33.001Z</time></trkpt><trkpt lat="41.94105870907789" lon="12.552242810890188"><ele>30.599999999999998</ele><time>2026-03-24T13:21:36.001Z</time></trkpt><trkpt lat="41.94109465029555" lon="12.552386972746609"><ele>31.4</ele><time>2026-03-24T13:21:41.001Z</time></trkpt><trkpt lat="41.941142123752954" lon="12.552514502259463"><ele>32.199999999999996</ele><time>2026-03-24T13:21:42.001Z</time></trkpt><trkpt lat="41.94118787478319" lon="12.55263748186285"><ele>33.0</ele><time>2026-03-24T13:21:43.001Z</time></trkpt><trkpt lat="41.941256059377636" lon="12.552759506258527"><ele>33.0</ele><time>2026-03-24T13:21:44.001Z</time></trkpt><trkpt lat="41.94131258031821" lon="12.552887323507832"><ele>33.0</ele><time>2026-03-24T13:21:45.001Z</time></trkpt><trkpt lat="41.94136090910936" lon="12.553019484082483"><ele>33.0</ele><time>2026-03-24T13:21:46.001Z</time></trkpt><trkpt lat="41.94140705971112" lon="12.553139654666332"><ele>33.0</ele><time>2026-03-24T13:21:47.001Z</time></trkpt><trkpt lat="41.941457704037276" lon="12.553265093768466"><ele>33.0</ele><time>2026-03-24T13:21:48.001Z</time></trkpt><trkpt lat="41.94150515452838" lon="12.553389337975327"><ele>33.0</ele><time>2026-03-24T13:21:49.001Z</time></trkpt><trkpt lat="41.94156128907098" lon="12.553537514255341"><ele>33.0</ele><time>2026-03-24T13:21:50.001Z</time></trkpt><trkpt lat="41.9416160946456" lon="12.553675186093592"><ele>33.0</ele><time>2026-03-24T13:21:51.001Z</time></trkpt><trkpt lat="41.94165838343585" lon="12.55379799668314"><ele>33.0</ele><time>2026-03-24T13:21:52.001Z</time></trkpt><trkpt lat="41.94169887510279" lon="12.553905764909592"><ele>33.0</ele><time>2026-03-24T13:21:53Z</time></trkpt><trkpt lat="41.94173972372121" lon="12.55400585871116"><ele>33.4</ele><time>2026-03-24T13:21:54Z</time></trkpt><trkpt lat="41.94178396154965" lon="12.554123652921719"><ele>33.8</ele><time>2026-03-24T13:21:55Z</time></trkpt><trkpt lat="41.941828373493294" lon="12.554236254892151"><ele>34.2</ele><time>2026-03-24T13:21:56Z</time></trkpt><trkpt lat="41.94187329890228" lon="12.554356901974227"><ele>34.6</ele><time>2026-03-24T13:21:57Z</time></trkpt><trkpt lat="41.94193080693354" lon="12.554522616610335"><ele>35.0</ele><time>2026-03-24T13:21:58Z</time></trkpt><trkpt lat="41.94200590902722" lon="12.554713839334743"><ele>35.0</ele><time>2026-03-24T13:21:59Z</time></trkpt><trkpt lat="41.94207448711039" lon="12.55489765697429"><ele>35.0</ele><time>2026-03-24T13:22:00Z</time></trkpt><trkpt lat="41.94215029780703" lon="12.555105821536568"><ele>35.0</ele><time>2026-03-24T13:22:01Z</time></trkpt><trkpt lat="41.942227132069185" lon="12.555316328236913"><ele>35.5</ele><time>2026-03-24T13:22:02Z</time></trkpt><trkpt lat="41.94228744106896" lon="12.555483686138944"><ele>36.0</ele><time>2026-03-24T13:22:03Z</time></trkpt><trkpt lat="41.94235547535374" lon="12.555673526231985"><ele>36.5</ele><time>2026-03-24T13:22:04Z</time></trkpt><trkpt lat="41.94241545243468" lon="12.555857470038546"><ele>37.0</ele><time>2026-03-24T13:22:05Z</time></trkpt><trkpt lat="41.94248052640528" lon="12.55604206355723"><ele>38.0</ele><time>2026-03-24T13:22:06Z</time></trkpt><trkpt lat="41.94254379226266" lon="12.55621219954092"><ele>39.0</ele><time>2026-03-24T13:22:07Z</time></trkpt><trkpt lat="41.94261246520214" lon="12.556350461154219"><ele>40.0</ele><time>2026-03-24T13:22:08Z</time></trkpt><trkpt lat="41.94265533104175" lon="12.55650913201641"><ele>41.0</ele><time>2026-03-24T13:22:09Z</time></trkpt><trkpt lat="41.942713086440534" lon="12.556659767497855"><ele>41.5</ele><time>2026-03-24T13:22:10Z</time></trkpt><trkpt lat="41.94277086889945" lon="12.556807140430317"><ele>42.0</ele><time>2026-03-24T13:22:11Z</time></trkpt><trkpt lat="41.94282328402965" lon="12.556940803881549"><ele>42.5</ele><time>2026-03-24T13:22:12Z</time></trkpt><trkpt lat="41.94287632977715" lon="12.557073924852803"><ele>43.0</ele><time>2026-03-24T13:22:13Z</time></trkpt><trkpt lat="41.942951383468795" lon="12.557211873951232"><ele>43.8</ele><time>2026-03-24T13:22:14Z</time></trkpt><trkpt lat="41.94298863842313" lon="12.55734185018199"><ele>44.599999999999994</ele><time>2026-03-24T13:22:15Z</time></trkpt><trkpt lat="41.94303881299265" lon="12.557455229251302"><ele>45.400000000000006</ele><time>2026-03-24T13:22:16Z</time></trkpt><trkpt lat="41.943095538388015" lon="12.557574468122732"><ele>46.2</ele><time>2026-03-24T13:22:17Z</time></trkpt><trkpt lat="41.94315423491192" lon="12.557695059819073"><ele>47.0</ele><time>2026-03-24T13:22:18Z</time></trkpt><trkpt lat="41.943220788421385" lon="12.557828225959913"><ele>47.0</ele><time>2026-03-24T13:22:19Z</time></trkpt><trkpt lat="41.943279920565715" lon="12.557944974535022"><ele>47.0</ele><time>2026-03-24T13:22:20Z</time></trkpt><trkpt lat="41.94333796380241" lon="12.558059084273353"><ele>47.0</ele><time>2026-03-24T13:22:21Z</time></trkpt><trkpt lat="41.943396251957495" lon="12.558174286062163"><ele>47.0</ele><time>2026-03-24T13:22:22Z</time></trkpt><trkpt lat="41.943459878021066" lon="12.558267370170519"><ele>47.0</ele><time>2026-03-24T13:22:23Z</time></trkpt><trkpt lat="41.94351204448602" lon="12.55836492341042"><ele>47.0</ele><time>2026-03-24T13:22:24Z</time></trkpt><trkpt lat="41.94355976992718" lon="12.558464294581364"><ele>47.0</ele><time>2026-03-24T13:22:25Z</time></trkpt><trkpt lat="41.943606318466415" lon="12.55856550529432"><ele>47.0</ele><time>2026-03-24T13:22:26Z</time></trkpt><trkpt lat="41.94363561333348" lon="12.558671613663819"><ele>47.0</ele><time>2026-03-24T13:22:27Z</time></trkpt><trkpt lat="41.94369253006192" lon="12.558760772673212"><ele>47.0</ele><time>2026-03-24T13:22:28Z</time></trkpt><trkpt lat="41.943720797089824" lon="12.558867453094564"><ele>47.0</ele><time>2026-03-24T13:22:29Z</time></trkpt><trkpt lat="41.94375807580821" lon="12.558958169694927"><ele>47.0</ele><time>2026-03-24T13:22:30Z</time></trkpt><trkpt lat="41.94379340442679" lon="12.559046130755874"><ele>47.0</ele><time>2026-03-24T13:22:31Z</time></trkpt><trkpt lat="41.94382830789205" lon="12.55913307762053"><ele>47.0</ele><time>2026-03-24T13:22:32Z</time></trkpt><trkpt lat="41.94387781967853" lon="12.559256411616792"><ele>47.0</ele><time>2026-03-24T13:22:34Z</time></trkpt><trkpt lat="41.94392828850443" lon="12.559382129593038"><ele>47.0</ele><time>2026-03-24T13:22:36Z</time></trkpt><trkpt lat="41.943967658825535" lon="12.559481168067403"><ele>47.0</ele><time>2026-03-24T13:22:38Z</time></trkpt><trkpt lat="41.94401157304738" lon="12.559592623836112"><ele>47.0</ele><time>2026-03-24T13:22:40Z</time></trkpt><trkpt lat="41.94405341832363" lon="12.559698828535616"><ele>47.0</ele><time>2026-03-24T13:22:41Z</time></trkpt><trkpt lat="41.94408980463805" lon="12.55979117846112"><ele>47.0</ele><time>2026-03-24T13:22:42Z</time></trkpt><trkpt lat="41.94414306308081" lon="12.55992861480693"><ele>47.0</ele><time>2026-03-24T13:22:44Z</time></trkpt><trkpt lat="41.94419161413595" lon="12.559999251169767"><ele>47.0</ele><time>2026-03-24T13:22:45Z</time></trkpt><trkpt lat="41.94424123280054" lon="12.56011773860929"><ele>47.0</ele><time>2026-03-24T13:22:46Z</time></trkpt><trkpt lat="41.944287374757074" lon="12.56023739776892"><ele>47.0</ele><time>2026-03-24T13:22:47.001Z</time></trkpt><trkpt lat="41.944327601662096" lon="12.560346989379948"><ele>47.0</ele><time>2026-03-24T13:22:48.001Z</time></trkpt><trkpt lat="41.94436034623396" lon="12.560442215529514"><ele>47.0</ele><time>2026-03-24T13:22:49.001Z</time></trkpt><trkpt lat="41.944395685601954" lon="12.560528828969382"><ele>47.0</ele><time>2026-03-24T13:22:50.001Z</time></trkpt><trkpt lat="41.94441555769929" lon="12.560625598913795"><ele>47.0</ele><time>2026-03-24T13:22:51.001Z</time></trkpt><trkpt lat="41.94445229235978" lon="12.560719205334216"><ele>47.2</ele><time>2026-03-24T13:22:52.001Z</time></trkpt><trkpt lat="41.9444896778313" lon="12.560813839979323"><ele>47.400000000000006</ele><time>2026-03-24T13:22:53.001Z</time></trkpt><trkpt lat="41.94453887439845" lon="12.560884013464804"><ele>47.599999999999994</ele><time>2026-03-24T13:22:54.001Z</time></trkpt><trkpt lat="41.94457227649951" lon="12.560984668348802"><ele>47.8</ele><time>2026-03-24T13:22:56.001Z</time></trkpt><trkpt lat="41.944627170858745" lon="12.561130091906065"><ele>48.0</ele><time>2026-03-24T13:23:05.001Z</time></trkpt><trkpt lat="41.944683102294796" lon="12.561278483499883"><ele>48.0</ele><time>2026-03-24T13:23:06.001Z</time></trkpt><trkpt lat="41.94473582541094" lon="12.561395407291219"><ele>48.0</ele><time>2026-03-24T13:23:07.001Z</time></trkpt><trkpt lat="41.94478593388392" lon="12.561544184677636"><ele>48.0</ele><time>2026-03-24T13:23:08.001Z</time></trkpt><trkpt lat="41.94484842556463" lon="12.561710894654853"><ele>48.0</ele><time>2026-03-24T13:23:09.001Z</time></trkpt><trkpt lat="41.94490554651734" lon="12.56185975076963"><ele>48.0</ele><time>2026-03-24T13:23:10.001Z</time></trkpt><trkpt lat="41.94495199692179" lon="12.561978335178082"><ele>48.0</ele><time>2026-03-24T13:23:11.001Z</time></trkpt><trkpt lat="41.94499884546663" lon="12.562100424462932"><ele>48.0</ele><time>2026-03-24T13:23:12.001Z</time></trkpt><trkpt lat="41.9450418796595" lon="12.562218064000458"><ele>48.0</ele><time>2026-03-24T13:23:13.001Z</time></trkpt><trkpt lat="41.945088829795594" lon="12.56233613870475"><ele>48.0</ele><time>2026-03-24T13:23:14.001Z</time></trkpt><trkpt lat="41.945139456117744" lon="12.562455342407754"><ele>47.833333333333336</ele><time>2026-03-24T13:23:15.001Z</time></trkpt><trkpt lat="41.94518822096336" lon="12.562577653585826"><ele>47.666666666666664</ele><time>2026-03-24T13:23:16.001Z</time></trkpt><trkpt lat="41.94523385454655" lon="12.562701446198004"><ele>47.5</ele><time>2026-03-24T13:23:17.001Z</time></trkpt><trkpt lat="41.94527240725012" lon="12.562823877232809"><ele>47.33333333333333</ele><time>2026-03-24T13:23:18.001Z</time></trkpt><trkpt lat="41.94531030008548" lon="12.5629110239097"><ele>47.166666666666664</ele><time>2026-03-24T13:23:19.001Z</time></trkpt><trkpt lat="41.94533328756297" lon="12.562993864823051"><ele>47.0</ele><time>2026-03-24T13:23:20.001Z</time></trkpt><trkpt lat="41.94535803847361" lon="12.563144881051796"><ele>47.0</ele><time>2026-03-24T13:23:22.001Z</time></trkpt><trkpt lat="41.9453689178414" lon="12.563233471716366"><ele>47.0</ele><time>2026-03-24T13:23:23.001Z</time></trkpt><trkpt lat="41.945388042875024" lon="12.563316255045633"><ele>47.0</ele><time>2026-03-24T13:23:24.001Z</time></trkpt><trkpt lat="41.94542670303738" lon="12.56338856213498"><ele>47.0</ele><time>2026-03-24T13:23:25.001Z</time></trkpt><trkpt lat="41.945485540730516" lon="12.56345095093909"><ele>47.0</ele><time>2026-03-24T13:23:26.001Z</time></trkpt><trkpt lat="41.94554561931861" lon="12.563529703528785"><ele>47.0</ele><time>2026-03-24T13:23:27.001Z</time></trkpt><trkpt lat="41.945601258334484" lon="12.563614378722782"><ele>47.0</ele><time>2026-03-24T13:23:28.001Z</time></trkpt><trkpt lat="41.94564612997347" lon="12.563716961250432"><ele>46.8</ele><time>2026-03-24T13:23:29.001Z</time></trkpt><trkpt lat="41.94567253461213" lon="12.563836893692459"><ele>46.6</ele><time>2026-03-24T13:23:30.001Z</time></trkpt><trkpt lat="41.94571735041865" lon="12.563950101683796"><ele>46.4</ele><time>2026-03-24T13:23:31.001Z</time></trkpt><trkpt lat="41.94576337083216" lon="12.564066352656534"><ele>46.199999999999996</ele><time>2026-03-24T13:23:32.001Z</time></trkpt><trkpt lat="41.94582047182931" lon="12.564206947725514"><ele>46.0</ele><time>2026-03-24T13:23:33.001Z</time></trkpt><trkpt lat="41.945882767971575" lon="12.564362301998491"><ele>46.0</ele><time>2026-03-24T13:23:34.001Z</time></trkpt><trkpt lat="41.94593958324321" lon="12.564505412160418"><ele>46.0</ele><time>2026-03-24T13:23:35.001Z</time></trkpt><trkpt lat="41.94600277803354" lon="12.564617830781945"><ele>46.0</ele><time>2026-03-24T13:23:36.001Z</time></trkpt><trkpt lat="41.946047793390214" lon="12.564736651539254"><ele>46.0</ele><time>2026-03-24T13:23:37.001Z</time></trkpt><trkpt lat="41.94608907795632" lon="12.564845319017566"><ele>46.0</ele><time>2026-03-24T13:23:38.001Z</time></trkpt><trkpt lat="41.94613458261647" lon="12.56496133417091"><ele>46.199999999999996</ele><time>2026-03-24T13:23:39.001Z</time></trkpt><trkpt lat="41.94618550400518" lon="12.565094159096756"><ele>46.4</ele><time>2026-03-24T13:23:40.001Z</time></trkpt><trkpt lat="41.94623906254778" lon="12.565228357763376"><ele>46.6</ele><time>2026-03-24T13:23:41.001Z</time></trkpt><trkpt lat="41.94628878669026" lon="12.565353664536575"><ele>46.8</ele><time>2026-03-24T13:23:42.001Z</time></trkpt><trkpt lat="41.94633959029984" lon="12.565488370433773"><ele>47.0</ele><time>2026-03-24T13:23:43.001Z</time></trkpt><trkpt lat="41.946395442024055" lon="12.56562806397563"><ele>46.75</ele><time>2026-03-24T13:23:44.001Z</time></trkpt><trkpt lat="41.94645593042645" lon="12.56576931291641"><ele>46.5</ele><time>2026-03-24T13:23:45.001Z</time></trkpt><trkpt lat="41.94651813246636" lon="12.565913865810026"><ele>46.25</ele><time>2026-03-24T13:23:46.001Z</time></trkpt><trkpt lat="41.94657709740553" lon="12.566065990837544"><ele>46.0</ele><time>2026-03-24T13:23:47.001Z</time></trkpt><trkpt lat="41.946614755111575" lon="12.566221740434768"><ele>46.0</ele><time>2026-03-24T13:23:48.001Z</time></trkpt><trkpt lat="41.94668003959793" lon="12.566343566425624"><ele>46.0</ele><time>2026-03-24T13:23:49.001Z</time></trkpt><trkpt lat="41.94673091084307" lon="12.566476080359829"><ele>46.0</ele><time>2026-03-24T13:23:50.001Z</time></trkpt><trkpt lat="41.94678150178158" lon="12.566610704939922"><ele>46.0</ele><time>2026-03-24T13:23:51.001Z</time></trkpt><trkpt lat="41.9468329408762" lon="12.566750488146301"><ele>45.0</ele><time>2026-03-24T13:23:52.001Z</time></trkpt><trkpt lat="41.94688971398106" lon="12.566880501699515"><ele>44.0</ele><time>2026-03-24T13:23:53.001Z</time></trkpt><trkpt lat="41.94694986319809" lon="12.567029625773205"><ele>43.0</ele><time>2026-03-24T13:23:54.001Z</time></trkpt><trkpt lat="41.94700224423937" lon="12.567209942277794"><ele>42.0</ele><time>2026-03-24T13:23:55.001Z</time></trkpt><trkpt lat="41.947067585481335" lon="12.567376370704707"><ele>42.0</ele><time>2026-03-24T13:23:56.001Z</time></trkpt><trkpt lat="41.947154211724985" lon="12.567516249938613"><ele>42.0</ele><time>2026-03-24T13:23:57.001Z</time></trkpt><trkpt lat="41.947205702284755" lon="12.567659676902078"><ele>42.0</ele><time>2026-03-24T13:23:58.002Z</time></trkpt><trkpt lat="41.947258226235455" lon="12.56779027496733"><ele>42.0</ele><time>2026-03-24T13:23:59Z</time></trkpt><trkpt lat="41.947310639037305" lon="12.567911227910878"><ele>42.25</ele><time>2026-03-24T13:24:00Z</time></trkpt><trkpt lat="41.94736291100863" lon="12.568040026157007"><ele>42.5</ele><time>2026-03-24T13:24:01Z</time></trkpt><trkpt lat="41.9474317384906" lon="12.568165676454237"><ele>42.75</ele><time>2026-03-24T13:24:02Z</time></trkpt><trkpt lat="41.94750463194836" lon="12.56830548292213"><ele>43.0</ele><time>2026-03-24T13:24:03Z</time></trkpt><trkpt lat="41.94758299699029" lon="12.568448503653446"><ele>43.0</ele><time>2026-03-24T13:24:04Z</time></trkpt><trkpt lat="41.947650319147264" lon="12.568581924884878"><ele>43.0</ele><time>2026-03-24T13:24:05Z</time></trkpt><trkpt lat="41.94771840100598" lon="12.568696771043301"><ele>43.0</ele><time>2026-03-24T13:24:06Z</time></trkpt><trkpt lat="41.94779417176092" lon="12.568791090452391"><ele>43.0</ele><time>2026-03-24T13:24:07Z</time></trkpt><trkpt lat="41.947863458181075" lon="12.568872816299587"><ele>43.0</ele><time>2026-03-24T13:24:08Z</time></trkpt><trkpt lat="41.94794455620661" lon="12.568943442076453"><ele>43.2</ele><time>2026-03-24T13:24:09Z</time></trkpt><trkpt lat="41.948027429689816" lon="12.569009955298942"><ele>43.4</ele><time>2026-03-24T13:24:10Z</time></trkpt><trkpt lat="41.94810333176178" lon="12.569070718104864"><ele>43.6</ele><time>2026-03-24T13:24:11Z</time></trkpt><trkpt lat="41.948180011782476" lon="12.569128280750032"><ele>43.800000000000004</ele><time>2026-03-24T13:24:12Z</time></trkpt><trkpt lat="41.94825987803639" lon="12.569201943086323"><ele>44.0</ele><time>2026-03-24T13:24:13Z</time></trkpt><trkpt lat="41.94833417605791" lon="12.569263319769567"><ele>44.33333333333333</ele><time>2026-03-24T13:24:14Z</time></trkpt><trkpt lat="41.94839895906698" lon="12.569303432842936"><ele>44.666666666666664</ele><time>2026-03-24T13:24:15Z</time></trkpt><trkpt lat="41.948458622112234" lon="12.56935535916172"><ele>45.0</ele><time>2026-03-24T13:24:16Z</time></trkpt><trkpt lat="41.948526874196816" lon="12.569414757569689"><ele>45.333333333333336</ele><time>2026-03-24T13:24:17Z</time></trkpt><trkpt lat="41.94860407557386" lon="12.569476061515878"><ele>45.66666666666667</ele><time>2026-03-24T13:24:18Z</time></trkpt><trkpt lat="41.94869438915773" lon="12.569544628115137"><ele>46.0</ele><time>2026-03-24T13:24:19Z</time></trkpt><trkpt lat="41.9487901765388" lon="12.569611662014864"><ele>46.66666666666667</ele><time>2026-03-24T13:24:20Z</time></trkpt><trkpt lat="41.94887608255886" lon="12.569681736450503"><ele>47.333333333333336</ele><time>2026-03-24T13:24:21Z</time></trkpt><trkpt lat="41.948951639592686" lon="12.569752804401496"><ele>48.0</ele><time>2026-03-24T13:24:22Z</time></trkpt><trkpt lat="41.94902523082702" lon="12.56981096386981"><ele>48.66666666666667</ele><time>2026-03-24T13:24:23Z</time></trkpt><trkpt lat="41.949095924209104" lon="12.569863198291397"><ele>49.333333333333336</ele><time>2026-03-24T13:24:24Z</time></trkpt><trkpt lat="41.949173260352026" lon="12.569920333138574"><ele>50.0</ele><time>2026-03-24T13:24:25Z</time></trkpt><trkpt lat="41.949249708187" lon="12.569971685234806"><ele>50.00000000000001</ele><time>2026-03-24T13:24:26Z</time></trkpt><trkpt lat="41.94931592355491" lon="12.570017898019795"><ele>50.0</ele><time>2026-03-24T13:24:27Z</time></trkpt><trkpt lat="41.94938089514256" lon="12.57006249104222"><ele>50.0</ele><time>2026-03-24T13:24:28Z</time></trkpt><trkpt lat="41.94944599891756" lon="12.570106375572289"><ele>50.0</ele><time>2026-03-24T13:24:29Z</time></trkpt><trkpt lat="41.94951793145605" lon="12.5701548344967"><ele>50.00000000000001</ele><time>2026-03-24T13:24:30Z</time></trkpt><trkpt lat="41.9495908449978" lon="12.570199369839203"><ele>50.0</ele><time>2026-03-24T13:24:31Z</time></trkpt><trkpt lat="41.94965420441946" lon="12.570242685287402"><ele>50.00000000000001</ele><time>2026-03-24T13:24:32Z</time></trkpt><trkpt lat="41.94972928123889" lon="12.570278274159572"><ele>50.0</ele><time>2026-03-24T13:24:33Z</time></trkpt><trkpt lat="41.9498001385906" lon="12.570326936100573"><ele>50.0</ele><time>2026-03-24T13:24:34Z</time></trkpt><trkpt lat="41.94987856724685" lon="12.570376872350932"><ele>50.0</ele><time>2026-03-24T13:24:35Z</time></trkpt><trkpt lat="41.94995201124405" lon="12.570425116508757"><ele>50.00000000000001</ele><time>2026-03-24T13:24:36Z</time></trkpt><trkpt lat="41.950025649216066" lon="12.570462007626336"><ele>50.0</ele><time>2026-03-24T13:24:37Z</time></trkpt><trkpt lat="41.950113557874" lon="12.570502978997052"><ele>49.66666666666667</ele><time>2026-03-24T13:24:38Z</time></trkpt><trkpt lat="41.950199883244764" lon="12.570556465094949"><ele>49.333333333333336</ele><time>2026-03-24T13:24:39Z</time></trkpt><trkpt lat="41.95028343491973" lon="12.570613742030584"><ele>49.0</ele><time>2026-03-24T13:24:40Z</time></trkpt><trkpt lat="41.9503568831564" lon="12.570663573620848"><ele>48.66666666666667</ele><time>2026-03-24T13:24:41Z</time></trkpt><trkpt lat="41.95043494386766" lon="12.57071516913697"><ele>48.333333333333336</ele><time>2026-03-24T13:24:42Z</time></trkpt><trkpt lat="41.950507916635786" lon="12.570759441547004"><ele>48.0</ele><time>2026-03-24T13:24:43Z</time></trkpt><trkpt lat="41.950583590121475" lon="12.570807122126697"><ele>48.0</ele><time>2026-03-24T13:24:44Z</time></trkpt><trkpt lat="41.950664505852366" lon="12.57085802530429"><ele>48.0</ele><time>2026-03-24T13:24:45Z</time></trkpt><trkpt lat="41.95073973571977" lon="12.570903173844775"><ele>48.0</ele><time>2026-03-24T13:24:46Z</time></trkpt><trkpt lat="41.95081925682134" lon="12.570940099313344"><ele>48.0</ele><time>2026-03-24T13:24:47Z</time></trkpt><trkpt lat="41.95088689834282" lon="12.570994087074467"><ele>48.0</ele><time>2026-03-24T13:24:48Z</time></trkpt><trkpt lat="41.95096380688254" lon="12.571038779266923"><ele>48.0</ele><time>2026-03-24T13:24:49Z</time></trkpt><trkpt lat="41.95103736132683" lon="12.571084798130938"><ele>47.666666666666664</ele><time>2026-03-24T13:24:50Z</time></trkpt><trkpt lat="41.9511106695008" lon="12.571129272026026"><ele>47.333333333333336</ele><time>2026-03-24T13:24:51Z</time></trkpt><trkpt lat="41.95118345387576" lon="12.571169060734864"><ele>47.0</ele><time>2026-03-24T13:24:52.001Z</time></trkpt><trkpt lat="41.95124531685293" lon="12.571205860029053"><ele>46.66666666666667</ele><time>2026-03-24T13:24:53.001Z</time></trkpt><trkpt lat="41.95135819949204" lon="12.571277371728387"><ele>46.333333333333336</ele><time>2026-03-24T13:24:55.001Z</time></trkpt><trkpt lat="41.9514201455367" lon="12.571320751740767"><ele>46.0</ele><time>2026-03-24T13:24:56.001Z</time></trkpt><trkpt lat="41.95152909775532" lon="12.571389222353924"><ele>46.66666666666667</ele><time>2026-03-24T13:24:58.001Z</time></trkpt><trkpt lat="41.95162484060515" lon="12.571449391320364"><ele>47.333333333333336</ele><time>2026-03-24T13:25:00.001Z</time></trkpt><trkpt lat="41.95170722407487" lon="12.571510873227089"><ele>48.0</ele><time>2026-03-24T13:25:02.001Z</time></trkpt><trkpt lat="41.95178817100127" lon="12.571556679047726"><ele>48.66666666666667</ele><time>2026-03-24T13:25:05.001Z</time></trkpt><trkpt lat="41.951852801818326" lon="12.571597291613887"><ele>49.333333333333336</ele><time>2026-03-24T13:25:08.001Z</time></trkpt><trkpt lat="41.9519304391276" lon="12.57164956325971"><ele>50.0</ele><time>2026-03-24T13:25:11.001Z</time></trkpt><trkpt lat="41.95199070494028" lon="12.571684297929218"><ele>50.00000000000001</ele><time>2026-03-24T13:25:14.001Z</time></trkpt><trkpt lat="41.95205598779109" lon="12.57172531035319"><ele>50.0</ele><time>2026-03-24T13:25:16.001Z</time></trkpt><trkpt lat="41.95211917337298" lon="12.571768286233574"><ele>50.0</ele><time>2026-03-24T13:25:18.001Z</time></trkpt><trkpt lat="41.952181388203336" lon="12.5718132418006"><ele>50.0</ele><time>2026-03-24T13:25:21.001Z</time></trkpt><trkpt lat="41.952241805693745" lon="12.571844684019787"><ele>50.0</ele><time>2026-03-24T13:25:26.001Z</time></trkpt><trkpt lat="41.95230188296255" lon="12.571881508217103"><ele>50.00000000000001</ele><time>2026-03-24T13:25:28.001Z</time></trkpt><trkpt lat="41.9523704924196" lon="12.571926062316944"><ele>50.0</ele><time>2026-03-24T13:25:35.001Z</time></trkpt><trkpt lat="41.952457650204714" lon="12.571981316303521"><ele>49.85714285714286</ele><time>2026-03-24T13:25:38.001Z</time></trkpt><trkpt lat="41.95251712495352" lon="12.572029782838715"><ele>49.714285714285715</ele><time>2026-03-24T13:25:42.001Z</time></trkpt><trkpt lat="41.95256674954729" lon="12.572085041463223"><ele>49.57142857142857</ele><time>2026-03-24T13:25:44.001Z</time></trkpt><trkpt lat="41.95263335523209" lon="12.572156880913605"><ele>49.42857142857143</ele><time>2026-03-24T13:25:47.001Z</time></trkpt><trkpt lat="41.952686858694015" lon="12.572230199465967"><ele>49.285714285714285</ele><time>2026-03-24T13:25:52.001Z</time></trkpt><trkpt lat="41.95273277322265" lon="12.572304938962802"><ele>49.142857142857146</ele><time>2026-03-24T13:25:54.001Z</time></trkpt><trkpt lat="41.95279021747664" lon="12.572369624590715"><ele>49.0</ele><time>2026-03-24T13:25:56.001Z</time></trkpt><trkpt lat="41.9528480899387" lon="12.572435586451517"><ele>48.99999999999999</ele><time>2026-03-24T13:25:58.001Z</time></trkpt><trkpt lat="41.95290246635617" lon="12.572496875750568"><ele>49.0</ele><time>2026-03-24T13:26:00.001Z</time></trkpt><trkpt lat="41.95296290476374" lon="12.572574793019344"><ele>49.0</ele><time>2026-03-24T13:26:02.001Z</time></trkpt><trkpt lat="41.95301930171786" lon="12.572649081085181"><ele>49.0</ele><time>2026-03-24T13:26:04.002Z</time></trkpt><trkpt lat="41.95309362827022" lon="12.572750711039255"><ele>48.99999999999999</ele><time>2026-03-24T13:26:06Z</time></trkpt><trkpt lat="41.95316731417156" lon="12.572846022630804"><ele>49.0</ele><time>2026-03-24T13:26:08Z</time></trkpt><trkpt lat="41.953257526816664" lon="12.572975362000756"><ele>48.6</ele><time>2026-03-24T13:26:10Z</time></trkpt><trkpt lat="41.9533063295498" lon="12.573053065002565"><ele>48.2</ele><time>2026-03-24T13:26:11Z</time></trkpt><trkpt lat="41.953348717740575" lon="12.57312152914222"><ele>47.800000000000004</ele><time>2026-03-24T13:26:12Z</time></trkpt><trkpt lat="41.95342594061802" lon="12.573246428242108"><ele>47.400000000000006</ele><time>2026-03-24T13:26:14Z</time></trkpt><trkpt lat="41.95349468369567" lon="12.57335654368063"><ele>47.0</ele><time>2026-03-24T13:26:16Z</time></trkpt><trkpt lat="41.95355380365673" lon="12.573463132766271"><ele>46.83333333333333</ele><time>2026-03-24T13:26:18Z</time></trkpt><trkpt lat="41.953618377933815" lon="12.573564954466073"><ele>46.666666666666664</ele><time>2026-03-24T13:26:20Z</time></trkpt><trkpt lat="41.953682717888846" lon="12.573682656712739"><ele>46.5</ele><time>2026-03-24T13:26:22Z</time></trkpt><trkpt lat="41.95372532179834" lon="12.573757752791249"><ele>46.333333333333336</ele><time>2026-03-24T13:26:23Z</time></trkpt><trkpt lat="41.95377249524874" lon="12.573835188764582"><ele>46.16666666666667</ele><time>2026-03-24T13:26:24Z</time></trkpt><trkpt lat="41.95381364017225" lon="12.573902918428036"><ele>46.0</ele><time>2026-03-24T13:26:25Z</time></trkpt><trkpt lat="41.953886064707525" lon="12.574014482270552"><ele>46.0</ele><time>2026-03-24T13:26:27Z</time></trkpt><trkpt lat="41.95395480619275" lon="12.574132812483699"><ele>46.0</ele><time>2026-03-24T13:26:29Z</time></trkpt><trkpt lat="41.954036281365674" lon="12.574275780038839"><ele>46.0</ele><time>2026-03-24T13:26:31Z</time></trkpt><trkpt lat="41.95407717086785" lon="12.574347691161178"><ele>46.0</ele><time>2026-03-24T13:26:32Z</time></trkpt><trkpt lat="41.95415466833514" lon="12.574478704457269"><ele>46.0</ele><time>2026-03-24T13:26:34Z</time></trkpt><trkpt lat="41.95419922945452" lon="12.57454955238884"><ele>46.66666666666667</ele><time>2026-03-24T13:26:35Z</time></trkpt><trkpt lat="41.95428577709829" lon="12.57467591268521"><ele>47.333333333333336</ele><time>2026-03-24T13:26:37Z</time></trkpt><trkpt lat="41.95433421971212" lon="12.57475618797478"><ele>48.0</ele><time>2026-03-24T13:26:38Z</time></trkpt><trkpt lat="41.95437844304668" lon="12.57483061421335"><ele>48.66666666666667</ele><time>2026-03-24T13:26:39Z</time></trkpt><trkpt lat="41.95440361458499" lon="12.574930203688481"><ele>49.333333333333336</ele><time>2026-03-24T13:26:40Z</time></trkpt><trkpt lat="41.954450467906256" lon="12.57500787365446"><ele>50.0</ele><time>2026-03-24T13:26:41Z</time></trkpt><trkpt lat="41.954534818360386" lon="12.575116098767365"><ele>50.0</ele><time>2026-03-24T13:26:43Z</time></trkpt><trkpt lat="41.95459451543107" lon="12.575217696650741"><ele>50.0</ele><time>2026-03-24T13:26:45Z</time></trkpt><trkpt lat="41.954666681046696" lon="12.575342087664355"><ele>50.0</ele><time>2026-03-24T13:26:47Z</time></trkpt><trkpt lat="41.95473198236415" lon="12.575446561124437"><ele>50.0</ele><time>2026-03-24T13:26:48Z</time></trkpt><trkpt lat="41.95478944654751" lon="12.57557757812484"><ele>50.0</ele><time>2026-03-24T13:26:49Z</time></trkpt><trkpt lat="41.95484837372876" lon="12.575677278400981"><ele>49.833333333333336</ele><time>2026-03-24T13:26:50Z</time></trkpt><trkpt lat="41.95490546934672" lon="12.575742880958272"><ele>49.66666666666667</ele><time>2026-03-24T13:26:51.001Z</time></trkpt><trkpt lat="41.95494553926149" lon="12.575811688866317"><ele>49.5</ele><time>2026-03-24T13:26:52.001Z</time></trkpt><trkpt lat="41.955003543574264" lon="12.575908905705308"><ele>49.33333333333333</ele><time>2026-03-24T13:26:53.001Z</time></trkpt><trkpt lat="41.955053366134386" lon="12.576024300737469"><ele>49.166666666666664</ele><time>2026-03-24T13:26:54.001Z</time></trkpt><trkpt lat="41.9551032847457" lon="12.576108925194786"><ele>49.0</ele><time>2026-03-24T13:26:55.001Z</time></trkpt><trkpt lat="41.955143638229806" lon="12.576177431816214"><ele>49.49999999999999</ele><time>2026-03-24T13:26:56.001Z</time></trkpt><trkpt lat="41.9552231826083" lon="12.576312471368569"><ele>50.0</ele><time>2026-03-24T13:26:58.001Z</time></trkpt><trkpt lat="41.95527754722955" lon="12.576404764179788"><ele>50.5</ele><time>2026-03-24T13:26:59.001Z</time></trkpt><trkpt lat="41.955332075860184" lon="12.576496816039896"><ele>51.0</ele><time>2026-03-24T13:27:00.001Z</time></trkpt><trkpt lat="41.95537681159168" lon="12.576572280538958"><ele>51.49999999999999</ele><time>2026-03-24T13:27:01.001Z</time></trkpt><trkpt lat="41.95541928276992" lon="12.576643924967142"><ele>52.0</ele><time>2026-03-24T13:27:02.001Z</time></trkpt><trkpt lat="41.95548115147789" lon="12.57674829100337"><ele>51.99999999999999</ele><time>2026-03-24T13:27:03.001Z</time></trkpt><trkpt lat="41.955540187746045" lon="12.576848054681143"><ele>52.0</ele><time>2026-03-24T13:27:04.001Z</time></trkpt><trkpt lat="41.95559417092547" lon="12.576939447240397"><ele>52.0</ele><time>2026-03-24T13:27:05.001Z</time></trkpt><trkpt lat="41.95564209612149" lon="12.577020582861037"><ele>52.0</ele><time>2026-03-24T13:27:06.001Z</time></trkpt><trkpt lat="41.95569637717486" lon="12.577080095516749"><ele>51.99999999999999</ele><time>2026-03-24T13:27:07.001Z</time></trkpt><trkpt lat="41.95573776275786" lon="12.577151613690523"><ele>52.0</ele><time>2026-03-24T13:27:08.001Z</time></trkpt><trkpt lat="41.9557771465907" lon="12.577218062717183"><ele>52.0</ele><time>2026-03-24T13:27:09.001Z</time></trkpt><trkpt lat="41.95583914166427" lon="12.577323022269752"><ele>52.0</ele><time>2026-03-24T13:27:11.001Z</time></trkpt><trkpt lat="41.95589730300235" lon="12.577423265502562"><ele>52.0</ele><time>2026-03-24T13:27:13.001Z</time></trkpt><trkpt lat="41.955970771285315" lon="12.577550436458576"><ele>52.0</ele><time>2026-03-24T13:27:15.001Z</time></trkpt><trkpt lat="41.95601607201628" lon="12.57762495965774"><ele>52.0</ele><time>2026-03-24T13:27:16.001Z</time></trkpt><trkpt lat="41.95606763109893" lon="12.577713413562703"><ele>52.0</ele><time>2026-03-24T13:27:17.001Z</time></trkpt><trkpt lat="41.95611867456869" lon="12.577804667845847"><ele>52.0</ele><time>2026-03-24T13:27:18.001Z</time></trkpt><trkpt lat="41.95616501157119" lon="12.577889875007497"><ele>52.0</ele><time>2026-03-24T13:27:19.001Z</time></trkpt><trkpt lat="41.95622334097104" lon="12.577991755626167"><ele>52.0</ele><time>2026-03-24T13:27:20.001Z</time></trkpt><trkpt lat="41.95628856487882" lon="12.578097899845798"><ele>52.0</ele><time>2026-03-24T13:27:21.001Z</time></trkpt><trkpt lat="41.956358408534335" lon="12.578204342679198"><ele>52.25</ele><time>2026-03-24T13:27:22.001Z</time></trkpt><trkpt lat="41.95643408771219" lon="12.578313264375877"><ele>52.5</ele><time>2026-03-24T13:27:23.001Z</time></trkpt><trkpt lat="41.95652561718342" lon="12.578432696782183"><ele>52.75</ele><time>2026-03-24T13:27:24.001Z</time></trkpt><trkpt lat="41.95661654847368" lon="12.578545120848993"><ele>53.0</ele><time>2026-03-24T13:27:25.001Z</time></trkpt><trkpt lat="41.95670423374348" lon="12.578647975640136"><ele>52.25</ele><time>2026-03-24T13:27:26.001Z</time></trkpt><trkpt lat="41.9567957342295" lon="12.578751852305993"><ele>51.5</ele><time>2026-03-24T13:27:27.001Z</time></trkpt><trkpt lat="41.9568832721136" lon="12.578852523463723"><ele>50.75</ele><time>2026-03-24T13:27:28.001Z</time></trkpt><trkpt lat="41.956969065234176" lon="12.578956070038249"><ele>50.0</ele><time>2026-03-24T13:27:29.001Z</time></trkpt><trkpt lat="41.95705014432428" lon="12.579072118773006"><ele>50.0</ele><time>2026-03-24T13:27:30.001Z</time></trkpt><trkpt lat="41.95712833457929" lon="12.579192510847221"><ele>50.0</ele><time>2026-03-24T13:27:31.001Z</time></trkpt><trkpt lat="41.957208409270066" lon="12.579320009786194"><ele>50.0</ele><time>2026-03-24T13:27:32.001Z</time></trkpt><trkpt lat="41.95729809765995" lon="12.579469019120706"><ele>50.0</ele><time>2026-03-24T13:27:33.001Z</time></trkpt><trkpt lat="41.95738755617863" lon="12.579636956376206"><ele>50.333333333333336</ele><time>2026-03-24T13:27:34.001Z</time></trkpt><trkpt lat="41.957478028038324" lon="12.579837633237993"><ele>50.66666666666667</ele><time>2026-03-24T13:27:35.001Z</time></trkpt><trkpt lat="41.95756280043687" lon="12.580049322654503"><ele>51.0</ele><time>2026-03-24T13:27:36.001Z</time></trkpt><trkpt lat="41.95761950372445" lon="12.580271258107516"><ele>51.0</ele><time>2026-03-24T13:27:37.001Z</time></trkpt><trkpt lat="41.95766922669284" lon="12.580395207499237"><ele>51.0</ele><time>2026-03-24T13:27:38.001Z</time></trkpt><trkpt lat="41.957755806006645" lon="12.580626975740223"><ele>51.0</ele><time>2026-03-24T13:27:39.001Z</time></trkpt><trkpt lat="41.95783635336311" lon="12.580853749525756"><ele>51.0</ele><time>2026-03-24T13:27:40.001Z</time></trkpt><trkpt lat="41.957912899218634" lon="12.581123480321224"><ele>51.0</ele><time>2026-03-24T13:27:41.001Z</time></trkpt><trkpt lat="41.95799404709559" lon="12.581323238030853"><ele>51.0</ele><time>2026-03-24T13:27:42.001Z</time></trkpt><trkpt lat="41.95804501827783" lon="12.58150325163171"><ele>51.0</ele><time>2026-03-24T13:27:43.001Z</time></trkpt><trkpt lat="41.958092186157366" lon="12.58166403294527"><ele>51.0</ele><time>2026-03-24T13:27:44.001Z</time></trkpt><trkpt lat="41.95813535407822" lon="12.581820684496801"><ele>51.0</ele><time>2026-03-24T13:27:45.001Z</time></trkpt><trkpt lat="41.958170735179664" lon="12.581957260218394"><ele>51.0</ele><time>2026-03-24T13:27:46.001Z</time></trkpt><trkpt lat="41.95817824128083" lon="12.582100982960105"><ele>51.5</ele><time>2026-03-24T13:27:47.001Z</time></trkpt><trkpt lat="41.95819767325933" lon="12.58224394860504"><ele>52.0</ele><time>2026-03-24T13:27:48.001Z</time></trkpt><trkpt lat="41.95820904223103" lon="12.582397126206205"><ele>52.5</ele><time>2026-03-24T13:27:49.001Z</time></trkpt><trkpt lat="41.95821822563436" lon="12.582581683332245"><ele>53.0</ele><time>2026-03-24T13:27:50.001Z</time></trkpt><trkpt lat="41.95824104253851" lon="12.582785642886448"><ele>53.4</ele><time>2026-03-24T13:27:51.001Z</time></trkpt><trkpt lat="41.95824244317333" lon="12.582964342042484"><ele>53.8</ele><time>2026-03-24T13:27:52.001Z</time></trkpt><trkpt lat="41.95823269940614" lon="12.58311411490047"><ele>54.2</ele><time>2026-03-24T13:27:53.001Z</time></trkpt><trkpt lat="41.958242174364365" lon="12.583242265419718"><ele>54.6</ele><time>2026-03-24T13:27:54.001Z</time></trkpt><trkpt lat="41.958259125800986" lon="12.583348678439831"><ele>55.0</ele><time>2026-03-24T13:27:55.001Z</time></trkpt><trkpt lat="41.958292453528564" lon="12.583429493582823"><ele>54.99999999999999</ele><time>2026-03-24T13:27:56.001Z</time></trkpt><trkpt lat="41.95830285483376" lon="12.583529415095208"><ele>55.0</ele><time>2026-03-24T13:27:57.001Z</time></trkpt><trkpt lat="41.95832903890976" lon="12.583619854470264"><ele>55.0</ele><time>2026-03-24T13:27:58.001Z</time></trkpt><trkpt lat="41.9583538486072" lon="12.583699396274246"><ele>55.0</ele><time>2026-03-24T13:27:59.001Z</time></trkpt><trkpt lat="41.95840536925486" lon="12.583843471200765"><ele>54.99999999999999</ele><time>2026-03-24T13:28:01.001Z</time></trkpt><trkpt lat="41.95845140313029" lon="12.583968215854243"><ele>55.0</ele><time>2026-03-24T13:28:03.001Z</time></trkpt><trkpt lat="41.95849696533099" lon="12.584103665779907"><ele>54.49999999999999</ele><time>2026-03-24T13:28:06.002Z</time></trkpt><trkpt lat="41.95852425545599" lon="12.584184317935435"><ele>54.0</ele><time>2026-03-24T13:28:07.002Z</time></trkpt><trkpt lat="41.958578604392855" lon="12.584348618645363"><ele>53.5</ele><time>2026-03-24T13:28:09.002Z</time></trkpt><trkpt lat="41.95861135681589" lon="12.58444974406113"><ele>53.0</ele><time>2026-03-24T13:28:10.002Z</time></trkpt><trkpt lat="41.958642479825045" lon="12.584549019752837"><ele>52.49999999999999</ele><time>2026-03-24T13:28:11Z</time></trkpt><trkpt lat="41.958673676448726" lon="12.584649954286746"><ele>52.0</ele><time>2026-03-24T13:28:12Z</time></trkpt><trkpt lat="41.95872382593442" lon="12.584762516542552"><ele>52.0</ele><time>2026-03-24T13:28:13Z</time></trkpt><trkpt lat="41.95875713265095" lon="12.584878723076548"><ele>52.0</ele><time>2026-03-24T13:28:14Z</time></trkpt><trkpt lat="41.958786768028084" lon="12.584983311835844"><ele>52.0</ele><time>2026-03-24T13:28:15Z</time></trkpt><trkpt lat="41.95881711130798" lon="12.585095634720316"><ele>52.0</ele><time>2026-03-24T13:28:16Z</time></trkpt><trkpt lat="41.9588539895865" lon="12.585230125438128"><ele>52.0</ele><time>2026-03-24T13:28:17Z</time></trkpt><trkpt lat="41.958899932488265" lon="12.585385885128481"><ele>52.2</ele><time>2026-03-24T13:28:18Z</time></trkpt><trkpt lat="41.958923512574025" lon="12.585527675426098"><ele>52.400000000000006</ele><time>2026-03-24T13:28:19Z</time></trkpt><trkpt lat="41.9589697030554" lon="12.585632802389794"><ele>52.599999999999994</ele><time>2026-03-24T13:28:20Z</time></trkpt><trkpt lat="41.959004826711094" lon="12.585750993652091"><ele>52.8</ele><time>2026-03-24T13:28:21Z</time></trkpt><trkpt lat="41.95903490632846" lon="12.585861181400354"><ele>53.0</ele><time>2026-03-24T13:28:22Z</time></trkpt><trkpt lat="41.95905491261029" lon="12.585951388160934"><ele>53.00000000000001</ele><time>2026-03-24T13:28:23Z</time></trkpt><trkpt lat="41.95906903069632" lon="12.586033939174332"><ele>53.0</ele><time>2026-03-24T13:28:24Z</time></trkpt><trkpt lat="41.95908731176222" lon="12.586118112630212"><ele>53.0</ele><time>2026-03-24T13:28:25Z</time></trkpt><trkpt lat="41.959118785999806" lon="12.586221315947308"><ele>53.0</ele><time>2026-03-24T13:28:26Z</time></trkpt><trkpt lat="41.959157556855786" lon="12.586330624343876"><ele>53.00000000000001</ele><time>2026-03-24T13:28:27Z</time></trkpt><trkpt lat="41.959193103617714" lon="12.586447574595494"><ele>53.0</ele><time>2026-03-24T13:28:28Z</time></trkpt><trkpt lat="41.95922976988954" lon="12.586565586644102"><ele>53.25</ele><time>2026-03-24T13:28:29Z</time></trkpt><trkpt lat="41.959264301350956" lon="12.586695047109348"><ele>53.5</ele><time>2026-03-24T13:28:30Z</time></trkpt><trkpt lat="41.95930740040582" lon="12.586846785746605"><ele>53.75</ele><time>2026-03-24T13:28:31Z</time></trkpt><trkpt lat="41.959365794486196" lon="12.587043296303271"><ele>54.0</ele><time>2026-03-24T13:28:32Z</time></trkpt><trkpt lat="41.959414777543586" lon="12.587236175024211"><ele>54.0</ele><time>2026-03-24T13:28:33Z</time></trkpt><trkpt lat="41.959479660259866" lon="12.587430155697216"><ele>54.0</ele><time>2026-03-24T13:28:34Z</time></trkpt><trkpt lat="41.95954178896406" lon="12.587649628421175"><ele>54.0</ele><time>2026-03-24T13:28:35Z</time></trkpt><trkpt lat="41.95961005944997" lon="12.587889024901266"><ele>55.66666666666667</ele><time>2026-03-24T13:28:36Z</time></trkpt><trkpt lat="41.95968151405961" lon="12.588115410433987"><ele>57.333333333333336</ele><time>2026-03-24T13:28:37Z</time></trkpt><trkpt lat="41.95975759848055" lon="12.588327466271297"><ele>59.0</ele><time>2026-03-24T13:28:38Z</time></trkpt><trkpt lat="41.959857928794584" lon="12.588546891225041"><ele>59.333333333333336</ele><time>2026-03-24T13:28:39Z</time></trkpt><trkpt lat="41.95995847150344" lon="12.588769870471701"><ele>59.66666666666667</ele><time>2026-03-24T13:28:40Z</time></trkpt><trkpt lat="41.96005733262027" lon="12.589000130110833"><ele>60.0</ele><time>2026-03-24T13:28:41Z</time></trkpt><trkpt lat="41.9601624902286" lon="12.589241406286074"><ele>59.33333333333333</ele><time>2026-03-24T13:28:42Z</time></trkpt><trkpt lat="41.96027023429832" lon="12.58947714505227"><ele>58.666666666666664</ele><time>2026-03-24T13:28:43Z</time></trkpt><trkpt lat="41.960364914612626" lon="12.589691383059723"><ele>58.0</ele><time>2026-03-24T13:28:44Z</time></trkpt><trkpt lat="41.96045248221815" lon="12.58989325209218"><ele>58.0</ele><time>2026-03-24T13:28:45Z</time></trkpt><trkpt lat="41.960544883212904" lon="12.590098447750625"><ele>58.0</ele><time>2026-03-24T13:28:46Z</time></trkpt><trkpt lat="41.96064006909806" lon="12.590302911187408"><ele>58.0</ele><time>2026-03-24T13:28:47Z</time></trkpt><trkpt lat="41.96073448145735" lon="12.590512158027332"><ele>57.33333333333333</ele><time>2026-03-24T13:28:48Z</time></trkpt><trkpt lat="41.9608323140877" lon="12.590734624997896"><ele>56.66666666666667</ele><time>2026-03-24T13:28:49Z</time></trkpt><trkpt lat="41.960938129397654" lon="12.590968563050735"><ele>56.0</ele><time>2026-03-24T13:28:50Z</time></trkpt><trkpt lat="41.96104871517176" lon="12.591206525703987"><ele>55.0</ele><time>2026-03-24T13:28:51Z</time></trkpt><trkpt lat="41.96116056161155" lon="12.591446058980987"><ele>54.0</ele><time>2026-03-24T13:28:52Z</time></trkpt><trkpt lat="41.9612725783227" lon="12.59169419227078"><ele>53.0</ele><time>2026-03-24T13:28:53Z</time></trkpt><trkpt lat="41.961383327375465" lon="12.591949031860409"><ele>54.0</ele><time>2026-03-24T13:28:54Z</time></trkpt><trkpt lat="41.96148946670205" lon="12.592183946435748"><ele>55.0</ele><time>2026-03-24T13:28:55Z</time></trkpt><trkpt lat="41.96159133472777" lon="12.592399596983846"><ele>56.0</ele><time>2026-03-24T13:28:56Z</time></trkpt><trkpt lat="41.96169009965412" lon="12.592605156370004"><ele>55.66666666666667</ele><time>2026-03-24T13:28:57Z</time></trkpt><trkpt lat="41.961785082316545" lon="12.592810019398991"><ele>55.33333333333333</ele><time>2026-03-24T13:28:58Z</time></trkpt><trkpt lat="41.96188336827549" lon="12.593021071843152"><ele>55.0</ele><time>2026-03-24T13:28:59.001Z</time></trkpt><trkpt lat="41.961986648025544" lon="12.593234900857246"><ele>56.666666666666664</ele><time>2026-03-24T13:29:00.001Z</time></trkpt><trkpt lat="41.96208872761174" lon="12.593452328113834"><ele>58.33333333333333</ele><time>2026-03-24T13:29:01.001Z</time></trkpt><trkpt lat="41.962194489487196" lon="12.593670704168991"><ele>60.0</ele><time>2026-03-24T13:29:02.001Z</time></trkpt><trkpt lat="41.96229583647652" lon="12.59386668194092"><ele>59.66666666666667</ele><time>2026-03-24T13:29:03.001Z</time></trkpt><trkpt lat="41.962396893592896" lon="12.59405589710289"><ele>59.333333333333336</ele><time>2026-03-24T13:29:04.001Z</time></trkpt><trkpt lat="41.96250655632017" lon="12.594235328073982"><ele>59.0</ele><time>2026-03-24T13:29:05.001Z</time></trkpt><trkpt lat="41.962627563291825" lon="12.59440538920532"><ele>60.0</ele><time>2026-03-24T13:29:06.001Z</time></trkpt><trkpt lat="41.96275639347187" lon="12.59456371465253"><ele>61.0</ele><time>2026-03-24T13:29:07.001Z</time></trkpt><trkpt lat="41.96289619774181" lon="12.594719001235218"><ele>62.0</ele><time>2026-03-24T13:29:08.001Z</time></trkpt><trkpt lat="41.96303831950623" lon="12.594875354148915"><ele>62.0</ele><time>2026-03-24T13:29:09.001Z</time></trkpt><trkpt lat="41.96318378872677" lon="12.595035120853598"><ele>62.0</ele><time>2026-03-24T13:29:10.001Z</time></trkpt><trkpt lat="41.96331885168809" lon="12.595188181654164"><ele>62.0</ele><time>2026-03-24T13:29:11.001Z</time></trkpt><trkpt lat="41.96344114589966" lon="12.59532921270722"><ele>62.25</ele><time>2026-03-24T13:29:12.001Z</time></trkpt><trkpt lat="41.96355654668758" lon="12.595459675916707"><ele>62.5</ele><time>2026-03-24T13:29:13.001Z</time></trkpt><trkpt lat="41.96366393659095" lon="12.59558409739785"><ele>62.75</ele><time>2026-03-24T13:29:14.001Z</time></trkpt><trkpt lat="41.96376881854964" lon="12.595702505357233"><ele>63.0</ele><time>2026-03-24T13:29:15.001Z</time></trkpt><trkpt lat="41.963866256076514" lon="12.595813832503753"><ele>63.0</ele><time>2026-03-24T13:29:16.001Z</time></trkpt><trkpt lat="41.963957213643084" lon="12.595918305966226"><ele>63.0</ele><time>2026-03-24T13:29:17.001Z</time></trkpt><trkpt lat="41.964047871282865" lon="12.596026523708481"><ele>63.0</ele><time>2026-03-24T13:29:18.001Z</time></trkpt><trkpt lat="41.96414442768684" lon="12.596137859211401"><ele>63.0</ele><time>2026-03-24T13:29:19.001Z</time></trkpt><trkpt lat="41.96425133159467" lon="12.596258258039239"><ele>63.75</ele><time>2026-03-24T13:29:20.001Z</time></trkpt><trkpt lat="41.964359997584566" lon="12.596380775944029"><ele>64.5</ele><time>2026-03-24T13:29:21.001Z</time></trkpt><trkpt lat="41.964473610492306" lon="12.596509952201261"><ele>65.25</ele><time>2026-03-24T13:29:22.001Z</time></trkpt><trkpt lat="41.964591564395135" lon="12.59664195976414"><ele>66.0</ele><time>2026-03-24T13:29:23.001Z</time></trkpt><trkpt lat="41.96471197571103" lon="12.596782065023497"><ele>66.0</ele><time>2026-03-24T13:29:24.001Z</time></trkpt><trkpt lat="41.96483778400407" lon="12.596926645862176"><ele>66.0</ele><time>2026-03-24T13:29:25.001Z</time></trkpt><trkpt lat="41.964966895736644" lon="12.597073750631344"><ele>66.0</ele><time>2026-03-24T13:29:26.001Z</time></trkpt><trkpt lat="41.965094290440945" lon="12.597219208644207"><ele>66.5</ele><time>2026-03-24T13:29:27.001Z</time></trkpt><trkpt lat="41.96520613730124" lon="12.597346491424462"><ele>67.0</ele><time>2026-03-24T13:29:28.001Z</time></trkpt><trkpt lat="41.96530575399943" lon="12.597460905083215"><ele>67.5</ele><time>2026-03-24T13:29:29.001Z</time></trkpt><trkpt lat="41.965409866316065" lon="12.5975832464865"><ele>68.0</ele><time>2026-03-24T13:29:30.001Z</time></trkpt><trkpt lat="41.96552282080106" lon="12.597718656031546"><ele>68.33333333333334</ele><time>2026-03-24T13:29:31.001Z</time></trkpt><trkpt lat="41.96563943321149" lon="12.597866032521598"><ele>68.66666666666667</ele><time>2026-03-24T13:29:32.001Z</time></trkpt><trkpt lat="41.96574934153406" lon="12.598021060954377"><ele>69.0</ele><time>2026-03-24T13:29:33.001Z</time></trkpt><trkpt lat="41.96585788270958" lon="12.598187951009846"><ele>69.0</ele><time>2026-03-24T13:29:34.001Z</time></trkpt><trkpt lat="41.96595519634675" lon="12.598375660626456"><ele>69.0</ele><time>2026-03-24T13:29:35.001Z</time></trkpt><trkpt lat="41.966050344151384" lon="12.598553545099849"><ele>69.0</ele><time>2026-03-24T13:29:36.001Z</time></trkpt><trkpt lat="41.96613811266782" lon="12.598709943581888"><ele>69.66666666666667</ele><time>2026-03-24T13:29:37.001Z</time></trkpt><trkpt lat="41.9662233094757" lon="12.598874726778421"><ele>70.33333333333334</ele><time>2026-03-24T13:29:38.001Z</time></trkpt><trkpt lat="41.96631887467249" lon="12.599039568009285"><ele>71.0</ele><time>2026-03-24T13:29:39.001Z</time></trkpt><trkpt lat="41.966412918494115" lon="12.599205263538078"><ele>71.0</ele><time>2026-03-24T13:29:40.001Z</time></trkpt><trkpt lat="41.966493055753475" lon="12.599357092911232"><ele>71.0</ele><time>2026-03-24T13:29:41.001Z</time></trkpt><trkpt lat="41.96657258118773" lon="12.599504361613844"><ele>71.0</ele><time>2026-03-24T13:29:42.001Z</time></trkpt><trkpt lat="41.96665042960904" lon="12.599653933412592"><ele>71.0</ele><time>2026-03-24T13:29:43.001Z</time></trkpt><trkpt lat="41.96673309720512" lon="12.599806633791212"><ele>72.0</ele><time>2026-03-24T13:29:44.001Z</time></trkpt><trkpt lat="41.966816746132956" lon="12.599961171801484"><ele>73.0</ele><time>2026-03-24T13:29:45.001Z</time></trkpt><trkpt lat="41.966898680881926" lon="12.600114610564406"><ele>74.0</ele><time>2026-03-24T13:29:46.001Z</time></trkpt><trkpt lat="41.96697492863446" lon="12.600252720252692"><ele>75.0</ele><time>2026-03-24T13:29:47.001Z</time></trkpt><trkpt lat="41.96704637528538" lon="12.60038408879352"><ele>75.2</ele><time>2026-03-24T13:29:48.001Z</time></trkpt><trkpt lat="41.967114599301965" lon="12.60051640442234"><ele>75.4</ele><time>2026-03-24T13:29:49.001Z</time></trkpt><trkpt lat="41.96717754419893" lon="12.600636872937736"><ele>75.6</ele><time>2026-03-24T13:29:50.001Z</time></trkpt><trkpt lat="41.96723372156147" lon="12.600744052239014"><ele>75.8</ele><time>2026-03-24T13:29:51.001Z</time></trkpt><trkpt lat="41.96728644343741" lon="12.600843498623162"><ele>76.0</ele><time>2026-03-24T13:29:52.001Z</time></trkpt><trkpt lat="41.967333935287584" lon="12.600934575659753"><ele>76.0</ele><time>2026-03-24T13:29:53.001Z</time></trkpt><trkpt lat="41.96738581665089" lon="12.601027879323675"><ele>76.0</ele><time>2026-03-24T13:29:54.001Z</time></trkpt><trkpt lat="41.96743611736152" lon="12.601121023374704"><ele>76.0</ele><time>2026-03-24T13:29:55.001Z</time></trkpt><trkpt lat="41.967486074293554" lon="12.601212667158958"><ele>76.0</ele><time>2026-03-24T13:29:56.001Z</time></trkpt><trkpt lat="41.9675319802283" lon="12.601299723252277"><ele>76.0</ele><time>2026-03-24T13:29:57.001Z</time></trkpt><trkpt lat="41.96757807374142" lon="12.60138825453787"><ele>76.0</ele><time>2026-03-24T13:29:58.001Z</time></trkpt><trkpt lat="41.96762131415658" lon="12.601465647031809"><ele>76.0</ele><time>2026-03-24T13:29:59.001Z</time></trkpt><trkpt lat="41.96769134853397" lon="12.601579810202018"><ele>76.0</ele><time>2026-03-24T13:30:01.001Z</time></trkpt><trkpt lat="41.967734737851615" lon="12.601666902317085"><ele>76.0</ele><time>2026-03-24T13:30:03.001Z</time></trkpt><trkpt lat="41.96777108621794" lon="12.601745345696585"><ele>76.0</ele><time>2026-03-24T13:30:05.001Z</time></trkpt><trkpt lat="41.967820179909275" lon="12.601836217058153"><ele>76.0</ele><time>2026-03-24T13:30:07.001Z</time></trkpt><trkpt lat="41.96788253027779" lon="12.601953485894096"><ele>76.0</ele><time>2026-03-24T13:30:09.001Z</time></trkpt><trkpt lat="41.96791874721164" lon="12.602023059839146"><ele>76.0</ele><time>2026-03-24T13:30:10.001Z</time></trkpt><trkpt lat="41.9679653709385" lon="12.60211074932376"><ele>76.0</ele><time>2026-03-24T13:30:11.001Z</time></trkpt><trkpt lat="41.96801808826334" lon="12.60221528392487"><ele>76.0</ele><time>2026-03-24T13:30:12.001Z</time></trkpt><trkpt lat="41.968063261193144" lon="12.602309768778142"><ele>76.0</ele><time>2026-03-24T13:30:13.001Z</time></trkpt><trkpt lat="41.968112718167" lon="12.602413028540434"><ele>76.0</ele><time>2026-03-24T13:30:14.001Z</time></trkpt><trkpt lat="41.96816863565265" lon="12.602553315271082"><ele>76.0</ele><time>2026-03-24T13:30:15.002Z</time></trkpt><trkpt lat="41.9682185928125" lon="12.602693301416789"><ele>76.0</ele><time>2026-03-24T13:30:16.002Z</time></trkpt><trkpt lat="41.96826030242984" lon="12.602823440925173"><ele>76.0</ele><time>2026-03-24T13:30:17Z</time></trkpt><trkpt lat="41.96829779860047" lon="12.602948945888295"><ele>76.0</ele><time>2026-03-24T13:30:18Z</time></trkpt><trkpt lat="41.96831547917105" lon="12.603071136883322"><ele>76.0</ele><time>2026-03-24T13:30:19Z</time></trkpt><trkpt lat="41.96834308924671" lon="12.603177325844138"><ele>75.8</ele><time>2026-03-24T13:30:20Z</time></trkpt><trkpt lat="41.9683681665933" lon="12.603273424203353"><ele>75.6</ele><time>2026-03-24T13:30:21Z</time></trkpt><trkpt lat="41.96839397712346" lon="12.603372331857779"><ele>75.4</ele><time>2026-03-24T13:30:22Z</time></trkpt><trkpt lat="41.968431368861395" lon="12.603518840512821"><ele>75.2</ele><time>2026-03-24T13:30:24Z</time></trkpt><trkpt lat="41.968462734900605" lon="12.603639856931599"><ele>75.0</ele><time>2026-03-24T13:30:26Z</time></trkpt><trkpt lat="41.96850762396964" lon="12.603817190176507"><ele>74.75</ele><time>2026-03-24T13:30:28Z</time></trkpt><trkpt lat="41.968551867110996" lon="12.603995607650269"><ele>74.5</ele><time>2026-03-24T13:30:30Z</time></trkpt><trkpt lat="41.9685802429619" lon="12.604107411826016"><ele>74.25</ele><time>2026-03-24T13:30:31Z</time></trkpt><trkpt lat="41.96862055399106" lon="12.604258578207448"><ele>74.0</ele><time>2026-03-24T13:30:32Z</time></trkpt><trkpt lat="41.968659053183806" lon="12.60440294954256"><ele>73.66666666666667</ele><time>2026-03-24T13:30:33Z</time></trkpt><trkpt lat="41.96870885645244" lon="12.604593057322214"><ele>73.33333333333333</ele><time>2026-03-24T13:30:34Z</time></trkpt><trkpt lat="41.96876874387617" lon="12.604830475571415"><ele>73.0</ele><time>2026-03-24T13:30:35Z</time></trkpt><trkpt lat="41.96881618940952" lon="12.605014773162203"><ele>73.0</ele><time>2026-03-24T13:30:36Z</time></trkpt><trkpt lat="41.96885916122268" lon="12.605187589924373"><ele>73.0</ele><time>2026-03-24T13:30:37Z</time></trkpt><trkpt lat="41.96889941506153" lon="12.605349491113799"><ele>73.0</ele><time>2026-03-24T13:30:38Z</time></trkpt><trkpt lat="41.96893669422215" lon="12.6054994483531"><ele>73.0</ele><time>2026-03-24T13:30:39Z</time></trkpt><trkpt lat="41.96897326796155" lon="12.605646379581541"><ele>73.0</ele><time>2026-03-24T13:30:40Z</time></trkpt><trkpt lat="41.96900756464879" lon="12.605780158544748"><ele>73.0</ele><time>2026-03-24T13:30:41Z</time></trkpt><trkpt lat="41.969039571750685" lon="12.605905006640576"><ele>73.0</ele><time>2026-03-24T13:30:42Z</time></trkpt><trkpt lat="41.96907227511579" lon="12.606032570632982"><ele>73.0</ele><time>2026-03-24T13:30:43Z</time></trkpt><trkpt lat="41.969107466373806" lon="12.606167497715811"><ele>73.0</ele><time>2026-03-24T13:30:44Z</time></trkpt><trkpt lat="41.969146130380906" lon="12.606315448917961"><ele>73.5</ele><time>2026-03-24T13:30:45Z</time></trkpt><trkpt lat="41.96918354028829" lon="12.606458807619937"><ele>74.0</ele><time>2026-03-24T13:30:46Z</time></trkpt><trkpt lat="41.969220595917726" lon="12.606606098174524"><ele>74.5</ele><time>2026-03-24T13:30:47Z</time></trkpt><trkpt lat="41.969258951826006" lon="12.606762449342092"><ele>75.0</ele><time>2026-03-24T13:30:48Z</time></trkpt><trkpt lat="41.969294982770094" lon="12.606910278114787"><ele>72.33333333333333</ele><time>2026-03-24T13:30:49Z</time></trkpt><trkpt lat="41.969336946617446" lon="12.607082448518225"><ele>69.66666666666666</ele><time>2026-03-24T13:30:50Z</time></trkpt><trkpt lat="41.96939343378229" lon="12.607313497923748"><ele>67.0</ele><time>2026-03-24T13:30:51Z</time></trkpt><trkpt lat="41.96945679512342" lon="12.607568392140514"><ele>67.0</ele><time>2026-03-24T13:30:52Z</time></trkpt><trkpt lat="41.969510367297964" lon="12.607786457396676"><ele>67.0</ele><time>2026-03-24T13:30:53Z</time></trkpt><trkpt lat="41.96955821393142" lon="12.607989998500857"><ele>67.0</ele><time>2026-03-24T13:30:54Z</time></trkpt><trkpt lat="41.96960456173327" lon="12.608194899154116"><ele>67.75</ele><time>2026-03-24T13:30:55Z</time></trkpt><trkpt lat="41.969649531229514" lon="12.608391830225866"><ele>68.5</ele><time>2026-03-24T13:30:56Z</time></trkpt><trkpt lat="41.96969394294967" lon="12.608575782971437"><ele>69.25</ele><time>2026-03-24T13:30:57Z</time></trkpt><trkpt lat="41.96973811513297" lon="12.608758743559617"><ele>70.0</ele><time>2026-03-24T13:30:58Z</time></trkpt><trkpt lat="41.969781822340146" lon="12.608939778263446"><ele>70.5</ele><time>2026-03-24T13:30:59.001Z</time></trkpt><trkpt lat="41.96982430930141" lon="12.609115758677333"><ele>71.0</ele><time>2026-03-24T13:31:00.001Z</time></trkpt><trkpt lat="41.96987141000543" lon="12.609273918762748"><ele>71.5</ele><time>2026-03-24T13:31:01.001Z</time></trkpt><trkpt lat="41.969914750335455" lon="12.609428111825677"><ele>72.0</ele><time>2026-03-24T13:31:02.001Z</time></trkpt><trkpt lat="41.96995441866762" lon="12.609590264271588"><ele>72.6</ele><time>2026-03-24T13:31:03.001Z</time></trkpt><trkpt lat="41.96999204449894" lon="12.609742554038888"><ele>73.2</ele><time>2026-03-24T13:31:04.001Z</time></trkpt><trkpt lat="41.970024904937155" lon="12.609881467974265"><ele>73.8</ele><time>2026-03-24T13:31:05.001Z</time></trkpt><trkpt lat="41.97005261876113" lon="12.609989931883652"><ele>74.4</ele><time>2026-03-24T13:31:06.001Z</time></trkpt><trkpt lat="41.970058189720774" lon="12.610079948985593"><ele>75.0</ele><time>2026-03-24T13:31:07.001Z</time></trkpt><trkpt lat="41.97009609314074" lon="12.610232179161821"><ele>75.33333333333333</ele><time>2026-03-24T13:31:09.001Z</time></trkpt><trkpt lat="41.970126370847915" lon="12.610353265020166"><ele>75.66666666666667</ele><time>2026-03-24T13:31:11.001Z</time></trkpt><trkpt lat="41.97015515628466" lon="12.610468157560922"><ele>76.0</ele><time>2026-03-24T13:31:13.001Z</time></trkpt><trkpt lat="41.970176095984996" lon="12.610557340504279"><ele>76.33333333333334</ele><time>2026-03-24T13:31:14.001Z</time></trkpt><trkpt lat="41.97020193680619" lon="12.610682967101907"><ele>76.66666666666667</ele><time>2026-03-24T13:31:15.001Z</time></trkpt><trkpt lat="41.97022371542106" lon="12.610801000352089"><ele>77.0</ele><time>2026-03-24T13:31:16.001Z</time></trkpt><trkpt lat="41.97023714852353" lon="12.61091101211549"><ele>77.0</ele><time>2026-03-24T13:31:17.001Z</time></trkpt><trkpt lat="41.97024707650285" lon="12.610999761014256"><ele>77.0</ele><time>2026-03-24T13:31:18.001Z</time></trkpt><trkpt lat="41.970245373402165" lon="12.611090351430326"><ele>77.0</ele><time>2026-03-24T13:31:19.001Z</time></trkpt><trkpt lat="41.97024784570227" lon="12.611210834441902"><ele>77.0</ele><time>2026-03-24T13:31:20.001Z</time></trkpt><trkpt lat="41.9702418447595" lon="12.611320617407543"><ele>77.0</ele><time>2026-03-24T13:31:21.001Z</time></trkpt><trkpt lat="41.97024475747916" lon="12.611438049863622"><ele>77.0</ele><time>2026-03-24T13:31:23.001Z</time></trkpt><trkpt lat="41.970215954849174" lon="12.611536929959469"><ele>77.0</ele><time>2026-03-24T13:31:25.001Z</time></trkpt><trkpt lat="41.97022019293368" lon="12.611626758544697"><ele>77.0</ele><time>2026-03-24T13:31:26.001Z</time></trkpt><trkpt lat="41.97018964664902" lon="12.61171194238133"><ele>77.0</ele><time>2026-03-24T13:31:28.001Z</time></trkpt><trkpt lat="41.97012260428772" lon="12.611808764086655"><ele>77.0</ele><time>2026-03-24T13:31:32.001Z</time></trkpt><trkpt lat="41.970056813469846" lon="12.611851075419269"><ele>77.0</ele><time>2026-03-24T13:31:33.001Z</time></trkpt><trkpt lat="41.969985302590054" lon="12.611892337026118"><ele>77.0</ele><time>2026-03-24T13:31:34.001Z</time></trkpt><trkpt lat="41.969911414333694" lon="12.611972667424272"><ele>77.5</ele><time>2026-03-24T13:31:35.001Z</time></trkpt><trkpt lat="41.969875237503004" lon="12.612083552325572"><ele>78.0</ele><time>2026-03-24T13:31:36.001Z</time></trkpt><trkpt lat="41.96987172120307" lon="12.612206085083905"><ele>78.5</ele><time>2026-03-24T13:31:37.001Z</time></trkpt><trkpt lat="41.96986270722249" lon="12.612309000064547"><ele>79.0</ele><time>2026-03-24T13:31:38.001Z</time></trkpt><trkpt lat="41.969941003444696" lon="12.61239693040303"><ele>79.5</ele><time>2026-03-24T13:31:39.001Z</time></trkpt><trkpt lat="41.97000247870063" lon="12.61246154083829"><ele>80.0</ele><time>2026-03-24T13:31:40.001Z</time></trkpt><trkpt lat="41.97007359756892" lon="12.612498159060518"><ele>80.33333333333334</ele><time>2026-03-24T13:31:41.001Z</time></trkpt><trkpt lat="41.97015136530684" lon="12.612507881041473"><ele>80.66666666666667</ele><time>2026-03-24T13:31:42.001Z</time></trkpt><trkpt lat="41.97023341149423" lon="12.61248877324769"><ele>81.0</ele><time>2026-03-24T13:31:43.001Z</time></trkpt><trkpt lat="41.97031240628704" lon="12.612435300118424"><ele>81.33333333333333</ele><time>2026-03-24T13:31:44.001Z</time></trkpt><trkpt lat="41.97038489815346" lon="12.612345768278809"><ele>81.66666666666666</ele><time>2026-03-24T13:31:45.001Z</time></trkpt><trkpt lat="41.970425051123314" lon="12.612223295655783"><ele>82.0</ele><time>2026-03-24T13:31:46.001Z</time></trkpt><trkpt lat="41.97046355159176" lon="12.612138789399738"><ele>82.0</ele><time>2026-03-24T13:31:47.001Z</time></trkpt><trkpt lat="41.97060170082872" lon="12.612172949280433"><ele>82.0</ele><time>2026-03-24T13:31:48.001Z</time></trkpt><trkpt lat="41.970676625013084" lon="12.612180938864338"><ele>82.0</ele><time>2026-03-24T13:31:49.001Z</time></trkpt><trkpt lat="41.970765644515026" lon="12.612206448172058"><ele>82.0</ele><time>2026-03-24T13:31:50.001Z</time></trkpt><trkpt lat="41.970865055287724" lon="12.612240431579872"><ele>82.0</ele><time>2026-03-24T13:31:51.001Z</time></trkpt><trkpt lat="41.97098104465074" lon="12.612288866799316"><ele>81.75</ele><time>2026-03-24T13:31:52.001Z</time></trkpt><trkpt lat="41.971094452999054" lon="12.612359507408323"><ele>81.5</ele><time>2026-03-24T13:31:53.001Z</time></trkpt><trkpt lat="41.971190397945264" lon="12.612431081290758"><ele>81.25</ele><time>2026-03-24T13:31:54.001Z</time></trkpt><trkpt lat="41.97129004181681" lon="12.61251142166029"><ele>81.0</ele><time>2026-03-24T13:31:55.001Z</time></trkpt><trkpt lat="41.971394517635034" lon="12.612602573110433"><ele>81.0</ele><time>2026-03-24T13:31:56.001Z</time></trkpt><trkpt lat="41.971503746575394" lon="12.612700745704663"><ele>81.0</ele><time>2026-03-24T13:31:57.001Z</time></trkpt><trkpt lat="41.971600656431" lon="12.612791363688228"><ele>81.0</ele><time>2026-03-24T13:31:58.001Z</time></trkpt><trkpt lat="41.97171416728704" lon="12.612878514570351"><ele>81.0</ele><time>2026-03-24T13:31:59.001Z</time></trkpt><trkpt lat="41.97183402490423" lon="12.612956479031553"><ele>80.39999999999999</ele><time>2026-03-24T13:32:00.001Z</time></trkpt><trkpt lat="41.97194367653075" lon="12.61302450419857"><ele>79.8</ele><time>2026-03-24T13:32:01.001Z</time></trkpt><trkpt lat="41.97204342564068" lon="12.613085872407625"><ele>79.19999999999999</ele><time>2026-03-24T13:32:02.001Z</time></trkpt><trkpt lat="41.97213058797778" lon="12.61313823703269"><ele>78.6</ele><time>2026-03-24T13:32:03.001Z</time></trkpt><trkpt lat="41.97221473451663" lon="12.613184105468736"><ele>78.0</ele><time>2026-03-24T13:32:04.001Z</time></trkpt><trkpt lat="41.972297073435485" lon="12.613224618222807"><ele>78.0</ele><time>2026-03-24T13:32:05.001Z</time></trkpt><trkpt lat="41.97237469875182" lon="12.61325984102642"><ele>78.0</ele><time>2026-03-24T13:32:06.001Z</time></trkpt><trkpt lat="41.97244980192688" lon="12.613289592320008"><ele>78.0</ele><time>2026-03-24T13:32:07.001Z</time></trkpt><trkpt lat="41.97252408182069" lon="12.613318464860027"><ele>78.0</ele><time>2026-03-24T13:32:08.001Z</time></trkpt><trkpt lat="41.97258932041093" lon="12.613342561367665"><ele>78.0</ele><time>2026-03-24T13:32:09.001Z</time></trkpt><trkpt lat="41.97266229532177" lon="12.613366899508382"><ele>78.0</ele><time>2026-03-24T13:32:11.001Z</time></trkpt><trkpt lat="41.972756794957284" lon="12.613392968913539"><ele>77.25</ele><time>2026-03-24T13:32:14.001Z</time></trkpt><trkpt lat="41.97283472592374" lon="12.613423713871843"><ele>76.5</ele><time>2026-03-24T13:32:15.001Z</time></trkpt><trkpt lat="41.97295612341745" lon="12.613461014513843"><ele>75.75</ele><time>2026-03-24T13:32:16.001Z</time></trkpt><trkpt lat="41.973092016484536" lon="12.613499658003978"><ele>75.0</ele><time>2026-03-24T13:32:17.001Z</time></trkpt><trkpt lat="41.97324739051391" lon="12.613551073162856"><ele>74.25</ele><time>2026-03-24T13:32:18.002Z</time></trkpt><trkpt lat="41.97338953536354" lon="12.613604736736557"><ele>73.5</ele><time>2026-03-24T13:32:19.002Z</time></trkpt><trkpt lat="41.97351785037398" lon="12.613653247974078"><ele>72.75</ele><time>2026-03-24T13:32:20.002Z</time></trkpt><trkpt lat="41.97364571484097" lon="12.6137048791961"><ele>72.0</ele><time>2026-03-24T13:32:21.002Z</time></trkpt><trkpt lat="41.97376533936582" lon="12.613749840402674"><ele>72.0</ele><time>2026-03-24T13:32:22.002Z</time></trkpt><trkpt lat="41.97387510418789" lon="12.613790782937038"><ele>72.0</ele><time>2026-03-24T13:32:23Z</time></trkpt><trkpt lat="41.97398223786642" lon="12.613824646748608"><ele>72.0</ele><time>2026-03-24T13:32:24Z</time></trkpt><trkpt lat="41.97407986603605" lon="12.613856516814403"><ele>72.0</ele><time>2026-03-24T13:32:25Z</time></trkpt><trkpt lat="41.97417402702249" lon="12.61388916128216"><ele>72.0</ele><time>2026-03-24T13:32:26Z</time></trkpt><trkpt lat="41.97426828301222" lon="12.61392272667305"><ele>71.8</ele><time>2026-03-24T13:32:27Z</time></trkpt><trkpt lat="41.97437554686789" lon="12.61395501403194"><ele>71.6</ele><time>2026-03-24T13:32:28Z</time></trkpt><trkpt lat="41.97448463733205" lon="12.61398949711566"><ele>71.39999999999999</ele><time>2026-03-24T13:32:29Z</time></trkpt><trkpt lat="41.9745890708433" lon="12.614019958504503"><ele>71.2</ele><time>2026-03-24T13:32:30Z</time></trkpt><trkpt lat="41.974686182373645" lon="12.614050936945013"><ele>71.0</ele><time>2026-03-24T13:32:31Z</time></trkpt><trkpt lat="41.974790648244536" lon="12.614084167311544"><ele>71.0</ele><time>2026-03-24T13:32:32Z</time></trkpt><trkpt lat="41.974903165543246" lon="12.61412318121243"><ele>71.0</ele><time>2026-03-24T13:32:33Z</time></trkpt><trkpt lat="41.97502103929569" lon="12.61416199765145"><ele>71.0</ele><time>2026-03-24T13:32:34Z</time></trkpt><trkpt lat="41.97512675721443" lon="12.614199627017102"><ele>71.0</ele><time>2026-03-24T13:32:35Z</time></trkpt><trkpt lat="41.97522560567788" lon="12.61422905093828"><ele>71.0</ele><time>2026-03-24T13:32:36Z</time></trkpt><trkpt lat="41.97533123257655" lon="12.614262867804193"><ele>71.0</ele><time>2026-03-24T13:32:37Z</time></trkpt><trkpt lat="41.97544124568861" lon="12.61429833219188"><ele>71.0</ele><time>2026-03-24T13:32:38Z</time></trkpt><trkpt lat="41.97556760307422" lon="12.61433896102892"><ele>71.0</ele><time>2026-03-24T13:32:39Z</time></trkpt><trkpt lat="41.97568848734385" lon="12.614380449419821"><ele>71.0</ele><time>2026-03-24T13:32:40Z</time></trkpt><trkpt lat="41.975798988105545" lon="12.614416090028142"><ele>71.2</ele><time>2026-03-24T13:32:41Z</time></trkpt><trkpt lat="41.97590254195467" lon="12.614451913728614"><ele>71.39999999999999</ele><time>2026-03-24T13:32:42Z</time></trkpt><trkpt lat="41.975999145420985" lon="12.614488932527665"><ele>71.6</ele><time>2026-03-24T13:32:43Z</time></trkpt><trkpt lat="41.97608933683076" lon="12.614522851064518"><ele>71.8</ele><time>2026-03-24T13:32:44Z</time></trkpt><trkpt lat="41.97619177508615" lon="12.614555767730481"><ele>72.0</ele><time>2026-03-24T13:32:45Z</time></trkpt><trkpt lat="41.976315940596756" lon="12.614598914587743"><ele>72.0</ele><time>2026-03-24T13:32:46Z</time></trkpt><trkpt lat="41.976449136736235" lon="12.614648109792823"><ele>72.0</ele><time>2026-03-24T13:32:47Z</time></trkpt><trkpt lat="41.9766121621795" lon="12.61471373251758"><ele>72.0</ele><time>2026-03-24T13:32:48Z</time></trkpt><trkpt lat="41.976769812185516" lon="12.614775452515365"><ele>71.25</ele><time>2026-03-24T13:32:49Z</time></trkpt><trkpt lat="41.97690973966553" lon="12.614835650794841"><ele>70.5</ele><time>2026-03-24T13:32:50Z</time></trkpt><trkpt lat="41.97704380237959" lon="12.614892953936234"><ele>69.75</ele><time>2026-03-24T13:32:51Z</time></trkpt><trkpt lat="41.977172089419305" lon="12.614949332416037"><ele>69.0</ele><time>2026-03-24T13:32:52Z</time></trkpt><trkpt lat="41.97729232503288" lon="12.615003352191257"><ele>69.0</ele><time>2026-03-24T13:32:53Z</time></trkpt><trkpt lat="41.97740408196649" lon="12.61506221168659"><ele>69.0</ele><time>2026-03-24T13:32:54Z</time></trkpt><trkpt lat="41.97750761122829" lon="12.615125156210187"><ele>69.0</ele><time>2026-03-24T13:32:55Z</time></trkpt><trkpt lat="41.97761678591613" lon="12.615193804592389"><ele>69.0</ele><time>2026-03-24T13:32:56Z</time></trkpt><trkpt lat="41.97772956434804" lon="12.615267635174208"><ele>69.75</ele><time>2026-03-24T13:32:57Z</time></trkpt><trkpt lat="41.977843766830006" lon="12.615340996960546"><ele>70.5</ele><time>2026-03-24T13:32:58Z</time></trkpt><trkpt lat="41.9779585936596" lon="12.615407711619323"><ele>71.25</ele><time>2026-03-24T13:32:59Z</time></trkpt><trkpt lat="41.978071586175666" lon="12.615475899180947"><ele>72.0</ele><time>2026-03-24T13:33:00Z</time></trkpt><trkpt lat="41.97818179211519" lon="12.615541588127673"><ele>72.0</ele><time>2026-03-24T13:33:01Z</time></trkpt><trkpt lat="41.978290878742456" lon="12.615591804821808"><ele>72.0</ele><time>2026-03-24T13:33:02Z</time></trkpt><trkpt lat="41.978402044219024" lon="12.615631087862441"><ele>72.0</ele><time>2026-03-24T13:33:03Z</time></trkpt><trkpt lat="41.978508207026984" lon="12.615667314995074"><ele>72.0</ele><time>2026-03-24T13:33:04Z</time></trkpt><trkpt lat="41.97860877665433" lon="12.615719986736028"><ele>72.0</ele><time>2026-03-24T13:33:05Z</time></trkpt><trkpt lat="41.97868433175491" lon="12.615804384922594"><ele>72.4</ele><time>2026-03-24T13:33:06.001Z</time></trkpt><trkpt lat="41.978755603140705" lon="12.615889805995339"><ele>72.80000000000001</ele><time>2026-03-24T13:33:07.001Z</time></trkpt><trkpt lat="41.97883097538823" lon="12.615962054588245"><ele>73.2</ele><time>2026-03-24T13:33:08.001Z</time></trkpt><trkpt lat="41.978901090697576" lon="12.616043820606231"><ele>73.60000000000001</ele><time>2026-03-24T13:33:09.001Z</time></trkpt><trkpt lat="41.97897007353227" lon="12.616130934164573"><ele>74.0</ele><time>2026-03-24T13:33:10.001Z</time></trkpt><trkpt lat="41.97903953862307" lon="12.616209952276227"><ele>74.0</ele><time>2026-03-24T13:33:11.001Z</time></trkpt><trkpt lat="41.97911212616013" lon="12.616298116591437"><ele>74.0</ele><time>2026-03-24T13:33:12.001Z</time></trkpt><trkpt lat="41.979151510398204" lon="12.616399966896196"><ele>74.0</ele><time>2026-03-24T13:33:13.001Z</time></trkpt><trkpt lat="41.97914431814743" lon="12.616507912846243"><ele>74.0</ele><time>2026-03-24T13:33:14.001Z</time></trkpt><trkpt lat="41.979091340772754" lon="12.616622473238627"><ele>74.0</ele><time>2026-03-24T13:33:15.001Z</time></trkpt><trkpt lat="41.979077124439954" lon="12.61675515912696"><ele>74.0</ele><time>2026-03-24T13:33:16.001Z</time></trkpt><trkpt lat="41.979061961076695" lon="12.61690112747842"><ele>74.0</ele><time>2026-03-24T13:33:17.001Z</time></trkpt><trkpt lat="41.97904772209109" lon="12.617037863995478"><ele>74.0</ele><time>2026-03-24T13:33:18.001Z</time></trkpt><trkpt lat="41.97903449731633" lon="12.617164782682426"><ele>74.0</ele><time>2026-03-24T13:33:19.001Z</time></trkpt><trkpt lat="41.97901878914518" lon="12.617315534649832"><ele>74.0</ele><time>2026-03-24T13:33:20.001Z</time></trkpt><trkpt lat="41.97900264929841" lon="12.617470429372128"><ele>74.5</ele><time>2026-03-24T13:33:21.001Z</time></trkpt><trkpt lat="41.97898545399438" lon="12.617636258194164"><ele>75.0</ele><time>2026-03-24T13:33:22.001Z</time></trkpt><trkpt lat="41.97896808055108" lon="12.617804491155068"><ele>75.5</ele><time>2026-03-24T13:33:23.001Z</time></trkpt><trkpt lat="41.97895055134817" lon="12.617976527739378"><ele>76.0</ele><time>2026-03-24T13:33:24.001Z</time></trkpt><trkpt lat="41.97893243244546" lon="12.618154431840262"><ele>76.75</ele><time>2026-03-24T13:33:25.001Z</time></trkpt><trkpt lat="41.978913509524844" lon="12.618340230271446"><ele>77.5</ele><time>2026-03-24T13:33:26.001Z</time></trkpt><trkpt lat="41.978893625960076" lon="12.618535461029248"><ele>78.25</ele><time>2026-03-24T13:33:27.001Z</time></trkpt><trkpt lat="41.978872912495284" lon="12.618738840358073"><ele>79.0</ele><time>2026-03-24T13:33:28.001Z</time></trkpt><trkpt lat="41.97885064026986" lon="12.618956988760397"><ele>79.0</ele><time>2026-03-24T13:33:29.001Z</time></trkpt><trkpt lat="41.97883773232507" lon="12.619186648371956"><ele>79.0</ele><time>2026-03-24T13:33:30.001Z</time></trkpt><trkpt lat="41.97882266855886" lon="12.619389372015569"><ele>79.0</ele><time>2026-03-24T13:33:31.001Z</time></trkpt><trkpt lat="41.97880259775376" lon="12.619578646789192"><ele>79.0</ele><time>2026-03-24T13:33:32.001Z</time></trkpt><trkpt lat="41.97876808456929" lon="12.619755265414115"><ele>79.0</ele><time>2026-03-24T13:33:33.001Z</time></trkpt><trkpt lat="41.97874973321862" lon="12.619926947449953"><ele>79.0</ele><time>2026-03-24T13:33:34.001Z</time></trkpt><trkpt lat="41.97873337241475" lon="12.620080351703407"><ele>79.0</ele><time>2026-03-24T13:33:35.001Z</time></trkpt><trkpt lat="41.97868936018424" lon="12.620221357481228"><ele>79.0</ele><time>2026-03-24T13:33:36.001Z</time></trkpt><trkpt lat="41.97864185320869" lon="12.620363699009856"><ele>79.0</ele><time>2026-03-24T13:33:37.001Z</time></trkpt><trkpt lat="41.97856169150294" lon="12.620474838227162"><ele>79.0</ele><time>2026-03-24T13:33:38.001Z</time></trkpt><trkpt lat="41.978469330800365" lon="12.620567782709758"><ele>79.0</ele><time>2026-03-24T13:33:39.001Z</time></trkpt><trkpt lat="41.9783593496535" lon="12.620659882954978"><ele>77.25</ele><time>2026-03-24T13:33:40.001Z</time></trkpt><trkpt lat="41.97824113027807" lon="12.620762644449611"><ele>75.5</ele><time>2026-03-24T13:33:41.001Z</time></trkpt><trkpt lat="41.978126830107996" lon="12.620865624619954"><ele>73.75</ele><time>2026-03-24T13:33:42.001Z</time></trkpt><trkpt lat="41.978020361612245" lon="12.620962550606697"><ele>72.0</ele><time>2026-03-24T13:33:43.001Z</time></trkpt><trkpt lat="41.97791513807162" lon="12.621061599052412"><ele>72.0</ele><time>2026-03-24T13:33:44.001Z</time></trkpt><trkpt lat="41.97780791368955" lon="12.621147916264015"><ele>72.0</ele><time>2026-03-24T13:33:45.001Z</time></trkpt><trkpt lat="41.977703353892636" lon="12.621238164451562"><ele>72.0</ele><time>2026-03-24T13:33:46.001Z</time></trkpt><trkpt lat="41.977610547758324" lon="12.621338175617261"><ele>72.0</ele><time>2026-03-24T13:33:47.001Z</time></trkpt><trkpt lat="41.97753310927673" lon="12.621459953609897"><ele>69.75</ele><time>2026-03-24T13:33:48.001Z</time></trkpt><trkpt lat="41.9774791266384" lon="12.621600438277559"><ele>67.5</ele><time>2026-03-24T13:33:49.001Z</time></trkpt><trkpt lat="41.97745057097697" lon="12.621759711042179"><ele>65.25</ele><time>2026-03-24T13:33:50.001Z</time></trkpt><trkpt lat="41.97743942760594" lon="12.621924969336488"><ele>63.0</ele><time>2026-03-24T13:33:51.001Z</time></trkpt><trkpt lat="41.97742157677947" lon="12.622079868530115"><ele>62.75</ele><time>2026-03-24T13:33:52.001Z</time></trkpt><trkpt lat="41.97737409309639" lon="12.622215319343146"><ele>62.5</ele><time>2026-03-24T13:33:53.001Z</time></trkpt><trkpt lat="41.97729825312395" lon="12.622328543252234"><ele>62.25</ele><time>2026-03-24T13:33:54.001Z</time></trkpt><trkpt lat="41.977187887174125" lon="12.622408218615151"><ele>62.0</ele><time>2026-03-24T13:33:55.001Z</time></trkpt><trkpt lat="41.977081633966655" lon="12.62252325252444"><ele>62.0</ele><time>2026-03-24T13:33:56.001Z</time></trkpt><trkpt lat="41.9769557605343" lon="12.62262383140628"><ele>62.0</ele><time>2026-03-24T13:33:57.001Z</time></trkpt><trkpt lat="41.9768422581283" lon="12.622725213551453"><ele>62.0</ele><time>2026-03-24T13:33:58.001Z</time></trkpt><trkpt lat="41.97673044598669" lon="12.622826395032778"><ele>62.0</ele><time>2026-03-24T13:33:59.001Z</time></trkpt><trkpt lat="41.97661295609236" lon="12.622932698628983"><ele>61.0</ele><time>2026-03-24T13:34:00.001Z</time></trkpt><trkpt lat="41.97649899329352" lon="12.623036887073228"><ele>60.0</ele><time>2026-03-24T13:34:01.001Z</time></trkpt><trkpt lat="41.97638640938776" lon="12.623135831724204"><ele>59.0</ele><time>2026-03-24T13:34:02.001Z</time></trkpt><trkpt lat="41.97627525195418" lon="12.623232373380212"><ele>58.0</ele><time>2026-03-24T13:34:03.001Z</time></trkpt><trkpt lat="41.97616483948733" lon="12.623328089304296"><ele>58.0</ele><time>2026-03-24T13:34:04.001Z</time></trkpt><trkpt lat="41.976060584879896" lon="12.623419990705353"><ele>58.0</ele><time>2026-03-24T13:34:05.001Z</time></trkpt><trkpt lat="41.975959536683185" lon="12.623508524722693"><ele>58.0</ele><time>2026-03-24T13:34:06.001Z</time></trkpt><trkpt lat="41.97586219696065" lon="12.623603401169508"><ele>58.0</ele><time>2026-03-24T13:34:07.001Z</time></trkpt><trkpt lat="41.97578067841985" lon="12.623726718342866"><ele>56.25</ele><time>2026-03-24T13:34:08.001Z</time></trkpt><trkpt lat="41.975726997668154" lon="12.623877172191046"><ele>54.5</ele><time>2026-03-24T13:34:09.001Z</time></trkpt><trkpt lat="41.975678553431415" lon="12.624036078084869"><ele>52.75</ele><time>2026-03-24T13:34:10.001Z</time></trkpt><trkpt lat="41.97566614610772" lon="12.624201126660301"><ele>51.0</ele><time>2026-03-24T13:34:11.001Z</time></trkpt><trkpt lat="41.97566375406625" lon="12.62436296052423"><ele>51.25</ele><time>2026-03-24T13:34:12.001Z</time></trkpt><trkpt lat="41.975662298921605" lon="12.624526302408748"><ele>51.5</ele><time>2026-03-24T13:34:13.001Z</time></trkpt><trkpt lat="41.97565863353041" lon="12.624688232931947"><ele>51.75</ele><time>2026-03-24T13:34:14.001Z</time></trkpt><trkpt lat="41.97561115656722" lon="12.624834751320726"><ele>52.0</ele><time>2026-03-24T13:34:15.001Z</time></trkpt><trkpt lat="41.97554691945829" lon="12.624968413508158"><ele>52.0</ele><time>2026-03-24T13:34:16.001Z</time></trkpt><trkpt lat="41.97544104506602" lon="12.625064776372735"><ele>52.0</ele><time>2026-03-24T13:34:17.001Z</time></trkpt><trkpt lat="41.97533104579551" lon="12.625168275325771"><ele>52.0</ele><time>2026-03-24T13:34:18.001Z</time></trkpt><trkpt lat="41.97521375117576" lon="12.625273558595831"><ele>52.0</ele><time>2026-03-24T13:34:19.001Z</time></trkpt><trkpt lat="41.975096941434444" lon="12.625400664153256"><ele>53.666666666666664</ele><time>2026-03-24T13:34:20.001Z</time></trkpt><trkpt lat="41.974961148657215" lon="12.625518574218308"><ele>55.33333333333333</ele><time>2026-03-24T13:34:21.001Z</time></trkpt><trkpt lat="41.974815169491826" lon="12.625645332455086"><ele>57.0</ele><time>2026-03-24T13:34:22.001Z</time></trkpt><trkpt lat="41.97468319590574" lon="12.625765154815877"><ele>57.0</ele><time>2026-03-24T13:34:23.001Z</time></trkpt><trkpt lat="41.97456995980134" lon="12.62584954669452"><ele>57.0</ele><time>2026-03-24T13:34:24.001Z</time></trkpt><trkpt lat="41.974460734469815" lon="12.62594255528354"><ele>57.0</ele><time>2026-03-24T13:34:25.001Z</time></trkpt><trkpt lat="41.974326591720576" lon="12.626072003383731"><ele>57.0</ele><time>2026-03-24T13:34:26.001Z</time></trkpt><trkpt lat="41.97417512330297" lon="12.626215943957584"><ele>60.33333333333333</ele><time>2026-03-24T13:34:27.001Z</time></trkpt><trkpt lat="41.97403979153815" lon="12.626339151023512"><ele>63.666666666666664</ele><time>2026-03-24T13:34:28.001Z</time></trkpt><trkpt lat="41.973920620567036" lon="12.626438785031754"><ele>67.0</ele><time>2026-03-24T13:34:29Z</time></trkpt><trkpt lat="41.97378909441319" lon="12.626557225197194"><ele>67.0</ele><time>2026-03-24T13:34:30Z</time></trkpt><trkpt lat="41.97365234496755" lon="12.626690737770517"><ele>67.0</ele><time>2026-03-24T13:34:31Z</time></trkpt><trkpt lat="41.973516319501265" lon="12.62681301766327"><ele>67.0</ele><time>2026-03-24T13:34:32Z</time></trkpt><trkpt lat="41.973383999885364" lon="12.626933940669808"><ele>68.33333333333333</ele><time>2026-03-24T13:34:33Z</time></trkpt><trkpt lat="41.97324589533098" lon="12.627032182489943"><ele>69.66666666666667</ele><time>2026-03-24T13:34:34Z</time></trkpt><trkpt lat="41.97310934907045" lon="12.627154187745823"><ele>71.0</ele><time>2026-03-24T13:34:35Z</time></trkpt><trkpt lat="41.97295422300825" lon="12.627314458697462"><ele>71.0</ele><time>2026-03-24T13:34:36Z</time></trkpt><trkpt lat="41.97280604057732" lon="12.627443010337258"><ele>71.0</ele><time>2026-03-24T13:34:37Z</time></trkpt><trkpt lat="41.97267832309033" lon="12.627558944536602"><ele>71.0</ele><time>2026-03-24T13:34:38Z</time></trkpt><trkpt lat="41.97256700131962" lon="12.627660723101066"><ele>71.25</ele><time>2026-03-24T13:34:39Z</time></trkpt><trkpt lat="41.97246531919504" lon="12.627753311514983"><ele>71.5</ele><time>2026-03-24T13:34:40Z</time></trkpt><trkpt lat="41.97236830008211" lon="12.627840976636191"><ele>71.75</ele><time>2026-03-24T13:34:41Z</time></trkpt><trkpt lat="41.972277060267615" lon="12.627924703423668"><ele>72.0</ele><time>2026-03-24T13:34:42Z</time></trkpt><trkpt lat="41.9721854396656" lon="12.6280004155323"><ele>72.0</ele><time>2026-03-24T13:34:43Z</time></trkpt><trkpt lat="41.972092264182365" lon="12.62806659521008"><ele>72.0</ele><time>2026-03-24T13:34:44Z</time></trkpt><trkpt lat="41.97198530517098" lon="12.628109833139403"><ele>72.0</ele><time>2026-03-24T13:34:45Z</time></trkpt><trkpt lat="41.97187274659779" lon="12.628119174815282"><ele>72.0</ele><time>2026-03-24T13:34:46Z</time></trkpt><trkpt lat="41.971762443384996" lon="12.628085682987988"><ele>72.0</ele><time>2026-03-24T13:34:47Z</time></trkpt><trkpt lat="41.971644764615164" lon="12.628020317905628"><ele>69.75</ele><time>2026-03-24T13:34:48Z</time></trkpt><trkpt lat="41.97152329139439" lon="12.627942545851027"><ele>67.5</ele><time>2026-03-24T13:34:49Z</time></trkpt><trkpt lat="41.971409570428875" lon="12.627862369605486"><ele>65.25</ele><time>2026-03-24T13:34:50Z</time></trkpt><trkpt lat="41.971296454742756" lon="12.62778307052799"><ele>63.0</ele><time>2026-03-24T13:34:51Z</time></trkpt><trkpt lat="41.97118045447769" lon="12.627709609581542"><ele>61.5</ele><time>2026-03-24T13:34:52Z</time></trkpt><trkpt lat="41.971066445350615" lon="12.62763795241346"><ele>60.0</ele><time>2026-03-24T13:34:53Z</time></trkpt><trkpt lat="41.97095557588065" lon="12.627564104585458"><ele>58.5</ele><time>2026-03-24T13:34:54Z</time></trkpt><trkpt lat="41.97084073769347" lon="12.627489794957981"><ele>57.0</ele><time>2026-03-24T13:34:55Z</time></trkpt><trkpt lat="41.970726759743506" lon="12.627412308986003"><ele>55.75</ele><time>2026-03-24T13:34:56Z</time></trkpt><trkpt lat="41.97061753201856" lon="12.627342824859035"><ele>54.5</ele><time>2026-03-24T13:34:57Z</time></trkpt><trkpt lat="41.9705162338006" lon="12.627288236091799"><ele>53.25</ele><time>2026-03-24T13:34:58Z</time></trkpt><trkpt lat="41.97041698918587" lon="12.627225650807972"><ele>52.0</ele><time>2026-03-24T13:34:59Z</time></trkpt><trkpt lat="41.97031242033306" lon="12.627178570430488"><ele>52.0</ele><time>2026-03-24T13:35:00Z</time></trkpt><trkpt lat="41.97020268558796" lon="12.627175868807418"><ele>52.0</ele><time>2026-03-24T13:35:01Z</time></trkpt><trkpt lat="41.9700922939136" lon="12.627212059378268"><ele>52.0</ele><time>2026-03-24T13:35:02Z</time></trkpt><trkpt lat="41.96998268024648" lon="12.627275178946183"><ele>52.0</ele><time>2026-03-24T13:35:03Z</time></trkpt><trkpt lat="41.969872604787184" lon="12.627374964006876"><ele>50.5</ele><time>2026-03-24T13:35:04Z</time></trkpt><trkpt lat="41.96976506787945" lon="12.627471726532514"><ele>49.0</ele><time>2026-03-24T13:35:05Z</time></trkpt><trkpt lat="41.969664365642785" lon="12.627567477308897"><ele>47.5</ele><time>2026-03-24T13:35:06Z</time></trkpt><trkpt lat="41.96953771790039" lon="12.627656773060583"><ele>46.0</ele><time>2026-03-24T13:35:07Z</time></trkpt><trkpt lat="41.96940930073073" lon="12.627796071010886"><ele>45.66666666666667</ele><time>2026-03-24T13:35:08Z</time></trkpt><trkpt lat="41.96923639553426" lon="12.627948457575991"><ele>45.333333333333336</ele><time>2026-03-24T13:35:09Z</time></trkpt><trkpt lat="41.969046931528936" lon="12.628108337156476"><ele>45.0</ele><time>2026-03-24T13:35:10Z</time></trkpt><trkpt lat="41.96889501339669" lon="12.62823067731109"><ele>45.0</ele><time>2026-03-24T13:35:11Z</time></trkpt><trkpt lat="41.96876195983646" lon="12.628375862743534"><ele>45.0</ele><time>2026-03-24T13:35:12Z</time></trkpt><trkpt lat="41.96862614213105" lon="12.628494364591262"><ele>45.0</ele><time>2026-03-24T13:35:13Z</time></trkpt><trkpt lat="41.96849061858594" lon="12.628614491023342"><ele>44.333333333333336</ele><time>2026-03-24T13:35:14Z</time></trkpt><trkpt lat="41.968355159811836" lon="12.628733524849666"><ele>43.66666666666667</ele><time>2026-03-24T13:35:15Z</time></trkpt><trkpt lat="41.96822211457447" lon="12.628853534435844"><ele>43.0</ele><time>2026-03-24T13:35:16Z</time></trkpt><trkpt lat="41.96810413652579" lon="12.628962469948927"><ele>43.0</ele><time>2026-03-24T13:35:17Z</time></trkpt><trkpt lat="41.96799453940759" lon="12.629062244140375"><ele>43.0</ele><time>2026-03-24T13:35:18Z</time></trkpt><trkpt lat="41.9678997551977" lon="12.62915113145351"><ele>43.0</ele><time>2026-03-24T13:35:19Z</time></trkpt><trkpt lat="41.96781454862941" lon="12.629228334466575"><ele>43.0</ele><time>2026-03-24T13:35:20Z</time></trkpt><trkpt lat="41.96773825311269" lon="12.629298279846429"><ele>43.0</ele><time>2026-03-24T13:35:21Z</time></trkpt><trkpt lat="41.96767160291574" lon="12.62935764660353"><ele>43.0</ele><time>2026-03-24T13:35:22Z</time></trkpt><trkpt lat="41.967615464515475" lon="12.629407893486391"><ele>43.0</ele><time>2026-03-24T13:35:23.001Z</time></trkpt><trkpt lat="41.96752619657424" lon="12.62948556762528"><ele>43.0</ele><time>2026-03-24T13:35:25.001Z</time></trkpt><trkpt lat="41.967453692564774" lon="12.629554549469248"><ele>43.0</ele><time>2026-03-24T13:35:27.001Z</time></trkpt><trkpt lat="41.96738504160794" lon="12.62959810008417"><ele>43.0</ele><time>2026-03-24T13:35:30.001Z</time></trkpt><trkpt lat="41.9674151294114" lon="12.629744984577073"><ele>43.0</ele><time>2026-03-24T13:35:45.001Z</time></trkpt><trkpt lat="41.967502759561775" lon="12.62972039198957"><ele>43.0</ele><time>2026-03-24T13:35:47.001Z</time></trkpt><trkpt lat="41.96757334783802" lon="12.62965535487062"><ele>43.0</ele><time>2026-03-24T13:35:49.001Z</time></trkpt><trkpt lat="41.96764345364715" lon="12.62959067615256"><ele>43.0</ele><time>2026-03-24T13:35:51.001Z</time></trkpt><trkpt lat="41.96773203351507" lon="12.629520158643436"><ele>43.0</ele><time>2026-03-24T13:35:53.001Z</time></trkpt><trkpt lat="41.96780028625956" lon="12.629455910140651"><ele>43.0</ele><time>2026-03-24T13:35:55.001Z</time></trkpt><trkpt lat="41.96787741405458" lon="12.629386163766743"><ele>43.0</ele><time>2026-03-24T13:35:57.001Z</time></trkpt><trkpt lat="41.967977341890006" lon="12.629308337381516"><ele>43.0</ele><time>2026-03-24T13:35:59.001Z</time></trkpt><trkpt lat="41.96804267571447" lon="12.629248937535865"><ele>43.0</ele><time>2026-03-24T13:36:01.001Z</time></trkpt><trkpt lat="41.96809823577646" lon="12.629154427688375"><ele>43.0</ele><time>2026-03-24T13:36:03.001Z</time></trkpt><trkpt lat="41.96815642768026" lon="12.629104328001238"><ele>43.0</ele><time>2026-03-24T13:37:30Z</time></trkpt><trkpt lat="41.9682196640658" lon="12.629061093589238"><ele>43.0</ele><time>2026-03-24T13:37:31Z</time></trkpt><trkpt lat="41.96829683842859" lon="12.629007318625524"><ele>43.333333333333336</ele><time>2026-03-24T13:37:32Z</time></trkpt><trkpt lat="41.96837288795602" lon="12.628946328416554"><ele>43.66666666666667</ele><time>2026-03-24T13:37:33Z</time></trkpt><trkpt lat="41.968438436573585" lon="12.628888817832445"><ele>44.0</ele><time>2026-03-24T13:37:34Z</time></trkpt><trkpt lat="41.96849688767105" lon="12.628833616155605"><ele>44.333333333333336</ele><time>2026-03-24T13:37:35Z</time></trkpt><trkpt lat="41.96854890782235" lon="12.6287831697801"><ele>44.666666666666664</ele><time>2026-03-24T13:37:36.001Z</time></trkpt><trkpt lat="41.96863073200587" lon="12.62870532192172"><ele>45.0</ele><time>2026-03-24T13:37:38.001Z</time></trkpt><trkpt lat="41.968733795352506" lon="12.628636186667618"><ele>45.0</ele><time>2026-03-24T13:37:40.001Z</time></trkpt><trkpt lat="41.96879917878505" lon="12.628598508884675"><ele>45.0</ele><time>2026-03-24T13:37:41.001Z</time></trkpt><trkpt lat="41.96884744394114" lon="12.628511977378283"><ele>45.0</ele><time>2026-03-24T13:37:42.001Z</time></trkpt><trkpt lat="41.9689197233947" lon="12.628470057644396"><ele>45.0</ele><time>2026-03-24T13:37:43.001Z</time></trkpt><trkpt lat="41.96899743083531" lon="12.628392835209477"><ele>45.0</ele><time>2026-03-24T13:37:44.001Z</time></trkpt><trkpt lat="41.96909446244464" lon="12.628299703824686"><ele>45.0</ele><time>2026-03-24T13:37:45.001Z</time></trkpt><trkpt lat="41.96921433163188" lon="12.628188070816522"><ele>47.33333333333333</ele><time>2026-03-24T13:37:46.001Z</time></trkpt><trkpt lat="41.96932918098597" lon="12.62808148835384"><ele>49.666666666666664</ele><time>2026-03-24T13:37:47.001Z</time></trkpt><trkpt lat="41.96946380155131" lon="12.627959193093409"><ele>52.0</ele><time>2026-03-24T13:37:48.001Z</time></trkpt><trkpt lat="41.96959117776423" lon="12.627842957723615"><ele>50.5</ele><time>2026-03-24T13:37:49.001Z</time></trkpt><trkpt lat="41.96971288394117" lon="12.62773940986551"><ele>49.0</ele><time>2026-03-24T13:37:50.001Z</time></trkpt><trkpt lat="41.96982053118852" lon="12.627640089926434"><ele>47.5</ele><time>2026-03-24T13:37:51.001Z</time></trkpt><trkpt lat="41.969922875909255" lon="12.627546695717731"><ele>46.0</ele><time>2026-03-24T13:37:52.001Z</time></trkpt><trkpt lat="41.970008947528356" lon="12.627469233507272"><ele>47.199999999999996</ele><time>2026-03-24T13:37:53.001Z</time></trkpt><trkpt lat="41.97009378670566" lon="12.627410060955858"><ele>48.4</ele><time>2026-03-24T13:37:54.001Z</time></trkpt><trkpt lat="41.970177853289" lon="12.627376833856587"><ele>49.6</ele><time>2026-03-24T13:37:55.001Z</time></trkpt><trkpt lat="41.970285062063766" lon="12.627373343680297"><ele>50.8</ele><time>2026-03-24T13:37:56.001Z</time></trkpt><trkpt lat="41.97038666953046" lon="12.627399979011408"><ele>52.0</ele><time>2026-03-24T13:37:57.001Z</time></trkpt><trkpt lat="41.97048693883864" lon="12.627446184378565"><ele>52.0</ele><time>2026-03-24T13:37:58.001Z</time></trkpt><trkpt lat="41.97057770686854" lon="12.627511329785495"><ele>52.0</ele><time>2026-03-24T13:37:59.001Z</time></trkpt><trkpt lat="41.970667704028735" lon="12.627579397702728"><ele>52.0</ele><time>2026-03-24T13:38:00.001Z</time></trkpt><trkpt lat="41.97076991333673" lon="12.627641222560193"><ele>52.0</ele><time>2026-03-24T13:38:01.001Z</time></trkpt><trkpt lat="41.97087929615679" lon="12.627711761005996"><ele>52.0</ele><time>2026-03-24T13:38:02.001Z</time></trkpt><trkpt lat="41.970976665997554" lon="12.627774161016735"><ele>53.6</ele><time>2026-03-24T13:38:03.001Z</time></trkpt><trkpt lat="41.97103755600581" lon="12.627821325454585"><ele>55.2</ele><time>2026-03-24T13:38:04.001Z</time></trkpt><trkpt lat="41.971018676995556" lon="12.627922857608999"><ele>56.8</ele><time>2026-03-24T13:38:16.001Z</time></trkpt><trkpt lat="41.97089653619477" lon="12.628025964716349"><ele>58.4</ele><time>2026-03-24T13:38:17.001Z</time></trkpt><trkpt lat="41.97079697131496" lon="12.628114981403108"><ele>60.0</ele><time>2026-03-24T13:38:18.001Z</time></trkpt><trkpt lat="41.97066727791395" lon="12.628227654860723"><ele>60.0</ele><time>2026-03-24T13:38:19.001Z</time></trkpt><trkpt lat="41.97052047788636" lon="12.628296578737295"><ele>60.0</ele><time>2026-03-24T13:38:20.001Z</time></trkpt><trkpt lat="41.97040383112385" lon="12.628399255714617"><ele>60.0</ele><time>2026-03-24T13:38:21.001Z</time></trkpt><trkpt lat="41.97030003830041" lon="12.628492377783672"><ele>60.0</ele><time>2026-03-24T13:38:22.001Z</time></trkpt><trkpt lat="41.97023409341849" lon="12.628551583151097"><ele>60.0</ele><time>2026-03-24T13:38:23.001Z</time></trkpt><trkpt lat="41.970168060792425" lon="12.628610867299763"><ele>60.0</ele><time>2026-03-24T13:38:24.001Z</time></trkpt><trkpt lat="41.97010179411114" lon="12.628694199471546"><ele>60.0</ele><time>2026-03-24T13:38:25.001Z</time></trkpt><trkpt lat="41.969990639225664" lon="12.628770131782982"><ele>60.0</ele><time>2026-03-24T13:38:26.001Z</time></trkpt><trkpt lat="41.96987518323048" lon="12.628873296898488"><ele>60.0</ele><time>2026-03-24T13:38:27.001Z</time></trkpt><trkpt lat="41.96978441626765" lon="12.62895402236511"><ele>59.5</ele><time>2026-03-24T13:38:28.001Z</time></trkpt><trkpt lat="41.96971598610498" lon="12.629014777789378"><ele>59.0</ele><time>2026-03-24T13:38:29.001Z</time></trkpt><trkpt lat="41.969663255570445" lon="12.629061594396322"><ele>58.5</ele><time>2026-03-24T13:38:30.001Z</time></trkpt><trkpt lat="41.96960414047889" lon="12.62913742247512"><ele>58.0</ele><time>2026-03-24T13:38:32.001Z</time></trkpt><trkpt lat="41.96953362581972" lon="12.629175860537693"><ele>57.5</ele><time>2026-03-24T13:38:34.001Z</time></trkpt><trkpt lat="41.969447346330995" lon="12.629060642662903"><ele>57.0</ele><time>2026-03-24T13:38:36.001Z</time></trkpt><trkpt lat="41.96937551215552" lon="12.629013795969572"><ele>57.0</ele><time>2026-03-24T13:38:38.001Z</time></trkpt><trkpt lat="41.96929976973918" lon="12.628963905362394"><ele>57.0</ele><time>2026-03-24T13:38:40Z</time></trkpt><trkpt lat="41.96920033081039" lon="12.628898406190032"><ele>57.0</ele><time>2026-03-24T13:38:42Z</time></trkpt><trkpt lat="41.969089618171594" lon="12.628825372271255"><ele>57.0</ele><time>2026-03-24T13:38:44Z</time></trkpt><trkpt lat="41.96898167786103" lon="12.628740167210255"><ele>57.0</ele><time>2026-03-24T13:38:46Z</time></trkpt><trkpt lat="41.96891834077083" lon="12.628708389771065"><ele>55.666666666666664</ele><time>2026-03-24T13:38:47Z</time></trkpt><trkpt lat="41.968856633960385" lon="12.62866549021102"><ele>54.33333333333333</ele><time>2026-03-24T13:38:48Z</time></trkpt><trkpt lat="41.96877283891924" lon="12.628608240235542"><ele>53.0</ele><time>2026-03-24T13:38:50Z</time></trkpt><trkpt lat="41.968703326010036" lon="12.628558250772906"><ele>51.666666666666664</ele><time>2026-03-24T13:38:53Z</time></trkpt><trkpt lat="41.96864231826796" lon="12.62851288670436"><ele>50.33333333333333</ele><time>2026-03-24T13:38:55Z</time></trkpt><trkpt lat="41.96857988701208" lon="12.628466678290803"><ele>49.0</ele><time>2026-03-24T13:38:57Z</time></trkpt><trkpt lat="41.968511332871486" lon="12.62854498876829"><ele>48.0</ele><time>2026-03-24T13:38:58Z</time></trkpt><trkpt lat="41.96837583470992" lon="12.628642283418342"><ele>47.0</ele><time>2026-03-24T13:39:00Z</time></trkpt><trkpt lat="41.96828796633834" lon="12.628736271364263"><ele>46.0</ele><time>2026-03-24T13:39:01Z</time></trkpt><trkpt lat="41.96819947844462" lon="12.62882459121395"><ele>45.0</ele><time>2026-03-24T13:39:02Z</time></trkpt><trkpt lat="41.96808957384473" lon="12.628940018784801"><ele>44.6</ele><time>2026-03-24T13:39:03Z</time></trkpt><trkpt lat="41.96799559776899" lon="12.629021923212843"><ele>44.2</ele><time>2026-03-24T13:39:04Z</time></trkpt><trkpt lat="41.967900947804175" lon="12.629099119142017"><ele>43.8</ele><time>2026-03-24T13:39:05Z</time></trkpt><trkpt lat="41.96782173584636" lon="12.629169808608799"><ele>43.4</ele><time>2026-03-24T13:39:06Z</time></trkpt><trkpt lat="41.967745930089514" lon="12.629232290663811"><ele>43.0</ele><time>2026-03-24T13:39:07Z</time></trkpt><trkpt lat="41.967676142550765" lon="12.629294577692768"><ele>43.0</ele><time>2026-03-24T13:39:08Z</time></trkpt><trkpt lat="41.96761464547609" lon="12.629348976864668"><ele>43.0</ele><time>2026-03-24T13:39:09Z</time></trkpt><trkpt lat="41.96752269412566" lon="12.629435162285242"><ele>43.0</ele><time>2026-03-24T13:39:11Z</time></trkpt><trkpt lat="41.96746526303191" lon="12.629475217445552"><ele>43.0</ele><time>2026-03-24T13:39:13Z</time></trkpt><trkpt lat="41.96740266348867" lon="12.629522786638711"><ele>43.0</ele><time>2026-03-24T13:40:49Z</time></trkpt><trkpt lat="41.967339697246196" lon="12.62958054554125"><ele>43.0</ele><time>2026-03-24T13:40:51Z</time></trkpt><trkpt lat="41.96731071410411" lon="12.629672785820004"><ele>40.0</ele><time>2026-03-24T13:40:55Z</time></trkpt><trkpt lat="41.967100216246195" lon="12.629985874623927"><ele>37.0</ele><time>2026-03-24T13:40:58Z</time></trkpt><trkpt lat="41.96742582484853" lon="12.629699589675546"><ele>37.0</ele><time>2026-03-24T13:41:01Z</time></trkpt><trkpt lat="41.967497978644275" lon="12.629562273140747"><ele>37.0</ele><time>2026-03-24T13:41:03Z</time></trkpt><trkpt lat="41.96756955555205" lon="12.629476638035873"><ele>37.0</ele><time>2026-03-24T13:41:04Z</time></trkpt><trkpt lat="41.96767791912038" lon="12.629373555327234"><ele>37.0</ele><time>2026-03-24T13:41:05Z</time></trkpt><trkpt lat="41.96780547770206" lon="12.62926821638579"><ele>39.0</ele><time>2026-03-24T13:41:06Z</time></trkpt><trkpt lat="41.96795494777397" lon="12.629129864525488"><ele>41.0</ele><time>2026-03-24T13:41:07Z</time></trkpt><trkpt lat="41.96811860619583" lon="12.628991839119415"><ele>43.0</ele><time>2026-03-24T13:41:08Z</time></trkpt><trkpt lat="41.968292501439464" lon="12.628834485666056"><ele>43.66666666666667</ele><time>2026-03-24T13:41:09Z</time></trkpt><trkpt lat="41.9684656535012" lon="12.628686171263443"><ele>44.333333333333336</ele><time>2026-03-24T13:41:10Z</time></trkpt><trkpt lat="41.96861207189026" lon="12.628558335296411"><ele>45.0</ele><time>2026-03-24T13:41:11Z</time></trkpt><trkpt lat="41.96873881527754" lon="12.628446485027034"><ele>45.0</ele><time>2026-03-24T13:41:12Z</time></trkpt><trkpt lat="41.96886386477702" lon="12.628340745567527"><ele>45.0</ele><time>2026-03-24T13:41:13Z</time></trkpt><trkpt lat="41.96897467495797" lon="12.628236520887791"><ele>45.0</ele><time>2026-03-24T13:41:14Z</time></trkpt><trkpt lat="41.96908400602484" lon="12.628137952725233"><ele>45.0</ele><time>2026-03-24T13:41:15Z</time></trkpt><trkpt lat="41.969201468123174" lon="12.628033893390935"><ele>45.333333333333336</ele><time>2026-03-24T13:41:16Z</time></trkpt><trkpt lat="41.969325858932045" lon="12.627927574134914"><ele>45.66666666666667</ele><time>2026-03-24T13:41:17Z</time></trkpt><trkpt lat="41.96946934446878" lon="12.627791603726688"><ele>46.0</ele><time>2026-03-24T13:41:18Z</time></trkpt><trkpt lat="41.969608017128884" lon="12.627669036036098"><ele>46.0</ele><time>2026-03-24T13:41:19Z</time></trkpt><trkpt lat="41.96973009648671" lon="12.627558730264433"><ele>46.0</ele><time>2026-03-24T13:41:20Z</time></trkpt><trkpt lat="41.96984802263897" lon="12.627451055465315"><ele>46.0</ele><time>2026-03-24T13:41:21Z</time></trkpt><trkpt lat="41.96995970321004" lon="12.627355521852495"><ele>46.0</ele><time>2026-03-24T13:41:22Z</time></trkpt><trkpt lat="41.970076700345764" lon="12.627284271743077"><ele>47.5</ele><time>2026-03-24T13:41:23Z</time></trkpt><trkpt lat="41.97019725179573" lon="12.627244762536437"><ele>49.0</ele><time>2026-03-24T13:41:24Z</time></trkpt><trkpt lat="41.970309628199956" lon="12.62725503116863"><ele>50.5</ele><time>2026-03-24T13:41:25Z</time></trkpt><trkpt lat="41.970423807812224" lon="12.627290532714545"><ele>52.0</ele><time>2026-03-24T13:41:26Z</time></trkpt><trkpt lat="41.97052389291554" lon="12.627359333999228"><ele>52.0</ele><time>2026-03-24T13:41:27Z</time></trkpt><trkpt lat="41.97062529553792" lon="12.627436993169574"><ele>52.0</ele><time>2026-03-24T13:41:28Z</time></trkpt><trkpt lat="41.97070190009921" lon="12.627496760150864"><ele>52.0</ele><time>2026-03-24T13:41:29Z</time></trkpt><trkpt lat="41.970810464721445" lon="12.627564028276083"><ele>52.0</ele><time>2026-03-24T13:41:30Z</time></trkpt><trkpt lat="41.970957562607694" lon="12.6276592839925"><ele>53.666666666666664</ele><time>2026-03-24T13:41:31Z</time></trkpt><trkpt lat="41.97109139937859" lon="12.627750058417396"><ele>55.33333333333333</ele><time>2026-03-24T13:41:32Z</time></trkpt><trkpt lat="41.971234195073" lon="12.627840391655791"><ele>57.0</ele><time>2026-03-24T13:41:33Z</time></trkpt><trkpt lat="41.97139063516109" lon="12.627953548139594"><ele>59.0</ele><time>2026-03-24T13:41:34Z</time></trkpt><trkpt lat="41.97155229623963" lon="12.628054767338753"><ele>61.0</ele><time>2026-03-24T13:41:35Z</time></trkpt><trkpt lat="41.971705539379954" lon="12.62815496781362"><ele>63.0</ele><time>2026-03-24T13:41:36Z</time></trkpt><trkpt lat="41.971830033364" lon="12.62823843907237"><ele>65.25</ele><time>2026-03-24T13:41:37Z</time></trkpt><trkpt lat="41.97194526488542" lon="12.628325006169026"><ele>67.5</ele><time>2026-03-24T13:41:38Z</time></trkpt><trkpt lat="41.97206309631676" lon="12.628409521285201"><ele>69.75</ele><time>2026-03-24T13:41:39Z</time></trkpt><trkpt lat="41.97215550192771" lon="12.628478871173083"><ele>72.0</ele><time>2026-03-24T13:41:40Z</time></trkpt><trkpt lat="41.97223024376635" lon="12.628528949364064"><ele>72.0</ele><time>2026-03-24T13:41:41Z</time></trkpt><trkpt lat="41.972294672470426" lon="12.628562334961167"><ele>72.0</ele><time>2026-03-24T13:41:42Z</time></trkpt><trkpt lat="41.97238128690462" lon="12.628610694503823"><ele>72.0</ele><time>2026-03-24T13:41:44Z</time></trkpt><trkpt lat="41.972451267677414" lon="12.628545028707823"><ele>72.0</ele><time>2026-03-24T13:41:45Z</time></trkpt><trkpt lat="41.9725190483527" lon="12.628401343733582"><ele>72.0</ele><time>2026-03-24T13:41:47Z</time></trkpt><trkpt lat="41.97251965945351" lon="12.628282952662081"><ele>72.0</ele><time>2026-03-24T13:41:48Z</time></trkpt><trkpt lat="41.97251965329651" lon="12.62814462547135"><ele>72.0</ele><time>2026-03-24T13:41:49.001Z</time></trkpt><trkpt lat="41.9725164516076" lon="12.627990682748846"><ele>72.0</ele><time>2026-03-24T13:41:50.001Z</time></trkpt><trkpt lat="41.97259047634444" lon="12.627846135613359"><ele>72.0</ele><time>2026-03-24T13:41:51.001Z</time></trkpt><trkpt lat="41.97265969572308" lon="12.627723259180422"><ele>71.66666666666667</ele><time>2026-03-24T13:41:52.001Z</time></trkpt><trkpt lat="41.97277102880034" lon="12.627612383111119"><ele>71.33333333333334</ele><time>2026-03-24T13:41:53.001Z</time></trkpt><trkpt lat="41.97291845703382" lon="12.627497384583279"><ele>71.0</ele><time>2026-03-24T13:41:54.001Z</time></trkpt><trkpt lat="41.97310248515029" lon="12.627348460886925"><ele>71.0</ele><time>2026-03-24T13:41:55.001Z</time></trkpt><trkpt lat="41.973282846989434" lon="12.627182656726408"><ele>71.0</ele><time>2026-03-24T13:41:56.001Z</time></trkpt><trkpt lat="41.97344363876706" lon="12.62703437250308"><ele>71.0</ele><time>2026-03-24T13:41:57.001Z</time></trkpt><trkpt lat="41.97358285863324" lon="12.626908106184327"><ele>70.0</ele><time>2026-03-24T13:41:58.001Z</time></trkpt><trkpt lat="41.973709908099316" lon="12.626801619137657"><ele>69.0</ele><time>2026-03-24T13:41:59.001Z</time></trkpt><trkpt lat="41.973829108351644" lon="12.62670843259699"><ele>68.0</ele><time>2026-03-24T13:42:00.001Z</time></trkpt><trkpt lat="41.97393391442567" lon="12.626611846592454"><ele>67.0</ele><time>2026-03-24T13:42:01.001Z</time></trkpt><trkpt lat="41.97402601271008" lon="12.626521941066676"><ele>67.0</ele><time>2026-03-24T13:42:02.001Z</time></trkpt><trkpt lat="41.97410915003501" lon="12.626447864989007"><ele>67.0</ele><time>2026-03-24T13:42:03.001Z</time></trkpt><trkpt lat="41.97418711652685" lon="12.626387176197142"><ele>67.0</ele><time>2026-03-24T13:42:04.001Z</time></trkpt><trkpt lat="41.974261292018085" lon="12.62632239415471"><ele>67.0</ele><time>2026-03-24T13:42:05.001Z</time></trkpt><trkpt lat="41.97434022799956" lon="12.626252091883012"><ele>67.0</ele><time>2026-03-24T13:42:06.001Z</time></trkpt><trkpt lat="41.97443111877194" lon="12.626175308407886"><ele>64.5</ele><time>2026-03-24T13:42:07.001Z</time></trkpt><trkpt lat="41.97452414008854" lon="12.626095430490444"><ele>62.0</ele><time>2026-03-24T13:42:08.001Z</time></trkpt><trkpt lat="41.97461886986525" lon="12.62601051295585"><ele>59.5</ele><time>2026-03-24T13:42:09.001Z</time></trkpt><trkpt lat="41.974714590725526" lon="12.62592171621987"><ele>57.0</ele><time>2026-03-24T13:42:10.001Z</time></trkpt><trkpt lat="41.974812387074294" lon="12.625831570379919"><ele>57.0</ele><time>2026-03-24T13:42:11.001Z</time></trkpt><trkpt lat="41.97491272253511" lon="12.62573733664279"><ele>57.0</ele><time>2026-03-24T13:42:12.001Z</time></trkpt><trkpt lat="41.97501630907188" lon="12.625645713354265"><ele>57.0</ele><time>2026-03-24T13:42:13.001Z</time></trkpt><trkpt lat="41.9751170328835" lon="12.625550389593037"><ele>57.0</ele><time>2026-03-24T13:42:14.001Z</time></trkpt><trkpt lat="41.975220260737544" lon="12.625459155225544"><ele>57.0</ele><time>2026-03-24T13:42:15.001Z</time></trkpt><trkpt lat="41.97531891991547" lon="12.625375845303905"><ele>57.0</ele><time>2026-03-24T13:42:16.001Z</time></trkpt><trkpt lat="41.97541947942488" lon="12.62527856149596"><ele>57.0</ele><time>2026-03-24T13:42:17.001Z</time></trkpt><trkpt lat="41.97551669605908" lon="12.625184994520705"><ele>57.0</ele><time>2026-03-24T13:42:18.001Z</time></trkpt><trkpt lat="41.97560723663845" lon="12.62508549310402"><ele>55.75</ele><time>2026-03-24T13:42:19.001Z</time></trkpt><trkpt lat="41.975680234471895" lon="12.624966306311416"><ele>54.5</ele><time>2026-03-24T13:42:20.001Z</time></trkpt><trkpt lat="41.975726164196814" lon="12.624838120374726"><ele>53.25</ele><time>2026-03-24T13:42:21.001Z</time></trkpt><trkpt lat="41.97575697422558" lon="12.624698850621781"><ele>52.0</ele><time>2026-03-24T13:42:22.001Z</time></trkpt><trkpt lat="41.97577697558093" lon="12.62453811219266"><ele>51.75</ele><time>2026-03-24T13:42:23.001Z</time></trkpt><trkpt lat="41.9757731032412" lon="12.624375909959133"><ele>51.5</ele><time>2026-03-24T13:42:24.001Z</time></trkpt><trkpt lat="41.97575965465477" lon="12.624195517177368"><ele>51.25</ele><time>2026-03-24T13:42:25.001Z</time></trkpt><trkpt lat="41.97577488985168" lon="12.624023408612203"><ele>51.0</ele><time>2026-03-24T13:42:26.001Z</time></trkpt><trkpt lat="41.97581581015031" lon="12.623875638804904"><ele>52.75</ele><time>2026-03-24T13:42:27.001Z</time></trkpt><trkpt lat="41.975886571271" lon="12.623757239387464"><ele>54.5</ele><time>2026-03-24T13:42:28.001Z</time></trkpt><trkpt lat="41.97598166045188" lon="12.623643197105606"><ele>56.25</ele><time>2026-03-24T13:42:29.001Z</time></trkpt><trkpt lat="41.976095947669805" lon="12.623551194408103"><ele>58.0</ele><time>2026-03-24T13:42:30.001Z</time></trkpt><trkpt lat="41.97622563890212" lon="12.623448142048508"><ele>58.0</ele><time>2026-03-24T13:42:31.001Z</time></trkpt><trkpt lat="41.97635880879866" lon="12.62331874224124"><ele>58.0</ele><time>2026-03-24T13:42:32.001Z</time></trkpt><trkpt lat="41.97650694816184" lon="12.623181194419265"><ele>58.0</ele><time>2026-03-24T13:42:33.001Z</time></trkpt><trkpt lat="41.976635845943456" lon="12.623063539704244"><ele>59.0</ele><time>2026-03-24T13:42:34.001Z</time></trkpt><trkpt lat="41.976759983405564" lon="12.622953365918644"><ele>60.0</ele><time>2026-03-24T13:42:35.001Z</time></trkpt><trkpt lat="41.97688160984238" lon="12.62284179545175"><ele>61.0</ele><time>2026-03-24T13:42:36.001Z</time></trkpt><trkpt lat="41.977013641705916" lon="12.622737728251332"><ele>62.0</ele><time>2026-03-24T13:42:37.001Z</time></trkpt><trkpt lat="41.97712823809788" lon="12.622639388076234"><ele>62.0</ele><time>2026-03-24T13:42:38.001Z</time></trkpt><trkpt lat="41.97723741218343" lon="12.622546549007703"><ele>62.0</ele><time>2026-03-24T13:42:39.001Z</time></trkpt><trkpt lat="41.97733922064573" lon="12.622455101301586"><ele>62.0</ele><time>2026-03-24T13:42:40.001Z</time></trkpt><trkpt lat="41.97741998530492" lon="12.622341083089433"><ele>62.0</ele><time>2026-03-24T13:42:41.001Z</time></trkpt><trkpt lat="41.97748943562796" lon="12.622201230261236"><ele>63.5</ele><time>2026-03-24T13:42:42.001Z</time></trkpt><trkpt lat="41.9775303564316" lon="12.622034790192227"><ele>65.0</ele><time>2026-03-24T13:42:43.001Z</time></trkpt><trkpt lat="41.97754799183863" lon="12.621851579511134"><ele>66.5</ele><time>2026-03-24T13:42:44.001Z</time></trkpt><trkpt lat="41.97756168554875" lon="12.621659245728896"><ele>68.0</ele><time>2026-03-24T13:42:45.001Z</time></trkpt><trkpt lat="41.97759899479705" lon="12.6215032768714"><ele>68.0</ele><time>2026-03-24T13:42:46.001Z</time></trkpt><trkpt lat="41.977700869138346" lon="12.621394980233157"><ele>68.0</ele><time>2026-03-24T13:42:47.001Z</time></trkpt><trkpt lat="41.97780541678099" lon="12.621290114417265"><ele>68.0</ele><time>2026-03-24T13:42:48.001Z</time></trkpt><trkpt lat="41.97794107138393" lon="12.621201286113473"><ele>68.0</ele><time>2026-03-24T13:42:49.001Z</time></trkpt><trkpt lat="41.97805041846131" lon="12.621085984279276"><ele>69.33333333333334</ele><time>2026-03-24T13:42:50.001Z</time></trkpt><trkpt lat="41.978190416558476" lon="12.620956216963519"><ele>70.66666666666667</ele><time>2026-03-24T13:42:51.001Z</time></trkpt><trkpt lat="41.97833386662084" lon="12.620841664657528"><ele>72.0</ele><time>2026-03-24T13:42:52Z</time></trkpt><trkpt lat="41.97844917619452" lon="12.620735588968577"><ele>73.75</ele><time>2026-03-24T13:42:53Z</time></trkpt><trkpt lat="41.97853782010015" lon="12.620621522284331"><ele>75.5</ele><time>2026-03-24T13:42:54Z</time></trkpt><trkpt lat="41.978618017263564" lon="12.62048642476753"><ele>77.25</ele><time>2026-03-24T13:42:55Z</time></trkpt><trkpt lat="41.97869223092577" lon="12.620323252505418"><ele>79.0</ele><time>2026-03-24T13:42:56Z</time></trkpt><trkpt lat="41.97875545459145" lon="12.620140840353415"><ele>79.0</ele><time>2026-03-24T13:42:57Z</time></trkpt><trkpt lat="41.978776783050115" lon="12.619953459283723"><ele>79.0</ele><time>2026-03-24T13:42:58Z</time></trkpt><trkpt lat="41.97879430132314" lon="12.619748635788516"><ele>79.0</ele><time>2026-03-24T13:42:59Z</time></trkpt><trkpt lat="41.978808483246105" lon="12.619547699468571"><ele>79.0</ele><time>2026-03-24T13:43:00Z</time></trkpt><trkpt lat="41.97882850401498" lon="12.619369670170073"><ele>79.33333333333333</ele><time>2026-03-24T13:43:01Z</time></trkpt><trkpt lat="41.9788543339326" lon="12.619158070167776"><ele>79.66666666666667</ele><time>2026-03-24T13:43:02Z</time></trkpt><trkpt lat="41.978873124692605" lon="12.618934851580317"><ele>80.0</ele><time>2026-03-24T13:43:03Z</time></trkpt><trkpt lat="41.97889617950977" lon="12.618695881424927"><ele>79.75</ele><time>2026-03-24T13:43:04Z</time></trkpt><trkpt lat="41.97891956284947" lon="12.618485607592948"><ele>79.5</ele><time>2026-03-24T13:43:05Z</time></trkpt><trkpt lat="41.978941755654006" lon="12.618294364214519"><ele>79.25</ele><time>2026-03-24T13:43:06Z</time></trkpt><trkpt lat="41.97896240425782" lon="12.618100600859135"><ele>79.0</ele><time>2026-03-24T13:43:07Z</time></trkpt><trkpt lat="41.97898363377565" lon="12.617907647013435"><ele>78.25</ele><time>2026-03-24T13:43:08Z</time></trkpt><trkpt lat="41.97900141257974" lon="12.617708083571797"><ele>77.5</ele><time>2026-03-24T13:43:09Z</time></trkpt><trkpt lat="41.979015501690355" lon="12.617532845862053"><ele>76.75</ele><time>2026-03-24T13:43:10Z</time></trkpt><trkpt lat="41.97903278087706" lon="12.617358224582365"><ele>76.0</ele><time>2026-03-24T13:43:11Z</time></trkpt><trkpt lat="41.979048939152925" lon="12.617199948566487"><ele>76.0</ele><time>2026-03-24T13:43:12Z</time></trkpt><trkpt lat="41.97906840157853" lon="12.617051386996794"><ele>76.0</ele><time>2026-03-24T13:43:13Z</time></trkpt><trkpt lat="41.979078370724785" lon="12.616916752814577"><ele>76.0</ele><time>2026-03-24T13:43:14Z</time></trkpt><trkpt lat="41.97910657566607" lon="12.61679426269316"><ele>76.0</ele><time>2026-03-24T13:43:15Z</time></trkpt><trkpt lat="41.979119161188855" lon="12.616676908364045"><ele>76.0</ele><time>2026-03-24T13:43:16Z</time></trkpt><trkpt lat="41.97911614099111" lon="12.61656449535192"><ele>75.83333333333333</ele><time>2026-03-24T13:43:17Z</time></trkpt><trkpt lat="41.97913616071639" lon="12.616463060283516"><ele>75.66666666666666</ele><time>2026-03-24T13:43:18Z</time></trkpt><trkpt lat="41.97916569731777" lon="12.616373305609105"><ele>75.5</ele><time>2026-03-24T13:43:19Z</time></trkpt><trkpt lat="41.979197444649266" lon="12.616298070924701"><ele>75.33333333333333</ele><time>2026-03-24T13:43:20Z</time></trkpt><trkpt lat="41.979237081939225" lon="12.616149940571106"><ele>75.16666666666667</ele><time>2026-03-24T13:43:22Z</time></trkpt><trkpt lat="41.97925657657125" lon="12.616035917729246"><ele>75.0</ele><time>2026-03-24T13:43:24Z</time></trkpt><trkpt lat="41.979381099895654" lon="12.615969490702307"><ele>74.8</ele><time>2026-03-24T13:43:29Z</time></trkpt><trkpt lat="41.979500283123386" lon="12.616015333260483"><ele>74.6</ele><time>2026-03-24T13:43:31Z</time></trkpt><trkpt lat="41.979565058334366" lon="12.616035388344597"><ele>74.4</ele><time>2026-03-24T13:43:32Z</time></trkpt><trkpt lat="41.97964658978421" lon="12.616059544528255"><ele>74.2</ele><time>2026-03-24T13:43:33Z</time></trkpt><trkpt lat="41.97973564839228" lon="12.616088562431187"><ele>74.0</ele><time>2026-03-24T13:43:34Z</time></trkpt><trkpt lat="41.97983835246536" lon="12.616122092245165"><ele>74.0</ele><time>2026-03-24T13:43:35Z</time></trkpt><trkpt lat="41.979944036753245" lon="12.616141580917892"><ele>74.0</ele><time>2026-03-24T13:43:36Z</time></trkpt><trkpt lat="41.98009382626522" lon="12.616167757356045"><ele>74.0</ele><time>2026-03-24T13:43:37Z</time></trkpt><trkpt lat="41.98024734284893" lon="12.616173346092923"><ele>74.0</ele><time>2026-03-24T13:43:38Z</time></trkpt><trkpt lat="41.98040354898053" lon="12.616183954584255"><ele>75.5</ele><time>2026-03-24T13:43:39Z</time></trkpt><trkpt lat="41.980550132341" lon="12.616188111806002"><ele>77.0</ele><time>2026-03-24T13:43:40Z</time></trkpt><trkpt lat="41.98068490982922" lon="12.616195271676895"><ele>78.5</ele><time>2026-03-24T13:43:41Z</time></trkpt><trkpt lat="41.98080843407724" lon="12.61619859139536"><ele>80.0</ele><time>2026-03-24T13:43:42Z</time></trkpt><trkpt lat="41.980930890286125" lon="12.616204694892618"><ele>80.83333333333334</ele><time>2026-03-24T13:43:43Z</time></trkpt><trkpt lat="41.981045422012066" lon="12.616205612339911"><ele>81.66666666666667</ele><time>2026-03-24T13:43:44Z</time></trkpt><trkpt lat="41.98114346005716" lon="12.616205928887513"><ele>82.5</ele><time>2026-03-24T13:43:45Z</time></trkpt><trkpt lat="41.98121362603103" lon="12.616211721484996"><ele>83.33333333333333</ele><time>2026-03-24T13:43:46Z</time></trkpt><trkpt lat="41.981278790986806" lon="12.61620996817233"><ele>84.16666666666666</ele><time>2026-03-24T13:43:47Z</time></trkpt><trkpt lat="41.98137117651761" lon="12.61621581450054"><ele>85.0</ele><time>2026-03-24T13:43:49Z</time></trkpt><trkpt lat="41.98143748054614" lon="12.616214607953546"><ele>85.0</ele><time>2026-03-24T13:43:51Z</time></trkpt><trkpt lat="41.981522518276655" lon="12.616223734574966"><ele>85.0</ele><time>2026-03-24T13:43:53Z</time></trkpt><trkpt lat="41.98164469457935" lon="12.616242107570553"><ele>85.0</ele><time>2026-03-24T13:43:55Z</time></trkpt><trkpt lat="41.9817212489866" lon="12.616252667306295"><ele>85.0</ele><time>2026-03-24T13:43:56Z</time></trkpt><trkpt lat="41.98180513136232" lon="12.616265566729428"><ele>85.0</ele><time>2026-03-24T13:43:57Z</time></trkpt><trkpt lat="41.98188322622895" lon="12.616271811499004"><ele>85.0</ele><time>2026-03-24T13:43:58Z</time></trkpt><trkpt lat="41.98196892562796" lon="12.616298400861137"><ele>86.2</ele><time>2026-03-24T13:43:59.001Z</time></trkpt><trkpt lat="41.982059272592565" lon="12.616309172183932"><ele>87.4</ele><time>2026-03-24T13:44:00.001Z</time></trkpt><trkpt lat="41.9821630518087" lon="12.616322482735992"><ele>88.6</ele><time>2026-03-24T13:44:01.001Z</time></trkpt><trkpt lat="41.98225952491984" lon="12.616341301632044"><ele>89.8</ele><time>2026-03-24T13:44:02.001Z</time></trkpt><trkpt lat="41.98237371390496" lon="12.616363566629591"><ele>91.0</ele><time>2026-03-24T13:44:03.001Z</time></trkpt><trkpt lat="41.982485652866316" lon="12.61638021733452"><ele>89.4</ele><time>2026-03-24T13:44:04.001Z</time></trkpt><trkpt lat="41.98258730994219" lon="12.616398399529857"><ele>87.8</ele><time>2026-03-24T13:44:05.001Z</time></trkpt><trkpt lat="41.98269011594922" lon="12.616418611375835"><ele>86.2</ele><time>2026-03-24T13:44:06.001Z</time></trkpt><trkpt lat="41.982796199909544" lon="12.616440020937693"><ele>84.60000000000001</ele><time>2026-03-24T13:44:07.001Z</time></trkpt><trkpt lat="41.982912076074676" lon="12.616463718696428"><ele>83.0</ele><time>2026-03-24T13:44:08.001Z</time></trkpt><trkpt lat="41.98301339187954" lon="12.616483129687623"><ele>83.0</ele><time>2026-03-24T13:44:09.001Z</time></trkpt><trkpt lat="41.98311607136973" lon="12.6165059388981"><ele>83.0</ele><time>2026-03-24T13:44:10.001Z</time></trkpt><trkpt lat="41.983221138893" lon="12.616533050258056"><ele>83.0</ele><time>2026-03-24T13:44:11.001Z</time></trkpt><trkpt lat="41.98333319891902" lon="12.616567893736523"><ele>83.0</ele><time>2026-03-24T13:44:12.001Z</time></trkpt><trkpt lat="41.98346387925715" lon="12.616611073155635"><ele>83.0</ele><time>2026-03-24T13:44:13.001Z</time></trkpt><trkpt lat="41.98357866298634" lon="12.616683181636065"><ele>83.0</ele><time>2026-03-24T13:44:14.001Z</time></trkpt><trkpt lat="41.983694460607545" lon="12.616735563365538"><ele>83.0</ele><time>2026-03-24T13:44:15.001Z</time></trkpt><trkpt lat="41.98382195773565" lon="12.616793342100278"><ele>83.0</ele><time>2026-03-24T13:44:16.001Z</time></trkpt><trkpt lat="41.98395096360725" lon="12.616832683849776"><ele>83.0</ele><time>2026-03-24T13:44:17.001Z</time></trkpt><trkpt lat="41.98406333423283" lon="12.61690497356056"><ele>83.0</ele><time>2026-03-24T13:44:18.001Z</time></trkpt><trkpt lat="41.98417094280096" lon="12.616954579866828"><ele>83.0</ele><time>2026-03-24T13:44:19.001Z</time></trkpt><trkpt lat="41.98428156912224" lon="12.616985053621967"><ele>83.0</ele><time>2026-03-24T13:44:20.001Z</time></trkpt><trkpt lat="41.98438175115047" lon="12.617050915742848"><ele>84.75</ele><time>2026-03-24T13:44:21.001Z</time></trkpt><trkpt lat="41.98449044175288" lon="12.617101067378462"><ele>86.5</ele><time>2026-03-24T13:44:22.001Z</time></trkpt><trkpt lat="41.9846009831179" lon="12.617130540980614"><ele>88.25</ele><time>2026-03-24T13:44:23.001Z</time></trkpt><trkpt lat="41.98470487183291" lon="12.617202011380913"><ele>90.0</ele><time>2026-03-24T13:44:24.001Z</time></trkpt><trkpt lat="41.98482570708728" lon="12.617235064876034"><ele>90.0</ele><time>2026-03-24T13:44:25.001Z</time></trkpt><trkpt lat="41.98495018160901" lon="12.617293351859395"><ele>90.0</ele><time>2026-03-24T13:44:26.001Z</time></trkpt><trkpt lat="41.98507480233295" lon="12.6173520316268"><ele>90.0</ele><time>2026-03-24T13:44:27.001Z</time></trkpt><trkpt lat="41.98519034363429" lon="12.61740746015506"><ele>90.0</ele><time>2026-03-24T13:44:28.001Z</time></trkpt><trkpt lat="41.98530658402458" lon="12.61746148947847"><ele>90.0</ele><time>2026-03-24T13:44:29.001Z</time></trkpt><trkpt lat="41.98543735600452" lon="12.61752008361991"><ele>90.0</ele><time>2026-03-24T13:44:30.001Z</time></trkpt><trkpt lat="41.985598986591015" lon="12.617591891782476"><ele>90.0</ele><time>2026-03-24T13:44:31.001Z</time></trkpt><trkpt lat="41.98577776196045" lon="12.617675783094636"><ele>90.33333333333333</ele><time>2026-03-24T13:44:32.001Z</time></trkpt><trkpt lat="41.98594696482505" lon="12.617749657024609"><ele>90.66666666666666</ele><time>2026-03-24T13:44:33.001Z</time></trkpt><trkpt lat="41.98610500223429" lon="12.617814711174214"><ele>91.0</ele><time>2026-03-24T13:44:34.001Z</time></trkpt><trkpt lat="41.98625294278292" lon="12.617876216119265"><ele>92.0</ele><time>2026-03-24T13:44:35.001Z</time></trkpt><trkpt lat="41.986410321322516" lon="12.617946403228345"><ele>93.0</ele><time>2026-03-24T13:44:36.001Z</time></trkpt><trkpt lat="41.986573779279176" lon="12.618021389842562"><ele>94.0</ele><time>2026-03-24T13:44:37.001Z</time></trkpt><trkpt lat="41.98675356052849" lon="12.618094971482952"><ele>94.33333333333333</ele><time>2026-03-24T13:44:38.001Z</time></trkpt><trkpt lat="41.98693789988322" lon="12.618152110950954"><ele>94.66666666666667</ele><time>2026-03-24T13:44:39.001Z</time></trkpt><trkpt lat="41.98711896125422" lon="12.618196896108723"><ele>95.0</ele><time>2026-03-24T13:44:40.001Z</time></trkpt><trkpt lat="41.98728302343703" lon="12.618228887643479"><ele>95.0</ele><time>2026-03-24T13:44:41.001Z</time></trkpt><trkpt lat="41.98743250742893" lon="12.61825779682821"><ele>95.0</ele><time>2026-03-24T13:44:42.001Z</time></trkpt><trkpt lat="41.98757565359639" lon="12.618281468657173"><ele>95.0</ele><time>2026-03-24T13:44:43.001Z</time></trkpt><trkpt lat="41.987719268656825" lon="12.618300609152675"><ele>95.0</ele><time>2026-03-24T13:44:44.001Z</time></trkpt><trkpt lat="41.987863307144515" lon="12.618321782474542"><ele>96.25</ele><time>2026-03-24T13:44:45.001Z</time></trkpt><trkpt lat="41.98801143443017" lon="12.618345305542253"><ele>97.5</ele><time>2026-03-24T13:44:46.001Z</time></trkpt><trkpt lat="41.988145610632984" lon="12.618365188136282"><ele>98.75</ele><time>2026-03-24T13:44:47.001Z</time></trkpt><trkpt lat="41.98829364370125" lon="12.61837920640848"><ele>100.0</ele><time>2026-03-24T13:44:48.001Z</time></trkpt><trkpt lat="41.988472024221025" lon="12.618387063814819"><ele>101.5</ele><time>2026-03-24T13:44:49.001Z</time></trkpt><trkpt lat="41.98862130247637" lon="12.61842901618302"><ele>103.0</ele><time>2026-03-24T13:44:50.001Z</time></trkpt><trkpt lat="41.9887612281645" lon="12.618448191256544"><ele>104.5</ele><time>2026-03-24T13:44:51.001Z</time></trkpt><trkpt lat="41.98889031228828" lon="12.618469380601997"><ele>106.0</ele><time>2026-03-24T13:44:52.001Z</time></trkpt><trkpt lat="41.989009623732635" lon="12.618485744574564"><ele>106.0</ele><time>2026-03-24T13:44:53.001Z</time></trkpt><trkpt lat="41.98912384320684" lon="12.618497809621283"><ele>106.0</ele><time>2026-03-24T13:44:54.001Z</time></trkpt><trkpt lat="41.989238810033996" lon="12.618510785292461"><ele>106.0</ele><time>2026-03-24T13:44:55.001Z</time></trkpt><trkpt lat="41.989331972287424" lon="12.618524380921349"><ele>106.0</ele><time>2026-03-24T13:44:56.001Z</time></trkpt><trkpt lat="41.98941144671327" lon="12.618539776621345"><ele>106.0</ele><time>2026-03-24T13:44:57.001Z</time></trkpt><trkpt lat="41.98948108540625" lon="12.618550345523934"><ele>106.85714285714286</ele><time>2026-03-24T13:44:58Z</time></trkpt><trkpt lat="41.98955077029014" lon="12.618555905232697"><ele>107.71428571428571</ele><time>2026-03-24T13:44:59Z</time></trkpt><trkpt lat="41.98962722311816" lon="12.618566368121288"><ele>108.57142857142857</ele><time>2026-03-24T13:45:00Z</time></trkpt><trkpt lat="41.98969823967343" lon="12.618588474017699"><ele>109.42857142857143</ele><time>2026-03-24T13:45:01Z</time></trkpt><trkpt lat="41.98977861039116" lon="12.618656424007414"><ele>110.28571428571428</ele><time>2026-03-24T13:45:03Z</time></trkpt><trkpt lat="41.98981452950258" lon="12.618726944571767"><ele>111.14285714285714</ele><time>2026-03-24T13:45:05Z</time></trkpt><trkpt lat="41.989829002463956" lon="12.61882045941689"><ele>112.0</ele><time>2026-03-24T13:45:06Z</time></trkpt><trkpt lat="41.98983069663206" lon="12.618933286644133"><ele>112.00000000000001</ele><time>2026-03-24T13:45:07Z</time></trkpt><trkpt lat="41.98985158446594" lon="12.619022979206587"><ele>112.0</ele><time>2026-03-24T13:45:08Z</time></trkpt><trkpt lat="41.989871221149194" lon="12.619116364401414"><ele>112.0</ele><time>2026-03-24T13:45:09Z</time></trkpt><trkpt lat="41.98992377142304" lon="12.619167270946715"><ele>112.0</ele><time>2026-03-24T13:45:10Z</time></trkpt><trkpt lat="41.98999420166316" lon="12.619188186721104"><ele>112.00000000000001</ele><time>2026-03-24T13:45:11Z</time></trkpt><trkpt lat="41.99008599946548" lon="12.619178436433552"><ele>112.0</ele><time>2026-03-24T13:45:12Z</time></trkpt><trkpt lat="41.9901751799179" lon="12.619146110714658"><ele>111.83333333333334</ele><time>2026-03-24T13:45:13Z</time></trkpt><trkpt lat="41.99024187890155" lon="12.619120316949184"><ele>111.66666666666667</ele><time>2026-03-24T13:45:14Z</time></trkpt><trkpt lat="41.99031009966108" lon="12.619185903900785"><ele>111.5</ele><time>2026-03-24T13:45:15Z</time></trkpt><trkpt lat="41.990348862877816" lon="12.619272165853568"><ele>111.33333333333334</ele><time>2026-03-24T13:45:16Z</time></trkpt><trkpt lat="41.99037556057576" lon="12.61936816574538"><ele>111.16666666666667</ele><time>2026-03-24T13:45:17Z</time></trkpt><trkpt lat="41.99038152212475" lon="12.619469391808607"><ele>111.0</ele><time>2026-03-24T13:45:18Z</time></trkpt><trkpt lat="41.990377471936895" lon="12.619565773991898"><ele>111.0</ele><time>2026-03-24T13:45:19Z</time></trkpt><trkpt lat="41.990354854643655" lon="12.619690772354648"><ele>111.0</ele><time>2026-03-24T13:45:21Z</time></trkpt><trkpt lat="41.99029004323039" lon="12.619682760877451"><ele>111.0</ele><time>2026-03-24T13:45:22Z</time></trkpt><trkpt lat="41.990340380789384" lon="12.619591117496155"><ele>111.0</ele><time>2026-03-24T13:46:29.001Z</time></trkpt><trkpt lat="41.99038549790194" lon="12.61952709347029"><ele>111.0</ele><time>2026-03-24T13:46:30.001Z</time></trkpt><trkpt lat="41.99041142115743" lon="12.619433723301848"><ele>111.0</ele><time>2026-03-24T13:46:31.001Z</time></trkpt><trkpt lat="41.99040116214238" lon="12.619347228176165"><ele>112.0</ele><time>2026-03-24T13:46:32.001Z</time></trkpt><trkpt lat="41.99037380312229" lon="12.619249897857221"><ele>113.0</ele><time>2026-03-24T13:46:33.001Z</time></trkpt><trkpt lat="41.99032698655479" lon="12.619153824161819"><ele>114.0</ele><time>2026-03-24T13:46:34.001Z</time></trkpt><trkpt lat="41.990279700433675" lon="12.61908855600475"><ele>115.0</ele><time>2026-03-24T13:46:35.001Z</time></trkpt><trkpt lat="41.99023462499478" lon="12.619024848297611"><ele>116.0</ele><time>2026-03-24T13:46:36.001Z</time></trkpt><trkpt lat="41.99020539381757" lon="12.618918893775874"><ele>117.0</ele><time>2026-03-24T13:46:37.001Z</time></trkpt><trkpt lat="41.99019439039064" lon="12.618823779376168"><ele>117.0</ele><time>2026-03-24T13:46:38.001Z</time></trkpt><trkpt lat="41.990208911312216" lon="12.618739690520812"><ele>117.0</ele><time>2026-03-24T13:46:39.001Z</time></trkpt><trkpt lat="41.990283688550264" lon="12.618660036928475"><ele>117.0</ele><time>2026-03-24T13:46:41.001Z</time></trkpt><trkpt lat="41.99034693886287" lon="12.618663384209391"><ele>117.0</ele><time>2026-03-24T13:46:45.001Z</time></trkpt><trkpt lat="41.99043314409131" lon="12.618669879768284"><ele>117.0</ele><time>2026-03-24T13:46:48.001Z</time></trkpt><trkpt lat="41.99055670271585" lon="12.61868978536208"><ele>117.0</ele><time>2026-03-24T13:46:50.001Z</time></trkpt><trkpt lat="41.990621461920945" lon="12.618707836468648"><ele>117.0</ele><time>2026-03-24T13:46:51.001Z</time></trkpt><trkpt lat="41.99072925006523" lon="12.618735816921633"><ele>117.0</ele><time>2026-03-24T13:46:53.001Z</time></trkpt><trkpt lat="41.99079533505286" lon="12.618737045526423"><ele>117.0</ele><time>2026-03-24T13:46:54.001Z</time></trkpt><trkpt lat="41.99089359751538" lon="12.618748437624525"><ele>117.0</ele><time>2026-03-24T13:46:56.001Z</time></trkpt><trkpt lat="41.99096585136789" lon="12.618750558784155"><ele>117.0</ele><time>2026-03-24T13:46:58.001Z</time></trkpt><trkpt lat="41.991060244303654" lon="12.618778366883245"><ele>117.0</ele><time>2026-03-24T13:47:00.001Z</time></trkpt><trkpt lat="41.9911579776454" lon="12.618785334582013"><ele>117.6</ele><time>2026-03-24T13:47:02.001Z</time></trkpt><trkpt lat="41.99125328419575" lon="12.618795114097866"><ele>118.19999999999999</ele><time>2026-03-24T13:47:04Z</time></trkpt><trkpt lat="41.991363297615536" lon="12.618807342632474"><ele>118.8</ele><time>2026-03-24T13:47:06Z</time></trkpt><trkpt lat="41.99144307869645" lon="12.618818401484805"><ele>119.4</ele><time>2026-03-24T13:47:07Z</time></trkpt><trkpt lat="41.99153023264786" lon="12.61880852950139"><ele>120.0</ele><time>2026-03-24T13:47:08Z</time></trkpt><trkpt lat="41.99163065804509" lon="12.618836307764099"><ele>120.8</ele><time>2026-03-24T13:47:09Z</time></trkpt><trkpt lat="41.99173332764067" lon="12.618843273761309"><ele>121.6</ele><time>2026-03-24T13:47:10Z</time></trkpt><trkpt lat="41.99185295928818" lon="12.618849908184792"><ele>122.4</ele><time>2026-03-24T13:47:11Z</time></trkpt><trkpt lat="41.991963486005666" lon="12.61885671762238"><ele>123.2</ele><time>2026-03-24T13:47:12Z</time></trkpt><trkpt lat="41.99205387066965" lon="12.618846560863851"><ele>124.0</ele><time>2026-03-24T13:47:13Z</time></trkpt><trkpt lat="41.99213345025833" lon="12.61885668012801"><ele>124.0</ele><time>2026-03-24T13:47:14Z</time></trkpt><trkpt lat="41.992198445477776" lon="12.618865252772851"><ele>124.0</ele><time>2026-03-24T13:47:15Z</time></trkpt><trkpt lat="41.992314014458366" lon="12.618873436715013"><ele>124.0</ele><time>2026-03-24T13:47:17Z</time></trkpt><trkpt lat="41.992420609084924" lon="12.61887911043601"><ele>124.0</ele><time>2026-03-24T13:47:19Z</time></trkpt><trkpt lat="41.992509453885695" lon="12.618877594172833"><ele>124.0</ele><time>2026-03-24T13:47:31Z</time></trkpt><trkpt lat="41.992646464991466" lon="12.618909314457781"><ele>124.6</ele><time>2026-03-24T13:47:33Z</time></trkpt><trkpt lat="41.99274236366648" lon="12.618925019337967"><ele>125.2</ele><time>2026-03-24T13:47:34Z</time></trkpt><trkpt lat="41.99283500472048" lon="12.618937165411065"><ele>125.79999999999998</ele><time>2026-03-24T13:47:35Z</time></trkpt><trkpt lat="41.99292203872414" lon="12.618948700530668"><ele>126.39999999999999</ele><time>2026-03-24T13:47:36Z</time></trkpt><trkpt lat="41.99301090866991" lon="12.618961314988324"><ele>127.0</ele><time>2026-03-24T13:47:37Z</time></trkpt><trkpt lat="41.993093598854145" lon="12.618974146482303"><ele>127.00000000000001</ele><time>2026-03-24T13:47:38Z</time></trkpt><trkpt lat="41.993173523170995" lon="12.618988388580915"><ele>127.0</ele><time>2026-03-24T13:47:39Z</time></trkpt><trkpt lat="41.993250006889696" lon="12.619002017617802"><ele>127.0</ele><time>2026-03-24T13:47:40Z</time></trkpt><trkpt lat="41.99331298374181" lon="12.619013239492586"><ele>127.0</ele><time>2026-03-24T13:47:41Z</time></trkpt><trkpt lat="41.99339246055027" lon="12.61902735583803"><ele>127.00000000000001</ele><time>2026-03-24T13:47:42Z</time></trkpt><trkpt lat="41.99346014770688" lon="12.619039211000214"><ele>127.0</ele><time>2026-03-24T13:47:43Z</time></trkpt><trkpt lat="41.9935801308235" lon="12.61905876741905"><ele>126.83333333333334</ele><time>2026-03-24T13:47:45Z</time></trkpt><trkpt lat="41.993706127044746" lon="12.619076533418397"><ele>126.66666666666667</ele><time>2026-03-24T13:47:47Z</time></trkpt><trkpt lat="41.99377287340012" lon="12.619082106168134"><ele>126.5</ele><time>2026-03-24T13:47:48Z</time></trkpt><trkpt lat="41.99383033111882" lon="12.619044468750811"><ele>126.33333333333334</ele><time>2026-03-24T13:47:49Z</time></trkpt><trkpt lat="41.99392331691509" lon="12.619052128787267"><ele>126.16666666666667</ele><time>2026-03-24T13:47:51Z</time></trkpt><trkpt lat="41.99401308989322" lon="12.619062298483428"><ele>126.0</ele><time>2026-03-24T13:47:54Z</time></trkpt><trkpt lat="41.994084288242924" lon="12.619066232450852"><ele>126.0</ele><time>2026-03-24T13:47:57Z</time></trkpt><trkpt lat="41.99414869939747" lon="12.619073996230018"><ele>126.0</ele><time>2026-03-24T13:48:01.001Z</time></trkpt><trkpt lat="41.99425536172597" lon="12.619082631349109"><ele>126.0</ele><time>2026-03-24T13:48:17.001Z</time></trkpt><trkpt lat="41.994340723701974" lon="12.619107829031979"><ele>126.0</ele><time>2026-03-24T13:48:18.001Z</time></trkpt><trkpt lat="41.9944235279399" lon="12.61910146329646"><ele>126.0</ele><time>2026-03-24T13:48:19.001Z</time></trkpt><trkpt lat="41.99448921197999" lon="12.619110902949027"><ele>126.0</ele><time>2026-03-24T13:48:20.001Z</time></trkpt><trkpt lat="41.994569261355736" lon="12.619105346793164"><ele>126.0</ele><time>2026-03-24T13:48:21.001Z</time></trkpt><trkpt lat="41.99464435549065" lon="12.619110432350723"><ele>126.0</ele><time>2026-03-24T13:48:22.001Z</time></trkpt><trkpt lat="41.994714932470465" lon="12.619116227124438"><ele>126.0</ele><time>2026-03-24T13:48:23.001Z</time></trkpt><trkpt lat="41.994802822692215" lon="12.61912152985181"><ele>126.0</ele><time>2026-03-24T13:48:24.001Z</time></trkpt><trkpt lat="41.99488360135901" lon="12.619115514463502"><ele>126.0</ele><time>2026-03-24T13:48:25.001Z</time></trkpt><trkpt lat="41.995004729025815" lon="12.619121439925252"><ele>126.0</ele><time>2026-03-24T13:48:26.001Z</time></trkpt><trkpt lat="41.9950986828618" lon="12.619146889361655"><ele>126.4</ele><time>2026-03-24T13:48:27.001Z</time></trkpt><trkpt lat="41.99520245908906" lon="12.619145758804127"><ele>126.8</ele><time>2026-03-24T13:48:28.001Z</time></trkpt><trkpt lat="41.995303580920975" lon="12.619151708701251"><ele>127.20000000000002</ele><time>2026-03-24T13:48:29.001Z</time></trkpt><trkpt lat="41.995401074941014" lon="12.619147249917916"><ele>127.60000000000001</ele><time>2026-03-24T13:48:30.001Z</time></trkpt><trkpt lat="41.99549831672019" lon="12.619140997870748"><ele>128.0</ele><time>2026-03-24T13:48:31.001Z</time></trkpt><trkpt lat="41.99557896131904" lon="12.619147395100253"><ele>128.0</ele><time>2026-03-24T13:48:32.001Z</time></trkpt><trkpt lat="41.995654829966675" lon="12.619154398161536"><ele>128.0</ele><time>2026-03-24T13:48:33.001Z</time></trkpt><trkpt lat="41.99579178569901" lon="12.619172872105171"><ele>128.0</ele><time>2026-03-24T13:48:35.001Z</time></trkpt><trkpt lat="41.99585977268088" lon="12.61918354261959"><ele>128.0</ele><time>2026-03-24T13:48:36.001Z</time></trkpt><trkpt lat="41.995965398986556" lon="12.619185578250459"><ele>128.0</ele><time>2026-03-24T13:48:38.001Z</time></trkpt><trkpt lat="41.99604176604549" lon="12.619213264601521"><ele>128.0</ele><time>2026-03-24T13:48:39.001Z</time></trkpt><trkpt lat="41.99612550668788" lon="12.619244650758274"><ele>128.0</ele><time>2026-03-24T13:48:40.001Z</time></trkpt><trkpt lat="41.996223196771666" lon="12.619294993223361"><ele>128.0</ele><time>2026-03-24T13:48:41.001Z</time></trkpt><trkpt lat="41.996339615825114" lon="12.619388497165552"><ele>128.0</ele><time>2026-03-24T13:48:42.001Z</time></trkpt><trkpt lat="41.996464477728466" lon="12.619489030626973"><ele>127.60000000000001</ele><time>2026-03-24T13:48:43.001Z</time></trkpt><trkpt lat="41.99655988737073" lon="12.619589916341129"><ele>127.20000000000002</ele><time>2026-03-24T13:48:44.001Z</time></trkpt><trkpt lat="41.99664999305533" lon="12.619681902981117"><ele>126.8</ele><time>2026-03-24T13:48:45.001Z</time></trkpt><trkpt lat="41.996733026623666" lon="12.619765119586791"><ele>126.4</ele><time>2026-03-24T13:48:46.001Z</time></trkpt><trkpt lat="41.99681093994724" lon="12.619850502828955"><ele>126.0</ele><time>2026-03-24T13:48:47.001Z</time></trkpt><trkpt lat="41.99688903823454" lon="12.619928466459767"><ele>127.5</ele><time>2026-03-24T13:48:48.001Z</time></trkpt><trkpt lat="41.99697022373237" lon="12.620009709489572"><ele>129.0</ele><time>2026-03-24T13:48:49.001Z</time></trkpt><trkpt lat="41.99705834101974" lon="12.620102757088063"><ele>130.5</ele><time>2026-03-24T13:48:50.001Z</time></trkpt><trkpt lat="41.99716063505176" lon="12.620203689738814"><ele>132.0</ele><time>2026-03-24T13:48:51.001Z</time></trkpt><trkpt lat="41.99725867171818" lon="12.620304339221043"><ele>131.6</ele><time>2026-03-24T13:48:52.001Z</time></trkpt><trkpt lat="41.99735714661895" lon="12.620401432061946"><ele>131.2</ele><time>2026-03-24T13:48:53.001Z</time></trkpt><trkpt lat="41.99744826410836" lon="12.620495848412306"><ele>130.8</ele><time>2026-03-24T13:48:54.001Z</time></trkpt><trkpt lat="41.99753492075752" lon="12.620575512129005"><ele>130.4</ele><time>2026-03-24T13:48:55.001Z</time></trkpt><trkpt lat="41.99760167702889" lon="12.620667210909632"><ele>130.0</ele><time>2026-03-24T13:48:56.001Z</time></trkpt><trkpt lat="41.99768168548079" lon="12.620724943755683"><ele>130.0</ele><time>2026-03-24T13:48:57.001Z</time></trkpt><trkpt lat="41.9977435415598" lon="12.620798725948342"><ele>130.0</ele><time>2026-03-24T13:48:58.001Z</time></trkpt><trkpt lat="41.99780300218818" lon="12.620873031664633"><ele>130.0</ele><time>2026-03-24T13:48:59.001Z</time></trkpt><trkpt lat="41.997862882742844" lon="12.620951321677525"><ele>130.0</ele><time>2026-03-24T13:49:00.001Z</time></trkpt><trkpt lat="41.997918494071904" lon="12.621034648311497"><ele>130.0</ele><time>2026-03-24T13:49:01.001Z</time></trkpt><trkpt lat="41.99796714231651" lon="12.621131975321932"><ele>130.0</ele><time>2026-03-24T13:49:02.001Z</time></trkpt><trkpt lat="41.998006207311505" lon="12.62121261751188"><ele>129.6</ele><time>2026-03-24T13:49:03.001Z</time></trkpt><trkpt lat="41.99803545334263" lon="12.621296989954875"><ele>129.2</ele><time>2026-03-24T13:49:04.001Z</time></trkpt><trkpt lat="41.9980743444969" lon="12.621385380322824"><ele>128.8</ele><time>2026-03-24T13:49:05.001Z</time></trkpt><trkpt lat="41.998113936285364" lon="12.621502007973072"><ele>128.4</ele><time>2026-03-24T13:49:06.001Z</time></trkpt><trkpt lat="41.998172144442314" lon="12.621662773732703"><ele>128.0</ele><time>2026-03-24T13:49:07.001Z</time></trkpt><trkpt lat="41.99818673887658" lon="12.621861422074536"><ele>127.66666666666666</ele><time>2026-03-24T13:49:08.001Z</time></trkpt><trkpt lat="41.99824545166782" lon="12.622103538336416"><ele>127.33333333333334</ele><time>2026-03-24T13:49:09.001Z</time></trkpt><trkpt lat="41.9982895166536" lon="12.62228929400057"><ele>127.0</ele><time>2026-03-24T13:49:10Z</time></trkpt><trkpt lat="41.99832536909637" lon="12.622452488856856"><ele>126.75</ele><time>2026-03-24T13:49:11Z</time></trkpt><trkpt lat="41.99836180748009" lon="12.622614773120588"><ele>126.5</ele><time>2026-03-24T13:49:12Z</time></trkpt><trkpt lat="41.99839626414019" lon="12.62276823153582"><ele>126.25</ele><time>2026-03-24T13:49:13Z</time></trkpt><trkpt lat="41.998428046711894" lon="12.622913024502777"><ele>126.0</ele><time>2026-03-24T13:49:14Z</time></trkpt><trkpt lat="41.99846061589509" lon="12.623059176648393"><ele>126.0</ele><time>2026-03-24T13:49:15Z</time></trkpt><trkpt lat="41.998499208424654" lon="12.62323212030444"><ele>126.0</ele><time>2026-03-24T13:49:16Z</time></trkpt><trkpt lat="41.99853171145855" lon="12.623386614254406"><ele>126.0</ele><time>2026-03-24T13:49:17Z</time></trkpt><trkpt lat="41.9985617600438" lon="12.623530194824573"><ele>126.0</ele><time>2026-03-24T13:49:18Z</time></trkpt><trkpt lat="41.99858453041825" lon="12.623648941741584"><ele>126.83333333333333</ele><time>2026-03-24T13:49:19Z</time></trkpt><trkpt lat="41.998602525653006" lon="12.623752318409904"><ele>127.66666666666666</ele><time>2026-03-24T13:49:20Z</time></trkpt><trkpt lat="41.99862159139002" lon="12.623854563362674"><ele>128.5</ele><time>2026-03-24T13:49:21Z</time></trkpt><trkpt lat="41.998641451757315" lon="12.62396106995432"><ele>129.33333333333331</ele><time>2026-03-24T13:49:22Z</time></trkpt><trkpt lat="41.99867188673149" lon="12.624043057629661"><ele>130.16666666666666</ele><time>2026-03-24T13:49:23Z</time></trkpt><trkpt lat="41.99869994883818" lon="12.62419925126365"><ele>131.0</ele><time>2026-03-24T13:49:25Z</time></trkpt><trkpt lat="41.9987141037993" lon="12.624282426363138"><ele>131.0</ele><time>2026-03-24T13:49:26Z</time></trkpt><trkpt lat="41.99873410783934" lon="12.624398130072917"><ele>131.0</ele><time>2026-03-24T13:49:28Z</time></trkpt><trkpt lat="41.9987518848809" lon="12.624531017105813"><ele>131.0</ele><time>2026-03-24T13:49:29Z</time></trkpt><trkpt lat="41.998772294143215" lon="12.624705289392457"><ele>131.0</ele><time>2026-03-24T13:49:30Z</time></trkpt><trkpt lat="41.99879583579956" lon="12.624839042435239"><ele>131.0</ele><time>2026-03-24T13:49:31Z</time></trkpt><trkpt lat="41.99881387946685" lon="12.624943356231446"><ele>131.83333333333331</ele><time>2026-03-24T13:49:32Z</time></trkpt><trkpt lat="41.998830184652334" lon="12.625036882235891"><ele>132.66666666666666</ele><time>2026-03-24T13:49:33Z</time></trkpt><trkpt lat="41.998844718463694" lon="12.625120247877534"><ele>133.5</ele><time>2026-03-24T13:49:34Z</time></trkpt><trkpt lat="41.99885953024538" lon="12.625206779419553"><ele>134.33333333333334</ele><time>2026-03-24T13:49:35Z</time></trkpt><trkpt lat="41.99887724139882" lon="12.625310933089162"><ele>135.16666666666669</ele><time>2026-03-24T13:49:36Z</time></trkpt><trkpt lat="41.99889851180005" lon="12.625436017544398"><ele>136.0</ele><time>2026-03-24T13:49:37Z</time></trkpt><trkpt lat="41.99892994342734" lon="12.625620856935232"><ele>136.8</ele><time>2026-03-24T13:49:38Z</time></trkpt><trkpt lat="41.99896568970917" lon="12.625766791588163"><ele>137.6</ele><time>2026-03-24T13:49:39Z</time></trkpt><trkpt lat="41.998985218544604" lon="12.625886201320306"><ele>138.4</ele><time>2026-03-24T13:49:40Z</time></trkpt><trkpt lat="41.999010846294084" lon="12.626000202001096"><ele>139.2</ele><time>2026-03-24T13:49:41Z</time></trkpt><trkpt lat="41.99902220554609" lon="12.626164618912501"><ele>140.0</ele><time>2026-03-24T13:49:42Z</time></trkpt><trkpt lat="41.999047444327495" lon="12.626308660639848"><ele>140.83333333333331</ele><time>2026-03-24T13:49:43Z</time></trkpt><trkpt lat="41.999066186571476" lon="12.626415260491717"><ele>141.66666666666666</ele><time>2026-03-24T13:49:44Z</time></trkpt><trkpt lat="41.99909806984743" lon="12.626529050770865"><ele>142.5</ele><time>2026-03-24T13:49:46Z</time></trkpt><trkpt lat="41.999115118678084" lon="12.626649647586614"><ele>143.33333333333334</ele><time>2026-03-24T13:49:48Z</time></trkpt><trkpt lat="41.99913305393028" lon="12.62675026967268"><ele>144.16666666666669</ele><time>2026-03-24T13:49:49Z</time></trkpt><trkpt lat="41.99914950199122" lon="12.626858973477605"><ele>145.0</ele><time>2026-03-24T13:49:50Z</time></trkpt><trkpt lat="41.99916636794132" lon="12.62696353293283"><ele>146.8</ele><time>2026-03-24T13:49:51Z</time></trkpt><trkpt lat="41.99918708883822" lon="12.627053958647453"><ele>148.6</ele><time>2026-03-24T13:49:52Z</time></trkpt><trkpt lat="41.99920406998365" lon="12.627211397034234"><ele>150.4</ele><time>2026-03-24T13:49:54Z</time></trkpt><trkpt lat="41.99922575108184" lon="12.627381582246732"><ele>152.2</ele><time>2026-03-24T13:49:56Z</time></trkpt><trkpt lat="41.99924018566414" lon="12.62750761457115"><ele>154.0</ele><time>2026-03-24T13:49:57Z</time></trkpt><trkpt lat="41.999250953602825" lon="12.627608850569436"><ele>154.0</ele><time>2026-03-24T13:49:58Z</time></trkpt><trkpt lat="41.999270845214774" lon="12.627719099679096"><ele>154.0</ele><time>2026-03-24T13:49:59Z</time></trkpt><trkpt lat="41.99924966805064" lon="12.627810452183349"><ele>154.0</ele><time>2026-03-24T13:50:00Z</time></trkpt><trkpt lat="41.99925279601266" lon="12.627906924283971"><ele>154.0</ele><time>2026-03-24T13:50:01.001Z</time></trkpt><trkpt lat="41.99936702641231" lon="12.627978259905557"><ele>154.0</ele><time>2026-03-24T13:50:02.001Z</time></trkpt><trkpt lat="41.99942532008473" lon="12.628042352059799"><ele>154.0</ele><time>2026-03-24T13:50:03.001Z</time></trkpt><trkpt lat="41.99946452437943" lon="12.62810956638138"><ele>154.0</ele><time>2026-03-24T13:50:04.001Z</time></trkpt><trkpt lat="41.999515675444" lon="12.628228403573438"><ele>154.0</ele><time>2026-03-24T13:50:06.001Z</time></trkpt><trkpt lat="41.99950783304506" lon="12.628367861796523"><ele>154.0</ele><time>2026-03-24T13:50:08.001Z</time></trkpt><trkpt lat="41.99943577502495" lon="12.628511938772343"><ele>154.0</ele><time>2026-03-24T13:50:10.001Z</time></trkpt><trkpt lat="41.99940767259817" lon="12.628605824953997"><ele>154.0</ele><time>2026-03-24T13:50:11.001Z</time></trkpt><trkpt lat="41.999406501411066" lon="12.628719676491418"><ele>154.0</ele><time>2026-03-24T13:50:12.001Z</time></trkpt><trkpt lat="41.999423827181865" lon="12.628827542259788"><ele>154.0</ele><time>2026-03-24T13:50:13.001Z</time></trkpt><trkpt lat="41.999477977199064" lon="12.628946838660603"><ele>154.0</ele><time>2026-03-24T13:50:14.001Z</time></trkpt><trkpt lat="41.99947885463197" lon="12.62909307029498"><ele>154.0</ele><time>2026-03-24T13:50:15.001Z</time></trkpt><trkpt lat="41.999510365351064" lon="12.629254913327436"><ele>154.0</ele><time>2026-03-24T13:50:16.001Z</time></trkpt><trkpt lat="41.99944609261396" lon="12.629339330521065"><ele>154.0</ele><time>2026-03-24T13:50:17.001Z</time></trkpt><trkpt lat="41.99945522812394" lon="12.629427651919777"><ele>154.0</ele><time>2026-03-24T13:50:18.001Z</time></trkpt><trkpt lat="41.99944026497472" lon="12.629534593737352"><ele>154.0</ele><time>2026-03-24T13:50:19.001Z</time></trkpt><trkpt lat="41.99943558333867" lon="12.629630027380946"><ele>154.0</ele><time>2026-03-24T13:50:20.001Z</time></trkpt><trkpt lat="41.99943741783281" lon="12.629742005050806"><ele>154.0</ele><time>2026-03-24T13:50:21.001Z</time></trkpt><trkpt lat="41.99946129480212" lon="12.629875247246602"><ele>154.0</ele><time>2026-03-24T13:50:22.001Z</time></trkpt><trkpt lat="41.99947840247074" lon="12.629971647835571"><ele>154.0</ele><time>2026-03-24T13:50:23.001Z</time></trkpt><trkpt lat="41.99954622565681" lon="12.630154680815334"><ele>154.0</ele><time>2026-03-24T13:50:25.001Z</time></trkpt><trkpt lat="41.99958447123839" lon="12.6302484522192"><ele>154.0</ele><time>2026-03-24T13:50:26.001Z</time></trkpt><trkpt lat="41.99961749730486" lon="12.630321975652516"><ele>154.0</ele><time>2026-03-24T13:50:27.001Z</time></trkpt><trkpt lat="41.99966051842593" lon="12.630389252990327"><ele>154.0</ele><time>2026-03-24T13:50:29.001Z</time></trkpt><trkpt lat="41.99969679692674" lon="12.630460283242593"><ele>154.0</ele><time>2026-03-24T13:50:32.001Z</time></trkpt><trkpt lat="41.99974547291009" lon="12.63056215258813"><ele>153.6</ele><time>2026-03-24T13:50:34.001Z</time></trkpt><trkpt lat="41.99981872024602" lon="12.63069045561822"><ele>153.2</ele><time>2026-03-24T13:50:36.001Z</time></trkpt><trkpt lat="41.99985500750534" lon="12.630764151354255"><ele>152.79999999999998</ele><time>2026-03-24T13:50:37.001Z</time></trkpt><trkpt lat="41.999923879242715" lon="12.63089022083771"><ele>152.4</ele><time>2026-03-24T13:50:39.001Z</time></trkpt><trkpt lat="41.99999025453935" lon="12.631007129045406"><ele>152.0</ele><time>2026-03-24T13:50:41.001Z</time></trkpt><trkpt lat="42.00005483565619" lon="12.631134902626615"><ele>151.0</ele><time>2026-03-24T13:50:43.001Z</time></trkpt><trkpt lat="42.000099358734474" lon="12.631218191465994"><ele>150.0</ele><time>2026-03-24T13:50:44.001Z</time></trkpt><trkpt lat="42.000156692630306" lon="12.631306963070323"><ele>149.0</ele><time>2026-03-24T13:50:45.001Z</time></trkpt><trkpt lat="42.00020560930215" lon="12.631386904650173"><ele>148.0</ele><time>2026-03-24T13:50:46.001Z</time></trkpt><trkpt lat="42.00026419592819" lon="12.631478854870654"><ele>147.0</ele><time>2026-03-24T13:50:47.001Z</time></trkpt><trkpt lat="42.00031139890872" lon="12.631558014875237"><ele>146.0</ele><time>2026-03-24T13:50:48.001Z</time></trkpt><trkpt lat="42.00036606401109" lon="12.631649177800412"><ele>146.0</ele><time>2026-03-24T13:50:50.001Z</time></trkpt><trkpt lat="42.000425640181824" lon="12.631749867961684"><ele>146.0</ele><time>2026-03-24T13:50:53.001Z</time></trkpt><trkpt lat="42.000470128035424" lon="12.631814040154925"><ele>146.0</ele><time>2026-03-24T13:51:05.001Z</time></trkpt><trkpt lat="42.00053972717698" lon="12.631922615303909"><ele>146.0</ele><time>2026-03-24T13:51:07.001Z</time></trkpt><trkpt lat="42.00059532586192" lon="12.632019592513974"><ele>146.0</ele><time>2026-03-24T13:51:09.001Z</time></trkpt><trkpt lat="42.00054406287877" lon="12.632075301155421"><ele>146.0</ele><time>2026-03-24T13:51:11.001Z</time></trkpt><trkpt lat="42.000427373599" lon="12.632145415356495"><ele>144.75</ele><time>2026-03-24T13:51:13.001Z</time></trkpt><trkpt lat="42.00032433481473" lon="12.632200117908539"><ele>143.5</ele><time>2026-03-24T13:51:14.001Z</time></trkpt><trkpt lat="42.000195583539195" lon="12.632274518953698"><ele>142.25</ele><time>2026-03-24T13:51:15.001Z</time></trkpt><trkpt lat="42.00008359390656" lon="12.63234000088447"><ele>141.0</ele><time>2026-03-24T13:51:16Z</time></trkpt><trkpt lat="41.99994909812193" lon="12.632420356891334"><ele>141.0</ele><time>2026-03-24T13:51:17Z</time></trkpt><trkpt lat="41.999813604726576" lon="12.632500825136244"><ele>141.0</ele><time>2026-03-24T13:51:18Z</time></trkpt><trkpt lat="41.999671085506044" lon="12.632589729649398"><ele>141.0</ele><time>2026-03-24T13:51:19Z</time></trkpt><trkpt lat="41.999547557204096" lon="12.632667824617867"><ele>141.0</ele><time>2026-03-24T13:51:20Z</time></trkpt><trkpt lat="41.99941475242602" lon="12.632751624184868"><ele>142.0</ele><time>2026-03-24T13:51:21Z</time></trkpt><trkpt lat="41.999297171447395" lon="12.632826694966166"><ele>143.0</ele><time>2026-03-24T13:51:22Z</time></trkpt><trkpt lat="41.99917574341483" lon="12.632904342282655"><ele>144.0</ele><time>2026-03-24T13:51:23Z</time></trkpt><trkpt lat="41.999055924454936" lon="12.632981226129392"><ele>145.0</ele><time>2026-03-24T13:51:24Z</time></trkpt><trkpt lat="41.99891930283442" lon="12.63308054673855"><ele>142.33333333333334</ele><time>2026-03-24T13:51:25Z</time></trkpt><trkpt lat="41.998773748351645" lon="12.63318713138046"><ele>139.66666666666666</ele><time>2026-03-24T13:51:26Z</time></trkpt><trkpt lat="41.998631373674726" lon="12.633318055666036"><ele>137.0</ele><time>2026-03-24T13:51:27Z</time></trkpt><trkpt lat="41.998481180342836" lon="12.633429686120506"><ele>135.0</ele><time>2026-03-24T13:51:28Z</time></trkpt><trkpt lat="41.99833092382328" lon="12.63351856003534"><ele>133.0</ele><time>2026-03-24T13:51:29Z</time></trkpt><trkpt lat="41.998190703348634" lon="12.633625793558757"><ele>131.0</ele><time>2026-03-24T13:51:30Z</time></trkpt><trkpt lat="41.998051177483205" lon="12.633741187172072"><ele>130.66666666666666</ele><time>2026-03-24T13:51:31Z</time></trkpt><trkpt lat="41.99792257702717" lon="12.633868032133172"><ele>130.33333333333334</ele><time>2026-03-24T13:51:32Z</time></trkpt><trkpt lat="41.997782112254704" lon="12.634026518615629"><ele>130.0</ele><time>2026-03-24T13:51:33Z</time></trkpt><trkpt lat="41.997634511698976" lon="12.634225966370531"><ele>129.0</ele><time>2026-03-24T13:51:34Z</time></trkpt><trkpt lat="41.9974591019388" lon="12.63446592156021"><ele>128.0</ele><time>2026-03-24T13:51:35Z</time></trkpt><trkpt lat="41.9972945127913" lon="12.634685507829326"><ele>128.0</ele><time>2026-03-24T13:51:36Z</time></trkpt><trkpt lat="41.99712564691755" lon="12.634896532303793"><ele>128.0</ele><time>2026-03-24T13:51:37Z</time></trkpt><trkpt lat="41.99694705425827" lon="12.635102880001929"><ele>130.0</ele><time>2026-03-24T13:51:38Z</time></trkpt><trkpt lat="41.996756497932864" lon="12.63532636806459"><ele>132.0</ele><time>2026-03-24T13:51:39Z</time></trkpt><trkpt lat="41.99658042790552" lon="12.635558146285351"><ele>127.0</ele><time>2026-03-24T13:51:40Z</time></trkpt><trkpt lat="41.99641439329228" lon="12.635755111492"><ele>122.0</ele><time>2026-03-24T13:51:41Z</time></trkpt><trkpt lat="41.99623334257751" lon="12.635967904067865"><ele>124.5</ele><time>2026-03-24T13:51:42Z</time></trkpt><trkpt lat="41.99605599479055" lon="12.636172918279895"><ele>127.0</ele><time>2026-03-24T13:51:43Z</time></trkpt><trkpt lat="41.995878914929214" lon="12.636339388702615"><ele>123.0</ele><time>2026-03-24T13:51:44Z</time></trkpt><trkpt lat="41.995723725032555" lon="12.636520135170361"><ele>119.0</ele><time>2026-03-24T13:51:45Z</time></trkpt><trkpt lat="41.99557353164349" lon="12.636688228013819"><ele>115.0</ele><time>2026-03-24T13:51:46Z</time></trkpt><trkpt lat="41.995423901185475" lon="12.63684867664397"><ele>116.66666666666667</ele><time>2026-03-24T13:51:47Z</time></trkpt><trkpt lat="41.995284947445185" lon="12.637016451604502"><ele>118.33333333333334</ele><time>2026-03-24T13:51:48Z</time></trkpt><trkpt lat="41.99515947440821" lon="12.637198771543915"><ele>120.0</ele><time>2026-03-24T13:51:49Z</time></trkpt><trkpt lat="41.99502692146865" lon="12.637366843424513"><ele>116.66666666666666</ele><time>2026-03-24T13:51:50Z</time></trkpt><trkpt lat="41.994904018716596" lon="12.63754267383436"><ele>113.33333333333333</ele><time>2026-03-24T13:51:51Z</time></trkpt><trkpt lat="41.99477520630303" lon="12.637689559466452"><ele>110.0</ele><time>2026-03-24T13:51:52Z</time></trkpt><trkpt lat="41.99466502194216" lon="12.637848812752708"><ele>110.0</ele><time>2026-03-24T13:51:53Z</time></trkpt><trkpt lat="41.99456519301842" lon="12.63800982146464"><ele>110.0</ele><time>2026-03-24T13:51:54Z</time></trkpt><trkpt lat="41.994480262554056" lon="12.638191671213301"><ele>110.0</ele><time>2026-03-24T13:51:55Z</time></trkpt><trkpt lat="41.994386613436646" lon="12.638401497798005"><ele>107.33333333333333</ele><time>2026-03-24T13:51:56Z</time></trkpt><trkpt lat="41.99429005474358" lon="12.638651175444227"><ele>104.66666666666666</ele><time>2026-03-24T13:51:57Z</time></trkpt><trkpt lat="41.99419172053378" lon="12.638858119852669"><ele>102.0</ele><time>2026-03-24T13:51:58Z</time></trkpt><trkpt lat="41.99412755626411" lon="12.639066598458903"><ele>102.0</ele><time>2026-03-24T13:51:59Z</time></trkpt><trkpt lat="41.994024905754976" lon="12.639248438504367"><ele>102.0</ele><time>2026-03-24T13:52:00.001Z</time></trkpt><trkpt lat="41.993911808562466" lon="12.639463306818174"><ele>102.0</ele><time>2026-03-24T13:52:01.001Z</time></trkpt><trkpt lat="41.993794459563226" lon="12.63966452194681"><ele>104.66666666666666</ele><time>2026-03-24T13:52:02.001Z</time></trkpt><trkpt lat="41.993680734902966" lon="12.639840235232569"><ele>107.33333333333333</ele><time>2026-03-24T13:52:03.001Z</time></trkpt><trkpt lat="41.993563974513044" lon="12.640005804879475"><ele>110.0</ele><time>2026-03-24T13:52:04.001Z</time></trkpt><trkpt lat="41.993443485140936" lon="12.640160108393623"><ele>108.0</ele><time>2026-03-24T13:52:05.001Z</time></trkpt><trkpt lat="41.99331681003795" lon="12.640310781111927"><ele>106.0</ele><time>2026-03-24T13:52:06.001Z</time></trkpt><trkpt lat="41.99319461234453" lon="12.640448116372074"><ele>104.0</ele><time>2026-03-24T13:52:07.001Z</time></trkpt><trkpt lat="41.9930745070307" lon="12.640574426004843"><ele>104.0</ele><time>2026-03-24T13:52:08.001Z</time></trkpt><trkpt lat="41.9929793161106" lon="12.640697400639146"><ele>104.0</ele><time>2026-03-24T13:52:09.001Z</time></trkpt><trkpt lat="41.99287591349523" lon="12.640808427766258"><ele>104.0</ele><time>2026-03-24T13:52:10.001Z</time></trkpt><trkpt lat="41.992777327245896" lon="12.64091442661023"><ele>104.0</ele><time>2026-03-24T13:52:11.001Z</time></trkpt><trkpt lat="41.99268885024137" lon="12.641035286144074"><ele>106.5</ele><time>2026-03-24T13:52:12.001Z</time></trkpt><trkpt lat="41.992603459389564" lon="12.641183893195677"><ele>109.0</ele><time>2026-03-24T13:52:13.001Z</time></trkpt><trkpt lat="41.992510676841924" lon="12.641353918967917"><ele>111.5</ele><time>2026-03-24T13:52:14.001Z</time></trkpt><trkpt lat="41.99243059865422" lon="12.641523713000709"><ele>114.0</ele><time>2026-03-24T13:52:15.001Z</time></trkpt><trkpt lat="41.99235684632672" lon="12.641680266396724"><ele>109.0</ele><time>2026-03-24T13:52:16.001Z</time></trkpt><trkpt lat="41.99228902127429" lon="12.641847562060867"><ele>104.0</ele><time>2026-03-24T13:52:17.001Z</time></trkpt><trkpt lat="41.99223171558719" lon="12.642018135578502"><ele>99.0</ele><time>2026-03-24T13:52:18.001Z</time></trkpt><trkpt lat="41.99218013831928" lon="12.642184279128234"><ele>94.0</ele><time>2026-03-24T13:52:19.001Z</time></trkpt><trkpt lat="41.992136082844915" lon="12.642334848264863"><ele>94.0</ele><time>2026-03-24T13:52:20.001Z</time></trkpt><trkpt lat="41.99208952641605" lon="12.642474717259027"><ele>94.0</ele><time>2026-03-24T13:52:21.001Z</time></trkpt><trkpt lat="41.992044186354256" lon="12.64261780824327"><ele>94.0</ele><time>2026-03-24T13:52:22.001Z</time></trkpt><trkpt lat="41.99200208668321" lon="12.642757085435637"><ele>94.0</ele><time>2026-03-24T13:52:23.001Z</time></trkpt><trkpt lat="41.9919623991689" lon="12.642903844059223"><ele>94.25</ele><time>2026-03-24T13:52:24.001Z</time></trkpt><trkpt lat="41.99192848383037" lon="12.643074927964332"><ele>94.5</ele><time>2026-03-24T13:52:25.001Z</time></trkpt><trkpt lat="41.99190470926655" lon="12.643224986574788"><ele>94.75</ele><time>2026-03-24T13:52:26.001Z</time></trkpt><trkpt lat="41.99190325012383" lon="12.64336671654485"><ele>95.0</ele><time>2026-03-24T13:52:27.001Z</time></trkpt><trkpt lat="41.99189350176906" lon="12.643500014379045"><ele>95.0</ele><time>2026-03-24T13:52:28.001Z</time></trkpt><trkpt lat="41.991883578737024" lon="12.643628716250666"><ele>95.0</ele><time>2026-03-24T13:52:29.001Z</time></trkpt><trkpt lat="41.991839115282005" lon="12.643736358709496"><ele>95.0</ele><time>2026-03-24T13:52:30.001Z</time></trkpt><trkpt lat="41.99180185868339" lon="12.643841704868079"><ele>95.0</ele><time>2026-03-24T13:52:31.001Z</time></trkpt><trkpt lat="41.99170361127871" lon="12.643878229627642"><ele>95.0</ele><time>2026-03-24T13:52:32.001Z</time></trkpt><trkpt lat="41.99161371621591" lon="12.643914034349782"><ele>92.16666666666667</ele><time>2026-03-24T13:52:33.001Z</time></trkpt><trkpt lat="41.9915153902317" lon="12.64397896097366"><ele>89.33333333333334</ele><time>2026-03-24T13:52:34.001Z</time></trkpt><trkpt lat="41.99141270026273" lon="12.643996779460926"><ele>86.5</ele><time>2026-03-24T13:52:35.001Z</time></trkpt><trkpt lat="41.99132791420935" lon="12.644018578383049"><ele>83.66666666666667</ele><time>2026-03-24T13:52:36.001Z</time></trkpt><trkpt lat="41.99125267992042" lon="12.644036487692967"><ele>80.83333333333333</ele><time>2026-03-24T13:52:37.001Z</time></trkpt><trkpt lat="41.99118629079506" lon="12.64400718761192"><ele>78.0</ele><time>2026-03-24T13:52:38.001Z</time></trkpt><trkpt lat="41.99112519046552" lon="12.643931818928055"><ele>78.0</ele><time>2026-03-24T13:52:39.001Z</time></trkpt><trkpt lat="41.99105893365842" lon="12.643824303123509"><ele>78.0</ele><time>2026-03-24T13:52:40.001Z</time></trkpt><trkpt lat="41.990991882749114" lon="12.643680887804711"><ele>78.0</ele><time>2026-03-24T13:52:41.001Z</time></trkpt><trkpt lat="41.99091332441684" lon="12.643503730386222"><ele>78.0</ele><time>2026-03-24T13:52:42.001Z</time></trkpt><trkpt lat="41.990843061215244" lon="12.643351197153095"><ele>81.0</ele><time>2026-03-24T13:52:43.001Z</time></trkpt><trkpt lat="41.990784813290375" lon="12.643230241083026"><ele>84.0</ele><time>2026-03-24T13:52:44.001Z</time></trkpt><trkpt lat="41.99071003440842" lon="12.643156664774072"><ele>87.0</ele><time>2026-03-24T13:52:45.001Z</time></trkpt><trkpt lat="41.990611186637416" lon="12.643122423701385"><ele>90.0</ele><time>2026-03-24T13:52:46.001Z</time></trkpt><trkpt lat="41.99049125224257" lon="12.643089855458058"><ele>93.0</ele><time>2026-03-24T13:52:47.001Z</time></trkpt><trkpt lat="41.9903467357011" lon="12.64310900528329"><ele>93.0</ele><time>2026-03-24T13:52:48.001Z</time></trkpt><trkpt lat="41.99019999277171" lon="12.643155352530211"><ele>93.0</ele><time>2026-03-24T13:52:49.001Z</time></trkpt><trkpt lat="41.989995864426184" lon="12.643170638378999"><ele>93.0</ele><time>2026-03-24T13:52:50.001Z</time></trkpt><trkpt lat="41.98978691011621" lon="12.643208644240975"><ele>97.33333333333334</ele><time>2026-03-24T13:52:51.001Z</time></trkpt><trkpt lat="41.98957504071083" lon="12.643248021656056"><ele>101.66666666666667</ele><time>2026-03-24T13:52:52.001Z</time></trkpt><trkpt lat="41.98938856590138" lon="12.643282677781816"><ele>106.0</ele><time>2026-03-24T13:52:53.001Z</time></trkpt><trkpt lat="41.989202220926764" lon="12.643317123491814"><ele>108.25</ele><time>2026-03-24T13:52:54.001Z</time></trkpt><trkpt lat="41.98905805503269" lon="12.643335069873814"><ele>110.5</ele><time>2026-03-24T13:52:55.001Z</time></trkpt><trkpt lat="41.98892272835185" lon="12.643352973062495"><ele>112.75</ele><time>2026-03-24T13:52:56.001Z</time></trkpt><trkpt lat="41.988789920080166" lon="12.643347577174024"><ele>115.0</ele><time>2026-03-24T13:52:57.001Z</time></trkpt><trkpt lat="41.988665618493826" lon="12.64332638043111"><ele>115.0</ele><time>2026-03-24T13:52:58.001Z</time></trkpt><trkpt lat="41.98854211757312" lon="12.643296997789468"><ele>115.0</ele><time>2026-03-24T13:52:59.001Z</time></trkpt><trkpt lat="41.98842743097454" lon="12.64328028062409"><ele>115.0</ele><time>2026-03-24T13:53:00.001Z</time></trkpt><trkpt lat="41.98830650966147" lon="12.643240203305988"><ele>115.0</ele><time>2026-03-24T13:53:01.001Z</time></trkpt><trkpt lat="41.98819476651212" lon="12.643206363941971"><ele>114.25</ele><time>2026-03-24T13:53:02.001Z</time></trkpt><trkpt lat="41.98808327532033" lon="12.643206354979228"><ele>113.5</ele><time>2026-03-24T13:53:03.001Z</time></trkpt><trkpt lat="41.98795339701148" lon="12.643216440303174"><ele>112.75</ele><time>2026-03-24T13:53:04.001Z</time></trkpt><trkpt lat="41.98781726543937" lon="12.643242798255182"><ele>112.0</ele><time>2026-03-24T13:53:05.001Z</time></trkpt><trkpt lat="41.98768093891686" lon="12.643271836929834"><ele>112.0</ele><time>2026-03-24T13:53:06.001Z</time></trkpt><trkpt lat="41.98754627106811" lon="12.643312359376534"><ele>112.0</ele><time>2026-03-24T13:53:07.001Z</time></trkpt><trkpt lat="41.98741290312762" lon="12.643349109451375"><ele>112.0</ele><time>2026-03-24T13:53:08.001Z</time></trkpt><trkpt lat="41.987291493647305" lon="12.643390883107879"><ele>112.0</ele><time>2026-03-24T13:53:09.001Z</time></trkpt><trkpt lat="41.987151364247744" lon="12.643441116797769"><ele>110.5</ele><time>2026-03-24T13:53:10.001Z</time></trkpt><trkpt lat="41.98702348918282" lon="12.643469311250417"><ele>109.0</ele><time>2026-03-24T13:53:11.001Z</time></trkpt><trkpt lat="41.986897475786556" lon="12.64349710315571"><ele>107.5</ele><time>2026-03-24T13:53:12.001Z</time></trkpt><trkpt lat="41.98677705749132" lon="12.64354851039729"><ele>106.0</ele><time>2026-03-24T13:53:13.001Z</time></trkpt><trkpt lat="41.98665541759061" lon="12.643572134168268"><ele>105.0</ele><time>2026-03-24T13:53:14.001Z</time></trkpt><trkpt lat="41.986536231454636" lon="12.643600123544722"><ele>104.0</ele><time>2026-03-24T13:53:15.001Z</time></trkpt><trkpt lat="41.98642781880752" lon="12.64363287599324"><ele>103.0</ele><time>2026-03-24T13:53:16.001Z</time></trkpt><trkpt lat="41.986338603652264" lon="12.643653071716155"><ele>102.0</ele><time>2026-03-24T13:53:17.002Z</time></trkpt><trkpt lat="41.98626506685528" lon="12.643663922720354"><ele>101.0</ele><time>2026-03-24T13:53:18.002Z</time></trkpt><trkpt lat="41.986180568908985" lon="12.643678804920416"><ele>101.0</ele><time>2026-03-24T13:53:20.002Z</time></trkpt><trkpt lat="41.98608377500403" lon="12.643711308096611"><ele>101.0</ele><time>2026-03-24T13:53:23Z</time></trkpt><trkpt lat="41.986009147766225" lon="12.643741804790157"><ele>101.0</ele><time>2026-03-24T13:53:24Z</time></trkpt><trkpt lat="41.98590811768601" lon="12.64377098369153"><ele>101.0</ele><time>2026-03-24T13:53:25Z</time></trkpt><trkpt lat="41.98581337371063" lon="12.643793526079167"><ele>101.0</ele><time>2026-03-24T13:53:26Z</time></trkpt><trkpt lat="41.98572321241403" lon="12.643811447293034"><ele>98.6</ele><time>2026-03-24T13:53:27Z</time></trkpt><trkpt lat="41.98563144098232" lon="12.643853319283862"><ele>96.19999999999999</ele><time>2026-03-24T13:53:28Z</time></trkpt><trkpt lat="41.985529849377684" lon="12.643883199294782"><ele>93.80000000000001</ele><time>2026-03-24T13:53:29Z</time></trkpt><trkpt lat="41.98541058562031" lon="12.643923632610756"><ele>91.4</ele><time>2026-03-24T13:53:30Z</time></trkpt><trkpt lat="41.98529145254707" lon="12.64396567195887"><ele>89.0</ele><time>2026-03-24T13:53:31Z</time></trkpt><trkpt lat="41.98516512356413" lon="12.644020151215456"><ele>89.0</ele><time>2026-03-24T13:53:32Z</time></trkpt><trkpt lat="41.985033201970744" lon="12.644074869544177"><ele>89.0</ele><time>2026-03-24T13:53:33Z</time></trkpt><trkpt lat="41.98491161974358" lon="12.644139879669536"><ele>89.0</ele><time>2026-03-24T13:53:34Z</time></trkpt><trkpt lat="41.9847869997328" lon="12.644202609032657"><ele>89.0</ele><time>2026-03-24T13:53:35Z</time></trkpt><trkpt lat="41.98465644646546" lon="12.644242600467367"><ele>86.0</ele><time>2026-03-24T13:53:36Z</time></trkpt><trkpt lat="41.98454004174002" lon="12.644294817370213"><ele>83.0</ele><time>2026-03-24T13:53:37Z</time></trkpt><trkpt lat="41.984429508729924" lon="12.644338572501576"><ele>80.0</ele><time>2026-03-24T13:53:38Z</time></trkpt><trkpt lat="41.98431684497053" lon="12.644363340017405"><ele>77.0</ele><time>2026-03-24T13:53:39Z</time></trkpt><trkpt lat="41.984200438036254" lon="12.644358107865818"><ele>75.0</ele><time>2026-03-24T13:53:40Z</time></trkpt><trkpt lat="41.98407327526286" lon="12.644312596040555"><ele>73.0</ele><time>2026-03-24T13:53:41Z</time></trkpt><trkpt lat="41.98392819213249" lon="12.644246371800037"><ele>71.0</ele><time>2026-03-24T13:53:42Z</time></trkpt><trkpt lat="41.983749328354094" lon="12.644155074673705"><ele>71.0</ele><time>2026-03-24T13:53:43Z</time></trkpt><trkpt lat="41.983576186000626" lon="12.644062980908153"><ele>71.0</ele><time>2026-03-24T13:53:44Z</time></trkpt><trkpt lat="41.98341974379349" lon="12.64397976975272"><ele>71.0</ele><time>2026-03-24T13:53:45Z</time></trkpt><trkpt lat="41.98327434182886" lon="12.643901912472561"><ele>69.0</ele><time>2026-03-24T13:53:46.001Z</time></trkpt><trkpt lat="41.98312647773801" lon="12.643820420827895"><ele>67.0</ele><time>2026-03-24T13:53:47.001Z</time></trkpt><trkpt lat="41.98296122580605" lon="12.643727319291498"><ele>65.0</ele><time>2026-03-24T13:53:48.001Z</time></trkpt><trkpt lat="41.98281512091196" lon="12.643643048641644"><ele>64.33333333333334</ele><time>2026-03-24T13:53:49.001Z</time></trkpt><trkpt lat="41.982687771994726" lon="12.643571388435664"><ele>63.66666666666667</ele><time>2026-03-24T13:53:50.001Z</time></trkpt><trkpt lat="41.98254317462344" lon="12.643493236947222"><ele>63.0</ele><time>2026-03-24T13:53:51.001Z</time></trkpt><trkpt lat="41.982388940239375" lon="12.64343879552938"><ele>62.0</ele><time>2026-03-24T13:53:52.001Z</time></trkpt><trkpt lat="41.982252660461064" lon="12.643359121052997"><ele>61.0</ele><time>2026-03-24T13:53:53.001Z</time></trkpt><trkpt lat="41.982114023208055" lon="12.643324685543167"><ele>60.0</ele><time>2026-03-24T13:53:54.001Z</time></trkpt><trkpt lat="41.981978832060996" lon="12.64326712730664"><ele>59.0</ele><time>2026-03-24T13:53:55.001Z</time></trkpt><trkpt lat="41.981849586814164" lon="12.643213712200822"><ele>59.0</ele><time>2026-03-24T13:53:56.001Z</time></trkpt><trkpt lat="41.98172728987047" lon="12.643157845223502"><ele>59.0</ele><time>2026-03-24T13:53:57.001Z</time></trkpt><trkpt lat="41.98161689937334" lon="12.643084780547817"><ele>59.0</ele><time>2026-03-24T13:53:58.001Z</time></trkpt><trkpt lat="41.98151517206105" lon="12.643037890908122"><ele>59.0</ele><time>2026-03-24T13:53:59.001Z</time></trkpt><trkpt lat="41.98142674830335" lon="12.6430007433293"><ele>58.6</ele><time>2026-03-24T13:54:00.001Z</time></trkpt><trkpt lat="41.98133536998971" lon="12.642974423865601"><ele>58.2</ele><time>2026-03-24T13:54:01.001Z</time></trkpt><trkpt lat="41.98124704082777" lon="12.642949715121112"><ele>57.800000000000004</ele><time>2026-03-24T13:54:02.001Z</time></trkpt><trkpt lat="41.981146457125035" lon="12.642996536204377"><ele>57.400000000000006</ele><time>2026-03-24T13:54:03.001Z</time></trkpt><trkpt lat="41.98105354403398" lon="12.643099958665974"><ele>57.0</ele><time>2026-03-24T13:54:04.001Z</time></trkpt><trkpt lat="41.980958715452445" lon="12.643176116285954"><ele>56.400000000000006</ele><time>2026-03-24T13:54:05.001Z</time></trkpt><trkpt lat="41.98084422921959" lon="12.643227852391162"><ele>55.800000000000004</ele><time>2026-03-24T13:54:06.001Z</time></trkpt><trkpt lat="41.98077016652925" lon="12.643277027698492"><ele>55.2</ele><time>2026-03-24T13:54:07.001Z</time></trkpt><trkpt lat="41.980710506759344" lon="12.643316589854807"><ele>54.6</ele><time>2026-03-24T13:54:08.001Z</time></trkpt><trkpt lat="41.98062330600396" lon="12.643374792122126"><ele>54.0</ele><time>2026-03-24T13:54:09.001Z</time></trkpt><trkpt lat="41.980507319858845" lon="12.643450726288892"><ele>54.0</ele><time>2026-03-24T13:54:10.001Z</time></trkpt><trkpt lat="41.98037977955052" lon="12.643556413521345"><ele>54.0</ele><time>2026-03-24T13:54:11.001Z</time></trkpt><trkpt lat="41.9802711733101" lon="12.643627826974845"><ele>54.0</ele><time>2026-03-24T13:54:12.001Z</time></trkpt><trkpt lat="41.98017091640041" lon="12.643691253407908"><ele>54.0</ele><time>2026-03-24T13:54:13.001Z</time></trkpt><trkpt lat="41.98007547638317" lon="12.643751833643746"><ele>53.5</ele><time>2026-03-24T13:54:14.001Z</time></trkpt><trkpt lat="41.979966570800286" lon="12.64380192395081"><ele>53.0</ele><time>2026-03-24T13:54:15.001Z</time></trkpt><trkpt lat="41.97985069268295" lon="12.643876636459884"><ele>52.5</ele><time>2026-03-24T13:54:16.001Z</time></trkpt><trkpt lat="41.9797221920009" lon="12.643959447093644"><ele>52.0</ele><time>2026-03-24T13:54:17.001Z</time></trkpt><trkpt lat="41.97957320078098" lon="12.644055297567437"><ele>52.0</ele><time>2026-03-24T13:54:18.001Z</time></trkpt><trkpt lat="41.979445573262105" lon="12.644159395002932"><ele>52.0</ele><time>2026-03-24T13:54:19.001Z</time></trkpt><trkpt lat="41.97930380104019" lon="12.64425302656214"><ele>52.0</ele><time>2026-03-24T13:54:20.001Z</time></trkpt><trkpt lat="41.97914354946382" lon="12.644331659027852"><ele>51.25</ele><time>2026-03-24T13:54:21.001Z</time></trkpt><trkpt lat="41.97901100228348" lon="12.644415723731523"><ele>50.5</ele><time>2026-03-24T13:54:22.001Z</time></trkpt><trkpt lat="41.97888387439432" lon="12.644496351168598"><ele>49.75</ele><time>2026-03-24T13:54:23.001Z</time></trkpt><trkpt lat="41.97876369357712" lon="12.644573598480697"><ele>49.0</ele><time>2026-03-24T13:54:24.001Z</time></trkpt><trkpt lat="41.97865250141538" lon="12.644645344807492"><ele>49.0</ele><time>2026-03-24T13:54:25.001Z</time></trkpt><trkpt lat="41.978546369946066" lon="12.644714067480944"><ele>49.0</ele><time>2026-03-24T13:54:26.001Z</time></trkpt><trkpt lat="41.97844385339879" lon="12.644780449441686"><ele>49.0</ele><time>2026-03-24T13:54:27.001Z</time></trkpt><trkpt lat="41.97833495864263" lon="12.644851862220603"><ele>49.0</ele><time>2026-03-24T13:54:28.001Z</time></trkpt><trkpt lat="41.9782219509655" lon="12.644926228828183"><ele>48.75</ele><time>2026-03-24T13:54:29.001Z</time></trkpt><trkpt lat="41.97811600636047" lon="12.645016002371394"><ele>48.5</ele><time>2026-03-24T13:54:30.001Z</time></trkpt><trkpt lat="41.97799693442098" lon="12.6450881578211"><ele>48.25</ele><time>2026-03-24T13:54:31.001Z</time></trkpt><trkpt lat="41.97787805369078" lon="12.645172789317765"><ele>48.0</ele><time>2026-03-24T13:54:32.001Z</time></trkpt><trkpt lat="41.9777538698312" lon="12.645246137218484"><ele>48.0</ele><time>2026-03-24T13:54:33.001Z</time></trkpt><trkpt lat="41.9776404162355" lon="12.645320556802892"><ele>48.0</ele><time>2026-03-24T13:54:34.001Z</time></trkpt><trkpt lat="41.97753314365752" lon="12.645383338641109"><ele>48.0</ele><time>2026-03-24T13:54:35.001Z</time></trkpt><trkpt lat="41.977415248099724" lon="12.645466006354894"><ele>48.0</ele><time>2026-03-24T13:54:36.001Z</time></trkpt><trkpt lat="41.977280892341625" lon="12.645532430779753"><ele>48.0</ele><time>2026-03-24T13:54:37.001Z</time></trkpt><trkpt lat="41.97713762899095" lon="12.645624513230548"><ele>48.0</ele><time>2026-03-24T13:54:38.001Z</time></trkpt><trkpt lat="41.97700762409606" lon="12.645734660264923"><ele>48.0</ele><time>2026-03-24T13:54:39.001Z</time></trkpt><trkpt lat="41.97688094270791" lon="12.645826453578136"><ele>48.0</ele><time>2026-03-24T13:54:40.001Z</time></trkpt><trkpt lat="41.976746088033345" lon="12.645907955723999"><ele>48.0</ele><time>2026-03-24T13:54:41.001Z</time></trkpt><trkpt lat="41.97660595772954" lon="12.645999860927189"><ele>48.0</ele><time>2026-03-24T13:54:42.001Z</time></trkpt><trkpt lat="41.97646568695472" lon="12.646054722238183"><ele>48.5</ele><time>2026-03-24T13:54:43.001Z</time></trkpt><trkpt lat="41.9763457003233" lon="12.64615525386823"><ele>49.0</ele><time>2026-03-24T13:54:44.001Z</time></trkpt><trkpt lat="41.97623546630566" lon="12.646225638260802"><ele>49.5</ele><time>2026-03-24T13:54:45.001Z</time></trkpt><trkpt lat="41.9761274064036" lon="12.646290322322594"><ele>50.0</ele><time>2026-03-24T13:54:46.001Z</time></trkpt><trkpt lat="41.976027339051335" lon="12.646358059884662"><ele>50.00000000000001</ele><time>2026-03-24T13:54:47.001Z</time></trkpt><trkpt lat="41.97593446520042" lon="12.64641385629935"><ele>50.0</ele><time>2026-03-24T13:54:48.001Z</time></trkpt><trkpt lat="41.97585814072601" lon="12.646461544155862"><ele>50.0</ele><time>2026-03-24T13:54:49.001Z</time></trkpt><trkpt lat="41.97578880607778" lon="12.6465056478666"><ele>50.0</ele><time>2026-03-24T13:54:50.001Z</time></trkpt><trkpt lat="41.97571943071967" lon="12.646559733467782"><ele>50.00000000000001</ele><time>2026-03-24T13:54:51.001Z</time></trkpt><trkpt lat="41.97566076764157" lon="12.646603531884999"><ele>50.0</ele><time>2026-03-24T13:54:52.001Z</time></trkpt><trkpt lat="41.97557219578436" lon="12.646655614525605"><ele>50.4</ele><time>2026-03-24T13:54:54.001Z</time></trkpt><trkpt lat="41.97550282791831" lon="12.646655326488009"><ele>50.8</ele><time>2026-03-24T13:55:01.001Z</time></trkpt><trkpt lat="41.97545476066602" lon="12.646845462411676"><ele>51.2</ele><time>2026-03-24T13:55:03.001Z</time></trkpt><trkpt lat="41.975454335801025" lon="12.64700065241589"><ele>51.6</ele><time>2026-03-24T13:55:04.001Z</time></trkpt><trkpt lat="41.97543187825098" lon="12.647150856526967"><ele>52.0</ele><time>2026-03-24T13:55:05.001Z</time></trkpt><trkpt lat="41.97541386357684" lon="12.64731140762891"><ele>52.0</ele><time>2026-03-24T13:55:06.001Z</time></trkpt><trkpt lat="41.9753904090154" lon="12.647519982742851"><ele>52.0</ele><time>2026-03-24T13:55:07.001Z</time></trkpt><trkpt lat="41.97537020928969" lon="12.647699508221184"><ele>52.0</ele><time>2026-03-24T13:55:08.001Z</time></trkpt><trkpt lat="41.97535577905962" lon="12.647855033516336"><ele>52.0</ele><time>2026-03-24T13:55:09.001Z</time></trkpt><trkpt lat="41.97534502661286" lon="12.647993971269308"><ele>52.166666666666664</ele><time>2026-03-24T13:55:10.001Z</time></trkpt><trkpt lat="41.975352485093424" lon="12.648122780107668"><ele>52.33333333333333</ele><time>2026-03-24T13:55:11.001Z</time></trkpt><trkpt lat="41.97535053465794" lon="12.648244333299276"><ele>52.5</ele><time>2026-03-24T13:55:12.001Z</time></trkpt><trkpt lat="41.975334421084526" lon="12.648346841185353"><ele>52.66666666666667</ele><time>2026-03-24T13:55:13.002Z</time></trkpt><trkpt lat="41.975336543567764" lon="12.648446360678095"><ele>52.833333333333336</ele><time>2026-03-24T13:55:14.002Z</time></trkpt><trkpt lat="41.97534243386693" lon="12.648543973422466"><ele>53.0</ele><time>2026-03-24T13:55:15.002Z</time></trkpt><trkpt lat="41.97536190759544" lon="12.648645203634572"><ele>52.333333333333336</ele><time>2026-03-24T13:55:16.002Z</time></trkpt><trkpt lat="41.97536923798349" lon="12.648758811053183"><ele>51.66666666666667</ele><time>2026-03-24T13:55:17.002Z</time></trkpt><trkpt lat="41.97536718332958" lon="12.648869829635906"><ele>51.0</ele><time>2026-03-24T13:55:18.002Z</time></trkpt><trkpt lat="41.97537555098147" lon="12.64897123678029"><ele>50.33333333333333</ele><time>2026-03-24T13:55:19.002Z</time></trkpt><trkpt lat="41.975405666974126" lon="12.649064466832828"><ele>49.666666666666664</ele><time>2026-03-24T13:55:20.002Z</time></trkpt><trkpt lat="41.97541691570104" lon="12.64916148109788"><ele>49.0</ele><time>2026-03-24T13:55:21.002Z</time></trkpt><trkpt lat="41.97542676473683" lon="12.649258534385238"><ele>48.99999999999999</ele><time>2026-03-24T13:55:22.002Z</time></trkpt><trkpt lat="41.97543991428012" lon="12.649358371709809"><ele>49.0</ele><time>2026-03-24T13:55:23.002Z</time></trkpt><trkpt lat="41.975424527847636" lon="12.649450827869378"><ele>49.0</ele><time>2026-03-24T13:55:24.002Z</time></trkpt><trkpt lat="41.975468418477334" lon="12.649569157481679"><ele>49.0</ele><time>2026-03-24T13:55:26.002Z</time></trkpt><trkpt lat="41.97549138657243" lon="12.649721573301894"><ele>48.99999999999999</ele><time>2026-03-24T13:55:28.001Z</time></trkpt><trkpt lat="41.975482026694266" lon="12.649830052310742"><ele>49.0</ele><time>2026-03-24T13:55:29.001Z</time></trkpt><trkpt lat="41.975496592603086" lon="12.649915645409905"><ele>49.166666666666664</ele><time>2026-03-24T13:55:30.001Z</time></trkpt><trkpt lat="41.975520005517474" lon="12.650053229817889"><ele>49.33333333333333</ele><time>2026-03-24T13:55:32.001Z</time></trkpt><trkpt lat="41.975540936935296" lon="12.650139732635104"><ele>49.5</ele><time>2026-03-24T13:55:33.001Z</time></trkpt><trkpt lat="41.975566034519154" lon="12.650239312057149"><ele>49.66666666666667</ele><time>2026-03-24T13:55:34.001Z</time></trkpt><trkpt lat="41.97559935070617" lon="12.650349611237758"><ele>49.833333333333336</ele><time>2026-03-24T13:55:35.001Z</time></trkpt><trkpt lat="41.9756369496303" lon="12.650452364073326"><ele>50.0</ele><time>2026-03-24T13:55:36.001Z</time></trkpt><trkpt lat="41.97567643153951" lon="12.65054329236017"><ele>50.333333333333336</ele><time>2026-03-24T13:55:37.001Z</time></trkpt><trkpt lat="41.975724057560136" lon="12.650628947329158"><ele>50.66666666666667</ele><time>2026-03-24T13:55:38.001Z</time></trkpt><trkpt lat="41.97576856517224" lon="12.650697028658715"><ele>51.0</ele><time>2026-03-24T13:55:39.001Z</time></trkpt><trkpt lat="41.97586460763908" lon="12.650804502388418"><ele>51.33333333333333</ele><time>2026-03-24T13:55:41.001Z</time></trkpt><trkpt lat="41.975928996827584" lon="12.650843048363079"><ele>51.666666666666664</ele><time>2026-03-24T13:55:42.001Z</time></trkpt><trkpt lat="41.975982160927494" lon="12.650897160385554"><ele>52.0</ele><time>2026-03-24T13:55:43.001Z</time></trkpt><trkpt lat="41.97604323194142" lon="12.650952978471897"><ele>52.0</ele><time>2026-03-24T13:55:44.001Z</time></trkpt><trkpt lat="41.97610732306985" lon="12.651007479056394"><ele>52.0</ele><time>2026-03-24T13:55:45.001Z</time></trkpt><trkpt lat="41.97617509946227" lon="12.651061336051255"><ele>52.0</ele><time>2026-03-24T13:55:46.001Z</time></trkpt><trkpt lat="41.97623375747429" lon="12.651110959225964"><ele>52.0</ele><time>2026-03-24T13:55:47.001Z</time></trkpt><trkpt lat="41.97628912381827" lon="12.65115848123426"><ele>52.0</ele><time>2026-03-24T13:55:48.001Z</time></trkpt><trkpt lat="41.9763427475893" lon="12.651206979914422"><ele>52.0</ele><time>2026-03-24T13:55:49.001Z</time></trkpt><trkpt lat="41.976398599195484" lon="12.651253997449958"><ele>52.0</ele><time>2026-03-24T13:55:50.001Z</time></trkpt><trkpt lat="41.97645230872332" lon="12.65130082584447"><ele>52.5</ele><time>2026-03-24T13:55:51.001Z</time></trkpt><trkpt lat="41.976537252411134" lon="12.651400172249318"><ele>53.0</ele><time>2026-03-24T13:55:53.001Z</time></trkpt><trkpt lat="41.97663285389751" lon="12.651481910370453"><ele>53.5</ele><time>2026-03-24T13:55:55.001Z</time></trkpt><trkpt lat="41.976732356975425" lon="12.651566725896139"><ele>54.0</ele><time>2026-03-24T13:55:57.001Z</time></trkpt><trkpt lat="41.97684366624371" lon="12.65165851108998"><ele>54.0</ele><time>2026-03-24T13:55:59.001Z</time></trkpt><trkpt lat="41.97691379404634" lon="12.65171591224621"><ele>54.0</ele><time>2026-03-24T13:56:00.001Z</time></trkpt><trkpt lat="41.976978397823736" lon="12.651768404587123"><ele>54.0</ele><time>2026-03-24T13:56:01.001Z</time></trkpt><trkpt lat="41.977040697828514" lon="12.651819024830408"><ele>54.0</ele><time>2026-03-24T13:56:02.001Z</time></trkpt><trkpt lat="41.97709723729329" lon="12.651864964708276"><ele>54.0</ele><time>2026-03-24T13:56:03.001Z</time></trkpt><trkpt lat="41.977154610244604" lon="12.651911295054703"><ele>54.0</ele><time>2026-03-24T13:56:04.001Z</time></trkpt><trkpt lat="41.97721969925204" lon="12.65196359252399"><ele>54.0</ele><time>2026-03-24T13:56:05.001Z</time></trkpt><trkpt lat="41.97729108413285" lon="12.652020948783388"><ele>53.0</ele><time>2026-03-24T13:56:06.001Z</time></trkpt><trkpt lat="41.97736153101613" lon="12.652076802608088"><ele>52.0</ele><time>2026-03-24T13:56:07.001Z</time></trkpt><trkpt lat="41.977432308062724" lon="12.652132440851084"><ele>51.0</ele><time>2026-03-24T13:56:08.001Z</time></trkpt><trkpt lat="41.97750116933653" lon="12.652186573765333"><ele>50.0</ele><time>2026-03-24T13:56:09.001Z</time></trkpt><trkpt lat="41.97756574300793" lon="12.652237335806921"><ele>49.0</ele><time>2026-03-24T13:56:10.001Z</time></trkpt><trkpt lat="41.97765945849392" lon="12.65231100655875"><ele>48.0</ele><time>2026-03-24T13:56:12.001Z</time></trkpt><trkpt lat="41.977719922632275" lon="12.652358540026274"><ele>48.0</ele><time>2026-03-24T13:56:14.001Z</time></trkpt><trkpt lat="41.977778951706114" lon="12.652404946091874"><ele>48.0</ele><time>2026-03-24T13:56:17.001Z</time></trkpt><trkpt lat="41.97788022182715" lon="12.652481999960328"><ele>48.0</ele><time>2026-03-24T13:56:20.001Z</time></trkpt><trkpt lat="41.97797454240552" lon="12.652536792214036"><ele>48.0</ele><time>2026-03-24T13:56:22.001Z</time></trkpt><trkpt lat="41.97805055824678" lon="12.652612232616937"><ele>48.0</ele><time>2026-03-24T13:56:24.001Z</time></trkpt><trkpt lat="41.97815801173986" lon="12.652694393715704"><ele>47.99999999999999</ele><time>2026-03-24T13:56:26.001Z</time></trkpt><trkpt lat="41.97822240595867" lon="12.652743630618529"><ele>48.0</ele><time>2026-03-24T13:56:27.001Z</time></trkpt><trkpt lat="41.978293332425466" lon="12.652797854549862"><ele>48.0</ele><time>2026-03-24T13:56:28.001Z</time></trkpt><trkpt lat="41.97835305003862" lon="12.652843504860822"><ele>48.0</ele><time>2026-03-24T13:56:29.001Z</time></trkpt><trkpt lat="41.978411751772825" lon="12.652888019635096"><ele>48.0</ele><time>2026-03-24T13:56:30.001Z</time></trkpt><trkpt lat="41.978472496814135" lon="12.652933732068233"><ele>47.99999999999999</ele><time>2026-03-24T13:56:31.001Z</time></trkpt><trkpt lat="41.97852920908948" lon="12.652976675135463"><ele>48.0</ele><time>2026-03-24T13:56:32.001Z</time></trkpt><trkpt lat="41.97859910340531" lon="12.653029007028676"><ele>48.0</ele><time>2026-03-24T13:56:33.001Z</time></trkpt><trkpt lat="41.97867889177188" lon="12.65308874715478"><ele>48.0</ele><time>2026-03-24T13:56:34.001Z</time></trkpt><trkpt lat="41.97876819615993" lon="12.653155895381994"><ele>48.0</ele><time>2026-03-24T13:56:35.001Z</time></trkpt><trkpt lat="41.97884771531634" lon="12.653217373711055"><ele>48.0</ele><time>2026-03-24T13:56:36.001Z</time></trkpt><trkpt lat="41.9789372457305" lon="12.653289214398209"><ele>48.0</ele><time>2026-03-24T13:56:37.001Z</time></trkpt><trkpt lat="41.97902116145459" lon="12.653363756031206"><ele>48.0</ele><time>2026-03-24T13:56:38.001Z</time></trkpt><trkpt lat="41.97910237497501" lon="12.653445656123647"><ele>48.0</ele><time>2026-03-24T13:56:39.001Z</time></trkpt><trkpt lat="41.97918717811076" lon="12.653534192336345"><ele>48.0</ele><time>2026-03-24T13:56:40.001Z</time></trkpt><trkpt lat="41.97928169319406" lon="12.653646417389673"><ele>48.0</ele><time>2026-03-24T13:56:41.001Z</time></trkpt><trkpt lat="41.97937571899763" lon="12.653756401338212"><ele>47.333333333333336</ele><time>2026-03-24T13:56:42.001Z</time></trkpt><trkpt lat="41.97951021091255" lon="12.653913719711664"><ele>46.66666666666667</ele><time>2026-03-24T13:56:43.001Z</time></trkpt><trkpt lat="41.97966461414928" lon="12.654097404718119"><ele>46.0</ele><time>2026-03-24T13:56:44.001Z</time></trkpt><trkpt lat="41.979804055742484" lon="12.65426378515758"><ele>46.0</ele><time>2026-03-24T13:56:45.001Z</time></trkpt><trkpt lat="41.979920508136686" lon="12.654405028705671"><ele>46.0</ele><time>2026-03-24T13:56:46.001Z</time></trkpt><trkpt lat="41.98003085295471" lon="12.654538609777125"><ele>46.0</ele><time>2026-03-24T13:56:47.001Z</time></trkpt><trkpt lat="41.98013698155504" lon="12.654667090855746"><ele>46.0</ele><time>2026-03-24T13:56:48.001Z</time></trkpt><trkpt lat="41.980256245886785" lon="12.654805164596935"><ele>46.66666666666667</ele><time>2026-03-24T13:56:49.001Z</time></trkpt><trkpt lat="41.98039254561558" lon="12.654966144695202"><ele>47.333333333333336</ele><time>2026-03-24T13:56:50.001Z</time></trkpt><trkpt lat="41.98051243823159" lon="12.655106868358828"><ele>48.0</ele><time>2026-03-24T13:56:51.001Z</time></trkpt><trkpt lat="41.980623685581655" lon="12.655237324102053"><ele>48.0</ele><time>2026-03-24T13:56:52.001Z</time></trkpt><trkpt lat="41.98074250777837" lon="12.65537666072054"><ele>48.0</ele><time>2026-03-24T13:56:53.001Z</time></trkpt><trkpt lat="41.980877627013" lon="12.655535232399417"><ele>48.0</ele><time>2026-03-24T13:56:54.001Z</time></trkpt><trkpt lat="41.980998820643485" lon="12.655677777786622"><ele>48.75</ele><time>2026-03-24T13:56:55.001Z</time></trkpt><trkpt lat="41.981111750893035" lon="12.65581004601103"><ele>49.5</ele><time>2026-03-24T13:56:56.001Z</time></trkpt><trkpt lat="41.98121351700596" lon="12.655927711050282"><ele>50.25</ele><time>2026-03-24T13:56:57.001Z</time></trkpt><trkpt lat="41.98131640806695" lon="12.656041710007026"><ele>51.0</ele><time>2026-03-24T13:56:58.001Z</time></trkpt><trkpt lat="41.98140956066498" lon="12.656135644787998"><ele>51.0</ele><time>2026-03-24T13:56:59.001Z</time></trkpt><trkpt lat="41.98149844598849" lon="12.656223586319467"><ele>51.0</ele><time>2026-03-24T13:57:00.001Z</time></trkpt><trkpt lat="41.98158946255961" lon="12.656312375915055"><ele>51.0</ele><time>2026-03-24T13:57:01.001Z</time></trkpt><trkpt lat="41.98167156654629" lon="12.656393679556274"><ele>51.0</ele><time>2026-03-24T13:57:02.001Z</time></trkpt><trkpt lat="41.98174339972809" lon="12.656462262354976"><ele>51.0</ele><time>2026-03-24T13:57:03.001Z</time></trkpt><trkpt lat="41.98180146682553" lon="12.656517073291557"><ele>52.285714285714285</ele><time>2026-03-24T13:57:04.001Z</time></trkpt><trkpt lat="41.981861110004836" lon="12.65657337180211"><ele>53.57142857142857</ele><time>2026-03-24T13:57:05.001Z</time></trkpt><trkpt lat="41.98191548721761" lon="12.656624185745716"><ele>54.85714285714286</ele><time>2026-03-24T13:57:06.001Z</time></trkpt><trkpt lat="41.98196741260488" lon="12.656672797536132"><ele>56.14285714285714</ele><time>2026-03-24T13:57:07.001Z</time></trkpt><trkpt lat="41.982021746595215" lon="12.656723664201756"><ele>57.42857142857142</ele><time>2026-03-24T13:57:08.001Z</time></trkpt><trkpt lat="41.98211132641705" lon="12.656807527550793"><ele>58.714285714285715</ele><time>2026-03-24T13:57:10.001Z</time></trkpt><trkpt lat="41.98216975855809" lon="12.656860499954897"><ele>60.0</ele><time>2026-03-24T13:57:12.001Z</time></trkpt><trkpt lat="41.98222741564902" lon="12.656911652483116"><ele>59.0</ele><time>2026-03-24T13:57:14.001Z</time></trkpt><trkpt lat="41.98232345467855" lon="12.656996856121257"><ele>58.0</ele><time>2026-03-24T13:57:16.001Z</time></trkpt><trkpt lat="41.982406962311714" lon="12.656999289860623"><ele>57.0</ele><time>2026-03-24T13:57:17.001Z</time></trkpt><trkpt lat="41.98247443508104" lon="12.657066562275824"><ele>56.0</ele><time>2026-03-24T13:57:19.001Z</time></trkpt><trkpt lat="41.982551383312654" lon="12.657138685279827"><ele>55.0</ele><time>2026-03-24T13:57:21.001Z</time></trkpt><trkpt lat="41.982634581407815" lon="12.657206971177583"><ele>54.99999999999999</ele><time>2026-03-24T13:57:23.002Z</time></trkpt><trkpt lat="41.98269614117671" lon="12.657267153312215"><ele>55.0</ele><time>2026-03-24T13:57:25.002Z</time></trkpt><trkpt lat="41.98274371649684" lon="12.657364981205616"><ele>55.0</ele><time>2026-03-24T13:57:27.002Z</time></trkpt><trkpt lat="41.98280165979558" lon="12.657415213289703"><ele>55.0</ele><time>2026-03-24T13:57:28.002Z</time></trkpt><trkpt lat="41.982869485008585" lon="12.657474012294825"><ele>54.99999999999999</ele><time>2026-03-24T13:57:29.002Z</time></trkpt><trkpt lat="41.98293091912178" lon="12.657526162950548"><ele>55.0</ele><time>2026-03-24T13:57:30.002Z</time></trkpt><trkpt lat="41.98299017396125" lon="12.657576082296766"><ele>54.99999999999999</ele><time>2026-03-24T13:57:31.002Z</time></trkpt><trkpt lat="41.98306539108866" lon="12.657639449120591"><ele>55.0</ele><time>2026-03-24T13:57:32.002Z</time></trkpt><trkpt lat="41.98314741150577" lon="12.657706788155155"><ele>55.0</ele><time>2026-03-24T13:57:33.002Z</time></trkpt><trkpt lat="41.98321746505089" lon="12.657758581580982"><ele>55.0</ele><time>2026-03-24T13:57:34Z</time></trkpt><trkpt lat="41.98328382567357" lon="12.657795509310853"><ele>54.99999999999999</ele><time>2026-03-24T13:57:35Z</time></trkpt><trkpt lat="41.9833471267636" lon="12.657827149469007"><ele>55.0</ele><time>2026-03-24T13:57:36Z</time></trkpt><trkpt lat="41.98340946198171" lon="12.657856428994949"><ele>54.0</ele><time>2026-03-24T13:57:37Z</time></trkpt><trkpt lat="41.98346941813433" lon="12.657883400834619"><ele>53.0</ele><time>2026-03-24T13:57:38Z</time></trkpt><trkpt lat="41.98358085468855" lon="12.657924169153143"><ele>52.0</ele><time>2026-03-24T13:57:40Z</time></trkpt><trkpt lat="41.983692721317595" lon="12.657964852411007"><ele>51.0</ele><time>2026-03-24T13:57:42Z</time></trkpt><trkpt lat="41.98379435811532" lon="12.658003078416934"><ele>50.0</ele><time>2026-03-24T13:57:44Z</time></trkpt><trkpt lat="41.98388315525939" lon="12.658038907883748"><ele>50.0</ele><time>2026-03-24T13:57:46Z</time></trkpt><trkpt lat="41.98400679613278" lon="12.65809641854614"><ele>50.0</ele><time>2026-03-24T13:57:48Z</time></trkpt><trkpt lat="41.98412186854536" lon="12.658153443167098"><ele>50.0</ele><time>2026-03-24T13:57:50Z</time></trkpt><trkpt lat="41.98420446395285" lon="12.658197699516363"><ele>50.0</ele><time>2026-03-24T13:57:52Z</time></trkpt><trkpt lat="41.98429637591839" lon="12.658246716880239"><ele>50.0</ele><time>2026-03-24T13:57:54Z</time></trkpt><trkpt lat="41.98438094013522" lon="12.658291815641906"><ele>50.333333333333336</ele><time>2026-03-24T13:57:55Z</time></trkpt><trkpt lat="41.98446720624396" lon="12.658337097774256"><ele>50.66666666666667</ele><time>2026-03-24T13:57:56Z</time></trkpt><trkpt lat="41.98453155430187" lon="12.65836957441444"><ele>51.0</ele><time>2026-03-24T13:57:57Z</time></trkpt><trkpt lat="41.98463701236658" lon="12.658423818179754"><ele>51.33333333333333</ele><time>2026-03-24T13:57:59Z</time></trkpt><trkpt lat="41.98472267372335" lon="12.658468902077525"><ele>51.666666666666664</ele><time>2026-03-24T13:58:00Z</time></trkpt><trkpt lat="41.9847992653202" lon="12.658510211141616"><ele>52.0</ele><time>2026-03-24T13:58:01Z</time></trkpt><trkpt lat="41.98486432953211" lon="12.658545802927492"><ele>51.99999999999999</ele><time>2026-03-24T13:58:02Z</time></trkpt><trkpt lat="41.98496753869154" lon="12.658611727762644"><ele>52.0</ele><time>2026-03-24T13:58:04Z</time></trkpt><trkpt lat="41.98502594406531" lon="12.658653202300169"><ele>52.0</ele><time>2026-03-24T13:58:05Z</time></trkpt><trkpt lat="41.98508585292882" lon="12.658694917755296"><ele>52.0</ele><time>2026-03-24T13:58:06Z</time></trkpt><trkpt lat="41.985149009789396" lon="12.65874088368038"><ele>51.99999999999999</ele><time>2026-03-24T13:58:07Z</time></trkpt><trkpt lat="41.98525420631787" lon="12.65881672379915"><ele>52.0</ele><time>2026-03-24T13:58:09Z</time></trkpt><trkpt lat="41.98531502829849" lon="12.65886057270889"><ele>52.49999999999999</ele><time>2026-03-24T13:58:10Z</time></trkpt><trkpt lat="41.985380622664366" lon="12.658907906905311"><ele>53.0</ele><time>2026-03-24T13:58:11Z</time></trkpt><trkpt lat="41.9854461072533" lon="12.658955654586638"><ele>53.5</ele><time>2026-03-24T13:58:12Z</time></trkpt><trkpt lat="41.98552716138193" lon="12.659014754767478"><ele>54.0</ele><time>2026-03-24T13:58:13Z</time></trkpt><trkpt lat="41.985611584255" lon="12.659075547096661"><ele>54.49999999999999</ele><time>2026-03-24T13:58:14Z</time></trkpt><trkpt lat="41.98570656088956" lon="12.659143253706345"><ele>55.0</ele><time>2026-03-24T13:58:15Z</time></trkpt><trkpt lat="41.98581221292546" lon="12.659214151329722"><ele>56.0</ele><time>2026-03-24T13:58:16Z</time></trkpt><trkpt lat="41.98591959421502" lon="12.65927694252911"><ele>57.0</ele><time>2026-03-24T13:58:17Z</time></trkpt><trkpt lat="41.98601353816109" lon="12.65932259089201"><ele>58.0</ele><time>2026-03-24T13:58:18Z</time></trkpt><trkpt lat="41.98611913657411" lon="12.65935753375128"><ele>59.0</ele><time>2026-03-24T13:58:19Z</time></trkpt><trkpt lat="41.98622309666265" lon="12.659363158707459"><ele>60.0</ele><time>2026-03-24T13:58:20.001Z</time></trkpt><trkpt lat="41.98633524538529" lon="12.659378463387197"><ele>60.0</ele><time>2026-03-24T13:58:21.001Z</time></trkpt><trkpt lat="41.98644848175291" lon="12.659391200897922"><ele>60.0</ele><time>2026-03-24T13:58:22.001Z</time></trkpt><trkpt lat="41.98655923435323" lon="12.659417766813055"><ele>60.0</ele><time>2026-03-24T13:58:23.001Z</time></trkpt><trkpt lat="41.9866581749823" lon="12.659428107760936"><ele>60.0</ele><time>2026-03-24T13:58:24.001Z</time></trkpt><trkpt lat="41.98675228105259" lon="12.659436279858332"><ele>60.0</ele><time>2026-03-24T13:58:25.001Z</time></trkpt><trkpt lat="41.98684653125633" lon="12.659425780807362"><ele>60.0</ele><time>2026-03-24T13:58:26.001Z</time></trkpt><trkpt lat="41.98694090048534" lon="12.659454719591512"><ele>60.0</ele><time>2026-03-24T13:58:27.001Z</time></trkpt><trkpt lat="41.98702689708595" lon="12.659444658158716"><ele>60.0</ele><time>2026-03-24T13:58:28.001Z</time></trkpt><trkpt lat="41.987100744059596" lon="12.659454836327587"><ele>60.0</ele><time>2026-03-24T13:58:29.001Z</time></trkpt><trkpt lat="41.98717623409059" lon="12.659485518596728"><ele>60.0</ele><time>2026-03-24T13:58:30.001Z</time></trkpt><trkpt lat="41.98723930042103" lon="12.659473672053053"><ele>60.0</ele><time>2026-03-24T13:58:31.001Z</time></trkpt><trkpt lat="41.98730794439375" lon="12.659509533961002"><ele>59.333333333333336</ele><time>2026-03-24T13:58:32.001Z</time></trkpt><trkpt lat="41.98738828446455" lon="12.659527484987903"><ele>58.66666666666667</ele><time>2026-03-24T13:58:33.001Z</time></trkpt><trkpt lat="41.98747478270209" lon="12.659553146827182"><ele>58.0</ele><time>2026-03-24T13:58:34.001Z</time></trkpt><trkpt lat="41.98755360516696" lon="12.659583079245076"><ele>57.333333333333336</ele><time>2026-03-24T13:58:35.001Z</time></trkpt><trkpt lat="41.98762754031828" lon="12.659593231340198"><ele>56.66666666666667</ele><time>2026-03-24T13:58:36.001Z</time></trkpt><trkpt lat="41.987687401504694" lon="12.6596465080548"><ele>56.0</ele><time>2026-03-24T13:58:37.001Z</time></trkpt><trkpt lat="41.98775131155799" lon="12.659681546153656"><ele>56.0</ele><time>2026-03-24T13:58:38.001Z</time></trkpt><trkpt lat="41.98782328619919" lon="12.659723718711382"><ele>55.99999999999999</ele><time>2026-03-24T13:58:39.001Z</time></trkpt><trkpt lat="41.987899286141364" lon="12.659769675046789"><ele>55.99999999999999</ele><time>2026-03-24T13:58:40.001Z</time></trkpt><trkpt lat="41.98798092845988" lon="12.659820022220138"><ele>56.0</ele><time>2026-03-24T13:58:41.001Z</time></trkpt><trkpt lat="41.988084178948085" lon="12.659889042578955"><ele>56.0</ele><time>2026-03-24T13:58:42.001Z</time></trkpt><trkpt lat="41.988223123533004" lon="12.659919505646664"><ele>56.0</ele><time>2026-03-24T13:58:43.001Z</time></trkpt><trkpt lat="41.98833205033738" lon="12.66000886767457"><ele>56.0</ele><time>2026-03-24T13:58:44.001Z</time></trkpt><trkpt lat="41.98843062423998" lon="12.660091686411684"><ele>56.0</ele><time>2026-03-24T13:58:45.001Z</time></trkpt><trkpt lat="41.98852051631023" lon="12.660161707223468"><ele>56.0</ele><time>2026-03-24T13:58:46.001Z</time></trkpt><trkpt lat="41.98858617493045" lon="12.660271751733575"><ele>55.833333333333336</ele><time>2026-03-24T13:58:47.001Z</time></trkpt><trkpt lat="41.98866271256506" lon="12.66033326109278"><ele>55.66666666666667</ele><time>2026-03-24T13:58:48.001Z</time></trkpt><trkpt lat="41.98873235096413" lon="12.66038796938349"><ele>55.5</ele><time>2026-03-24T13:58:49.001Z</time></trkpt><trkpt lat="41.98883802618566" lon="12.660418297927734"><ele>55.33333333333333</ele><time>2026-03-24T13:58:51.001Z</time></trkpt><trkpt lat="41.98886761927349" lon="12.66049478662644"><ele>55.166666666666664</ele><time>2026-03-24T13:58:57.001Z</time></trkpt><trkpt lat="41.98893197317908" lon="12.660480530470211"><ele>55.0</ele><time>2026-03-24T13:59:01.001Z</time></trkpt><trkpt lat="41.98903913600959" lon="12.660563660691365"><ele>55.0</ele><time>2026-03-24T13:59:03.001Z</time></trkpt><trkpt lat="41.98909522741737" lon="12.660610489793218"><ele>55.0</ele><time>2026-03-24T13:59:04.001Z</time></trkpt><trkpt lat="41.989188963864535" lon="12.66068101200316"><ele>55.0</ele><time>2026-03-24T13:59:06.001Z</time></trkpt><trkpt lat="41.9892528267731" lon="12.660728854795966"><ele>55.0</ele><time>2026-03-24T13:59:07.001Z</time></trkpt><trkpt lat="41.989353144795" lon="12.66079462171388"><ele>55.0</ele><time>2026-03-24T13:59:08.001Z</time></trkpt><trkpt lat="41.98946608963537" lon="12.660874643542082"><ele>55.33333333333333</ele><time>2026-03-24T13:59:09.001Z</time></trkpt><trkpt lat="41.98959821686999" lon="12.660975122779687"><ele>55.66666666666667</ele><time>2026-03-24T13:59:10.001Z</time></trkpt><trkpt lat="41.98974276862999" lon="12.661083241652499"><ele>56.0</ele><time>2026-03-24T13:59:11.001Z</time></trkpt><trkpt lat="41.9898504776091" lon="12.661251592407364"><ele>56.0</ele><time>2026-03-24T13:59:12.001Z</time></trkpt><trkpt lat="41.990001977054035" lon="12.661369568329858"><ele>56.0</ele><time>2026-03-24T13:59:13.001Z</time></trkpt><trkpt lat="41.990121989621564" lon="12.661463025960208"><ele>56.0</ele><time>2026-03-24T13:59:14.001Z</time></trkpt><trkpt lat="41.990227350336724" lon="12.661546033530234"><ele>56.0</ele><time>2026-03-24T13:59:15.001Z</time></trkpt><trkpt lat="41.9903202563807" lon="12.661619079290178"><ele>56.8</ele><time>2026-03-24T13:59:16.001Z</time></trkpt><trkpt lat="41.990425419885526" lon="12.661647900680256"><ele>57.599999999999994</ele><time>2026-03-24T13:59:17.001Z</time></trkpt><trkpt lat="41.99050987467738" lon="12.661711689154307"><ele>58.4</ele><time>2026-03-24T13:59:18.001Z</time></trkpt><trkpt lat="41.990581171108154" lon="12.661764517130077"><ele>59.2</ele><time>2026-03-24T13:59:19.001Z</time></trkpt><trkpt lat="41.990646750712315" lon="12.66182314784121"><ele>60.0</ele><time>2026-03-24T13:59:20.001Z</time></trkpt><trkpt lat="41.99074959601148" lon="12.66189958806977"><ele>60.25</ele><time>2026-03-24T13:59:21.001Z</time></trkpt><trkpt lat="41.99081701067401" lon="12.662014126596963"><ele>60.5</ele><time>2026-03-24T13:59:22.001Z</time></trkpt><trkpt lat="41.990900421886124" lon="12.662080606226937"><ele>60.75</ele><time>2026-03-24T13:59:23.001Z</time></trkpt><trkpt lat="41.991019246414915" lon="12.662173367699383"><ele>61.0</ele><time>2026-03-24T13:59:24.001Z</time></trkpt><trkpt lat="41.99112472165425" lon="12.662255203660328"><ele>61.0</ele><time>2026-03-24T13:59:25.001Z</time></trkpt><trkpt lat="41.99122060534272" lon="12.662327742064956"><ele>60.99999999999999</ele><time>2026-03-24T13:59:26.001Z</time></trkpt><trkpt lat="41.99130393766342" lon="12.662393134134529"><ele>60.99999999999999</ele><time>2026-03-24T13:59:27.001Z</time></trkpt><trkpt lat="41.9913913469663" lon="12.66246104563194"><ele>61.0</ele><time>2026-03-24T13:59:28.001Z</time></trkpt><trkpt lat="41.991491508011094" lon="12.662538740212312"><ele>61.0</ele><time>2026-03-24T13:59:29.001Z</time></trkpt><trkpt lat="41.99161436741107" lon="12.66259286594511"><ele>61.0</ele><time>2026-03-24T13:59:30.001Z</time></trkpt><trkpt lat="41.99176881291289" lon="12.66269563414521"><ele>61.0</ele><time>2026-03-24T13:59:31.001Z</time></trkpt><trkpt lat="41.99189933452248" lon="12.662793128290344"><ele>61.0</ele><time>2026-03-24T13:59:32.001Z</time></trkpt><trkpt lat="41.992010691111794" lon="12.662899581865462"><ele>61.0</ele><time>2026-03-24T13:59:33.001Z</time></trkpt><trkpt lat="41.992103004170815" lon="12.663014603514787"><ele>61.0</ele><time>2026-03-24T13:59:34.001Z</time></trkpt><trkpt lat="41.99220679674279" lon="12.663094496995836"><ele>61.0</ele><time>2026-03-24T13:59:35.001Z</time></trkpt><trkpt lat="41.99230074126977" lon="12.663166955387034"><ele>61.0</ele><time>2026-03-24T13:59:36.001Z</time></trkpt><trkpt lat="41.992387500559545" lon="12.663233871479223"><ele>61.0</ele><time>2026-03-24T13:59:37.001Z</time></trkpt><trkpt lat="41.992468098376314" lon="12.663296478607382"><ele>60.99999999999999</ele><time>2026-03-24T13:59:38.001Z</time></trkpt><trkpt lat="41.99255022629393" lon="12.663360218450668"><ele>60.99999999999999</ele><time>2026-03-24T13:59:39Z</time></trkpt><trkpt lat="41.99264091109909" lon="12.66343059923177"><ele>61.0</ele><time>2026-03-24T13:59:40Z</time></trkpt><trkpt lat="41.99274313844276" lon="12.663510113913047"><ele>61.0</ele><time>2026-03-24T13:59:41Z</time></trkpt><trkpt lat="41.99282735413475" lon="12.663575671502906"><ele>61.0</ele><time>2026-03-24T13:59:42Z</time></trkpt><trkpt lat="41.99291526687825" lon="12.663644106389944"><ele>60.99999999999999</ele><time>2026-03-24T13:59:43Z</time></trkpt><trkpt lat="41.99299187168578" lon="12.6637037221871"><ele>60.99999999999999</ele><time>2026-03-24T13:59:44Z</time></trkpt><trkpt lat="41.99307896690039" lon="12.663771507026768"><ele>61.0</ele><time>2026-03-24T13:59:45Z</time></trkpt><trkpt lat="41.993177019692894" lon="12.663847294888534"><ele>61.0</ele><time>2026-03-24T13:59:46Z</time></trkpt><trkpt lat="41.99325692145951" lon="12.663908676520952"><ele>60.99999999999999</ele><time>2026-03-24T13:59:47Z</time></trkpt><trkpt lat="41.99333814907179" lon="12.663971076794885"><ele>61.0</ele><time>2026-03-24T13:59:48Z</time></trkpt><trkpt lat="41.993422902206845" lon="12.66403618837924"><ele>61.0</ele><time>2026-03-24T13:59:49Z</time></trkpt><trkpt lat="41.99349426207936" lon="12.664091084404236"><ele>61.0</ele><time>2026-03-24T13:59:50Z</time></trkpt><trkpt lat="41.99355945164874" lon="12.66414123359848"><ele>60.99999999999999</ele><time>2026-03-24T13:59:51Z</time></trkpt><trkpt lat="41.9936220524755" lon="12.664189418638674"><ele>61.0</ele><time>2026-03-24T13:59:52Z</time></trkpt><trkpt lat="41.9936932402195" lon="12.66424421715672"><ele>61.199999999999996</ele><time>2026-03-24T13:59:53Z</time></trkpt><trkpt lat="41.993753135920834" lon="12.66429032337004"><ele>61.39999999999999</ele><time>2026-03-24T13:59:54Z</time></trkpt><trkpt lat="41.99382898535148" lon="12.664348710355208"><ele>61.6</ele><time>2026-03-24T13:59:55Z</time></trkpt><trkpt lat="41.993894147352925" lon="12.664398870439895"><ele>61.8</ele><time>2026-03-24T13:59:56Z</time></trkpt><trkpt lat="41.993962003846924" lon="12.664451106105389"><ele>62.0</ele><time>2026-03-24T13:59:57Z</time></trkpt><trkpt lat="41.99408976729801" lon="12.66454945516683"><ele>62.0</ele><time>2026-03-24T13:59:59Z</time></trkpt><trkpt lat="41.99418891208832" lon="12.664625732560134"><ele>62.0</ele><time>2026-03-24T14:00:00Z</time></trkpt><trkpt lat="41.99431499093426" lon="12.6647224166044"><ele>62.0</ele><time>2026-03-24T14:00:01Z</time></trkpt><trkpt lat="41.99443567248362" lon="12.664814961728867"><ele>62.0</ele><time>2026-03-24T14:00:02Z</time></trkpt><trkpt lat="41.994523751015244" lon="12.66488250510976"><ele>62.0</ele><time>2026-03-24T14:00:03Z</time></trkpt><trkpt lat="41.99461446167553" lon="12.664952066850015"><ele>62.0</ele><time>2026-03-24T14:00:04Z</time></trkpt><trkpt lat="41.99469375231304" lon="12.665012872351113"><ele>62.0</ele><time>2026-03-24T14:00:05Z</time></trkpt><trkpt lat="41.994784498319405" lon="12.665041233748449"><ele>62.0</ele><time>2026-03-24T14:00:06Z</time></trkpt><trkpt lat="41.994873691985" lon="12.665111338296867"><ele>62.0</ele><time>2026-03-24T14:00:07Z</time></trkpt><trkpt lat="41.99498376450251" lon="12.66518524617913"><ele>62.0</ele><time>2026-03-24T14:00:08Z</time></trkpt><trkpt lat="41.99511736271277" lon="12.665281909627407"><ele>62.0</ele><time>2026-03-24T14:00:09Z</time></trkpt><trkpt lat="41.995237963575256" lon="12.665428449783542"><ele>62.0</ele><time>2026-03-24T14:00:10Z</time></trkpt><trkpt lat="41.99536992537126" lon="12.665528821533057"><ele>62.0</ele><time>2026-03-24T14:00:11Z</time></trkpt><trkpt lat="41.995492429542814" lon="12.665622509205281"><ele>62.0</ele><time>2026-03-24T14:00:12Z</time></trkpt><trkpt lat="41.995605220203394" lon="12.665708790528969"><ele>62.0</ele><time>2026-03-24T14:00:13Z</time></trkpt><trkpt lat="41.99571311643058" lon="12.66578950958374"><ele>62.0</ele><time>2026-03-24T14:00:14Z</time></trkpt><trkpt lat="41.995810032219374" lon="12.6658644368201"><ele>62.5</ele><time>2026-03-24T14:00:15Z</time></trkpt><trkpt lat="41.99590114051023" lon="12.665934467394335"><ele>63.0</ele><time>2026-03-24T14:00:16Z</time></trkpt><trkpt lat="41.995990802743925" lon="12.66600338636269"><ele>63.5</ele><time>2026-03-24T14:00:17Z</time></trkpt><trkpt lat="41.996093473809104" lon="12.666082304710066"><ele>64.0</ele><time>2026-03-24T14:00:18Z</time></trkpt><trkpt lat="41.99620495429768" lon="12.66616799448646"><ele>64.0</ele><time>2026-03-24T14:00:19Z</time></trkpt><trkpt lat="41.99630758288249" lon="12.666246880133711"><ele>64.0</ele><time>2026-03-24T14:00:20Z</time></trkpt><trkpt lat="41.9964052750471" lon="12.666321970338373"><ele>64.0</ele><time>2026-03-24T14:00:21Z</time></trkpt><trkpt lat="41.99650358114963" lon="12.666396516272172"><ele>64.0</ele><time>2026-03-24T14:00:22Z</time></trkpt><trkpt lat="41.99660286821258" lon="12.666473073216432"><ele>64.4</ele><time>2026-03-24T14:00:23Z</time></trkpt><trkpt lat="41.996698230143664" lon="12.666547250955196"><ele>64.80000000000001</ele><time>2026-03-24T14:00:24Z</time></trkpt><trkpt lat="41.99679691514768" lon="12.666624513951929"><ele>65.19999999999999</ele><time>2026-03-24T14:00:25Z</time></trkpt><trkpt lat="41.996891408843226" lon="12.66669849555053"><ele>65.6</ele><time>2026-03-24T14:00:26Z</time></trkpt><trkpt lat="41.99698503886848" lon="12.666769956924758"><ele>66.0</ele><time>2026-03-24T14:00:27Z</time></trkpt><trkpt lat="41.99709226256702" lon="12.666847882626987"><ele>66.0</ele><time>2026-03-24T14:00:28Z</time></trkpt><trkpt lat="41.9972399185703" lon="12.666942243015987"><ele>66.0</ele><time>2026-03-24T14:00:29Z</time></trkpt><trkpt lat="41.99738095336647" lon="12.667016666666514"><ele>66.0</ele><time>2026-03-24T14:00:30Z</time></trkpt><trkpt lat="41.99750706300181" lon="12.667057062312415"><ele>66.0</ele><time>2026-03-24T14:00:31Z</time></trkpt><trkpt lat="41.997618988848934" lon="12.667114362434559"><ele>65.39999999999999</ele><time>2026-03-24T14:00:32Z</time></trkpt><trkpt lat="41.997715759927274" lon="12.667166620369226"><ele>64.8</ele><time>2026-03-24T14:00:33Z</time></trkpt><trkpt lat="41.99780759552955" lon="12.667214317390247"><ele>64.19999999999999</ele><time>2026-03-24T14:00:34Z</time></trkpt><trkpt lat="41.99789781407184" lon="12.667260752968042"><ele>63.599999999999994</ele><time>2026-03-24T14:00:35Z</time></trkpt><trkpt lat="41.99799012087238" lon="12.66730703963407"><ele>63.0</ele><time>2026-03-24T14:00:36Z</time></trkpt><trkpt lat="41.99808952545668" lon="12.667362367583934"><ele>63.0</ele><time>2026-03-24T14:00:37Z</time></trkpt><trkpt lat="41.998190014401004" lon="12.66742685926283"><ele>63.0</ele><time>2026-03-24T14:00:38Z</time></trkpt><trkpt lat="41.998284638356715" lon="12.667475411842348"><ele>63.0</ele><time>2026-03-24T14:00:39Z</time></trkpt><trkpt lat="41.99838767111882" lon="12.667528279005285"><ele>63.0</ele><time>2026-03-24T14:00:40Z</time></trkpt><trkpt lat="41.99850786035736" lon="12.667558889835439"><ele>63.0</ele><time>2026-03-24T14:00:41Z</time></trkpt><trkpt lat="41.99860483157735" lon="12.667620985553045"><ele>63.0</ele><time>2026-03-24T14:00:42Z</time></trkpt><trkpt lat="41.99871357967906" lon="12.667677808943887"><ele>63.0</ele><time>2026-03-24T14:00:43Z</time></trkpt><trkpt lat="41.998824671769064" lon="12.667733160993068"><ele>63.0</ele><time>2026-03-24T14:00:44Z</time></trkpt><trkpt lat="41.998924429042866" lon="12.667783034994773"><ele>63.0</ele><time>2026-03-24T14:00:45Z</time></trkpt><trkpt lat="41.99901503499939" lon="12.667830734065376"><ele>63.0</ele><time>2026-03-24T14:00:46Z</time></trkpt><trkpt lat="41.99909825685842" lon="12.6678762352351"><ele>62.833333333333336</ele><time>2026-03-24T14:00:47Z</time></trkpt><trkpt lat="41.99917409725019" lon="12.667921207034304"><ele>62.66666666666667</ele><time>2026-03-24T14:00:48Z</time></trkpt><trkpt lat="41.99928789938795" lon="12.667980797749456"><ele>62.5</ele><time>2026-03-24T14:00:50Z</time></trkpt><trkpt lat="41.9993634546574" lon="12.668023696991327"><ele>62.333333333333336</ele><time>2026-03-24T14:00:51Z</time></trkpt><trkpt lat="41.999431656695776" lon="12.66806990717012"><ele>62.16666666666667</ele><time>2026-03-24T14:00:52Z</time></trkpt><trkpt lat="41.999491241039756" lon="12.668128617491714"><ele>62.0</ele><time>2026-03-24T14:00:53Z</time></trkpt><trkpt lat="41.99953035538787" lon="12.668233217602571"><ele>62.0</ele><time>2026-03-24T14:00:54Z</time></trkpt><trkpt lat="41.99961165628083" lon="12.668296186531565"><ele>62.0</ele><time>2026-03-24T14:00:55Z</time></trkpt><trkpt lat="41.999691262088845" lon="12.668403948648406"><ele>62.0</ele><time>2026-03-24T14:00:56Z</time></trkpt><trkpt lat="41.999799009706436" lon="12.668497011969597"><ele>62.0</ele><time>2026-03-24T14:00:57Z</time></trkpt><trkpt lat="41.99990760791379" lon="12.66855576115191"><ele>62.2</ele><time>2026-03-24T14:00:58.001Z</time></trkpt><trkpt lat="41.99999737985231" lon="12.668617560780492"><ele>62.400000000000006</ele><time>2026-03-24T14:00:59.001Z</time></trkpt><trkpt lat="42.0000873225326" lon="12.668671318857907"><ele>62.599999999999994</ele><time>2026-03-24T14:01:00.001Z</time></trkpt><trkpt lat="42.000180546920596" lon="12.668734855068724"><ele>62.8</ele><time>2026-03-24T14:01:01.001Z</time></trkpt><trkpt lat="42.000278266689214" lon="12.668808029541967"><ele>63.0</ele><time>2026-03-24T14:01:02.001Z</time></trkpt><trkpt lat="42.000388963463486" lon="12.66888717319487"><ele>63.0</ele><time>2026-03-24T14:01:03.001Z</time></trkpt><trkpt lat="42.00049989976984" lon="12.66897684401753"><ele>63.0</ele><time>2026-03-24T14:01:04.001Z</time></trkpt><trkpt lat="42.00061924853023" lon="12.669082748228886"><ele>63.0</ele><time>2026-03-24T14:01:05.001Z</time></trkpt><trkpt lat="42.000738381897904" lon="12.669230721662082"><ele>63.0</ele><time>2026-03-24T14:01:06.001Z</time></trkpt><trkpt lat="42.00084053062594" lon="12.669348072542912"><ele>63.5</ele><time>2026-03-24T14:01:07.001Z</time></trkpt><trkpt lat="42.00093507126269" lon="12.669460089806039"><ele>64.0</ele><time>2026-03-24T14:01:08.001Z</time></trkpt><trkpt lat="42.00103803518241" lon="12.66958216917821"><ele>64.5</ele><time>2026-03-24T14:01:09.001Z</time></trkpt><trkpt lat="42.00115275067366" lon="12.669720070574739"><ele>65.0</ele><time>2026-03-24T14:01:10.001Z</time></trkpt><trkpt lat="42.00125771644211" lon="12.669847013017502"><ele>65.0</ele><time>2026-03-24T14:01:11.001Z</time></trkpt><trkpt lat="42.00135644186306" lon="12.669962705578941"><ele>65.0</ele><time>2026-03-24T14:01:12.001Z</time></trkpt><trkpt lat="42.00145627144044" lon="12.670051383422695"><ele>65.0</ele><time>2026-03-24T14:01:13.001Z</time></trkpt><trkpt lat="42.00155542725005" lon="12.670159846212206"><ele>65.0</ele><time>2026-03-24T14:01:14.001Z</time></trkpt><trkpt lat="42.001658452425424" lon="12.670272035044352"><ele>66.25</ele><time>2026-03-24T14:01:15.001Z</time></trkpt><trkpt lat="42.0017732701707" lon="12.67038209732156"><ele>67.5</ele><time>2026-03-24T14:01:16.001Z</time></trkpt><trkpt lat="42.00187989295661" lon="12.67049820775172"><ele>68.75</ele><time>2026-03-24T14:01:17.001Z</time></trkpt><trkpt lat="42.00198028908212" lon="12.670613433041474"><ele>70.0</ele><time>2026-03-24T14:01:18.001Z</time></trkpt><trkpt lat="42.00207723352056" lon="12.670742808335559"><ele>70.0</ele><time>2026-03-24T14:01:19.001Z</time></trkpt><trkpt lat="42.00217907727682" lon="12.670857543611726"><ele>70.0</ele><time>2026-03-24T14:01:20.001Z</time></trkpt><trkpt lat="42.00226966926223" lon="12.670959643930846"><ele>70.0</ele><time>2026-03-24T14:01:21.001Z</time></trkpt><trkpt lat="42.00235851126809" lon="12.671060408284346"><ele>70.0</ele><time>2026-03-24T14:01:22.001Z</time></trkpt><trkpt lat="42.002435453444406" lon="12.671147860405796"><ele>69.8</ele><time>2026-03-24T14:01:23.001Z</time></trkpt><trkpt lat="42.00252841960417" lon="12.671243662147242"><ele>69.6</ele><time>2026-03-24T14:01:24.001Z</time></trkpt><trkpt lat="42.00260341519798" lon="12.671327500241569"><ele>69.4</ele><time>2026-03-24T14:01:25.001Z</time></trkpt><trkpt lat="42.002671543832214" lon="12.67140581346079"><ele>69.2</ele><time>2026-03-24T14:01:26.001Z</time></trkpt><trkpt lat="42.0027403388612" lon="12.671499581423822"><ele>69.0</ele><time>2026-03-24T14:01:27.001Z</time></trkpt><trkpt lat="42.00279089394657" lon="12.671584920836395"><ele>69.0</ele><time>2026-03-24T14:01:28.001Z</time></trkpt><trkpt lat="42.00283971643293" lon="12.671729645067806"><ele>69.0</ele><time>2026-03-24T14:01:30.001Z</time></trkpt><trkpt lat="42.00289045932174" lon="12.671803228669567"><ele>69.0</ele><time>2026-03-24T14:01:31.001Z</time></trkpt><trkpt lat="42.00294932255328" lon="12.671878360020173"><ele>69.0</ele><time>2026-03-24T14:01:32.001Z</time></trkpt><trkpt lat="42.003008778307255" lon="12.671954034014908"><ele>69.0</ele><time>2026-03-24T14:01:33.001Z</time></trkpt><trkpt lat="42.00305592868845" lon="12.67201404584126"><ele>69.0</ele><time>2026-03-24T14:01:34.001Z</time></trkpt><trkpt lat="42.003174324728064" lon="12.672107458190299"><ele>68.8</ele><time>2026-03-24T14:01:36.001Z</time></trkpt><trkpt lat="42.00324275859788" lon="12.672190184862858"><ele>68.60000000000001</ele><time>2026-03-24T14:01:37.001Z</time></trkpt><trkpt lat="42.003321396372115" lon="12.672287829426827"><ele>68.4</ele><time>2026-03-24T14:01:38.001Z</time></trkpt><trkpt lat="42.003391509732154" lon="12.67238754285961"><ele>68.2</ele><time>2026-03-24T14:01:39.001Z</time></trkpt><trkpt lat="42.00344549701258" lon="12.672464803544772"><ele>68.0</ele><time>2026-03-24T14:01:40.001Z</time></trkpt><trkpt lat="42.003515195335886" lon="12.67254648725979"><ele>68.0</ele><time>2026-03-24T14:01:41.001Z</time></trkpt><trkpt lat="42.00358601275022" lon="12.672637025668672"><ele>68.0</ele><time>2026-03-24T14:01:42.001Z</time></trkpt><trkpt lat="42.00366940272666" lon="12.672722547493956"><ele>68.0</ele><time>2026-03-24T14:01:43.001Z</time></trkpt><trkpt lat="42.00375399302966" lon="12.672789532758284"><ele>68.0</ele><time>2026-03-24T14:01:44.001Z</time></trkpt><trkpt lat="42.00385002444414" lon="12.672859030951363"><ele>68.0</ele><time>2026-03-24T14:01:45Z</time></trkpt><trkpt lat="42.00395273485844" lon="12.67293925874786"><ele>68.4</ele><time>2026-03-24T14:01:46Z</time></trkpt><trkpt lat="42.004034104982985" lon="12.67303047822559"><ele>68.8</ele><time>2026-03-24T14:01:47Z</time></trkpt><trkpt lat="42.004126433285464" lon="12.673104528002806"><ele>69.2</ele><time>2026-03-24T14:01:48Z</time></trkpt><trkpt lat="42.004222903516464" lon="12.673181901376912"><ele>69.6</ele><time>2026-03-24T14:01:49Z</time></trkpt><trkpt lat="42.00431279938903" lon="12.673255085063772"><ele>70.0</ele><time>2026-03-24T14:01:50Z</time></trkpt><trkpt lat="42.00440220658089" lon="12.673326931125965"><ele>70.0</ele><time>2026-03-24T14:01:51Z</time></trkpt><trkpt lat="42.004500910360726" lon="12.673407835013759"><ele>70.0</ele><time>2026-03-24T14:01:52Z</time></trkpt><trkpt lat="42.004609769842276" lon="12.673507709556793"><ele>70.0</ele><time>2026-03-24T14:01:53Z</time></trkpt><trkpt lat="42.004711896716515" lon="12.673612898429894"><ele>70.0</ele><time>2026-03-24T14:01:54Z</time></trkpt><trkpt lat="42.00483920315163" lon="12.673748311181953"><ele>69.66666666666666</ele><time>2026-03-24T14:01:55Z</time></trkpt><trkpt lat="42.00500544177873" lon="12.673925317285093"><ele>69.33333333333333</ele><time>2026-03-24T14:01:56Z</time></trkpt><trkpt lat="42.00515174767297" lon="12.67409057563981"><ele>69.0</ele><time>2026-03-24T14:01:57Z</time></trkpt><trkpt lat="42.0052760278235" lon="12.674238193273675"><ele>69.0</ele><time>2026-03-24T14:01:58Z</time></trkpt><trkpt lat="42.00537844956262" lon="12.674372312399104"><ele>69.0</ele><time>2026-03-24T14:01:59Z</time></trkpt><trkpt lat="42.00546783442415" lon="12.67450651670089"><ele>69.0</ele><time>2026-03-24T14:02:00Z</time></trkpt><trkpt lat="42.00554214349871" lon="12.67464424490505"><ele>69.0</ele><time>2026-03-24T14:02:01Z</time></trkpt><trkpt lat="42.00561199048268" lon="12.674780626786571"><ele>69.0</ele><time>2026-03-24T14:02:02Z</time></trkpt><trkpt lat="42.00567488335227" lon="12.67491185281967"><ele>69.0</ele><time>2026-03-24T14:02:03Z</time></trkpt><trkpt lat="42.0057317346024" lon="12.675039896808022"><ele>69.0</ele><time>2026-03-24T14:02:04Z</time></trkpt><trkpt lat="42.00578203215855" lon="12.675177897032816"><ele>69.0</ele><time>2026-03-24T14:02:05Z</time></trkpt><trkpt lat="42.00582402772824" lon="12.675332425516707"><ele>70.25</ele><time>2026-03-24T14:02:06Z</time></trkpt><trkpt lat="42.00585368524598" lon="12.675485656666035"><ele>71.5</ele><time>2026-03-24T14:02:07Z</time></trkpt><trkpt lat="42.00587057327415" lon="12.675642941033077"><ele>72.75</ele><time>2026-03-24T14:02:08Z</time></trkpt><trkpt lat="42.00587937762752" lon="12.675786857790273"><ele>74.0</ele><time>2026-03-24T14:02:09Z</time></trkpt><trkpt lat="42.005890926814644" lon="12.675940710079654"><ele>73.25</ele><time>2026-03-24T14:02:10Z</time></trkpt><trkpt lat="42.00590527804468" lon="12.676108925796802"><ele>72.5</ele><time>2026-03-24T14:02:11Z</time></trkpt><trkpt lat="42.005924140387876" lon="12.676268821157715"><ele>71.75</ele><time>2026-03-24T14:02:12Z</time></trkpt><trkpt lat="42.00595577421138" lon="12.676422391390874"><ele>71.0</ele><time>2026-03-24T14:02:13Z</time></trkpt><trkpt lat="42.00599901186106" lon="12.676578375510418"><ele>71.0</ele><time>2026-03-24T14:02:14Z</time></trkpt><trkpt lat="42.0060549640852" lon="12.676739593899848"><ele>71.0</ele><time>2026-03-24T14:02:15Z</time></trkpt><trkpt lat="42.0061181025575" lon="12.676904956199701"><ele>71.0</ele><time>2026-03-24T14:02:16Z</time></trkpt><trkpt lat="42.006194290719" lon="12.677080034287382"><ele>71.0</ele><time>2026-03-24T14:02:17Z</time></trkpt><trkpt lat="42.00633317065601" lon="12.677272300158824"><ele>71.0</ele><time>2026-03-24T14:02:18Z</time></trkpt><trkpt lat="42.006460148144036" lon="12.677542180161945"><ele>71.0</ele><time>2026-03-24T14:02:19Z</time></trkpt><trkpt lat="42.00657919570571" lon="12.677810742645317"><ele>72.0</ele><time>2026-03-24T14:02:20Z</time></trkpt><trkpt lat="42.0066914339954" lon="12.678091572771585"><ele>73.0</ele><time>2026-03-24T14:02:21Z</time></trkpt><trkpt lat="42.00680269532069" lon="12.67834110031004"><ele>73.0</ele><time>2026-03-24T14:02:22Z</time></trkpt><trkpt lat="42.00691116208365" lon="12.678556153529634"><ele>73.0</ele><time>2026-03-24T14:02:23Z</time></trkpt><trkpt lat="42.00699733979286" lon="12.678769574064377"><ele>73.0</ele><time>2026-03-24T14:02:24Z</time></trkpt><trkpt lat="42.00710129145014" lon="12.678995022271064"><ele>73.0</ele><time>2026-03-24T14:02:25Z</time></trkpt><trkpt lat="42.007203994168925" lon="12.679215793382552"><ele>73.0</ele><time>2026-03-24T14:02:26Z</time></trkpt><trkpt lat="42.007309166215876" lon="12.679398446892524"><ele>73.0</ele><time>2026-03-24T14:02:27Z</time></trkpt><trkpt lat="42.00740058338542" lon="12.67958415289215"><ele>73.33333333333333</ele><time>2026-03-24T14:02:28Z</time></trkpt><trkpt lat="42.00749126137547" lon="12.6797848753621"><ele>73.66666666666667</ele><time>2026-03-24T14:02:29Z</time></trkpt><trkpt lat="42.007581313172516" lon="12.679962414157332"><ele>74.0</ele><time>2026-03-24T14:02:30Z</time></trkpt><trkpt lat="42.00766474552833" lon="12.680120473621052"><ele>74.0</ele><time>2026-03-24T14:02:31Z</time></trkpt><trkpt lat="42.00773576887223" lon="12.68026466751357"><ele>74.0</ele><time>2026-03-24T14:02:32Z</time></trkpt><trkpt lat="42.00782410244797" lon="12.680380885623093"><ele>74.0</ele><time>2026-03-24T14:02:33Z</time></trkpt><trkpt lat="42.00794436730489" lon="12.680444954943631"><ele>74.0</ele><time>2026-03-24T14:02:34Z</time></trkpt><trkpt lat="42.008088463598014" lon="12.680463738140052"><ele>74.0</ele><time>2026-03-24T14:02:35Z</time></trkpt><trkpt lat="42.00824094441117" lon="12.680461180918735"><ele>74.0</ele><time>2026-03-24T14:02:36Z</time></trkpt><trkpt lat="42.00841132380192" lon="12.680464818547831"><ele>74.0</ele><time>2026-03-24T14:02:37Z</time></trkpt><trkpt lat="42.00859757412218" lon="12.680475926935229"><ele>75.66666666666667</ele><time>2026-03-24T14:02:38Z</time></trkpt><trkpt lat="42.00880469234563" lon="12.680479254602808"><ele>77.33333333333333</ele><time>2026-03-24T14:02:39Z</time></trkpt><trkpt lat="42.00898946001516" lon="12.680495568761678"><ele>79.0</ele><time>2026-03-24T14:02:40Z</time></trkpt><trkpt lat="42.00918584355835" lon="12.680512120831699"><ele>80.66666666666666</ele><time>2026-03-24T14:02:41Z</time></trkpt><trkpt lat="42.00935924997061" lon="12.680522841483924"><ele>82.33333333333333</ele><time>2026-03-24T14:02:42Z</time></trkpt><trkpt lat="42.00953538855474" lon="12.680535406630186"><ele>84.0</ele><time>2026-03-24T14:02:43.001Z</time></trkpt><trkpt lat="42.00972150691908" lon="12.68056515997982"><ele>84.0</ele><time>2026-03-24T14:02:44.001Z</time></trkpt><trkpt lat="42.00991616419958" lon="12.680573651477026"><ele>84.0</ele><time>2026-03-24T14:02:45.001Z</time></trkpt><trkpt lat="42.01012714892579" lon="12.68054173880387"><ele>84.0</ele><time>2026-03-24T14:02:46.001Z</time></trkpt><trkpt lat="42.01036117588493" lon="12.680497240304899"><ele>84.66666666666667</ele><time>2026-03-24T14:02:47.001Z</time></trkpt><trkpt lat="42.01058980770008" lon="12.680465764458754"><ele>85.33333333333334</ele><time>2026-03-24T14:02:48.001Z</time></trkpt><trkpt lat="42.0107852003806" lon="12.680455974391645"><ele>86.0</ele><time>2026-03-24T14:02:49.001Z</time></trkpt><trkpt lat="42.010983144584806" lon="12.680454114673934"><ele>87.0</ele><time>2026-03-24T14:02:50.001Z</time></trkpt><trkpt lat="42.0111650834201" lon="12.680455545637326"><ele>88.0</ele><time>2026-03-24T14:02:51.001Z</time></trkpt><trkpt lat="42.01132928418094" lon="12.68045211226703"><ele>89.0</ele><time>2026-03-24T14:02:52.001Z</time></trkpt><trkpt lat="42.01147495895717" lon="12.680443481209647"><ele>89.0</ele><time>2026-03-24T14:02:53.001Z</time></trkpt><trkpt lat="42.01161603185223" lon="12.68048176000882"><ele>89.0</ele><time>2026-03-24T14:02:54.001Z</time></trkpt><trkpt lat="42.01175260006336" lon="12.680540146954426"><ele>89.0</ele><time>2026-03-24T14:02:55.001Z</time></trkpt><trkpt lat="42.01189559525507" lon="12.680623245035415"><ele>89.0</ele><time>2026-03-24T14:02:56.001Z</time></trkpt><trkpt lat="42.012050826835186" lon="12.680733937455862"><ele>90.66666666666667</ele><time>2026-03-24T14:02:57.001Z</time></trkpt><trkpt lat="42.01222993710145" lon="12.68086069196432"><ele>92.33333333333333</ele><time>2026-03-24T14:02:58.001Z</time></trkpt><trkpt lat="42.012417063853306" lon="12.681001598562885"><ele>94.0</ele><time>2026-03-24T14:02:59.001Z</time></trkpt><trkpt lat="42.01261044706802" lon="12.681140333084938"><ele>97.66666666666666</ele><time>2026-03-24T14:03:00.001Z</time></trkpt><trkpt lat="42.012797847850486" lon="12.681283536439622"><ele>101.33333333333333</ele><time>2026-03-24T14:03:01.001Z</time></trkpt><trkpt lat="42.01300426349277" lon="12.681394844552154"><ele>105.0</ele><time>2026-03-24T14:03:02.001Z</time></trkpt><trkpt lat="42.01320413622371" lon="12.681560806395213"><ele>106.0</ele><time>2026-03-24T14:03:03.001Z</time></trkpt><trkpt lat="42.013407948593525" lon="12.681753547365048"><ele>107.0</ele><time>2026-03-24T14:03:04.001Z</time></trkpt><trkpt lat="42.01360399855471" lon="12.681947224484901"><ele>109.66666666666666</ele><time>2026-03-24T14:03:05.001Z</time></trkpt><trkpt lat="42.013783654984024" lon="12.682094448184872"><ele>112.33333333333334</ele><time>2026-03-24T14:03:06.001Z</time></trkpt><trkpt lat="42.013926800158686" lon="12.682239327989533"><ele>115.0</ele><time>2026-03-24T14:03:07.001Z</time></trkpt><trkpt lat="42.01405126874492" lon="12.682399332642698"><ele>115.0</ele><time>2026-03-24T14:03:08.001Z</time></trkpt><trkpt lat="42.014149678080344" lon="12.68254456526302"><ele>115.0</ele><time>2026-03-24T14:03:09.001Z</time></trkpt><trkpt lat="42.01422067851988" lon="12.68269503569359"><ele>115.0</ele><time>2026-03-24T14:03:10.001Z</time></trkpt><trkpt lat="42.01426844936007" lon="12.682872423870702"><ele>115.0</ele><time>2026-03-24T14:03:11.001Z</time></trkpt><trkpt lat="42.01432079416544" lon="12.683080054093418"><ele>118.66666666666667</ele><time>2026-03-24T14:03:12.001Z</time></trkpt><trkpt lat="42.014404066132634" lon="12.683298394748942"><ele>122.33333333333334</ele><time>2026-03-24T14:03:13.001Z</time></trkpt><trkpt lat="42.014457665396336" lon="12.683507739528142"><ele>126.0</ele><time>2026-03-24T14:03:14.001Z</time></trkpt><trkpt lat="42.01451793164636" lon="12.683687746480517"><ele>126.66666666666666</ele><time>2026-03-24T14:03:15.001Z</time></trkpt><trkpt lat="42.014561749119665" lon="12.683871347756478"><ele>127.33333333333333</ele><time>2026-03-24T14:03:16.001Z</time></trkpt><trkpt lat="42.01459261370909" lon="12.68407350350589"><ele>128.0</ele><time>2026-03-24T14:03:17.001Z</time></trkpt><trkpt lat="42.01461756372312" lon="12.684283233805639"><ele>128.0</ele><time>2026-03-24T14:03:18.001Z</time></trkpt><trkpt lat="42.014647708683434" lon="12.684485423841975"><ele>128.0</ele><time>2026-03-24T14:03:19.001Z</time></trkpt><trkpt lat="42.014696945702745" lon="12.68466142040447"><ele>128.0</ele><time>2026-03-24T14:03:20.001Z</time></trkpt><trkpt lat="42.014784758286254" lon="12.684805277035709"><ele>128.0</ele><time>2026-03-24T14:03:21.001Z</time></trkpt><trkpt lat="42.01488178427233" lon="12.68493489801824"><ele>131.0</ele><time>2026-03-24T14:03:22.001Z</time></trkpt><trkpt lat="42.01500790906525" lon="12.685065225870082"><ele>134.0</ele><time>2026-03-24T14:03:23.001Z</time></trkpt><trkpt lat="42.01514803154528" lon="12.685177143460036"><ele>137.0</ele><time>2026-03-24T14:03:24.001Z</time></trkpt><trkpt lat="42.01529493381031" lon="12.685275625256441"><ele>137.0</ele><time>2026-03-24T14:03:25.001Z</time></trkpt><trkpt lat="42.015464320739596" lon="12.685348942433913"><ele>137.0</ele><time>2026-03-24T14:03:26.001Z</time></trkpt><trkpt lat="42.01563339119935" lon="12.685423558390841"><ele>137.0</ele><time>2026-03-24T14:03:27.001Z</time></trkpt><trkpt lat="42.015789363716074" lon="12.685488255053087"><ele>138.0</ele><time>2026-03-24T14:03:28.001Z</time></trkpt><trkpt lat="42.01594200793265" lon="12.6855542185525"><ele>139.0</ele><time>2026-03-24T14:03:29.001Z</time></trkpt><trkpt lat="42.01610464417207" lon="12.685642586626958"><ele>140.0</ele><time>2026-03-24T14:03:30.001Z</time></trkpt><trkpt lat="42.016261501409964" lon="12.685782651449147"><ele>140.0</ele><time>2026-03-24T14:03:31.001Z</time></trkpt><trkpt lat="42.01642479308928" lon="12.685893041962263"><ele>140.0</ele><time>2026-03-24T14:03:32.001Z</time></trkpt><trkpt lat="42.01656029976986" lon="12.686033761987195"><ele>140.0</ele><time>2026-03-24T14:03:33.001Z</time></trkpt><trkpt lat="42.01669598678958" lon="12.686159017949457"><ele>137.33333333333331</ele><time>2026-03-24T14:03:34.001Z</time></trkpt><trkpt lat="42.01679877240756" lon="12.6863255122046"><ele>134.66666666666666</ele><time>2026-03-24T14:03:35.001Z</time></trkpt><trkpt lat="42.0169074611881" lon="12.686496491942298"><ele>132.0</ele><time>2026-03-24T14:03:36.001Z</time></trkpt><trkpt lat="42.017021113201054" lon="12.686689697322931"><ele>132.0</ele><time>2026-03-24T14:03:37.001Z</time></trkpt><trkpt lat="42.017130619155296" lon="12.686859317431997"><ele>132.0</ele><time>2026-03-24T14:03:38.001Z</time></trkpt><trkpt lat="42.01723740440902" lon="12.687035876854464"><ele>132.0</ele><time>2026-03-24T14:03:39.001Z</time></trkpt><trkpt lat="42.01734384843015" lon="12.687205116418133"><ele>130.0</ele><time>2026-03-24T14:03:40.001Z</time></trkpt><trkpt lat="42.017463798996" lon="12.687345818822578"><ele>128.0</ele><time>2026-03-24T14:03:41.001Z</time></trkpt><trkpt lat="42.01759185493065" lon="12.687472613356794"><ele>126.0</ele><time>2026-03-24T14:03:42.001Z</time></trkpt><trkpt lat="42.01772669173827" lon="12.687598030958258"><ele>125.33333333333334</ele><time>2026-03-24T14:03:43.001Z</time></trkpt><trkpt lat="42.017875937259106" lon="12.687702577979653"><ele>124.66666666666667</ele><time>2026-03-24T14:03:44.001Z</time></trkpt><trkpt lat="42.01804069801582" lon="12.687773407973832"><ele>124.0</ele><time>2026-03-24T14:03:45.001Z</time></trkpt><trkpt lat="42.01822258184909" lon="12.687813324740961"><ele>122.0</ele><time>2026-03-24T14:03:46.001Z</time></trkpt><trkpt lat="42.01843275397323" lon="12.687834876481139"><ele>120.0</ele><time>2026-03-24T14:03:47.001Z</time></trkpt><trkpt lat="42.01866475809805" lon="12.687879518679509"><ele>118.0</ele><time>2026-03-24T14:03:48.001Z</time></trkpt><trkpt lat="42.018889356887044" lon="12.687922541176324"><ele>118.0</ele><time>2026-03-24T14:03:49.001Z</time></trkpt><trkpt lat="42.019074028347866" lon="12.687955447489863"><ele>118.0</ele><time>2026-03-24T14:03:50Z</time></trkpt><trkpt lat="42.0192474665468" lon="12.687997173565638"><ele>118.0</ele><time>2026-03-24T14:03:51Z</time></trkpt><trkpt lat="42.01941363414918" lon="12.688035620758635"><ele>119.0</ele><time>2026-03-24T14:03:52Z</time></trkpt><trkpt lat="42.01957860697898" lon="12.688078661431183"><ele>120.0</ele><time>2026-03-24T14:03:53Z</time></trkpt><trkpt lat="42.01973107014298" lon="12.688120066097555"><ele>121.0</ele><time>2026-03-24T14:03:54Z</time></trkpt><trkpt lat="42.019872370109184" lon="12.688158604084773"><ele>122.0</ele><time>2026-03-24T14:03:55Z</time></trkpt><trkpt lat="42.02000062752347" lon="12.688197054417074"><ele>123.0</ele><time>2026-03-24T14:03:56Z</time></trkpt><trkpt lat="42.020121363962225" lon="12.688232910341346"><ele>124.0</ele><time>2026-03-24T14:03:57Z</time></trkpt><trkpt lat="42.02024268062068" lon="12.68826770888777"><ele>125.0</ele><time>2026-03-24T14:03:58Z</time></trkpt><trkpt lat="42.02037639476174" lon="12.68830866208626"><ele>125.0</ele><time>2026-03-24T14:03:59Z</time></trkpt><trkpt lat="42.020503547718974" lon="12.68837297337403"><ele>125.0</ele><time>2026-03-24T14:04:00Z</time></trkpt><trkpt lat="42.02062156965927" lon="12.688418644504996"><ele>125.0</ele><time>2026-03-24T14:04:01Z</time></trkpt><trkpt lat="42.02074916904186" lon="12.688448378671316"><ele>125.0</ele><time>2026-03-24T14:04:02Z</time></trkpt><trkpt lat="42.0208874718333" lon="12.688505079577874"><ele>124.75</ele><time>2026-03-24T14:04:03Z</time></trkpt><trkpt lat="42.02102290787673" lon="12.688560431218097"><ele>124.5</ele><time>2026-03-24T14:04:04Z</time></trkpt><trkpt lat="42.02115369485968" lon="12.68860587718935"><ele>124.25</ele><time>2026-03-24T14:04:05Z</time></trkpt><trkpt lat="42.02128377726616" lon="12.688674331879518"><ele>124.0</ele><time>2026-03-24T14:04:06Z</time></trkpt><trkpt lat="42.021426022504265" lon="12.688715081441162"><ele>124.0</ele><time>2026-03-24T14:04:07Z</time></trkpt><trkpt lat="42.02160201945521" lon="12.688761651314987"><ele>124.0</ele><time>2026-03-24T14:04:08Z</time></trkpt><trkpt lat="42.021790217420026" lon="12.688812320792604"><ele>124.0</ele><time>2026-03-24T14:04:09Z</time></trkpt><trkpt lat="42.02195095441726" lon="12.688855919328851"><ele>122.75</ele><time>2026-03-24T14:04:10Z</time></trkpt><trkpt lat="42.02210512396001" lon="12.688896790453759"><ele>121.5</ele><time>2026-03-24T14:04:11Z</time></trkpt><trkpt lat="42.02223886182559" lon="12.688925114146361"><ele>120.25</ele><time>2026-03-24T14:04:12Z</time></trkpt><trkpt lat="42.02237622774316" lon="12.688953738642459"><ele>119.0</ele><time>2026-03-24T14:04:13Z</time></trkpt><trkpt lat="42.02252220102005" lon="12.688976228555976"><ele>119.0</ele><time>2026-03-24T14:04:14Z</time></trkpt><trkpt lat="42.02265259460235" lon="12.688996477183725"><ele>119.0</ele><time>2026-03-24T14:04:15Z</time></trkpt><trkpt lat="42.02278017878247" lon="12.689014852947507"><ele>119.0</ele><time>2026-03-24T14:04:16Z</time></trkpt><trkpt lat="42.022903970551056" lon="12.68902843283328"><ele>119.0</ele><time>2026-03-24T14:04:17Z</time></trkpt><trkpt lat="42.023021423965275" lon="12.689038602710738"><ele>119.0</ele><time>2026-03-24T14:04:18Z</time></trkpt><trkpt lat="42.0231324454186" lon="12.68905125241753"><ele>119.0</ele><time>2026-03-24T14:04:19Z</time></trkpt><trkpt lat="42.023246419481914" lon="12.689062463574524"><ele>119.0</ele><time>2026-03-24T14:04:20Z</time></trkpt><trkpt lat="42.023351660869885" lon="12.689068710891556"><ele>119.0</ele><time>2026-03-24T14:04:21Z</time></trkpt><trkpt lat="42.023455004538086" lon="12.689073002697143"><ele>119.0</ele><time>2026-03-24T14:04:22Z</time></trkpt><trkpt lat="42.02355987567243" lon="12.689077812015265"><ele>118.80000000000001</ele><time>2026-03-24T14:04:23Z</time></trkpt><trkpt lat="42.023674358506916" lon="12.689089918335993"><ele>118.60000000000001</ele><time>2026-03-24T14:04:24Z</time></trkpt><trkpt lat="42.02378891931918" lon="12.689099241990883"><ele>118.4</ele><time>2026-03-24T14:04:25Z</time></trkpt><trkpt lat="42.023896112092075" lon="12.689105387591091"><ele>118.2</ele><time>2026-03-24T14:04:26Z</time></trkpt><trkpt lat="42.02400028534445" lon="12.689111481463282"><ele>118.0</ele><time>2026-03-24T14:04:27.001Z</time></trkpt><trkpt lat="42.024112185756174" lon="12.68911485291743"><ele>117.25</ele><time>2026-03-24T14:04:28.001Z</time></trkpt><trkpt lat="42.02424831489513" lon="12.689123297056229"><ele>116.5</ele><time>2026-03-24T14:04:29.001Z</time></trkpt><trkpt lat="42.024407700501804" lon="12.689125468089097"><ele>115.75</ele><time>2026-03-24T14:04:30.001Z</time></trkpt><trkpt lat="42.02455863411786" lon="12.68912845046895"><ele>115.0</ele><time>2026-03-24T14:04:31.001Z</time></trkpt><trkpt lat="42.02469525701861" lon="12.689137329219566"><ele>115.0</ele><time>2026-03-24T14:04:32.001Z</time></trkpt><trkpt lat="42.0248460824457" lon="12.689173939973905"><ele>115.0</ele><time>2026-03-24T14:04:33.001Z</time></trkpt><trkpt lat="42.0250364511042" lon="12.689199327798233"><ele>115.0</ele><time>2026-03-24T14:04:34.001Z</time></trkpt><trkpt lat="42.02527580292231" lon="12.689247129673133"><ele>115.0</ele><time>2026-03-24T14:04:35.001Z</time></trkpt><trkpt lat="42.025541339008" lon="12.689306089415961"><ele>115.0</ele><time>2026-03-24T14:04:36.001Z</time></trkpt><trkpt lat="42.02582123308677" lon="12.689322290296053"><ele>114.5</ele><time>2026-03-24T14:04:37.001Z</time></trkpt><trkpt lat="42.02608823487525" lon="12.689393360041594"><ele>114.0</ele><time>2026-03-24T14:04:38.001Z</time></trkpt><trkpt lat="42.02629792979866" lon="12.689447762489593"><ele>115.0</ele><time>2026-03-24T14:04:39.001Z</time></trkpt><trkpt lat="42.026498005256336" lon="12.689503772099272"><ele>116.0</ele><time>2026-03-24T14:04:40.001Z</time></trkpt><trkpt lat="42.02668740916137" lon="12.689561701554593"><ele>117.0</ele><time>2026-03-24T14:04:41.001Z</time></trkpt><trkpt lat="42.026840286355345" lon="12.689617582778451"><ele>117.66666666666666</ele><time>2026-03-24T14:04:42.001Z</time></trkpt><trkpt lat="42.026994221338896" lon="12.689688821193563"><ele>118.33333333333333</ele><time>2026-03-24T14:04:43.001Z</time></trkpt><trkpt lat="42.02712203085723" lon="12.689793377391954"><ele>119.0</ele><time>2026-03-24T14:04:44.001Z</time></trkpt><trkpt lat="42.027253271210505" lon="12.689901515902106"><ele>119.0</ele><time>2026-03-24T14:04:45.001Z</time></trkpt><trkpt lat="42.027374640125785" lon="12.690022211717235"><ele>119.0</ele><time>2026-03-24T14:04:46.001Z</time></trkpt><trkpt lat="42.02749589441268" lon="12.690163251412514"><ele>119.0</ele><time>2026-03-24T14:04:47.001Z</time></trkpt><trkpt lat="42.027627028470114" lon="12.690335908025096"><ele>120.0</ele><time>2026-03-24T14:04:48.001Z</time></trkpt><trkpt lat="42.02776114107113" lon="12.690533012511452"><ele>121.0</ele><time>2026-03-24T14:04:49.001Z</time></trkpt><trkpt lat="42.0278801536225" lon="12.69072861364154"><ele>122.0</ele><time>2026-03-24T14:04:50.001Z</time></trkpt><trkpt lat="42.02799533655276" lon="12.690930868035965"><ele>122.66666666666666</ele><time>2026-03-24T14:04:51.001Z</time></trkpt><trkpt lat="42.02811560251152" lon="12.691140943631925"><ele>123.33333333333334</ele><time>2026-03-24T14:04:52.001Z</time></trkpt><trkpt lat="42.0282322227123" lon="12.69134385892113"><ele>124.0</ele><time>2026-03-24T14:04:53.001Z</time></trkpt><trkpt lat="42.02833987185238" lon="12.691527123422093"><ele>124.0</ele><time>2026-03-24T14:04:54.001Z</time></trkpt><trkpt lat="42.02844745191889" lon="12.691706859525034"><ele>124.0</ele><time>2026-03-24T14:04:55.001Z</time></trkpt><trkpt lat="42.02857509478487" lon="12.691874079854028"><ele>124.0</ele><time>2026-03-24T14:04:56.001Z</time></trkpt><trkpt lat="42.02870358270668" lon="12.692055914422324"><ele>125.0</ele><time>2026-03-24T14:04:57.001Z</time></trkpt><trkpt lat="42.02885654439027" lon="12.692227372169642"><ele>126.0</ele><time>2026-03-24T14:04:58.001Z</time></trkpt><trkpt lat="42.02901011287935" lon="12.692379382590879"><ele>127.0</ele><time>2026-03-24T14:04:59.001Z</time></trkpt><trkpt lat="42.029136358571755" lon="12.692501659361355"><ele>128.75</ele><time>2026-03-24T14:05:00.001Z</time></trkpt><trkpt lat="42.02925876465329" lon="12.692618718331259"><ele>130.5</ele><time>2026-03-24T14:05:01.001Z</time></trkpt><trkpt lat="42.02938246296389" lon="12.692735019628522"><ele>132.25</ele><time>2026-03-24T14:05:02.001Z</time></trkpt><trkpt lat="42.02951116312249" lon="12.692830902338489"><ele>134.0</ele><time>2026-03-24T14:05:03.001Z</time></trkpt><trkpt lat="42.02964809246255" lon="12.69290336447713"><ele>137.0</ele><time>2026-03-24T14:05:04.001Z</time></trkpt><trkpt lat="42.02978900771792" lon="12.692978504942413"><ele>140.0</ele><time>2026-03-24T14:05:05.001Z</time></trkpt><trkpt lat="42.02991218694844" lon="12.693103617533474"><ele>143.0</ele><time>2026-03-24T14:05:06.001Z</time></trkpt><trkpt lat="42.03004667924815" lon="12.693205396087519"><ele>143.75</ele><time>2026-03-24T14:05:07.001Z</time></trkpt><trkpt lat="42.030146579566946" lon="12.693315964382712"><ele>144.5</ele><time>2026-03-24T14:05:08.001Z</time></trkpt><trkpt lat="42.030259484264825" lon="12.693418630140508"><ele>145.25</ele><time>2026-03-24T14:05:09.001Z</time></trkpt><trkpt lat="42.03036919601531" lon="12.693495729637018"><ele>146.0</ele><time>2026-03-24T14:05:10.001Z</time></trkpt><trkpt lat="42.03050597259354" lon="12.6935709863594"><ele>146.66666666666666</ele><time>2026-03-24T14:05:11.001Z</time></trkpt><trkpt lat="42.030653386841784" lon="12.693624333674663"><ele>147.33333333333334</ele><time>2026-03-24T14:05:12.001Z</time></trkpt><trkpt lat="42.03082816185908" lon="12.693657648633268"><ele>148.0</ele><time>2026-03-24T14:05:13.001Z</time></trkpt><trkpt lat="42.03098541173184" lon="12.693670728004092"><ele>148.75</ele><time>2026-03-24T14:05:14.001Z</time></trkpt><trkpt lat="42.03112945594538" lon="12.693686026274023"><ele>149.5</ele><time>2026-03-24T14:05:15.001Z</time></trkpt><trkpt lat="42.03126585782378" lon="12.69370275168174"><ele>150.25</ele><time>2026-03-24T14:05:16.001Z</time></trkpt><trkpt lat="42.03140904124028" lon="12.693706867639694"><ele>151.0</ele><time>2026-03-24T14:05:17.001Z</time></trkpt><trkpt lat="42.03155971981026" lon="12.693689464923079"><ele>152.0</ele><time>2026-03-24T14:05:18.001Z</time></trkpt><trkpt lat="42.03169869393688" lon="12.693656297196796"><ele>153.0</ele><time>2026-03-24T14:05:19.001Z</time></trkpt><trkpt lat="42.031830133582055" lon="12.69362696708902"><ele>154.0</ele><time>2026-03-24T14:05:20.001Z</time></trkpt><trkpt lat="42.03196207271229" lon="12.69360263275724"><ele>155.0</ele><time>2026-03-24T14:05:21.001Z</time></trkpt><trkpt lat="42.03209754707499" lon="12.693611041405196"><ele>155.0</ele><time>2026-03-24T14:05:22.001Z</time></trkpt><trkpt lat="42.03223487217172" lon="12.693656916636058"><ele>155.0</ele><time>2026-03-24T14:05:23.001Z</time></trkpt><trkpt lat="42.03238166150591" lon="12.693736882802444"><ele>155.0</ele><time>2026-03-24T14:05:24.001Z</time></trkpt><trkpt lat="42.032520620801094" lon="12.693821636519885"><ele>156.0</ele><time>2026-03-24T14:05:25.001Z</time></trkpt><trkpt lat="42.03264501021444" lon="12.693898108628938"><ele>157.0</ele><time>2026-03-24T14:05:26.001Z</time></trkpt><trkpt lat="42.032772697256334" lon="12.69397815382985"><ele>158.0</ele><time>2026-03-24T14:05:27.001Z</time></trkpt><trkpt lat="42.03290587836114" lon="12.694053971315189"><ele>159.0</ele><time>2026-03-24T14:05:28.001Z</time></trkpt><trkpt lat="42.033039870781934" lon="12.694160763804563"><ele>159.0</ele><time>2026-03-24T14:05:29.001Z</time></trkpt><trkpt lat="42.03320097716631" lon="12.69426053142215"><ele>159.0</ele><time>2026-03-24T14:05:30.001Z</time></trkpt><trkpt lat="42.03340601665487" lon="12.694386447479724"><ele>159.0</ele><time>2026-03-24T14:05:31.001Z</time></trkpt><trkpt lat="42.03363012179157" lon="12.694523748518563"><ele>161.0</ele><time>2026-03-24T14:05:32.001Z</time></trkpt><trkpt lat="42.03387006611206" lon="12.69467059309727"><ele>163.0</ele><time>2026-03-24T14:05:33.001Z</time></trkpt><trkpt lat="42.034112915008414" lon="12.694818606091719"><ele>166.5</ele><time>2026-03-24T14:05:34.001Z</time></trkpt><trkpt lat="42.03434792619253" lon="12.694961803090006"><ele>170.0</ele><time>2026-03-24T14:05:35.001Z</time></trkpt><trkpt lat="42.0345457104171" lon="12.695075529877489"><ele>170.0</ele><time>2026-03-24T14:05:36.001Z</time></trkpt><trkpt lat="42.03473503454643" lon="12.695185651977281"><ele>170.0</ele><time>2026-03-24T14:05:37.001Z</time></trkpt><trkpt lat="42.034903498224054" lon="12.695286807041038"><ele>170.0</ele><time>2026-03-24T14:05:38.001Z</time></trkpt><trkpt lat="42.03505648310254" lon="12.69538203196627"><ele>172.0</ele><time>2026-03-24T14:05:39.001Z</time></trkpt><trkpt lat="42.0351980724757" lon="12.695514251595938"><ele>174.0</ele><time>2026-03-24T14:05:40.001Z</time></trkpt><trkpt lat="42.03533826275526" lon="12.695645980149681"><ele>176.0</ele><time>2026-03-24T14:05:41.001Z</time></trkpt><trkpt lat="42.03547001890686" lon="12.695780920074402"><ele>176.0</ele><time>2026-03-24T14:05:42.001Z</time></trkpt><trkpt lat="42.03559406870119" lon="12.695883186628683"><ele>176.0</ele><time>2026-03-24T14:05:43.001Z</time></trkpt><trkpt lat="42.0357197051279" lon="12.696003964513435"><ele>176.0</ele><time>2026-03-24T14:05:44.001Z</time></trkpt><trkpt lat="42.03586607969701" lon="12.696105095913095"><ele>176.0</ele><time>2026-03-24T14:05:45.001Z</time></trkpt><trkpt lat="42.036011886845685" lon="12.696207799828214"><ele>176.0</ele><time>2026-03-24T14:05:46.001Z</time></trkpt><trkpt lat="42.03617782098059" lon="12.696268468953107"><ele>176.0</ele><time>2026-03-24T14:05:47.001Z</time></trkpt><trkpt lat="42.03637900913377" lon="12.696307874784784"><ele>176.0</ele><time>2026-03-24T14:05:48.001Z</time></trkpt><trkpt lat="42.03655357565683" lon="12.696340186657185"><ele>176.0</ele><time>2026-03-24T14:05:49.001Z</time></trkpt><trkpt lat="42.03671968173886" lon="12.69637669047856"><ele>176.0</ele><time>2026-03-24T14:05:50.001Z</time></trkpt><trkpt lat="42.03689086443701" lon="12.69646529651654"><ele>176.0</ele><time>2026-03-24T14:05:51.002Z</time></trkpt><trkpt lat="42.037081054318136" lon="12.696526165803299"><ele>176.0</ele><time>2026-03-24T14:05:52.002Z</time></trkpt><trkpt lat="42.037293404942154" lon="12.696610636202905"><ele>176.0</ele><time>2026-03-24T14:05:53.002Z</time></trkpt><trkpt lat="42.03753561622332" lon="12.696678203569562"><ele>175.5</ele><time>2026-03-24T14:05:54.002Z</time></trkpt><trkpt lat="42.0377772259621" lon="12.696747319354799"><ele>175.0</ele><time>2026-03-24T14:05:55.002Z</time></trkpt><trkpt lat="42.03800283104762" lon="12.696810208421082"><ele>175.0</ele><time>2026-03-24T14:05:56Z</time></trkpt><trkpt lat="42.03825262902244" lon="12.696873227406464"><ele>175.0</ele><time>2026-03-24T14:05:57Z</time></trkpt><trkpt lat="42.03848465583821" lon="12.696934398162636"><ele>176.66666666666669</ele><time>2026-03-24T14:05:58Z</time></trkpt><trkpt lat="42.03871533213695" lon="12.69699401308135"><ele>178.33333333333334</ele><time>2026-03-24T14:05:59Z</time></trkpt><trkpt lat="42.03892179652562" lon="12.697053191940608"><ele>180.0</ele><time>2026-03-24T14:06:00Z</time></trkpt><trkpt lat="42.03911989056438" lon="12.697100504937053"><ele>180.0</ele><time>2026-03-24T14:06:01Z</time></trkpt><trkpt lat="42.03930741262818" lon="12.697134865452687"><ele>180.0</ele><time>2026-03-24T14:06:02Z</time></trkpt><trkpt lat="42.03948837251466" lon="12.697156937573778"><ele>180.0</ele><time>2026-03-24T14:06:03Z</time></trkpt><trkpt lat="42.039663743918254" lon="12.697175188238743"><ele>180.0</ele><time>2026-03-24T14:06:04Z</time></trkpt><trkpt lat="42.039830629115336" lon="12.697185969837328"><ele>180.0</ele><time>2026-03-24T14:06:05Z</time></trkpt><trkpt lat="42.04001122255922" lon="12.697201738128378"><ele>180.0</ele><time>2026-03-24T14:06:06Z</time></trkpt><trkpt lat="42.04017945347703" lon="12.697222060898923"><ele>179.0</ele><time>2026-03-24T14:06:07Z</time></trkpt><trkpt lat="42.04034042913272" lon="12.697235346602465"><ele>178.0</ele><time>2026-03-24T14:06:08Z</time></trkpt><trkpt lat="42.040509019550726" lon="12.697251603311464"><ele>177.0</ele><time>2026-03-24T14:06:09Z</time></trkpt><trkpt lat="42.04066858253577" lon="12.697268579273352"><ele>176.33333333333334</ele><time>2026-03-24T14:06:10Z</time></trkpt><trkpt lat="42.04082546606339" lon="12.697286361175678"><ele>175.66666666666669</ele><time>2026-03-24T14:06:11Z</time></trkpt><trkpt lat="42.04098620607095" lon="12.697318924535079"><ele>175.0</ele><time>2026-03-24T14:06:12Z</time></trkpt><trkpt lat="42.041137268572726" lon="12.697357934784495"><ele>175.0</ele><time>2026-03-24T14:06:13Z</time></trkpt><trkpt lat="42.041276127053514" lon="12.6974241275153"><ele>175.0</ele><time>2026-03-24T14:06:14Z</time></trkpt><trkpt lat="42.041430019424126" lon="12.697501910432633"><ele>175.0</ele><time>2026-03-24T14:06:15Z</time></trkpt><trkpt lat="42.04160755450666" lon="12.697606868054521"><ele>174.33333333333334</ele><time>2026-03-24T14:06:16Z</time></trkpt><trkpt lat="42.04180438793702" lon="12.697712736343666"><ele>173.66666666666666</ele><time>2026-03-24T14:06:17Z</time></trkpt><trkpt lat="42.04197217815769" lon="12.697819703426434"><ele>173.0</ele><time>2026-03-24T14:06:18Z</time></trkpt><trkpt lat="42.042146900188385" lon="12.697925265365944"><ele>171.0</ele><time>2026-03-24T14:06:19Z</time></trkpt><trkpt lat="42.042335957007204" lon="12.698037113056245"><ele>169.0</ele><time>2026-03-24T14:06:20Z</time></trkpt><trkpt lat="42.04255753340791" lon="12.698157665511106"><ele>167.0</ele><time>2026-03-24T14:06:21Z</time></trkpt><trkpt lat="42.04276494958663" lon="12.698275271160904"><ele>166.66666666666666</ele><time>2026-03-24T14:06:22Z</time></trkpt><trkpt lat="42.04294783288459" lon="12.69838692360937"><ele>166.33333333333334</ele><time>2026-03-24T14:06:23Z</time></trkpt><trkpt lat="42.04312012339994" lon="12.698493773867044"><ele>166.0</ele><time>2026-03-24T14:06:24Z</time></trkpt><trkpt lat="42.043290286690834" lon="12.698600498202593"><ele>164.0</ele><time>2026-03-24T14:06:25Z</time></trkpt><trkpt lat="42.04344880705558" lon="12.698696202764038"><ele>162.0</ele><time>2026-03-24T14:06:26Z</time></trkpt><trkpt lat="42.04361611997078" lon="12.698781427932575"><ele>160.0</ele><time>2026-03-24T14:06:27Z</time></trkpt><trkpt lat="42.04380137215986" lon="12.698847778684454"><ele>160.0</ele><time>2026-03-24T14:06:28Z</time></trkpt><trkpt lat="42.04399485157322" lon="12.698908922989336"><ele>160.0</ele><time>2026-03-24T14:06:29Z</time></trkpt><trkpt lat="42.04416853350616" lon="12.698962326294458"><ele>160.0</ele><time>2026-03-24T14:06:30Z</time></trkpt><trkpt lat="42.044340816553415" lon="12.699004696165424"><ele>160.0</ele><time>2026-03-24T14:06:31Z</time></trkpt><trkpt lat="42.04452127908083" lon="12.699041990491638"><ele>160.0</ele><time>2026-03-24T14:06:32Z</time></trkpt><trkpt lat="42.04469736716933" lon="12.699081025131727"><ele>160.0</ele><time>2026-03-24T14:06:33.001Z</time></trkpt><trkpt lat="42.04486053725534" lon="12.699105892586495"><ele>158.66666666666669</ele><time>2026-03-24T14:06:34.001Z</time></trkpt><trkpt lat="42.04502457643531" lon="12.699096206250314"><ele>157.33333333333334</ele><time>2026-03-24T14:06:35.001Z</time></trkpt><trkpt lat="42.045188911432874" lon="12.699042478827682"><ele>156.0</ele><time>2026-03-24T14:06:36.001Z</time></trkpt><trkpt lat="42.045353698423256" lon="12.698963548535728"><ele>156.0</ele><time>2026-03-24T14:06:37.001Z</time></trkpt><trkpt lat="42.04551029823762" lon="12.698857497078654"><ele>156.0</ele><time>2026-03-24T14:06:38.001Z</time></trkpt><trkpt lat="42.04568152537631" lon="12.698745869288155"><ele>156.0</ele><time>2026-03-24T14:06:39.001Z</time></trkpt><trkpt lat="42.04585787890189" lon="12.698685864891567"><ele>156.0</ele><time>2026-03-24T14:06:40.001Z</time></trkpt><trkpt lat="42.04604299704839" lon="12.698668306420018"><ele>156.0</ele><time>2026-03-24T14:06:41.001Z</time></trkpt><trkpt lat="42.04622906094909" lon="12.698664527612602"><ele>156.0</ele><time>2026-03-24T14:06:42.001Z</time></trkpt><trkpt lat="42.0464269903175" lon="12.698684297523869"><ele>156.0</ele><time>2026-03-24T14:06:43.001Z</time></trkpt><trkpt lat="42.04661790371013" lon="12.698750967544534"><ele>156.0</ele><time>2026-03-24T14:06:44.001Z</time></trkpt><trkpt lat="42.04681393064376" lon="12.698801783176101"><ele>156.0</ele><time>2026-03-24T14:06:45.001Z</time></trkpt><trkpt lat="42.04700818681473" lon="12.698898161332995"><ele>154.33333333333334</ele><time>2026-03-24T14:06:46.001Z</time></trkpt><trkpt lat="42.04718066072181" lon="12.699037788478067"><ele>152.66666666666669</ele><time>2026-03-24T14:06:47.001Z</time></trkpt><trkpt lat="42.04734865201507" lon="12.699185167848551"><ele>151.0</ele><time>2026-03-24T14:06:48.001Z</time></trkpt><trkpt lat="42.04752597218669" lon="12.699345907020064"><ele>150.33333333333334</ele><time>2026-03-24T14:06:49.001Z</time></trkpt><trkpt lat="42.04771893881739" lon="12.699482078341823"><ele>149.66666666666666</ele><time>2026-03-24T14:06:50.001Z</time></trkpt><trkpt lat="42.0479121038121" lon="12.69961913946296"><ele>149.0</ele><time>2026-03-24T14:06:51.001Z</time></trkpt><trkpt lat="42.04811948482612" lon="12.699730371545344"><ele>147.0</ele><time>2026-03-24T14:06:52.001Z</time></trkpt><trkpt lat="42.04833657969744" lon="12.699848164558677"><ele>145.0</ele><time>2026-03-24T14:06:53.001Z</time></trkpt><trkpt lat="42.04856677836547" lon="12.69998139309877"><ele>145.0</ele><time>2026-03-24T14:06:54.001Z</time></trkpt><trkpt lat="42.04878145447778" lon="12.700108804649"><ele>145.0</ele><time>2026-03-24T14:06:55.001Z</time></trkpt><trkpt lat="42.04897437314825" lon="12.700224392771363"><ele>145.0</ele><time>2026-03-24T14:06:56.001Z</time></trkpt><trkpt lat="42.04916680048793" lon="12.700342389266293"><ele>143.33333333333334</ele><time>2026-03-24T14:06:57.001Z</time></trkpt><trkpt lat="42.04936070858865" lon="12.700465116184375"><ele>141.66666666666666</ele><time>2026-03-24T14:06:58.001Z</time></trkpt><trkpt lat="42.04955202010537" lon="12.70058933887842"><ele>140.0</ele><time>2026-03-24T14:06:59.001Z</time></trkpt><trkpt lat="42.04974451951185" lon="12.70071597050197"><ele>140.0</ele><time>2026-03-24T14:07:00.001Z</time></trkpt><trkpt lat="42.0499341726347" lon="12.700838905013006"><ele>140.0</ele><time>2026-03-24T14:07:01.001Z</time></trkpt><trkpt lat="42.0501292069844" lon="12.700968395606807"><ele>140.0</ele><time>2026-03-24T14:07:02.001Z</time></trkpt><trkpt lat="42.050332046506014" lon="12.70109305236306"><ele>138.33333333333331</ele><time>2026-03-24T14:07:03.001Z</time></trkpt><trkpt lat="42.05052620550799" lon="12.701248992609663"><ele>136.66666666666666</ele><time>2026-03-24T14:07:04.001Z</time></trkpt><trkpt lat="42.05071431755916" lon="12.701358741974294"><ele>135.0</ele><time>2026-03-24T14:07:05.001Z</time></trkpt><trkpt lat="42.050881613637685" lon="12.70148074710733"><ele>135.0</ele><time>2026-03-24T14:07:06.001Z</time></trkpt><trkpt lat="42.051055042917895" lon="12.701597464238752"><ele>135.0</ele><time>2026-03-24T14:07:07.001Z</time></trkpt><trkpt lat="42.05124212775388" lon="12.701706716788468"><ele>135.0</ele><time>2026-03-24T14:07:08.001Z</time></trkpt><trkpt lat="42.05144038331238" lon="12.701792496870382"><ele>135.5</ele><time>2026-03-24T14:07:09.001Z</time></trkpt><trkpt lat="42.05166575203489" lon="12.701852620078071"><ele>136.0</ele><time>2026-03-24T14:07:10.001Z</time></trkpt><trkpt lat="42.05192332420058" lon="12.701930814752453"><ele>132.0</ele><time>2026-03-24T14:07:11.001Z</time></trkpt><trkpt lat="42.052176373683345" lon="12.702013458378053"><ele>128.0</ele><time>2026-03-24T14:07:12.001Z</time></trkpt><trkpt lat="42.05240405962871" lon="12.702070120644677"><ele>127.33333333333333</ele><time>2026-03-24T14:07:13.001Z</time></trkpt><trkpt lat="42.05261890215422" lon="12.70212715342048"><ele>126.66666666666666</ele><time>2026-03-24T14:07:14.001Z</time></trkpt><trkpt lat="42.05282267998725" lon="12.702180408159826"><ele>126.0</ele><time>2026-03-24T14:07:15.001Z</time></trkpt><trkpt lat="42.05301704578764" lon="12.702232716978909"><ele>126.0</ele><time>2026-03-24T14:07:16.001Z</time></trkpt><trkpt lat="42.053240217106016" lon="12.702295883338065"><ele>126.0</ele><time>2026-03-24T14:07:17.001Z</time></trkpt><trkpt lat="42.05347587418716" lon="12.702359171845119"><ele>124.5</ele><time>2026-03-24T14:07:18.001Z</time></trkpt><trkpt lat="42.05371550912689" lon="12.702423193751379"><ele>123.0</ele><time>2026-03-24T14:07:19.001Z</time></trkpt><trkpt lat="42.05394702978928" lon="12.702489973080716"><ele>122.5</ele><time>2026-03-24T14:07:20.001Z</time></trkpt><trkpt lat="42.05417532780479" lon="12.702558951318782"><ele>122.0</ele><time>2026-03-24T14:07:21.001Z</time></trkpt><trkpt lat="42.0543889758984" lon="12.702622085585348"><ele>122.0</ele><time>2026-03-24T14:07:22.001Z</time></trkpt><trkpt lat="42.054587791862325" lon="12.702678399556527"><ele>122.0</ele><time>2026-03-24T14:07:23.001Z</time></trkpt><trkpt lat="42.054780435077944" lon="12.702729491816612"><ele>122.0</ele><time>2026-03-24T14:07:24.001Z</time></trkpt><trkpt lat="42.05496910052356" lon="12.702770871750944"><ele>122.0</ele><time>2026-03-24T14:07:25.001Z</time></trkpt><trkpt lat="42.05515515062028" lon="12.702775435036708"><ele>122.0</ele><time>2026-03-24T14:07:26.001Z</time></trkpt><trkpt lat="42.055350973927226" lon="12.702747022893373"><ele>122.0</ele><time>2026-03-24T14:07:27.001Z</time></trkpt><trkpt lat="42.05555645629456" lon="12.702704329538212"><ele>122.0</ele><time>2026-03-24T14:07:28.001Z</time></trkpt><trkpt lat="42.055748994748924" lon="12.702665252566684"><ele>122.0</ele><time>2026-03-24T14:07:29.001Z</time></trkpt><trkpt lat="42.05594455122858" lon="12.70263653881003"><ele>122.0</ele><time>2026-03-24T14:07:30.001Z</time></trkpt><trkpt lat="42.05613603586958" lon="12.702640614955174"><ele>121.66666666666666</ele><time>2026-03-24T14:07:31.001Z</time></trkpt><trkpt lat="42.05631830627879" lon="12.702689213390515"><ele>121.33333333333334</ele><time>2026-03-24T14:07:32.001Z</time></trkpt><trkpt lat="42.05648912825601" lon="12.702716279634656"><ele>121.0</ele><time>2026-03-24T14:07:33.001Z</time></trkpt><trkpt lat="42.05666195009728" lon="12.702894059585356"><ele>119.33333333333334</ele><time>2026-03-24T14:07:34.001Z</time></trkpt><trkpt lat="42.05682255079162" lon="12.703000372995911"><ele>117.66666666666666</ele><time>2026-03-24T14:07:35.001Z</time></trkpt><trkpt lat="42.05697050416984" lon="12.703097898406533"><ele>116.0</ele><time>2026-03-24T14:07:36.001Z</time></trkpt><trkpt lat="42.057105028104715" lon="12.703208787798406"><ele>116.0</ele><time>2026-03-24T14:07:37.001Z</time></trkpt><trkpt lat="42.057239234573714" lon="12.703359114933466"><ele>116.0</ele><time>2026-03-24T14:07:38.001Z</time></trkpt><trkpt lat="42.057364968455744" lon="12.703556288462144"><ele>116.0</ele><time>2026-03-24T14:07:39.001Z</time></trkpt><trkpt lat="42.057490275140864" lon="12.703766095428861"><ele>116.66666666666666</ele><time>2026-03-24T14:07:40.001Z</time></trkpt><trkpt lat="42.05763596540613" lon="12.703954593124427"><ele>117.33333333333334</ele><time>2026-03-24T14:07:41.001Z</time></trkpt><trkpt lat="42.05780831519188" lon="12.704117578825539"><ele>118.0</ele><time>2026-03-24T14:07:42.001Z</time></trkpt><trkpt lat="42.05801319515714" lon="12.704259355637904"><ele>118.0</ele><time>2026-03-24T14:07:43.001Z</time></trkpt><trkpt lat="42.058237418888" lon="12.704391090830057"><ele>118.0</ele><time>2026-03-24T14:07:44.001Z</time></trkpt><trkpt lat="42.05848253473657" lon="12.704539472886987"><ele>118.0</ele><time>2026-03-24T14:07:45.001Z</time></trkpt><trkpt lat="42.05872677120184" lon="12.704701620250457"><ele>118.0</ele><time>2026-03-24T14:07:46.001Z</time></trkpt><trkpt lat="42.058932681121675" lon="12.70482115677085"><ele>117.0</ele><time>2026-03-24T14:07:47.001Z</time></trkpt><trkpt lat="42.059134486544075" lon="12.704940275824939"><ele>116.0</ele><time>2026-03-24T14:07:48.001Z</time></trkpt><trkpt lat="42.05930964126961" lon="12.7050548529605"><ele>115.0</ele><time>2026-03-24T14:07:49.001Z</time></trkpt><trkpt lat="42.059487612035014" lon="12.705192554916426"><ele>117.0</ele><time>2026-03-24T14:07:50.001Z</time></trkpt><trkpt lat="42.05964150115657" lon="12.705335202126413"><ele>119.0</ele><time>2026-03-24T14:07:51.001Z</time></trkpt><trkpt lat="42.05979185029257" lon="12.705507672703746"><ele>121.0</ele><time>2026-03-24T14:07:52.001Z</time></trkpt><trkpt lat="42.05993723378092" lon="12.705715626982624"><ele>119.33333333333334</ele><time>2026-03-24T14:07:53.001Z</time></trkpt><trkpt lat="42.06007910186442" lon="12.705939491811217"><ele>117.66666666666666</ele><time>2026-03-24T14:07:54.001Z</time></trkpt><trkpt lat="42.06020603574761" lon="12.70615009052139"><ele>116.0</ele><time>2026-03-24T14:07:55.001Z</time></trkpt><trkpt lat="42.06032505648603" lon="12.706366304914617"><ele>116.0</ele><time>2026-03-24T14:07:56.001Z</time></trkpt><trkpt lat="42.06043973628565" lon="12.706598078335844"><ele>116.0</ele><time>2026-03-24T14:07:57.001Z</time></trkpt><trkpt lat="42.060542272701106" lon="12.706837853447839"><ele>116.0</ele><time>2026-03-24T14:07:58.002Z</time></trkpt><trkpt lat="42.06062053265774" lon="12.707071476273255"><ele>117.0</ele><time>2026-03-24T14:07:59.002Z</time></trkpt><trkpt lat="42.06067285878567" lon="12.707308775035614"><ele>118.0</ele><time>2026-03-24T14:08:00.002Z</time></trkpt><trkpt lat="42.06068388029353" lon="12.707542049473895"><ele>119.0</ele><time>2026-03-24T14:08:01Z</time></trkpt><trkpt lat="42.06065919333012" lon="12.707778708863563"><ele>119.0</ele><time>2026-03-24T14:08:02Z</time></trkpt><trkpt lat="42.06063135679581" lon="12.708042843843463"><ele>119.0</ele><time>2026-03-24T14:08:03Z</time></trkpt><trkpt lat="42.06061956509201" lon="12.708286401831797"><ele>119.0</ele><time>2026-03-24T14:08:04Z</time></trkpt><trkpt lat="42.060618413569124" lon="12.708525268008197"><ele>117.33333333333333</ele><time>2026-03-24T14:08:05Z</time></trkpt><trkpt lat="42.060608350445484" lon="12.708780769703752"><ele>115.66666666666666</ele><time>2026-03-24T14:08:06Z</time></trkpt><trkpt lat="42.060592914446865" lon="12.709060357599164"><ele>114.0</ele><time>2026-03-24T14:08:07Z</time></trkpt><trkpt lat="42.060574153790654" lon="12.709341480772492"><ele>114.0</ele><time>2026-03-24T14:08:08Z</time></trkpt><trkpt lat="42.060557998754646" lon="12.70958523418498"><ele>114.0</ele><time>2026-03-24T14:08:09Z</time></trkpt><trkpt lat="42.06054008037555" lon="12.709806244741321"><ele>114.0</ele><time>2026-03-24T14:08:10Z</time></trkpt><trkpt lat="42.06052398780358" lon="12.710019579688147"><ele>114.0</ele><time>2026-03-24T14:08:11Z</time></trkpt><trkpt lat="42.06051190385064" lon="12.7102199260344"><ele>114.0</ele><time>2026-03-24T14:08:12Z</time></trkpt><trkpt lat="42.060500791576075" lon="12.71041846014964"><ele>114.0</ele><time>2026-03-24T14:08:13Z</time></trkpt><trkpt lat="42.06048575239789" lon="12.710609025867557"><ele>114.0</ele><time>2026-03-24T14:08:14Z</time></trkpt><trkpt lat="42.06047101145037" lon="12.710789701755523"><ele>113.83333333333333</ele><time>2026-03-24T14:08:15Z</time></trkpt><trkpt lat="42.06046014476188" lon="12.710928304921138"><ele>113.66666666666666</ele><time>2026-03-24T14:08:16Z</time></trkpt><trkpt lat="42.0604522964622" lon="12.711021835694977"><ele>113.5</ele><time>2026-03-24T14:08:17Z</time></trkpt><trkpt lat="42.060440312476324" lon="12.711108595220296"><ele>113.33333333333333</ele><time>2026-03-24T14:08:18Z</time></trkpt><trkpt lat="42.06044015933926" lon="12.711202575583952"><ele>113.16666666666666</ele><time>2026-03-24T14:08:19Z</time></trkpt><trkpt lat="42.06048409616264" lon="12.711321951103198"><ele>113.0</ele><time>2026-03-24T14:08:20Z</time></trkpt><trkpt lat="42.0605552905618" lon="12.711470939953188"><ele>111.66666666666666</ele><time>2026-03-24T14:08:21Z</time></trkpt><trkpt lat="42.060624944216194" lon="12.71165885808329"><ele>110.33333333333334</ele><time>2026-03-24T14:08:22Z</time></trkpt><trkpt lat="42.06068556006687" lon="12.711898747132658"><ele>109.0</ele><time>2026-03-24T14:08:23Z</time></trkpt><trkpt lat="42.060744892207" lon="12.712143333954277"><ele>107.33333333333334</ele><time>2026-03-24T14:08:24Z</time></trkpt><trkpt lat="42.0608188914754" lon="12.71238166034171"><ele>105.66666666666666</ele><time>2026-03-24T14:08:25Z</time></trkpt><trkpt lat="42.06089596732965" lon="12.712615682374546"><ele>104.0</ele><time>2026-03-24T14:08:26Z</time></trkpt><trkpt lat="42.06097870518561" lon="12.712830315151216"><ele>102.33333333333333</ele><time>2026-03-24T14:08:27Z</time></trkpt><trkpt lat="42.06107376798564" lon="12.713032864077903"><ele>100.66666666666666</ele><time>2026-03-24T14:08:28Z</time></trkpt><trkpt lat="42.06119030839432" lon="12.713227376784221"><ele>99.0</ele><time>2026-03-24T14:08:29.001Z</time></trkpt><trkpt lat="42.061332173859284" lon="12.713405893740294"><ele>99.0</ele><time>2026-03-24T14:08:30.001Z</time></trkpt><trkpt lat="42.061488906380745" lon="12.713568522131835"><ele>99.0</ele><time>2026-03-24T14:08:31.001Z</time></trkpt><trkpt lat="42.061661487123885" lon="12.713705805940563"><ele>99.0</ele><time>2026-03-24T14:08:32.001Z</time></trkpt><trkpt lat="42.061841075640125" lon="12.713809505022661"><ele>98.0</ele><time>2026-03-24T14:08:33.001Z</time></trkpt><trkpt lat="42.062054876072274" lon="12.713919305755667"><ele>97.0</ele><time>2026-03-24T14:08:34.001Z</time></trkpt><trkpt lat="42.062309887117046" lon="12.71404448229624"><ele>98.0</ele><time>2026-03-24T14:08:35.001Z</time></trkpt><trkpt lat="42.062590474018236" lon="12.714183011139927"><ele>99.0</ele><time>2026-03-24T14:08:36.001Z</time></trkpt><trkpt lat="42.06287048073456" lon="12.714330170473762"><ele>98.0</ele><time>2026-03-24T14:08:37.001Z</time></trkpt><trkpt lat="42.0631729070959" lon="12.714462987394883"><ele>97.0</ele><time>2026-03-24T14:08:38.001Z</time></trkpt><trkpt lat="42.063454641639915" lon="12.714609624039799"><ele>97.0</ele><time>2026-03-24T14:08:39.001Z</time></trkpt><trkpt lat="42.06374013326886" lon="12.714750421869889"><ele>97.0</ele><time>2026-03-24T14:08:40.001Z</time></trkpt><trkpt lat="42.06394704724505" lon="12.71485118259256"><ele>97.0</ele><time>2026-03-24T14:08:41.001Z</time></trkpt><trkpt lat="42.06420611439616" lon="12.714991540469319"><ele>97.0</ele><time>2026-03-24T14:08:42.001Z</time></trkpt><trkpt lat="42.06450728210099" lon="12.715167585317415"><ele>96.5</ele><time>2026-03-24T14:08:43.001Z</time></trkpt><trkpt lat="42.06478643635829" lon="12.715346030925069"><ele>96.0</ele><time>2026-03-24T14:08:44.001Z</time></trkpt><trkpt lat="42.06507416780028" lon="12.715523789674505"><ele>96.0</ele><time>2026-03-24T14:08:45.001Z</time></trkpt><trkpt lat="42.06534035645807" lon="12.71568542884591"><ele>96.0</ele><time>2026-03-24T14:08:46.001Z</time></trkpt><trkpt lat="42.06557979208146" lon="12.715825797692165"><ele>94.5</ele><time>2026-03-24T14:08:47.001Z</time></trkpt><trkpt lat="42.06581118896758" lon="12.715963522870219"><ele>93.0</ele><time>2026-03-24T14:08:48.001Z</time></trkpt><trkpt lat="42.066055670839425" lon="12.716104022020815"><ele>92.0</ele><time>2026-03-24T14:08:49.001Z</time></trkpt><trkpt lat="42.06631765061043" lon="12.716263419919404"><ele>91.0</ele><time>2026-03-24T14:08:50.001Z</time></trkpt><trkpt lat="42.06656431506922" lon="12.716414480471114"><ele>91.5</ele><time>2026-03-24T14:08:51.001Z</time></trkpt><trkpt lat="42.06681276745652" lon="12.716549510458933"><ele>92.0</ele><time>2026-03-24T14:08:52.001Z</time></trkpt><trkpt lat="42.067048518885855" lon="12.71666531642227"><ele>92.0</ele><time>2026-03-24T14:08:53.001Z</time></trkpt><trkpt lat="42.06726911153367" lon="12.716748955471889"><ele>92.0</ele><time>2026-03-24T14:08:54.001Z</time></trkpt><trkpt lat="42.06748413229182" lon="12.71682489721374"><ele>91.66666666666667</ele><time>2026-03-24T14:08:55.001Z</time></trkpt><trkpt lat="42.06769896769356" lon="12.716881840752302"><ele>91.33333333333333</ele><time>2026-03-24T14:08:56.001Z</time></trkpt><trkpt lat="42.067902512027445" lon="12.716903177331682"><ele>91.0</ele><time>2026-03-24T14:08:57.001Z</time></trkpt><trkpt lat="42.06810209736144" lon="12.716932560880732"><ele>93.0</ele><time>2026-03-24T14:08:58.001Z</time></trkpt><trkpt lat="42.06830152306648" lon="12.71696369250643"><ele>95.0</ele><time>2026-03-24T14:08:59.001Z</time></trkpt><trkpt lat="42.06850130586628" lon="12.716998917158227"><ele>97.0</ele><time>2026-03-24T14:09:00.001Z</time></trkpt><trkpt lat="42.06867997283017" lon="12.717027650075268"><ele>97.0</ele><time>2026-03-24T14:09:01.001Z</time></trkpt><trkpt lat="42.06885129453249" lon="12.717049959158404"><ele>97.0</ele><time>2026-03-24T14:09:02.001Z</time></trkpt><trkpt lat="42.069015500957924" lon="12.717075105926948"><ele>97.0</ele><time>2026-03-24T14:09:03.001Z</time></trkpt><trkpt lat="42.069205858852094" lon="12.717096096684221"><ele>96.33333333333334</ele><time>2026-03-24T14:09:04.001Z</time></trkpt><trkpt lat="42.06939396907647" lon="12.717103523953206"><ele>95.66666666666667</ele><time>2026-03-24T14:09:05.001Z</time></trkpt><trkpt lat="42.0695567156113" lon="12.717142623153396"><ele>95.0</ele><time>2026-03-24T14:09:06.001Z</time></trkpt><trkpt lat="42.06971505675867" lon="12.717196877850547"><ele>95.0</ele><time>2026-03-24T14:09:07.001Z</time></trkpt><trkpt lat="42.06988179588629" lon="12.717253896298388"><ele>95.0</ele><time>2026-03-24T14:09:08.001Z</time></trkpt><trkpt lat="42.07003775857798" lon="12.717346212194862"><ele>95.0</ele><time>2026-03-24T14:09:09.001Z</time></trkpt><trkpt lat="42.07019976350161" lon="12.71743127659902"><ele>94.66666666666667</ele><time>2026-03-24T14:09:10.001Z</time></trkpt><trkpt lat="42.07037387920993" lon="12.717513194868761"><ele>94.33333333333333</ele><time>2026-03-24T14:09:11.001Z</time></trkpt><trkpt lat="42.07054597677379" lon="12.717653039035048"><ele>94.0</ele><time>2026-03-24T14:09:12.001Z</time></trkpt><trkpt lat="42.070700083737684" lon="12.717773902850654"><ele>93.0</ele><time>2026-03-24T14:09:13.001Z</time></trkpt><trkpt lat="42.07087696061721" lon="12.717922865700533"><ele>92.0</ele><time>2026-03-24T14:09:14.001Z</time></trkpt><trkpt lat="42.07105093923372" lon="12.718105126746844"><ele>91.0</ele><time>2026-03-24T14:09:15.001Z</time></trkpt><trkpt lat="42.071215267378136" lon="12.718288739678341"><ele>91.0</ele><time>2026-03-24T14:09:16.001Z</time></trkpt><trkpt lat="42.07136837810487" lon="12.718464931747778"><ele>91.0</ele><time>2026-03-24T14:09:17.001Z</time></trkpt><trkpt lat="42.07150515565325" lon="12.718630210996036"><ele>91.0</ele><time>2026-03-24T14:09:18.001Z</time></trkpt><trkpt lat="42.0716307166033" lon="12.718784108415942"><ele>90.66666666666666</ele><time>2026-03-24T14:09:19.001Z</time></trkpt><trkpt lat="42.07175527005359" lon="12.718936374798158"><ele>90.33333333333333</ele><time>2026-03-24T14:09:20.001Z</time></trkpt><trkpt lat="42.07187658937631" lon="12.719083535817395"><ele>90.0</ele><time>2026-03-24T14:09:21.001Z</time></trkpt><trkpt lat="42.071991867136475" lon="12.719223365743"><ele>90.0</ele><time>2026-03-24T14:09:22.001Z</time></trkpt><trkpt lat="42.072109335709314" lon="12.719358387843277"><ele>90.0</ele><time>2026-03-24T14:09:23.001Z</time></trkpt><trkpt lat="42.0722338523193" lon="12.719466778758378"><ele>90.0</ele><time>2026-03-24T14:09:24.001Z</time></trkpt><trkpt lat="42.07235095896125" lon="12.719585099587059"><ele>90.0</ele><time>2026-03-24T14:09:25.001Z</time></trkpt><trkpt lat="42.07247590193792" lon="12.719703958362063"><ele>90.66666666666667</ele><time>2026-03-24T14:09:26.001Z</time></trkpt><trkpt lat="42.07261647524319" lon="12.719823765496601"><ele>91.33333333333334</ele><time>2026-03-24T14:09:27.001Z</time></trkpt><trkpt lat="42.07277761343874" lon="12.719941977926528"><ele>92.0</ele><time>2026-03-24T14:09:28.001Z</time></trkpt><trkpt lat="42.072939557135" lon="12.720055390603397"><ele>92.0</ele><time>2026-03-24T14:09:29.001Z</time></trkpt><trkpt lat="42.073088527553544" lon="12.72016261157193"><ele>92.0</ele><time>2026-03-24T14:09:30.001Z</time></trkpt><trkpt lat="42.07325508904612" lon="12.720304145071571"><ele>92.0</ele><time>2026-03-24T14:09:31.001Z</time></trkpt><trkpt lat="42.07344188407953" lon="12.720441585337298"><ele>93.5</ele><time>2026-03-24T14:09:32.001Z</time></trkpt><trkpt lat="42.073677380258026" lon="12.720614274753341"><ele>95.0</ele><time>2026-03-24T14:09:33.001Z</time></trkpt><trkpt lat="42.07393502923416" lon="12.720803209186764"><ele>95.0</ele><time>2026-03-24T14:09:34.001Z</time></trkpt><trkpt lat="42.074198130018345" lon="12.720996141580033"><ele>95.0</ele><time>2026-03-24T14:09:35.001Z</time></trkpt><trkpt lat="42.0744703302667" lon="12.72119415864481"><ele>95.0</ele><time>2026-03-24T14:09:36.001Z</time></trkpt><trkpt lat="42.07472359904329" lon="12.721362870700021"><ele>95.0</ele><time>2026-03-24T14:09:37.001Z</time></trkpt><trkpt lat="42.07493474048554" lon="12.721528596774315"><ele>95.5</ele><time>2026-03-24T14:09:38.001Z</time></trkpt><trkpt lat="42.07513546231628" lon="12.721678356243105"><ele>96.0</ele><time>2026-03-24T14:09:39.001Z</time></trkpt><trkpt lat="42.0753281322445" lon="12.721824989425444"><ele>97.0</ele><time>2026-03-24T14:09:40.001Z</time></trkpt><trkpt lat="42.075526145699534" lon="12.721972492293522"><ele>98.0</ele><time>2026-03-24T14:09:41.001Z</time></trkpt><trkpt lat="42.075716915385215" lon="12.722107838179872"><ele>99.0</ele><time>2026-03-24T14:09:42.001Z</time></trkpt><trkpt lat="42.07590764592382" lon="12.722244077637768"><ele>99.0</ele><time>2026-03-24T14:09:43.001Z</time></trkpt><trkpt lat="42.076105835997666" lon="12.722391373153545"><ele>99.0</ele><time>2026-03-24T14:09:44.001Z</time></trkpt><trkpt lat="42.07630406181151" lon="12.722528446334863"><ele>99.0</ele><time>2026-03-24T14:09:45.001Z</time></trkpt><trkpt lat="42.07648773944798" lon="12.722666063178485"><ele>99.33333333333334</ele><time>2026-03-24T14:09:46.001Z</time></trkpt><trkpt lat="42.076681914800886" lon="12.722807685132011"><ele>99.66666666666667</ele><time>2026-03-24T14:09:47.001Z</time></trkpt><trkpt lat="42.076876284199344" lon="12.722953313425126"><ele>100.0</ele><time>2026-03-24T14:09:48.001Z</time></trkpt><trkpt lat="42.077083402869135" lon="12.72311289797444"><ele>100.0</ele><time>2026-03-24T14:09:49.001Z</time></trkpt><trkpt lat="42.077296800415155" lon="12.723267346032406"><ele>100.0</ele><time>2026-03-24T14:09:50.001Z</time></trkpt><trkpt lat="42.07751157380013" lon="12.723419146123046"><ele>100.66666666666667</ele><time>2026-03-24T14:09:51.001Z</time></trkpt><trkpt lat="42.07770951162201" lon="12.723563846281873"><ele>101.33333333333334</ele><time>2026-03-24T14:09:52.001Z</time></trkpt><trkpt lat="42.07788871351722" lon="12.723698602681694"><ele>102.0</ele><time>2026-03-24T14:09:53.001Z</time></trkpt><trkpt lat="42.07806540600527" lon="12.723824565488655"><ele>102.0</ele><time>2026-03-24T14:09:54.001Z</time></trkpt><trkpt lat="42.07823535490562" lon="12.723951313027971"><ele>102.0</ele><time>2026-03-24T14:09:55.001Z</time></trkpt><trkpt lat="42.078416268637454" lon="12.72408462846521"><ele>102.0</ele><time>2026-03-24T14:09:56.001Z</time></trkpt><trkpt lat="42.07860297323278" lon="12.724220222123567"><ele>102.33333333333334</ele><time>2026-03-24T14:09:57.001Z</time></trkpt><trkpt lat="42.07876984261443" lon="12.724334917740624"><ele>102.66666666666667</ele><time>2026-03-24T14:09:58.001Z</time></trkpt><trkpt lat="42.07893833276333" lon="12.724451547608703"><ele>103.0</ele><time>2026-03-24T14:09:59.001Z</time></trkpt><trkpt lat="42.07911238036905" lon="12.724577124051935"><ele>104.33333333333334</ele><time>2026-03-24T14:10:00.001Z</time></trkpt><trkpt lat="42.07928779565521" lon="12.72471016032105"><ele>105.66666666666666</ele><time>2026-03-24T14:10:01.002Z</time></trkpt><trkpt lat="42.07948712758305" lon="12.724855409884636"><ele>107.0</ele><time>2026-03-24T14:10:02.002Z</time></trkpt><trkpt lat="42.07966300397757" lon="12.724991879684412"><ele>107.0</ele><time>2026-03-24T14:10:03.002Z</time></trkpt><trkpt lat="42.079825536651576" lon="12.725109315999028"><ele>107.0</ele><time>2026-03-24T14:10:04.002Z</time></trkpt><trkpt lat="42.07998851728374" lon="12.725226104832636"><ele>107.0</ele><time>2026-03-24T14:10:05.002Z</time></trkpt><trkpt lat="42.080139195233116" lon="12.725331167342521"><ele>108.0</ele><time>2026-03-24T14:10:06.002Z</time></trkpt><trkpt lat="42.08030196446069" lon="12.725451851706275"><ele>109.0</ele><time>2026-03-24T14:10:07.001Z</time></trkpt><trkpt lat="42.08046246456884" lon="12.725570473130315"><ele>110.0</ele><time>2026-03-24T14:10:08.001Z</time></trkpt><trkpt lat="42.0806231125557" lon="12.725684071722961"><ele>111.0</ele><time>2026-03-24T14:10:09.001Z</time></trkpt><trkpt lat="42.08079248684834" lon="12.725806169302606"><ele>112.0</ele><time>2026-03-24T14:10:10.001Z</time></trkpt><trkpt lat="42.08095352806912" lon="12.725919441674035"><ele>113.0</ele><time>2026-03-24T14:10:11.001Z</time></trkpt><trkpt lat="42.081099209483774" lon="12.726027073283559"><ele>112.5</ele><time>2026-03-24T14:10:12.001Z</time></trkpt><trkpt lat="42.0812260797264" lon="12.726121541641204"><ele>112.0</ele><time>2026-03-24T14:10:13.001Z</time></trkpt><trkpt lat="42.08134630712668" lon="12.726210219376307"><ele>111.5</ele><time>2026-03-24T14:10:14.001Z</time></trkpt><trkpt lat="42.08144791762841" lon="12.726288983563345"><ele>111.0</ele><time>2026-03-24T14:10:15.001Z</time></trkpt><trkpt lat="42.08154553948007" lon="12.726366111464676"><ele>111.4</ele><time>2026-03-24T14:10:16.001Z</time></trkpt><trkpt lat="42.08163012885561" lon="12.726449125936721"><ele>111.8</ele><time>2026-03-24T14:10:17.001Z</time></trkpt><trkpt lat="42.081691830714924" lon="12.726565740671653"><ele>112.20000000000002</ele><time>2026-03-24T14:10:18.001Z</time></trkpt><trkpt lat="42.08174772471736" lon="12.72668326389566"><ele>112.60000000000001</ele><time>2026-03-24T14:10:19.001Z</time></trkpt><trkpt lat="42.08177530777579" lon="12.726811319849553"><ele>113.0</ele><time>2026-03-24T14:10:20.001Z</time></trkpt><trkpt lat="42.08178391184039" lon="12.726969759695168"><ele>113.25</ele><time>2026-03-24T14:10:21.001Z</time></trkpt><trkpt lat="42.08176798219555" lon="12.727139540468158"><ele>113.5</ele><time>2026-03-24T14:10:22.001Z</time></trkpt><trkpt lat="42.08173449526463" lon="12.7273213603457"><ele>113.75</ele><time>2026-03-24T14:10:23.001Z</time></trkpt><trkpt lat="42.0816946831116" lon="12.727540678453906"><ele>114.0</ele><time>2026-03-24T14:10:24.001Z</time></trkpt><trkpt lat="42.08165705658286" lon="12.727818967813741"><ele>113.0</ele><time>2026-03-24T14:10:25.001Z</time></trkpt><trkpt lat="42.08162848335691" lon="12.728093550658128"><ele>112.0</ele><time>2026-03-24T14:10:26.001Z</time></trkpt><trkpt lat="42.08158016347504" lon="12.728353003066932"><ele>111.0</ele><time>2026-03-24T14:10:27.001Z</time></trkpt><trkpt lat="42.08157174447286" lon="12.728591663149944"><ele>109.33333333333334</ele><time>2026-03-24T14:10:28.001Z</time></trkpt><trkpt lat="42.081564430104855" lon="12.728825568897019"><ele>107.66666666666667</ele><time>2026-03-24T14:10:29.001Z</time></trkpt><trkpt lat="42.081556356042526" lon="12.729083768862317"><ele>106.0</ele><time>2026-03-24T14:10:30.001Z</time></trkpt><trkpt lat="42.08154048167173" lon="12.729362415551716"><ele>108.33333333333334</ele><time>2026-03-24T14:10:31.001Z</time></trkpt><trkpt lat="42.08150315615403" lon="12.729609468126142"><ele>110.66666666666666</ele><time>2026-03-24T14:10:32.001Z</time></trkpt><trkpt lat="42.0814451254477" lon="12.729819170620646"><ele>113.0</ele><time>2026-03-24T14:10:33.001Z</time></trkpt><trkpt lat="42.08136289233845" lon="12.730009956404873"><ele>113.0</ele><time>2026-03-24T14:10:34.001Z</time></trkpt><trkpt lat="42.081255351774914" lon="12.730224810656708"><ele>113.0</ele><time>2026-03-24T14:10:35.001Z</time></trkpt><trkpt lat="42.08114170802451" lon="12.730435952887836"><ele>113.0</ele><time>2026-03-24T14:10:36.001Z</time></trkpt><trkpt lat="42.0810357051225" lon="12.730640738871774"><ele>114.33333333333333</ele><time>2026-03-24T14:10:37.001Z</time></trkpt><trkpt lat="42.080951937262" lon="12.730838421837317"><ele>115.66666666666666</ele><time>2026-03-24T14:10:38.001Z</time></trkpt><trkpt lat="42.0808858381367" lon="12.731057348630245"><ele>117.0</ele><time>2026-03-24T14:10:39.001Z</time></trkpt><trkpt lat="42.08082916624672" lon="12.731295961284232"><ele>118.33333333333334</ele><time>2026-03-24T14:10:40.001Z</time></trkpt><trkpt lat="42.08078738880509" lon="12.731541439244877"><ele>119.66666666666667</ele><time>2026-03-24T14:10:41.001Z</time></trkpt><trkpt lat="42.080782440525816" lon="12.731772780423888"><ele>121.0</ele><time>2026-03-24T14:10:42.001Z</time></trkpt><trkpt lat="42.0807925702578" lon="12.731996202463677"><ele>122.0</ele><time>2026-03-24T14:10:43.001Z</time></trkpt><trkpt lat="42.08081327581249" lon="12.732244403103651"><ele>123.0</ele><time>2026-03-24T14:10:44.001Z</time></trkpt><trkpt lat="42.080853001925256" lon="12.73248890769691"><ele>124.0</ele><time>2026-03-24T14:10:45.001Z</time></trkpt><trkpt lat="42.080901083595506" lon="12.732740656954768"><ele>124.33333333333334</ele><time>2026-03-24T14:10:46.001Z</time></trkpt><trkpt lat="42.08094421505609" lon="12.73295815291689"><ele>124.66666666666666</ele><time>2026-03-24T14:10:47.001Z</time></trkpt><trkpt lat="42.08098740973734" lon="12.73315433629652"><ele>125.0</ele><time>2026-03-24T14:10:48.001Z</time></trkpt><trkpt lat="42.081032170494986" lon="12.73333755399405"><ele>125.0</ele><time>2026-03-24T14:10:49.001Z</time></trkpt><trkpt lat="42.081089072642214" lon="12.73352218857959"><ele>125.0</ele><time>2026-03-24T14:10:50.001Z</time></trkpt><trkpt lat="42.08117661266814" lon="12.733692091929681"><ele>125.0</ele><time>2026-03-24T14:10:51.001Z</time></trkpt><trkpt lat="42.08127419299851" lon="12.733890882000129"><ele>126.66666666666666</ele><time>2026-03-24T14:10:52.001Z</time></trkpt><trkpt lat="42.08139682450838" lon="12.734102452396169"><ele>128.33333333333334</ele><time>2026-03-24T14:10:53.001Z</time></trkpt><trkpt lat="42.08153535969733" lon="12.734314951605015"><ele>130.0</ele><time>2026-03-24T14:10:54.001Z</time></trkpt><trkpt lat="42.08169382601655" lon="12.73454783270237"><ele>132.0</ele><time>2026-03-24T14:10:55.001Z</time></trkpt><trkpt lat="42.081841184428185" lon="12.734747900258368"><ele>134.0</ele><time>2026-03-24T14:10:56.001Z</time></trkpt><trkpt lat="42.08194019318979" lon="12.734929604795571"><ele>136.0</ele><time>2026-03-24T14:10:57.001Z</time></trkpt><trkpt lat="42.08204010980622" lon="12.73510335483869"><ele>138.33333333333334</ele><time>2026-03-24T14:10:58.001Z</time></trkpt><trkpt lat="42.082134515854214" lon="12.735289131150394"><ele>140.66666666666666</ele><time>2026-03-24T14:10:59.001Z</time></trkpt><trkpt lat="42.08221189177036" lon="12.735469887032417"><ele>143.0</ele><time>2026-03-24T14:11:00.001Z</time></trkpt><trkpt lat="42.08225681099326" lon="12.735635956935452"><ele>143.0</ele><time>2026-03-24T14:11:01.001Z</time></trkpt><trkpt lat="42.082280991994004" lon="12.735814370883555"><ele>143.0</ele><time>2026-03-24T14:11:02.001Z</time></trkpt><trkpt lat="42.082281412977956" lon="12.736005474050316"><ele>143.0</ele><time>2026-03-24T14:11:03.001Z</time></trkpt><trkpt lat="42.082263190190474" lon="12.736222852630336"><ele>143.0</ele><time>2026-03-24T14:11:04.001Z</time></trkpt><trkpt lat="42.08223230031448" lon="12.736477428739923"><ele>145.0</ele><time>2026-03-24T14:11:05.001Z</time></trkpt><trkpt lat="42.082189838345094" lon="12.736746643156192"><ele>147.0</ele><time>2026-03-24T14:11:06.001Z</time></trkpt><trkpt lat="42.0821325446806" lon="12.737027439407516"><ele>149.0</ele><time>2026-03-24T14:11:07.001Z</time></trkpt><trkpt lat="42.082077395305845" lon="12.737293162701457"><ele>152.66666666666666</ele><time>2026-03-24T14:11:08.001Z</time></trkpt><trkpt lat="42.082031779124925" lon="12.737517149123613"><ele>156.33333333333334</ele><time>2026-03-24T14:11:09.001Z</time></trkpt><trkpt lat="42.08199493648168" lon="12.737712905554343"><ele>160.0</ele><time>2026-03-24T14:11:10.001Z</time></trkpt><trkpt lat="42.08196781967697" lon="12.737896426336368"><ele>162.25</ele><time>2026-03-24T14:11:11.001Z</time></trkpt><trkpt lat="42.0819838852938" lon="12.738087657643318"><ele>164.5</ele><time>2026-03-24T14:11:12.001Z</time></trkpt><trkpt lat="42.081979257976236" lon="12.738297413520147"><ele>166.75</ele><time>2026-03-24T14:11:13.001Z</time></trkpt><trkpt lat="42.08195639732425" lon="12.738485547208068"><ele>169.0</ele><time>2026-03-24T14:11:14.001Z</time></trkpt><trkpt lat="42.081906675002585" lon="12.738641524140442"><ele>170.0</ele><time>2026-03-24T14:11:15.001Z</time></trkpt><trkpt lat="42.081840502148246" lon="12.73880883436831"><ele>171.0</ele><time>2026-03-24T14:11:16.001Z</time></trkpt><trkpt lat="42.08175479122006" lon="12.738990112839282"><ele>172.0</ele><time>2026-03-24T14:11:17.001Z</time></trkpt><trkpt lat="42.0816569258667" lon="12.739180210647591"><ele>170.75</ele><time>2026-03-24T14:11:18.001Z</time></trkpt><trkpt lat="42.08157209287269" lon="12.739348079604726"><ele>169.5</ele><time>2026-03-24T14:11:19.001Z</time></trkpt><trkpt lat="42.08150146054078" lon="12.73951023511907"><ele>168.25</ele><time>2026-03-24T14:11:20.001Z</time></trkpt><trkpt lat="42.08144864530468" lon="12.739670660515856"><ele>167.0</ele><time>2026-03-24T14:11:21.001Z</time></trkpt><trkpt lat="42.081403957586154" lon="12.739809576330638"><ele>166.6</ele><time>2026-03-24T14:11:22.001Z</time></trkpt><trkpt lat="42.081373036310175" lon="12.739931233630507"><ele>166.2</ele><time>2026-03-24T14:11:23.001Z</time></trkpt><trkpt lat="42.081346451058266" lon="12.74002959184037"><ele>165.8</ele><time>2026-03-24T14:11:24.001Z</time></trkpt><trkpt lat="42.081323570300945" lon="12.740114244423268"><ele>165.4</ele><time>2026-03-24T14:11:25.001Z</time></trkpt><trkpt lat="42.08139604223078" lon="12.740259120186606"><ele>165.0</ele><time>2026-03-24T14:11:26.001Z</time></trkpt><trkpt lat="42.08144481639168" lon="12.740370296581396"><ele>166.25</ele><time>2026-03-24T14:11:27.001Z</time></trkpt><trkpt lat="42.081506695054316" lon="12.740516398036291"><ele>167.5</ele><time>2026-03-24T14:11:28.001Z</time></trkpt><trkpt lat="42.08159645203975" lon="12.740729483707822"><ele>168.75</ele><time>2026-03-24T14:11:29.001Z</time></trkpt><trkpt lat="42.08166243214645" lon="12.740884847431747"><ele>170.0</ele><time>2026-03-24T14:11:30.001Z</time></trkpt><trkpt lat="42.08172720119672" lon="12.741035763224621"><ele>172.5</ele><time>2026-03-24T14:11:31.001Z</time></trkpt><trkpt lat="42.08178900130037" lon="12.741182381765446"><ele>175.0</ele><time>2026-03-24T14:11:32.001Z</time></trkpt><trkpt lat="42.081846702048736" lon="12.741337888120427"><ele>177.5</ele><time>2026-03-24T14:11:33.001Z</time></trkpt><trkpt lat="42.08189754996519" lon="12.741487391783936"><ele>180.0</ele><time>2026-03-24T14:11:34.001Z</time></trkpt><trkpt lat="42.081940256034414" lon="12.741636194879854"><ele>180.0</ele><time>2026-03-24T14:11:35.001Z</time></trkpt><trkpt lat="42.08197346872371" lon="12.741779015664587"><ele>180.0</ele><time>2026-03-24T14:11:36.001Z</time></trkpt><trkpt lat="42.08199068215927" lon="12.741938994915289"><ele>180.0</ele><time>2026-03-24T14:11:37.001Z</time></trkpt><trkpt lat="42.08199786971976" lon="12.74206387878237"><ele>180.0</ele><time>2026-03-24T14:11:38.001Z</time></trkpt><trkpt lat="42.08199037482651" lon="12.742209186013561"><ele>180.0</ele><time>2026-03-24T14:11:39.001Z</time></trkpt><trkpt lat="42.08196991481209" lon="12.742361406282194"><ele>180.75</ele><time>2026-03-24T14:11:40.001Z</time></trkpt><trkpt lat="42.081941927782374" lon="12.742513388076452"><ele>181.5</ele><time>2026-03-24T14:11:41.001Z</time></trkpt><trkpt lat="42.081913983102126" lon="12.742666589751662"><ele>182.25</ele><time>2026-03-24T14:11:42.001Z</time></trkpt><trkpt lat="42.0818828469491" lon="12.742833758305961"><ele>183.0</ele><time>2026-03-24T14:11:43.001Z</time></trkpt><trkpt lat="42.08185294123133" lon="12.742991744819308"><ele>183.0</ele><time>2026-03-24T14:11:44.001Z</time></trkpt><trkpt lat="42.08182259084581" lon="12.74315208043011"><ele>183.0</ele><time>2026-03-24T14:11:45.001Z</time></trkpt><trkpt lat="42.08179186165309" lon="12.743314417212423"><ele>183.0</ele><time>2026-03-24T14:11:46.001Z</time></trkpt><trkpt lat="42.08176067384207" lon="12.743470717947801"><ele>183.0</ele><time>2026-03-24T14:11:47.001Z</time></trkpt><trkpt lat="42.08172864984919" lon="12.743634675564978"><ele>183.0</ele><time>2026-03-24T14:11:48.001Z</time></trkpt><trkpt lat="42.08170416268496" lon="12.743793537831067"><ele>183.0</ele><time>2026-03-24T14:11:49.001Z</time></trkpt><trkpt lat="42.0816960221858" lon="12.743945354615034"><ele>183.0</ele><time>2026-03-24T14:11:50.001Z</time></trkpt><trkpt lat="42.08169673639469" lon="12.74411273149018"><ele>183.0</ele><time>2026-03-24T14:11:51.001Z</time></trkpt><trkpt lat="42.08170087209623" lon="12.744302751832665"><ele>183.0</ele><time>2026-03-24T14:11:52.001Z</time></trkpt><trkpt lat="42.08170808722803" lon="12.744479656139726"><ele>183.0</ele><time>2026-03-24T14:11:53.001Z</time></trkpt><trkpt lat="42.081717298498006" lon="12.744648069726562"><ele>183.0</ele><time>2026-03-24T14:11:54.001Z</time></trkpt><trkpt lat="42.081728031441855" lon="12.744822092448553"><ele>183.0</ele><time>2026-03-24T14:11:55.001Z</time></trkpt><trkpt lat="42.08173174505035" lon="12.744991913314218"><ele>183.0</ele><time>2026-03-24T14:11:56.001Z</time></trkpt><trkpt lat="42.081730446186995" lon="12.745140458519598"><ele>183.0</ele><time>2026-03-24T14:11:57.001Z</time></trkpt><trkpt lat="42.08172733199829" lon="12.745284133511806"><ele>183.0</ele><time>2026-03-24T14:11:58.001Z</time></trkpt><trkpt lat="42.08172434984394" lon="12.7454113864582"><ele>183.0</ele><time>2026-03-24T14:11:59.001Z</time></trkpt><trkpt lat="42.08172682204445" lon="12.745563730799585"><ele>183.0</ele><time>2026-03-24T14:12:00.001Z</time></trkpt><trkpt lat="42.08173677846172" lon="12.745703629590945"><ele>183.0</ele><time>2026-03-24T14:12:01.001Z</time></trkpt><trkpt lat="42.08175962187614" lon="12.745845704316569"><ele>183.0</ele><time>2026-03-24T14:12:02.001Z</time></trkpt><trkpt lat="42.081789165085866" lon="12.745973415438051"><ele>183.0</ele><time>2026-03-24T14:12:03.001Z</time></trkpt><trkpt lat="42.08182547884542" lon="12.746107161292867"><ele>183.0</ele><time>2026-03-24T14:12:04.002Z</time></trkpt><trkpt lat="42.08187846993051" lon="12.746249104458121"><ele>183.0</ele><time>2026-03-24T14:12:05.002Z</time></trkpt><trkpt lat="42.08193527854518" lon="12.746385334782998"><ele>182.5</ele><time>2026-03-24T14:12:06.002Z</time></trkpt><trkpt lat="42.08199609434999" lon="12.746531467258507"><ele>182.0</ele><time>2026-03-24T14:12:07.002Z</time></trkpt><trkpt lat="42.082054583784455" lon="12.74666920575693"><ele>181.5</ele><time>2026-03-24T14:12:08.002Z</time></trkpt><trkpt lat="42.08211748475292" lon="12.746817333112617"><ele>181.0</ele><time>2026-03-24T14:12:09.002Z</time></trkpt><trkpt lat="42.08219720303916" lon="12.746999949348352"><ele>183.0</ele><time>2026-03-24T14:12:10.002Z</time></trkpt><trkpt lat="42.0822647774057" lon="12.747177235547555"><ele>185.0</ele><time>2026-03-24T14:12:11.002Z</time></trkpt><trkpt lat="42.08232172726447" lon="12.747339457467103"><ele>187.0</ele><time>2026-03-24T14:12:12.001Z</time></trkpt><trkpt lat="42.0823746942606" lon="12.747489039527931"><ele>189.0</ele><time>2026-03-24T14:12:13.001Z</time></trkpt><trkpt lat="42.08242695712574" lon="12.747618790477816"><ele>191.0</ele><time>2026-03-24T14:12:14.001Z</time></trkpt><trkpt lat="42.08249029290186" lon="12.747711322432396"><ele>193.0</ele><time>2026-03-24T14:12:15.001Z</time></trkpt><trkpt lat="42.082548843596925" lon="12.747804123424482"><ele>195.0</ele><time>2026-03-24T14:12:16.001Z</time></trkpt><trkpt lat="42.082639553215934" lon="12.747876074900185"><ele>197.0</ele><time>2026-03-24T14:12:17.001Z</time></trkpt><trkpt lat="42.082744662462275" lon="12.747921051295204"><ele>199.0</ele><time>2026-03-24T14:12:18.001Z</time></trkpt><trkpt lat="42.0828724604902" lon="12.747932107734941"><ele>199.0</ele><time>2026-03-24T14:12:19.001Z</time></trkpt><trkpt lat="42.08300072949798" lon="12.74794799258249"><ele>199.0</ele><time>2026-03-24T14:12:20.001Z</time></trkpt><trkpt lat="42.08311400143844" lon="12.747982817542248"><ele>199.0</ele><time>2026-03-24T14:12:21.001Z</time></trkpt><trkpt lat="42.08321187453895" lon="12.748050204760546"><ele>199.0</ele><time>2026-03-24T14:12:22.001Z</time></trkpt><trkpt lat="42.0833256696552" lon="12.748151891632236"><ele>200.0</ele><time>2026-03-24T14:12:23.001Z</time></trkpt><trkpt lat="42.083472604832465" lon="12.748286457718612"><ele>201.0</ele><time>2026-03-24T14:12:24.001Z</time></trkpt><trkpt lat="42.08360341555487" lon="12.748441543122317"><ele>202.0</ele><time>2026-03-24T14:12:25.001Z</time></trkpt><trkpt lat="42.08372045385343" lon="12.748538580077186"><ele>205.66666666666666</ele><time>2026-03-24T14:12:26.001Z</time></trkpt><trkpt lat="42.08383554968968" lon="12.748681165556437"><ele>209.33333333333331</ele><time>2026-03-24T14:12:27.001Z</time></trkpt><trkpt lat="42.08396541470529" lon="12.748820117489059"><ele>213.0</ele><time>2026-03-24T14:12:28.001Z</time></trkpt><trkpt lat="42.08407048895916" lon="12.748938258504465"><ele>211.5</ele><time>2026-03-24T14:12:29.001Z</time></trkpt><trkpt lat="42.084171548969096" lon="12.749033331012702"><ele>210.0</ele><time>2026-03-24T14:12:30.001Z</time></trkpt><trkpt lat="42.08428681295685" lon="12.7490905415311"><ele>208.5</ele><time>2026-03-24T14:12:31.001Z</time></trkpt><trkpt lat="42.08441383399754" lon="12.749116709485346"><ele>207.0</ele><time>2026-03-24T14:12:32.001Z</time></trkpt><trkpt lat="42.08453506908037" lon="12.74914212414496"><ele>207.0</ele><time>2026-03-24T14:12:33.001Z</time></trkpt><trkpt lat="42.08461718093419" lon="12.74920874289521"><ele>207.0</ele><time>2026-03-24T14:12:34.001Z</time></trkpt><trkpt lat="42.08467475739332" lon="12.749285517045893"><ele>207.0</ele><time>2026-03-24T14:12:35.001Z</time></trkpt><trkpt lat="42.08471113853631" lon="12.749380656227789"><ele>207.0</ele><time>2026-03-24T14:12:36.001Z</time></trkpt><trkpt lat="42.084721905272445" lon="12.74948830697027"><ele>207.0</ele><time>2026-03-24T14:12:37.001Z</time></trkpt><trkpt lat="42.084716099994274" lon="12.749618428467926"><ele>207.0</ele><time>2026-03-24T14:12:38.001Z</time></trkpt><trkpt lat="42.08471147714267" lon="12.749750952960891"><ele>208.75</ele><time>2026-03-24T14:12:39.001Z</time></trkpt><trkpt lat="42.08470712258567" lon="12.749935485294394"><ele>210.5</ele><time>2026-03-24T14:12:40.001Z</time></trkpt><trkpt lat="42.08469904190564" lon="12.750126314800635"><ele>212.25</ele><time>2026-03-24T14:12:41.001Z</time></trkpt><trkpt lat="42.084685182031144" lon="12.75030591172079"><ele>214.0</ele><time>2026-03-24T14:12:42.001Z</time></trkpt><trkpt lat="42.0846672385601" lon="12.750468021645258"><ele>214.39999999999998</ele><time>2026-03-24T14:12:43.001Z</time></trkpt><trkpt lat="42.084649554616796" lon="12.750623084013634"><ele>214.79999999999998</ele><time>2026-03-24T14:12:44.001Z</time></trkpt><trkpt lat="42.0846334631976" lon="12.750774756956098"><ele>215.20000000000002</ele><time>2026-03-24T14:12:45.001Z</time></trkpt><trkpt lat="42.084620803779316" lon="12.750928174140869"><ele>215.60000000000002</ele><time>2026-03-24T14:12:46.001Z</time></trkpt><trkpt lat="42.08462422599815" lon="12.751046881267527"><ele>216.0</ele><time>2026-03-24T14:12:47.001Z</time></trkpt><trkpt lat="42.08465054181633" lon="12.75116503136838"><ele>216.60000000000002</ele><time>2026-03-24T14:12:48.001Z</time></trkpt><trkpt lat="42.0846780523131" lon="12.751293575437838"><ele>217.20000000000002</ele><time>2026-03-24T14:12:49.001Z</time></trkpt><trkpt lat="42.08471549677992" lon="12.751420123313995"><ele>217.79999999999998</ele><time>2026-03-24T14:12:50.001Z</time></trkpt><trkpt lat="42.084762652164926" lon="12.751535746667747"><ele>218.39999999999998</ele><time>2026-03-24T14:12:51.001Z</time></trkpt><trkpt lat="42.08481479538923" lon="12.751635421346322"><ele>219.0</ele><time>2026-03-24T14:12:52.001Z</time></trkpt><trkpt lat="42.084863333490055" lon="12.751739840983403"><ele>219.0</ele><time>2026-03-24T14:12:53.001Z</time></trkpt><trkpt lat="42.08489612725952" lon="12.751862691259872"><ele>219.0</ele><time>2026-03-24T14:12:54.001Z</time></trkpt><trkpt lat="42.08492730164593" lon="12.751962998773264"><ele>219.0</ele><time>2026-03-24T14:12:55.001Z</time></trkpt><trkpt lat="42.084966083093974" lon="12.752056503297414"><ele>219.0</ele><time>2026-03-24T14:12:56.001Z</time></trkpt><trkpt lat="42.08496795667138" lon="12.752173544121582"><ele>219.0</ele><time>2026-03-24T14:12:57.001Z</time></trkpt><trkpt lat="42.0849710975176" lon="12.752274081692592"><ele>219.0</ele><time>2026-03-24T14:12:58.001Z</time></trkpt><trkpt lat="42.08494943735216" lon="12.752389088972823"><ele>219.0</ele><time>2026-03-24T14:12:59.001Z</time></trkpt><trkpt lat="42.08494135555947" lon="12.752500863565066"><ele>218.99999999999997</ele><time>2026-03-24T14:13:00.001Z</time></trkpt><trkpt lat="42.08487242898276" lon="12.752583873412068"><ele>218.99999999999997</ele><time>2026-03-24T14:13:01.001Z</time></trkpt><trkpt lat="42.08482331237971" lon="12.752691328531963"><ele>219.0</ele><time>2026-03-24T14:13:02.001Z</time></trkpt><trkpt lat="42.08477148533451" lon="12.752799242379176"><ele>219.0</ele><time>2026-03-24T14:13:03.001Z</time></trkpt><trkpt lat="42.08471436064442" lon="12.752917675510126"><ele>218.39999999999998</ele><time>2026-03-24T14:13:04.001Z</time></trkpt><trkpt lat="42.0846595497961" lon="12.753030602381497"><ele>217.79999999999998</ele><time>2026-03-24T14:13:05.001Z</time></trkpt><trkpt lat="42.08460766771954" lon="12.753137495097922"><ele>217.20000000000002</ele><time>2026-03-24T14:13:06.001Z</time></trkpt><trkpt lat="42.08456083131333" lon="12.753232662024436"><ele>216.60000000000002</ele><time>2026-03-24T14:13:07.001Z</time></trkpt><trkpt lat="42.0845088265604" lon="12.753337970170747"><ele>216.0</ele><time>2026-03-24T14:13:08.001Z</time></trkpt><trkpt lat="42.08446135487273" lon="12.75343409898847"><ele>216.0</ele><time>2026-03-24T14:13:09.001Z</time></trkpt><trkpt lat="42.08441647382567" lon="12.753525509986689"><ele>216.0</ele><time>2026-03-24T14:13:10.001Z</time></trkpt><trkpt lat="42.08436919173672" lon="12.753625596863086"><ele>216.0</ele><time>2026-03-24T14:13:11.001Z</time></trkpt><trkpt lat="42.08432131763463" lon="12.753733899838313"><ele>216.0</ele><time>2026-03-24T14:13:12.001Z</time></trkpt><trkpt lat="42.084274417799264" lon="12.75384871425171"><ele>216.0</ele><time>2026-03-24T14:13:13.001Z</time></trkpt><trkpt lat="42.084236852539576" lon="12.753956653302879"><ele>216.0</ele><time>2026-03-24T14:13:14.001Z</time></trkpt><trkpt lat="42.08420964818512" lon="12.754071054633702"><ele>214.8</ele><time>2026-03-24T14:13:15.001Z</time></trkpt><trkpt lat="42.08419334499791" lon="12.754187007653478"><ele>213.60000000000002</ele><time>2026-03-24T14:13:16.001Z</time></trkpt><trkpt lat="42.0841872430682" lon="12.754324665313538"><ele>212.4</ele><time>2026-03-24T14:13:17.001Z</time></trkpt><trkpt lat="42.08418345235186" lon="12.75447815264602"><ele>211.2</ele><time>2026-03-24T14:13:18.001Z</time></trkpt><trkpt lat="42.08418206080628" lon="12.754617492588684"><ele>210.0</ele><time>2026-03-24T14:13:19.001Z</time></trkpt><trkpt lat="42.08418068849071" lon="12.754754907115695"><ele>209.8</ele><time>2026-03-24T14:13:20.001Z</time></trkpt><trkpt lat="42.08418245308258" lon="12.75489441581659"><ele>209.6</ele><time>2026-03-24T14:13:21.001Z</time></trkpt><trkpt lat="42.08417865179894" lon="12.755044415290577"><ele>209.39999999999998</ele><time>2026-03-24T14:13:22.001Z</time></trkpt><trkpt lat="42.08416945178769" lon="12.755169492247765"><ele>209.2</ele><time>2026-03-24T14:13:23.001Z</time></trkpt><trkpt lat="42.08414255344476" lon="12.755286034626426"><ele>209.0</ele><time>2026-03-24T14:13:24.001Z</time></trkpt><trkpt lat="42.08409292229102" lon="12.755385775443658"><ele>208.83333333333334</ele><time>2026-03-24T14:13:25.001Z</time></trkpt><trkpt lat="42.084021728813774" lon="12.755453897122175"><ele>208.66666666666669</ele><time>2026-03-24T14:13:26.001Z</time></trkpt><trkpt lat="42.08394441267406" lon="12.755500204719036"><ele>208.5</ele><time>2026-03-24T14:13:27.001Z</time></trkpt><trkpt lat="42.08387436414232" lon="12.755528321491788"><ele>208.33333333333331</ele><time>2026-03-24T14:13:28.001Z</time></trkpt><trkpt lat="42.083778689054405" lon="12.755539773671725"><ele>208.16666666666666</ele><time>2026-03-24T14:13:30.001Z</time></trkpt><trkpt lat="42.08367368047254" lon="12.755563597370353"><ele>208.0</ele><time>2026-03-24T14:14:01.001Z</time></trkpt><trkpt lat="42.08357679254629" lon="12.755608592520659"><ele>208.0</ele><time>2026-03-24T14:14:02.001Z</time></trkpt><trkpt lat="42.08346681523308" lon="12.75568313288608"><ele>208.0</ele><time>2026-03-24T14:14:03.001Z</time></trkpt><trkpt lat="42.083361188567984" lon="12.755776762364354"><ele>208.0</ele><time>2026-03-24T14:14:04.001Z</time></trkpt><trkpt lat="42.08324995621599" lon="12.755900681009058"><ele>208.0</ele><time>2026-03-24T14:14:05.001Z</time></trkpt><trkpt lat="42.083191184072284" lon="12.75598940035629"><ele>210.5</ele><time>2026-03-24T14:14:06.001Z</time></trkpt><trkpt lat="42.08310641134448" lon="12.756132700281432"><ele>213.0</ele><time>2026-03-24T14:14:07.001Z</time></trkpt><trkpt lat="42.08304743080817" lon="12.75628647853041"><ele>215.5</ele><time>2026-03-24T14:14:08.001Z</time></trkpt><trkpt lat="42.082975539900744" lon="12.75646876775365"><ele>218.0</ele><time>2026-03-24T14:14:09.001Z</time></trkpt><trkpt lat="42.08289419481172" lon="12.756683941630174"><ele>218.0</ele><time>2026-03-24T14:14:10.001Z</time></trkpt><trkpt lat="42.08282908767624" lon="12.756859164526517"><ele>218.0</ele><time>2026-03-24T14:14:11.002Z</time></trkpt><trkpt lat="42.08277528458091" lon="12.757004202256669"><ele>218.0</ele><time>2026-03-24T14:14:12.002Z</time></trkpt><trkpt lat="42.08272196249356" lon="12.75715518151296"><ele>218.0</ele><time>2026-03-24T14:14:13.002Z</time></trkpt><trkpt lat="42.082686269624205" lon="12.75729749624209"><ele>220.0</ele><time>2026-03-24T14:14:14.002Z</time></trkpt><trkpt lat="42.0826755393786" lon="12.757456811861138"><ele>222.0</ele><time>2026-03-24T14:14:15.002Z</time></trkpt><trkpt lat="42.08267739421187" lon="12.757624921765125"><ele>224.0</ele><time>2026-03-24T14:14:16.002Z</time></trkpt><trkpt lat="42.08268566751167" lon="12.757839721061659"><ele>226.0</ele><time>2026-03-24T14:14:17.002Z</time></trkpt><trkpt lat="42.082685154918416" lon="12.758038272191374"><ele>228.0</ele><time>2026-03-24T14:14:18.001Z</time></trkpt><trkpt lat="42.082665518209225" lon="12.758217924270426"><ele>230.0</ele><time>2026-03-24T14:14:19.001Z</time></trkpt><trkpt lat="42.08263243928221" lon="12.758407311338496"><ele>232.0</ele><time>2026-03-24T14:14:20.001Z</time></trkpt><trkpt lat="42.08258338276536" lon="12.758611202772729"><ele>234.0</ele><time>2026-03-24T14:14:21.001Z</time></trkpt><trkpt lat="42.08255750958238" lon="12.758785797053935"><ele>234.79999999999998</ele><time>2026-03-24T14:14:22.001Z</time></trkpt><trkpt lat="42.08257870126854" lon="12.758933093997442"><ele>235.59999999999997</ele><time>2026-03-24T14:14:23.001Z</time></trkpt><trkpt lat="42.08260471762893" lon="12.75905465351213"><ele>236.4</ele><time>2026-03-24T14:14:24.001Z</time></trkpt><trkpt lat="42.082655244817815" lon="12.759167604312628"><ele>237.2</ele><time>2026-03-24T14:14:25.001Z</time></trkpt><trkpt lat="42.082733608430516" lon="12.759306749973586"><ele>238.0</ele><time>2026-03-24T14:14:26.001Z</time></trkpt><trkpt lat="42.082826476007064" lon="12.759485721284506"><ele>239.33333333333331</ele><time>2026-03-24T14:14:27.001Z</time></trkpt><trkpt lat="42.08292473143145" lon="12.759694505744237"><ele>240.66666666666669</ele><time>2026-03-24T14:14:28.001Z</time></trkpt><trkpt lat="42.0829944991534" lon="12.75988817353959"><ele>242.0</ele><time>2026-03-24T14:14:29.001Z</time></trkpt><trkpt lat="42.08306412086419" lon="12.760051626070698"><ele>242.0</ele><time>2026-03-24T14:14:30.001Z</time></trkpt><trkpt lat="42.083119357978106" lon="12.760181307552061"><ele>242.0</ele><time>2026-03-24T14:14:31.001Z</time></trkpt><trkpt lat="42.083146929528745" lon="12.760294945286098"><ele>242.0</ele><time>2026-03-24T14:14:32.001Z</time></trkpt><trkpt lat="42.0831712206117" lon="12.760430056738121"><ele>242.0</ele><time>2026-03-24T14:14:33.001Z</time></trkpt><trkpt lat="42.08319190657247" lon="12.760598842579316"><ele>242.0</ele><time>2026-03-24T14:14:34.001Z</time></trkpt><trkpt lat="42.083201042110666" lon="12.760774232588002"><ele>244.5</ele><time>2026-03-24T14:14:35.001Z</time></trkpt><trkpt lat="42.083203823346025" lon="12.76095904745165"><ele>247.0</ele><time>2026-03-24T14:14:36.001Z</time></trkpt><trkpt lat="42.08319063086513" lon="12.76113023642926"><ele>249.5</ele><time>2026-03-24T14:14:37.001Z</time></trkpt><trkpt lat="42.083162851962236" lon="12.761276742238328"><ele>252.0</ele><time>2026-03-24T14:14:38.001Z</time></trkpt><trkpt lat="42.08312106871683" lon="12.761422140642031"><ele>254.75</ele><time>2026-03-24T14:14:39.001Z</time></trkpt><trkpt lat="42.08305947322386" lon="12.76156066749607"><ele>257.5</ele><time>2026-03-24T14:14:40.001Z</time></trkpt><trkpt lat="42.08297195454931" lon="12.761672888441844"><ele>260.25</ele><time>2026-03-24T14:14:41.001Z</time></trkpt><trkpt lat="42.082868608869234" lon="12.761784795069998"><ele>263.0</ele><time>2026-03-24T14:14:42.001Z</time></trkpt><trkpt lat="42.08273232455711" lon="12.761902192027257"><ele>264.75</ele><time>2026-03-24T14:14:43.001Z</time></trkpt><trkpt lat="42.08258200120739" lon="12.762012043282697"><ele>266.5</ele><time>2026-03-24T14:14:44.001Z</time></trkpt><trkpt lat="42.082455020913194" lon="12.762096799315353"><ele>268.25</ele><time>2026-03-24T14:14:45.001Z</time></trkpt><trkpt lat="42.082335556553055" lon="12.762170444563422"><ele>270.0</ele><time>2026-03-24T14:14:46.001Z</time></trkpt><trkpt lat="42.082217020478836" lon="12.762225233930799"><ele>272.4</ele><time>2026-03-24T14:14:47.001Z</time></trkpt><trkpt lat="42.082113963310135" lon="12.762234109312798"><ele>274.8</ele><time>2026-03-24T14:14:48.001Z</time></trkpt><trkpt lat="42.082007433364026" lon="12.762215743077213"><ele>277.2</ele><time>2026-03-24T14:14:49.001Z</time></trkpt><trkpt lat="42.081904756999464" lon="12.762194533696475"><ele>279.6</ele><time>2026-03-24T14:14:50.001Z</time></trkpt><trkpt lat="42.08177319669783" lon="12.762177196231574"><ele>282.0</ele><time>2026-03-24T14:14:51.001Z</time></trkpt><trkpt lat="42.0816439586648" lon="12.762119911245502"><ele>282.2</ele><time>2026-03-24T14:14:52.001Z</time></trkpt><trkpt lat="42.081522110224164" lon="12.762097591182723"><ele>282.4</ele><time>2026-03-24T14:14:53.001Z</time></trkpt><trkpt lat="42.08142353356464" lon="12.762083677962709"><ele>282.6</ele><time>2026-03-24T14:14:54.001Z</time></trkpt><trkpt lat="42.08135155135954" lon="12.762161166158895"><ele>282.8</ele><time>2026-03-24T14:14:55.001Z</time></trkpt><trkpt lat="42.08128916890227" lon="12.762208960685799"><ele>283.0</ele><time>2026-03-24T14:14:58.001Z</time></trkpt><trkpt lat="42.08140181778767" lon="12.76238579821142"><ele>283.0</ele><time>2026-03-24T14:15:05.001Z</time></trkpt><trkpt lat="42.08151865112434" lon="12.76244159729899"><ele>283.0</ele><time>2026-03-24T14:15:06.001Z</time></trkpt><trkpt lat="42.081616784629205" lon="12.762508839557187"><ele>283.0</ele><time>2026-03-24T14:15:07.001Z</time></trkpt><trkpt lat="42.081724733662426" lon="12.762619584473704"><ele>283.0</ele><time>2026-03-24T14:15:08.001Z</time></trkpt><trkpt lat="42.08186482068809" lon="12.76277115144387"><ele>285.0</ele><time>2026-03-24T14:15:09.001Z</time></trkpt><trkpt lat="42.08199530175862" lon="12.762907715262688"><ele>287.0</ele><time>2026-03-24T14:15:10.001Z</time></trkpt><trkpt lat="42.08212414662628" lon="12.763022161796199"><ele>289.0</ele><time>2026-03-24T14:15:11.001Z</time></trkpt><trkpt lat="42.082232195661" lon="12.763112607308292"><ele>291.0</ele><time>2026-03-24T14:15:12.001Z</time></trkpt><trkpt lat="42.08235953122235" lon="12.76323062289124"><ele>291.5</ele><time>2026-03-24T14:15:13.001Z</time></trkpt><trkpt lat="42.082484607983496" lon="12.763342857325593"><ele>292.0</ele><time>2026-03-24T14:15:14.001Z</time></trkpt><trkpt lat="42.082606653258765" lon="12.763460421714768"><ele>292.5</ele><time>2026-03-24T14:15:15.001Z</time></trkpt><trkpt lat="42.08272342798319" lon="12.763562158684657"><ele>293.0</ele><time>2026-03-24T14:15:16.001Z</time></trkpt><trkpt lat="42.08283879361773" lon="12.76366333246253"><ele>293.0</ele><time>2026-03-24T14:15:17.001Z</time></trkpt><trkpt lat="42.08296564644909" lon="12.763749401694373"><ele>293.0</ele><time>2026-03-24T14:15:18.001Z</time></trkpt><trkpt lat="42.08310521117325" lon="12.763801338650065"><ele>293.0</ele><time>2026-03-24T14:15:19.001Z</time></trkpt><trkpt lat="42.08324106325554" lon="12.763825285409952"><ele>293.0</ele><time>2026-03-24T14:15:20.001Z</time></trkpt><trkpt lat="42.08336548797743" lon="12.76384434984847"><ele>290.0</ele><time>2026-03-24T14:15:21.001Z</time></trkpt><trkpt lat="42.083477073229915" lon="12.763894419319831"><ele>287.0</ele><time>2026-03-24T14:15:22.001Z</time></trkpt><trkpt lat="42.08356718227599" lon="12.764016179335744"><ele>284.0</ele><time>2026-03-24T14:15:23.001Z</time></trkpt><trkpt lat="42.0836599046216" lon="12.764177994305697"><ele>281.0</ele><time>2026-03-24T14:15:24.001Z</time></trkpt><trkpt lat="42.083759472065545" lon="12.764357198697654"><ele>283.25</ele><time>2026-03-24T14:15:25.001Z</time></trkpt><trkpt lat="42.083850863645374" lon="12.764524884817794"><ele>285.5</ele><time>2026-03-24T14:15:26.001Z</time></trkpt><trkpt lat="42.083934854646635" lon="12.764673484295084"><ele>287.75</ele><time>2026-03-24T14:15:27.001Z</time></trkpt><trkpt lat="42.08401354845755" lon="12.764821689750322"><ele>290.0</ele><time>2026-03-24T14:15:28.001Z</time></trkpt><trkpt lat="42.08408017585558" lon="12.764979882988888"><ele>286.0</ele><time>2026-03-24T14:15:29.001Z</time></trkpt><trkpt lat="42.08414041961556" lon="12.765149691453084"><ele>282.0</ele><time>2026-03-24T14:15:30.001Z</time></trkpt><trkpt lat="42.084196064440505" lon="12.765316237892248"><ele>278.0</ele><time>2026-03-24T14:15:31.001Z</time></trkpt><trkpt lat="42.084241905385475" lon="12.765475054953283"><ele>274.0</ele><time>2026-03-24T14:15:32.001Z</time></trkpt><trkpt lat="42.084276335443356" lon="12.765631540916434"><ele>274.0</ele><time>2026-03-24T14:15:33.001Z</time></trkpt><trkpt lat="42.08430496447649" lon="12.765800667888467"><ele>274.0</ele><time>2026-03-24T14:15:34.001Z</time></trkpt><trkpt lat="42.08432151984159" lon="12.766005827558892"><ele>274.0</ele><time>2026-03-24T14:15:35.001Z</time></trkpt><trkpt lat="42.08432020236257" lon="12.766240522727445"><ele>273.3333333333333</ele><time>2026-03-24T14:15:36.001Z</time></trkpt><trkpt lat="42.08430733198379" lon="12.76645905290049"><ele>272.6666666666667</ele><time>2026-03-24T14:15:37.001Z</time></trkpt><trkpt lat="42.08428752611461" lon="12.766662079586276"><ele>272.0</ele><time>2026-03-24T14:15:38.001Z</time></trkpt><trkpt lat="42.08425748499144" lon="12.766879443664813"><ele>270.0</ele><time>2026-03-24T14:15:39.001Z</time></trkpt><trkpt lat="42.08422094345851" lon="12.767103712703577"><ele>268.0</ele><time>2026-03-24T14:15:40.001Z</time></trkpt><trkpt lat="42.08418078241849" lon="12.767335471702813"><ele>266.0</ele><time>2026-03-24T14:15:41.001Z</time></trkpt><trkpt lat="42.08414321030207" lon="12.76755127957749"><ele>263.0</ele><time>2026-03-24T14:15:42.001Z</time></trkpt><trkpt lat="42.084109945411655" lon="12.767747658016651"><ele>260.0</ele><time>2026-03-24T14:15:43.001Z</time></trkpt><trkpt lat="42.08407688878263" lon="12.767948581827083"><ele>257.0</ele><time>2026-03-24T14:15:44.001Z</time></trkpt><trkpt lat="42.08404836615931" lon="12.768147881677754"><ele>265.33333333333337</ele><time>2026-03-24T14:15:45.001Z</time></trkpt><trkpt lat="42.08402754965585" lon="12.76834216788533"><ele>273.6666666666667</ele><time>2026-03-24T14:15:46.001Z</time></trkpt><trkpt lat="42.084010174594795" lon="12.768551707869987"><ele>282.0</ele><time>2026-03-24T14:15:47.001Z</time></trkpt><trkpt lat="42.08399701465425" lon="12.768772152932632"><ele>282.0</ele><time>2026-03-24T14:15:48.001Z</time></trkpt><trkpt lat="42.083991567346594" lon="12.76899183714847"><ele>282.0</ele><time>2026-03-24T14:15:49.001Z</time></trkpt><trkpt lat="42.08398929503578" lon="12.769220162148459"><ele>282.0</ele><time>2026-03-24T14:15:50.001Z</time></trkpt><trkpt lat="42.083988423262646" lon="12.769433866962327"><ele>280.25</ele><time>2026-03-24T14:15:51.001Z</time></trkpt><trkpt lat="42.083987655911734" lon="12.769621973552654"><ele>278.5</ele><time>2026-03-24T14:15:52.001Z</time></trkpt><trkpt lat="42.08398694352638" lon="12.769796606300531"><ele>276.75</ele><time>2026-03-24T14:15:53.001Z</time></trkpt><trkpt lat="42.0839869591574" lon="12.769969667862176"><ele>275.0</ele><time>2026-03-24T14:15:54.001Z</time></trkpt><trkpt lat="42.08398844052688" lon="12.770138256717116"><ele>275.5</ele><time>2026-03-24T14:15:55.001Z</time></trkpt><trkpt lat="42.0839904904852" lon="12.77033187243924"><ele>276.0</ele><time>2026-03-24T14:15:56.001Z</time></trkpt><trkpt lat="42.083989050000355" lon="12.770514673325302"><ele>276.5</ele><time>2026-03-24T14:15:57.001Z</time></trkpt><trkpt lat="42.08397941057498" lon="12.770690243382532"><ele>277.0</ele><time>2026-03-24T14:15:58.001Z</time></trkpt><trkpt lat="42.083957793090256" lon="12.770851288283932"><ele>277.0</ele><time>2026-03-24T14:15:59.001Z</time></trkpt><trkpt lat="42.08391227303657" lon="12.771023354012954"><ele>277.0</ele><time>2026-03-24T14:16:00.001Z</time></trkpt><trkpt lat="42.083836211351716" lon="12.77120640442648"><ele>277.0</ele><time>2026-03-24T14:16:01.001Z</time></trkpt><trkpt lat="42.08375807096637" lon="12.771378944219842"><ele>277.0</ele><time>2026-03-24T14:16:02.001Z</time></trkpt><trkpt lat="42.08368879106716" lon="12.771525517875599"><ele>275.75</ele><time>2026-03-24T14:16:03.001Z</time></trkpt><trkpt lat="42.08362620433207" lon="12.771683214273162"><ele>274.5</ele><time>2026-03-24T14:16:04.001Z</time></trkpt><trkpt lat="42.08358774725113" lon="12.77184211962148"><ele>273.25</ele><time>2026-03-24T14:16:05.001Z</time></trkpt><trkpt lat="42.08358563456081" lon="12.772017303676886"><ele>272.0</ele><time>2026-03-24T14:16:06.001Z</time></trkpt><trkpt lat="42.08362234938688" lon="12.772192018764878"><ele>270.75</ele><time>2026-03-24T14:16:07.001Z</time></trkpt><trkpt lat="42.083694387291665" lon="12.772330395248877"><ele>269.5</ele><time>2026-03-24T14:16:08.001Z</time></trkpt><trkpt lat="42.083770998269316" lon="12.772447079269963"><ele>268.25</ele><time>2026-03-24T14:16:09.001Z</time></trkpt><trkpt lat="42.083882834968136" lon="12.77256131149811"><ele>267.0</ele><time>2026-03-24T14:16:10.001Z</time></trkpt><trkpt lat="42.08403845911117" lon="12.772703833916266"><ele>264.6666666666667</ele><time>2026-03-24T14:16:11.001Z</time></trkpt><trkpt lat="42.08421498081257" lon="12.772889700041091"><ele>262.33333333333337</ele><time>2026-03-24T14:16:12.001Z</time></trkpt><trkpt lat="42.08438005317289" lon="12.77309071461145"><ele>260.0</ele><time>2026-03-24T14:16:13.001Z</time></trkpt><trkpt lat="42.08453118474997" lon="12.773231369552407"><ele>260.0</ele><time>2026-03-24T14:16:14.001Z</time></trkpt><trkpt lat="42.08466799331577" lon="12.773373547181192"><ele>260.0</ele><time>2026-03-24T14:16:15.001Z</time></trkpt><trkpt lat="42.084814868168955" lon="12.773520608606733"><ele>260.0</ele><time>2026-03-24T14:16:16.001Z</time></trkpt><trkpt lat="42.084963681009654" lon="12.77365032906654"><ele>261.33333333333337</ele><time>2026-03-24T14:16:17.001Z</time></trkpt><trkpt lat="42.0850988602973" lon="12.773751181957103"><ele>262.6666666666667</ele><time>2026-03-24T14:16:18.001Z</time></trkpt><trkpt lat="42.085237261188695" lon="12.773832638272323"><ele>264.0</ele><time>2026-03-24T14:16:19.001Z</time></trkpt><trkpt lat="42.08541116275998" lon="12.773885817488111"><ele>264.0</ele><time>2026-03-24T14:16:20.001Z</time></trkpt><trkpt lat="42.08555468782299" lon="12.773925175775583"><ele>264.0</ele><time>2026-03-24T14:16:21.001Z</time></trkpt><trkpt lat="42.085683614452826" lon="12.773962515556573"><ele>264.0</ele><time>2026-03-24T14:16:22.001Z</time></trkpt><trkpt lat="42.085786297773176" lon="12.774012125453966"><ele>264.0</ele><time>2026-03-24T14:16:23.001Z</time></trkpt><trkpt lat="42.08587766685284" lon="12.77412829738138"><ele>265.25</ele><time>2026-03-24T14:16:24.001Z</time></trkpt><trkpt lat="42.085939990255255" lon="12.774249619999743"><ele>266.5</ele><time>2026-03-24T14:16:25.001Z</time></trkpt><trkpt lat="42.08600089620227" lon="12.774398501284452"><ele>267.75</ele><time>2026-03-24T14:16:26.001Z</time></trkpt><trkpt lat="42.086070029882094" lon="12.774594497246685"><ele>269.0</ele><time>2026-03-24T14:16:27.001Z</time></trkpt><trkpt lat="42.08615784527845" lon="12.774766458964413"><ele>271.0</ele><time>2026-03-24T14:16:28.001Z</time></trkpt><trkpt lat="42.08623170912343" lon="12.77492510726298"><ele>273.0</ele><time>2026-03-24T14:16:29.001Z</time></trkpt><trkpt lat="42.086336117042165" lon="12.77505402773562"><ele>275.0</ele><time>2026-03-24T14:16:30.001Z</time></trkpt><trkpt lat="42.08647242486884" lon="12.775152586471878"><ele>277.0</ele><time>2026-03-24T14:16:31.001Z</time></trkpt><trkpt lat="42.08664185207189" lon="12.775234963166483"><ele>278.0</ele><time>2026-03-24T14:16:32.001Z</time></trkpt><trkpt lat="42.086800049067456" lon="12.775305734897364"><ele>279.0</ele><time>2026-03-24T14:16:33.001Z</time></trkpt><trkpt lat="42.0869299143193" lon="12.775355763693574"><ele>280.0</ele><time>2026-03-24T14:16:34.001Z</time></trkpt><trkpt lat="42.08705917168133" lon="12.775458997547462"><ele>280.0</ele><time>2026-03-24T14:16:35.001Z</time></trkpt><trkpt lat="42.08718749424959" lon="12.775619749327692"><ele>280.0</ele><time>2026-03-24T14:16:36.001Z</time></trkpt><trkpt lat="42.08732528673595" lon="12.775751234103334"><ele>280.0</ele><time>2026-03-24T14:16:37.001Z</time></trkpt><trkpt lat="42.08745419179551" lon="12.775858259989024"><ele>279.5</ele><time>2026-03-24T14:16:38.001Z</time></trkpt><trkpt lat="42.08758492590642" lon="12.775946919222562"><ele>279.0</ele><time>2026-03-24T14:16:39.001Z</time></trkpt><trkpt lat="42.08772925108157" lon="12.776015888249129"><ele>278.5</ele><time>2026-03-24T14:16:40.001Z</time></trkpt><trkpt lat="42.08787335695535" lon="12.776045923841615"><ele>278.0</ele><time>2026-03-24T14:16:41.001Z</time></trkpt><trkpt lat="42.088010377796756" lon="12.776058624050279"><ele>278.0</ele><time>2026-03-24T14:16:42.001Z</time></trkpt><trkpt lat="42.0881432003586" lon="12.776052610427671"><ele>278.0</ele><time>2026-03-24T14:16:43.001Z</time></trkpt><trkpt lat="42.088263418813035" lon="12.775982650295166"><ele>278.0</ele><time>2026-03-24T14:16:44.001Z</time></trkpt><trkpt lat="42.08836918053503" lon="12.775860369616932"><ele>278.0</ele><time>2026-03-24T14:16:45.001Z</time></trkpt><trkpt lat="42.08847201413607" lon="12.775710509860504"><ele>275.6666666666667</ele><time>2026-03-24T14:16:46.001Z</time></trkpt><trkpt lat="42.08858763912222" lon="12.775531351040506"><ele>273.3333333333333</ele><time>2026-03-24T14:16:47.001Z</time></trkpt><trkpt lat="42.08869851391847" lon="12.775371215050859"><ele>271.0</ele><time>2026-03-24T14:16:48.001Z</time></trkpt><trkpt lat="42.088816978418784" lon="12.77525285377976"><ele>270.66666666666663</ele><time>2026-03-24T14:16:49.001Z</time></trkpt><trkpt lat="42.08895671126132" lon="12.775177223430589"><ele>270.3333333333333</ele><time>2026-03-24T14:16:50.001Z</time></trkpt><trkpt lat="42.089135977998126" lon="12.775098843880928"><ele>270.0</ele><time>2026-03-24T14:16:51.001Z</time></trkpt><trkpt lat="42.0893274075833" lon="12.775003005504518"><ele>270.0</ele><time>2026-03-24T14:16:52.001Z</time></trkpt><trkpt lat="42.089512143704425" lon="12.774917913263849"><ele>270.0</ele><time>2026-03-24T14:16:53.001Z</time></trkpt><trkpt lat="42.08968594265669" lon="12.774848186882211"><ele>270.0</ele><time>2026-03-24T14:16:54.001Z</time></trkpt><trkpt lat="42.089848468133845" lon="12.774793833937995"><ele>272.0</ele><time>2026-03-24T14:16:55.001Z</time></trkpt><trkpt lat="42.09000379055134" lon="12.774758472805875"><ele>274.0</ele><time>2026-03-24T14:16:56.001Z</time></trkpt><trkpt lat="42.09014178996035" lon="12.774747523425525"><ele>276.0</ele><time>2026-03-24T14:16:57.001Z</time></trkpt><trkpt lat="42.090255196301236" lon="12.77476435644086"><ele>278.0</ele><time>2026-03-24T14:16:58.001Z</time></trkpt><trkpt lat="42.09032950031689" lon="12.774802699472213"><ele>278.0</ele><time>2026-03-24T14:16:59.001Z</time></trkpt><trkpt lat="42.09041771555832" lon="12.774901370514156"><ele>278.0</ele><time>2026-03-24T14:17:01.001Z</time></trkpt><trkpt lat="42.090444524044024" lon="12.774995988013469"><ele>278.0</ele><time>2026-03-24T14:17:02.001Z</time></trkpt><trkpt lat="42.09047743854221" lon="12.775071230304654"><ele>278.0</ele><time>2026-03-24T14:17:03.001Z</time></trkpt><trkpt lat="42.09057400043165" lon="12.775112365264919"><ele>278.0</ele><time>2026-03-24T14:17:05.001Z</time></trkpt><trkpt lat="42.09063359926124" lon="12.775074510387096"><ele>278.0</ele><time>2026-03-24T14:17:06.001Z</time></trkpt><trkpt lat="42.09065254471706" lon="12.774984470795419"><ele>278.0</ele><time>2026-03-24T14:17:07.001Z</time></trkpt><trkpt lat="42.09066706493736" lon="12.774863443975342"><ele>278.0</ele><time>2026-03-24T14:17:08.001Z</time></trkpt><trkpt lat="42.09067040051796" lon="12.774734677784306"><ele>278.0</ele><time>2026-03-24T14:17:09.001Z</time></trkpt><trkpt lat="42.09070734026718" lon="12.77457687371629"><ele>278.0</ele><time>2026-03-24T14:17:10.001Z</time></trkpt><trkpt lat="42.0907527496098" lon="12.774448980256734"><ele>278.0</ele><time>2026-03-24T14:17:11.001Z</time></trkpt><trkpt lat="42.09082118298734" lon="12.77427190571242"><ele>277.75</ele><time>2026-03-24T14:17:12.001Z</time></trkpt><trkpt lat="42.090897204737495" lon="12.774058784329949"><ele>277.5</ele><time>2026-03-24T14:17:13.001Z</time></trkpt><trkpt lat="42.090966659486156" lon="12.773925581166571"><ele>277.25</ele><time>2026-03-24T14:17:14.001Z</time></trkpt><trkpt lat="42.09101370429344" lon="12.773773326556244"><ele>277.0</ele><time>2026-03-24T14:17:15.001Z</time></trkpt><trkpt lat="42.09109763214195" lon="12.773601915507637"><ele>275.75</ele><time>2026-03-24T14:17:16.001Z</time></trkpt><trkpt lat="42.09117953657628" lon="12.773431687098112"><ele>274.5</ele><time>2026-03-24T14:17:17.001Z</time></trkpt><trkpt lat="42.09125461148786" lon="12.773264571767408"><ele>273.25</ele><time>2026-03-24T14:17:18.001Z</time></trkpt><trkpt lat="42.09131562252061" lon="12.773096092025199"><ele>272.0</ele><time>2026-03-24T14:17:19.001Z</time></trkpt><trkpt lat="42.09137222751565" lon="12.772925979613897"><ele>272.0</ele><time>2026-03-24T14:17:20.001Z</time></trkpt><trkpt lat="42.091435146593014" lon="12.772762015409512"><ele>272.0</ele><time>2026-03-24T14:17:21.001Z</time></trkpt><trkpt lat="42.09149398404282" lon="12.772592186688293"><ele>272.0</ele><time>2026-03-24T14:17:22.001Z</time></trkpt><trkpt lat="42.09154830351671" lon="12.772427975120843"><ele>272.0</ele><time>2026-03-24T14:17:23.001Z</time></trkpt><trkpt lat="42.09158977750474" lon="12.772241962325964"><ele>270.5</ele><time>2026-03-24T14:17:24.001Z</time></trkpt><trkpt lat="42.09162479247058" lon="12.772037076969795"><ele>269.0</ele><time>2026-03-24T14:17:25.001Z</time></trkpt><trkpt lat="42.09165682800802" lon="12.771846660594191"><ele>267.5</ele><time>2026-03-24T14:17:26.001Z</time></trkpt><trkpt lat="42.091686486681006" lon="12.771658757081632"><ele>266.0</ele><time>2026-03-24T14:17:27.001Z</time></trkpt><trkpt lat="42.09171327445878" lon="12.771470980737943"><ele>265.25</ele><time>2026-03-24T14:17:28.001Z</time></trkpt><trkpt lat="42.09173642071181" lon="12.771292180388992"><ele>264.5</ele><time>2026-03-24T14:17:29.001Z</time></trkpt><trkpt lat="42.091760310973356" lon="12.7711151560099"><ele>263.75</ele><time>2026-03-24T14:17:30.001Z</time></trkpt><trkpt lat="42.09179262503493" lon="12.770951676605883"><ele>263.0</ele><time>2026-03-24T14:17:31.001Z</time></trkpt><trkpt lat="42.09181739105394" lon="12.770788709358849"><ele>261.25</ele><time>2026-03-24T14:17:32.001Z</time></trkpt><trkpt lat="42.09183736808996" lon="12.770623352924014"><ele>259.5</ele><time>2026-03-24T14:17:33.001Z</time></trkpt><trkpt lat="42.091869821663394" lon="12.770470772281946"><ele>257.75</ele><time>2026-03-24T14:17:34.001Z</time></trkpt><trkpt lat="42.09190565706152" lon="12.770311362572063"><ele>256.0</ele><time>2026-03-24T14:17:35.001Z</time></trkpt><trkpt lat="42.09192712424097" lon="12.770164328309423"><ele>254.0</ele><time>2026-03-24T14:17:36.001Z</time></trkpt><trkpt lat="42.09193886143437" lon="12.770010960006335"><ele>252.0</ele><time>2026-03-24T14:17:37.001Z</time></trkpt><trkpt lat="42.09195195415449" lon="12.769839111259104"><ele>250.0</ele><time>2026-03-24T14:17:38.001Z</time></trkpt><trkpt lat="42.09197231477208" lon="12.769647288201014"><ele>248.0</ele><time>2026-03-24T14:17:39.001Z</time></trkpt><trkpt lat="42.09199355083632" lon="12.769429585532407"><ele>247.75</ele><time>2026-03-24T14:17:40.001Z</time></trkpt><trkpt lat="42.09199975361305" lon="12.769199480867847"><ele>247.5</ele><time>2026-03-24T14:17:41.001Z</time></trkpt><trkpt lat="42.09200883816213" lon="12.769003756541322"><ele>247.25</ele><time>2026-03-24T14:17:42.001Z</time></trkpt><trkpt lat="42.09200950733219" lon="12.76883084711794"><ele>247.0</ele><time>2026-03-24T14:17:43.001Z</time></trkpt><trkpt lat="42.092013658060836" lon="12.768677178108717"><ele>246.75</ele><time>2026-03-24T14:17:44.001Z</time></trkpt><trkpt lat="42.09201025092774" lon="12.76851825716209"><ele>246.5</ele><time>2026-03-24T14:17:45.001Z</time></trkpt><trkpt lat="42.09200624238826" lon="12.768341958459594"><ele>246.25</ele><time>2026-03-24T14:17:46.001Z</time></trkpt><trkpt lat="42.09199457774027" lon="12.768166982103027"><ele>246.0</ele><time>2026-03-24T14:17:47.001Z</time></trkpt><trkpt lat="42.0919893158447" lon="12.767989733289205"><ele>246.0</ele><time>2026-03-24T14:17:48.001Z</time></trkpt><trkpt lat="42.09198699706017" lon="12.767814543133696"><ele>246.0</ele><time>2026-03-24T14:17:49.001Z</time></trkpt><trkpt lat="42.09199955103379" lon="12.767633843796549"><ele>246.0</ele><time>2026-03-24T14:17:50.001Z</time></trkpt><trkpt lat="42.092021933315735" lon="12.767422951392858"><ele>246.0</ele><time>2026-03-24T14:17:51.001Z</time></trkpt><trkpt lat="42.09205742427001" lon="12.767215754434776"><ele>245.75</ele><time>2026-03-24T14:17:52.001Z</time></trkpt><trkpt lat="42.09208854568664" lon="12.767020397126688"><ele>245.5</ele><time>2026-03-24T14:17:53.001Z</time></trkpt><trkpt lat="42.09212884357897" lon="12.76685559982957"><ele>245.25</ele><time>2026-03-24T14:17:54.001Z</time></trkpt><trkpt lat="42.092158675408044" lon="12.766699989416933"><ele>245.0</ele><time>2026-03-24T14:17:55.001Z</time></trkpt><trkpt lat="42.09217749802201" lon="12.766576656147958"><ele>244.16666666666669</ele><time>2026-03-24T14:17:56.001Z</time></trkpt><trkpt lat="42.092200133302796" lon="12.76646964383188"><ele>243.33333333333334</ele><time>2026-03-24T14:17:57.001Z</time></trkpt><trkpt lat="42.09222318552366" lon="12.76633127400038"><ele>242.5</ele><time>2026-03-24T14:17:59.001Z</time></trkpt><trkpt lat="42.09219299038613" lon="12.766226951016273"><ele>241.66666666666669</ele><time>2026-03-24T14:18:01.001Z</time></trkpt><trkpt lat="42.09213235526376" lon="12.766283381637107"><ele>240.83333333333334</ele><time>2026-03-24T14:18:04.001Z</time></trkpt><trkpt lat="42.092180510114595" lon="12.766376733991232"><ele>240.0</ele><time>2026-03-24T14:18:10.001Z</time></trkpt><trkpt lat="42.09218749768371" lon="12.766548505429466"><ele>240.0</ele><time>2026-03-24T14:18:12.001Z</time></trkpt><trkpt lat="42.09214295102744" lon="12.766711970077532"><ele>240.0</ele><time>2026-03-24T14:18:13.001Z</time></trkpt><trkpt lat="42.092101776781384" lon="12.766898874968053"><ele>240.0</ele><time>2026-03-24T14:18:14.001Z</time></trkpt><trkpt lat="42.09206663505228" lon="12.767094637881602"><ele>240.0</ele><time>2026-03-24T14:18:15.001Z</time></trkpt><trkpt lat="42.09202647173337" lon="12.76731640911809"><ele>241.66666666666669</ele><time>2026-03-24T14:18:16.001Z</time></trkpt><trkpt lat="42.09199435635425" lon="12.767544263696216"><ele>243.33333333333334</ele><time>2026-03-24T14:18:17.001Z</time></trkpt><trkpt lat="42.09198852426019" lon="12.767815010597387"><ele>245.0</ele><time>2026-03-24T14:18:18.001Z</time></trkpt><trkpt lat="42.09199680691175" lon="12.768099592678395"><ele>245.33333333333334</ele><time>2026-03-24T14:18:19.001Z</time></trkpt><trkpt lat="42.09201666565438" lon="12.768356182896376"><ele>245.66666666666669</ele><time>2026-03-24T14:18:20.001Z</time></trkpt><trkpt lat="42.0919735745748" lon="12.768609595214151"><ele>246.0</ele><time>2026-03-24T14:18:21.001Z</time></trkpt><trkpt lat="42.09197484239982" lon="12.768834200133654"><ele>246.33333333333331</ele><time>2026-03-24T14:18:22.001Z</time></trkpt><trkpt lat="42.09197293757759" lon="12.769060193790224"><ele>246.66666666666666</ele><time>2026-03-24T14:18:23.001Z</time></trkpt><trkpt lat="42.09196222544904" lon="12.7693234280294"><ele>247.0</ele><time>2026-03-24T14:18:24.001Z</time></trkpt><trkpt lat="42.09193941237257" lon="12.769603629446804"><ele>247.33333333333331</ele><time>2026-03-24T14:18:25.001Z</time></trkpt><trkpt lat="42.09191639497043" lon="12.769842956175033"><ele>247.66666666666669</ele><time>2026-03-24T14:18:26.001Z</time></trkpt><trkpt lat="42.09189267157834" lon="12.770059700755535"><ele>248.0</ele><time>2026-03-24T14:18:27.001Z</time></trkpt><trkpt lat="42.091865406720416" lon="12.770271043337406"><ele>250.66666666666669</ele><time>2026-03-24T14:18:28.001Z</time></trkpt><trkpt lat="42.091833169631045" lon="12.770486382441138"><ele>253.33333333333331</ele><time>2026-03-24T14:18:29Z</time></trkpt><trkpt lat="42.091799268952336" lon="12.770701309060119"><ele>256.0</ele><time>2026-03-24T14:18:30Z</time></trkpt><trkpt lat="42.09176880144378" lon="12.770893645865431"><ele>257.75</ele><time>2026-03-24T14:18:31Z</time></trkpt><trkpt lat="42.0917420651002" lon="12.771060321057705"><ele>259.5</ele><time>2026-03-24T14:18:32Z</time></trkpt><trkpt lat="42.091715303710025" lon="12.77121874489748"><ele>261.25</ele><time>2026-03-24T14:18:33Z</time></trkpt><trkpt lat="42.09168739224259" lon="12.77138503404226"><ele>263.0</ele><time>2026-03-24T14:18:34Z</time></trkpt><trkpt lat="42.09165806524665" lon="12.771559756532616"><ele>263.0</ele><time>2026-03-24T14:18:35Z</time></trkpt><trkpt lat="42.091630014606" lon="12.771726874837718"><ele>263.0</ele><time>2026-03-24T14:18:36Z</time></trkpt><trkpt lat="42.09160379032564" lon="12.77187764059857"><ele>263.0</ele><time>2026-03-24T14:18:37Z</time></trkpt><trkpt lat="42.09157910570929" lon="12.772017067380636"><ele>263.0</ele><time>2026-03-24T14:18:38Z</time></trkpt><trkpt lat="42.09155205603211" lon="12.772156823304366"><ele>263.75</ele><time>2026-03-24T14:18:39Z</time></trkpt><trkpt lat="42.091521634468286" lon="12.772292802480116"><ele>264.5</ele><time>2026-03-24T14:18:40Z</time></trkpt><trkpt lat="42.091482316463036" lon="12.772480045706732"><ele>265.25</ele><time>2026-03-24T14:18:41Z</time></trkpt><trkpt lat="42.0914105945915" lon="12.772706923880147"><ele>266.0</ele><time>2026-03-24T14:18:42Z</time></trkpt><trkpt lat="42.091334414437256" lon="12.772949383883025"><ele>267.5</ele><time>2026-03-24T14:18:43Z</time></trkpt><trkpt lat="42.09126925597489" lon="12.77313853484421"><ele>269.0</ele><time>2026-03-24T14:18:44Z</time></trkpt><trkpt lat="42.09120784981238" lon="12.773305233985466"><ele>270.5</ele><time>2026-03-24T14:18:45Z</time></trkpt><trkpt lat="42.09114991652397" lon="12.773454544181543"><ele>272.0</ele><time>2026-03-24T14:18:46Z</time></trkpt><trkpt lat="42.09110132325414" lon="12.773607423081625"><ele>273.0</ele><time>2026-03-24T14:18:47Z</time></trkpt><trkpt lat="42.091030750961835" lon="12.773736499659593"><ele>274.0</ele><time>2026-03-24T14:18:48Z</time></trkpt><trkpt lat="42.09096631471736" lon="12.773878502110907"><ele>275.0</ele><time>2026-03-24T14:18:49Z</time></trkpt><trkpt lat="42.090912473352226" lon="12.773999406555141"><ele>276.0</ele><time>2026-03-24T14:18:50Z</time></trkpt><trkpt lat="42.09086236338378" lon="12.774117966162974"><ele>277.0</ele><time>2026-03-24T14:18:51Z</time></trkpt><trkpt lat="42.090814008748225" lon="12.774233861329424"><ele>277.0</ele><time>2026-03-24T14:18:52Z</time></trkpt><trkpt lat="42.090770688171666" lon="12.774338044975847"><ele>277.0</ele><time>2026-03-24T14:18:53Z</time></trkpt><trkpt lat="42.090732039120375" lon="12.774430993859992"><ele>277.0</ele><time>2026-03-24T14:18:54Z</time></trkpt><trkpt lat="42.0906995865284" lon="12.774509040579971"><ele>277.0</ele><time>2026-03-24T14:18:55Z</time></trkpt><trkpt lat="42.09066750455355" lon="12.774628558570681"><ele>277.0</ele><time>2026-03-24T14:18:57Z</time></trkpt><trkpt lat="42.090602378772736" lon="12.77475888663022"><ele>277.0</ele><time>2026-03-24T14:18:59Z</time></trkpt><trkpt lat="42.09051302326686" lon="12.774761930577002"><ele>277.2</ele><time>2026-03-24T14:19:00Z</time></trkpt><trkpt lat="42.09042704719612" lon="12.77486358482584"><ele>277.4</ele><time>2026-03-24T14:19:02.001Z</time></trkpt><trkpt lat="42.09043302806842" lon="12.77505471820993"><ele>277.6</ele><time>2026-03-24T14:19:04.001Z</time></trkpt><trkpt lat="42.090496844013806" lon="12.775124355026836"><ele>277.8</ele><time>2026-03-24T14:19:05.001Z</time></trkpt><trkpt lat="42.09058779439674" lon="12.775134590443745"><ele>278.0</ele><time>2026-03-24T14:19:06.001Z</time></trkpt><trkpt lat="42.090674783448684" lon="12.775119974054649"><ele>278.4</ele><time>2026-03-24T14:19:07.001Z</time></trkpt><trkpt lat="42.09077397676298" lon="12.775131993824596"><ele>278.8</ele><time>2026-03-24T14:19:08.001Z</time></trkpt><trkpt lat="42.09086854688818" lon="12.775171683101105"><ele>279.2</ele><time>2026-03-24T14:19:09.001Z</time></trkpt><trkpt lat="42.090953739681815" lon="12.775235385465873"><ele>279.6</ele><time>2026-03-24T14:19:10.001Z</time></trkpt><trkpt lat="42.09106373125885" lon="12.775341991226862"><ele>280.0</ele><time>2026-03-24T14:19:11.001Z</time></trkpt><trkpt lat="42.091223105352434" lon="12.775469390524647"><ele>280.3333333333333</ele><time>2026-03-24T14:19:12.001Z</time></trkpt><trkpt lat="42.09137655022401" lon="12.775611429102842"><ele>280.6666666666667</ele><time>2026-03-24T14:19:13.001Z</time></trkpt><trkpt lat="42.091526398782236" lon="12.775733807507525"><ele>281.0</ele><time>2026-03-24T14:19:14.001Z</time></trkpt><trkpt lat="42.09161767557961" lon="12.775775346984684"><ele>279.2</ele><time>2026-03-24T14:19:15.001Z</time></trkpt><trkpt lat="42.09171397212545" lon="12.775855451281679"><ele>277.40000000000003</ele><time>2026-03-24T14:19:16.001Z</time></trkpt><trkpt lat="42.09180800294027" lon="12.775904645371556"><ele>275.6</ele><time>2026-03-24T14:19:17.001Z</time></trkpt><trkpt lat="42.09190228204052" lon="12.775905504806943"><ele>273.8</ele><time>2026-03-24T14:19:18.001Z</time></trkpt><trkpt lat="42.09198958170473" lon="12.775842268982709"><ele>272.0</ele><time>2026-03-24T14:19:19.001Z</time></trkpt><trkpt lat="42.09207190231627" lon="12.775713841923396"><ele>272.0</ele><time>2026-03-24T14:19:20.001Z</time></trkpt><trkpt lat="42.09214291343569" lon="12.77555287230412"><ele>272.0</ele><time>2026-03-24T14:19:21.001Z</time></trkpt><trkpt lat="42.09223569413969" lon="12.775357926805075"><ele>272.0</ele><time>2026-03-24T14:19:22.001Z</time></trkpt><trkpt lat="42.092365250866344" lon="12.775140877739979"><ele>269.6666666666667</ele><time>2026-03-24T14:19:23.001Z</time></trkpt><trkpt lat="42.0925012271514" lon="12.774947696125412"><ele>267.3333333333333</ele><time>2026-03-24T14:19:24.001Z</time></trkpt><trkpt lat="42.09263182154649" lon="12.774778442159569"><ele>265.0</ele><time>2026-03-24T14:19:25.001Z</time></trkpt><trkpt lat="42.092764591031965" lon="12.774621693254367"><ele>265.0</ele><time>2026-03-24T14:19:26.001Z</time></trkpt><trkpt lat="42.092887494070894" lon="12.77447709494607"><ele>265.0</ele><time>2026-03-24T14:19:27.001Z</time></trkpt><trkpt lat="42.09301421311339" lon="12.77432770235615"><ele>265.0</ele><time>2026-03-24T14:19:28.001Z</time></trkpt><trkpt lat="42.0931373702969" lon="12.774143468128653"><ele>266.0</ele><time>2026-03-24T14:19:29.001Z</time></trkpt><trkpt lat="42.09323988493637" lon="12.77395988267029"><ele>267.0</ele><time>2026-03-24T14:19:30.001Z</time></trkpt><trkpt lat="42.093330029019704" lon="12.773786120595988"><ele>268.0</ele><time>2026-03-24T14:19:31.001Z</time></trkpt><trkpt lat="42.093416715231655" lon="12.77362898676643"><ele>265.0</ele><time>2026-03-24T14:19:32.001Z</time></trkpt><trkpt lat="42.09351045995438" lon="12.773477277960374"><ele>262.0</ele><time>2026-03-24T14:19:33.001Z</time></trkpt><trkpt lat="42.09359623061148" lon="12.773339044026832"><ele>259.0</ele><time>2026-03-24T14:19:34.001Z</time></trkpt><trkpt lat="42.093684011654126" lon="12.773222966827236"><ele>256.0</ele><time>2026-03-24T14:19:35.001Z</time></trkpt><trkpt lat="42.093784040798155" lon="12.77313817861277"><ele>256.0</ele><time>2026-03-24T14:19:36.001Z</time></trkpt><trkpt lat="42.09390831214939" lon="12.773103461166412"><ele>256.0</ele><time>2026-03-24T14:19:37.001Z</time></trkpt><trkpt lat="42.094035995170586" lon="12.773117690387966"><ele>256.0</ele><time>2026-03-24T14:19:38.001Z</time></trkpt><trkpt lat="42.09417902926105" lon="12.773180387251806"><ele>256.0</ele><time>2026-03-24T14:19:39.001Z</time></trkpt><trkpt lat="42.094327869831844" lon="12.773233214348782"><ele>254.0</ele><time>2026-03-24T14:19:40.001Z</time></trkpt><trkpt lat="42.094485483332825" lon="12.773299671278446"><ele>252.0</ele><time>2026-03-24T14:19:41.001Z</time></trkpt><trkpt lat="42.094621840871795" lon="12.773352299074189"><ele>250.0</ele><time>2026-03-24T14:19:42.001Z</time></trkpt><trkpt lat="42.09473114583279" lon="12.773434655146277"><ele>248.0</ele><time>2026-03-24T14:19:43.001Z</time></trkpt><trkpt lat="42.0948100843013" lon="12.7735295907868"><ele>248.0</ele><time>2026-03-24T14:19:44.001Z</time></trkpt><trkpt lat="42.094854642765455" lon="12.77364921157076"><ele>248.0</ele><time>2026-03-24T14:19:45.001Z</time></trkpt><trkpt lat="42.094811601938105" lon="12.77380653294825"><ele>248.0</ele><time>2026-03-24T14:19:46.001Z</time></trkpt><trkpt lat="42.0947932841863" lon="12.773990795601511"><ele>248.0</ele><time>2026-03-24T14:19:47.001Z</time></trkpt><trkpt lat="42.094747436693574" lon="12.77419441847369"><ele>249.33333333333334</ele><time>2026-03-24T14:19:48.001Z</time></trkpt><trkpt lat="42.094716030490986" lon="12.774439350834273"><ele>250.66666666666669</ele><time>2026-03-24T14:19:49.001Z</time></trkpt><trkpt lat="42.09472085896104" lon="12.774701467769031"><ele>252.0</ele><time>2026-03-24T14:19:50.001Z</time></trkpt><trkpt lat="42.09472801213073" lon="12.774934495847662"><ele>252.0</ele><time>2026-03-24T14:19:51.001Z</time></trkpt><trkpt lat="42.094724345266606" lon="12.775161231807294"><ele>252.0</ele><time>2026-03-24T14:19:52.001Z</time></trkpt><trkpt lat="42.09471028808861" lon="12.775360752252087"><ele>252.0</ele><time>2026-03-24T14:19:53.001Z</time></trkpt><trkpt lat="42.09466617220899" lon="12.775583725691765"><ele>254.33333333333331</ele><time>2026-03-24T14:19:54.001Z</time></trkpt><trkpt lat="42.09461295589264" lon="12.77584901998882"><ele>256.66666666666663</ele><time>2026-03-24T14:19:55.001Z</time></trkpt><trkpt lat="42.09457892518128" lon="12.776075393483286"><ele>259.0</ele><time>2026-03-24T14:19:56.001Z</time></trkpt><trkpt lat="42.094546096058366" lon="12.776268384551964"><ele>260.0</ele><time>2026-03-24T14:19:57.001Z</time></trkpt><trkpt lat="42.09453327144725" lon="12.776462872203718"><ele>261.0</ele><time>2026-03-24T14:19:58.001Z</time></trkpt><trkpt lat="42.09453874700095" lon="12.776646537916559"><ele>262.0</ele><time>2026-03-24T14:19:59.001Z</time></trkpt><trkpt lat="42.094564731400496" lon="12.776826284940505"><ele>263.0</ele><time>2026-03-24T14:20:00.001Z</time></trkpt><trkpt lat="42.094630798862475" lon="12.776997651603173"><ele>263.4</ele><time>2026-03-24T14:20:01.001Z</time></trkpt><trkpt lat="42.094722132441376" lon="12.77712162216902"><ele>263.8</ele><time>2026-03-24T14:20:02.001Z</time></trkpt><trkpt lat="42.09480426136287" lon="12.777193437035075"><ele>264.2</ele><time>2026-03-24T14:20:03.001Z</time></trkpt><trkpt lat="42.09486872121865" lon="12.777266941273927"><ele>264.6</ele><time>2026-03-24T14:20:05.001Z</time></trkpt><trkpt lat="42.09475172794245" lon="12.777306419277101"><ele>265.0</ele><time>2026-03-24T14:20:08.001Z</time></trkpt><trkpt lat="42.09467967187025" lon="12.777357616743997"><ele>265.0</ele><time>2026-03-24T14:20:09.001Z</time></trkpt><trkpt lat="42.09458588463428" lon="12.777417368045784"><ele>265.0</ele><time>2026-03-24T14:20:10.001Z</time></trkpt><trkpt lat="42.09448727022943" lon="12.777474002383853"><ele>265.0</ele><time>2026-03-24T14:20:11.001Z</time></trkpt><trkpt lat="42.09438647074336" lon="12.777517297803781"><ele>265.0</ele><time>2026-03-24T14:20:12.001Z</time></trkpt><trkpt lat="42.09430916432566" lon="12.777556584674295"><ele>265.0</ele><time>2026-03-24T14:20:13.001Z</time></trkpt><trkpt lat="42.0942080584261" lon="12.777607966466498"><ele>265.2</ele><time>2026-03-24T14:20:15.001Z</time></trkpt><trkpt lat="42.094151449077685" lon="12.777828481999704"><ele>265.4</ele><time>2026-03-24T14:20:17.001Z</time></trkpt><trkpt lat="42.09409440001381" lon="12.77794154667455"><ele>265.6</ele><time>2026-03-24T14:20:18.001Z</time></trkpt><trkpt lat="42.09404547904517" lon="12.778028577387001"><ele>265.8</ele><time>2026-03-24T14:20:19.001Z</time></trkpt><trkpt lat="42.09398937341022" lon="12.778090665279626"><ele>266.0</ele><time>2026-03-24T14:20:20.001Z</time></trkpt><trkpt lat="42.09388664190781" lon="12.778137792127184"><ele>266.8</ele><time>2026-03-24T14:20:21.001Z</time></trkpt><trkpt lat="42.09381339080943" lon="12.778222934766214"><ele>267.6</ele><time>2026-03-24T14:20:22.001Z</time></trkpt><trkpt lat="42.09374538152346" lon="12.778301743165203"><ele>268.4</ele><time>2026-03-24T14:20:23.001Z</time></trkpt><trkpt lat="42.09367354972568" lon="12.778379113886777"><ele>269.2</ele><time>2026-03-24T14:20:24.001Z</time></trkpt><trkpt lat="42.09360417762449" lon="12.778448676467871"><ele>270.0</ele><time>2026-03-24T14:20:25.001Z</time></trkpt><trkpt lat="42.09353019792225" lon="12.77851833585786"><ele>270.0</ele><time>2026-03-24T14:20:26.001Z</time></trkpt><trkpt lat="42.093460481964485" lon="12.778582635985297"><ele>270.0</ele><time>2026-03-24T14:20:27.001Z</time></trkpt><trkpt lat="42.09338656454933" lon="12.77865081117876"><ele>270.0</ele><time>2026-03-24T14:20:28.001Z</time></trkpt><trkpt lat="42.09330299364392" lon="12.778728671174095"><ele>270.0</ele><time>2026-03-24T14:20:29.001Z</time></trkpt><trkpt lat="42.09322620098634" lon="12.778802114409428"><ele>270.0</ele><time>2026-03-24T14:20:30.001Z</time></trkpt><trkpt lat="42.09315329698111" lon="12.778873231545273"><ele>271.0</ele><time>2026-03-24T14:20:31.001Z</time></trkpt><trkpt lat="42.093072935091264" lon="12.778952800704026"><ele>272.0</ele><time>2026-03-24T14:20:32.001Z</time></trkpt><trkpt lat="42.0929914140718" lon="12.779033659520723"><ele>273.0</ele><time>2026-03-24T14:20:33.001Z</time></trkpt><trkpt lat="42.09292415651434" lon="12.779127508579856"><ele>274.0</ele><time>2026-03-24T14:20:34.001Z</time></trkpt><trkpt lat="42.09283346127521" lon="12.779184347451752"><ele>275.0</ele><time>2026-03-24T14:20:35.001Z</time></trkpt><trkpt lat="42.09274216922708" lon="12.77926842262879"><ele>275.0</ele><time>2026-03-24T14:20:36.001Z</time></trkpt><trkpt lat="42.09267879030687" lon="12.779334447388473"><ele>275.0</ele><time>2026-03-24T14:20:37.001Z</time></trkpt><trkpt lat="42.09263198690999" lon="12.779402479753173"><ele>275.0</ele><time>2026-03-24T14:20:38.001Z</time></trkpt><trkpt lat="42.09258314200215" lon="12.77947612913531"><ele>275.0</ele><time>2026-03-24T14:20:39.001Z</time></trkpt><trkpt lat="42.09253423060349" lon="12.779558365148352"><ele>275.0</ele><time>2026-03-24T14:20:40.001Z</time></trkpt><trkpt lat="42.09248271237548" lon="12.779627479300137"><ele>275.0</ele><time>2026-03-24T14:20:41.001Z</time></trkpt><trkpt lat="42.092420923161754" lon="12.77973374263948"><ele>275.5</ele><time>2026-03-24T14:20:42.001Z</time></trkpt><trkpt lat="42.09237336040853" lon="12.779816078581756"><ele>276.0</ele><time>2026-03-24T14:20:43.001Z</time></trkpt><trkpt lat="42.092321364345686" lon="12.779906089048506"><ele>276.5</ele><time>2026-03-24T14:20:44.001Z</time></trkpt><trkpt lat="42.092275976216015" lon="12.77998482236485"><ele>277.0</ele><time>2026-03-24T14:20:45.001Z</time></trkpt><trkpt lat="42.09223119265815" lon="12.780065407997313"><ele>277.5</ele><time>2026-03-24T14:20:46.001Z</time></trkpt><trkpt lat="42.09218429789779" lon="12.780149792616909"><ele>278.0</ele><time>2026-03-24T14:20:47Z</time></trkpt><trkpt lat="42.092141756842636" lon="12.780226342990932"><ele>278.5</ele><time>2026-03-24T14:20:48Z</time></trkpt><trkpt lat="42.09210101416418" lon="12.780299657260537"><ele>279.0</ele><time>2026-03-24T14:20:49Z</time></trkpt><trkpt lat="42.09205650788632" lon="12.780379483124563"><ele>279.5</ele><time>2026-03-24T14:20:50Z</time></trkpt><trkpt lat="42.09201513684644" lon="12.780451732810992"><ele>280.0</ele><time>2026-03-24T14:20:51Z</time></trkpt><trkpt lat="42.091927688750246" lon="12.780604354800378"><ele>280.5</ele><time>2026-03-24T14:20:53Z</time></trkpt><trkpt lat="42.091883711052176" lon="12.780680898259922"><ele>281.0</ele><time>2026-03-24T14:20:54Z</time></trkpt><trkpt lat="42.09183988776599" lon="12.780757172971564"><ele>281.0</ele><time>2026-03-24T14:20:55Z</time></trkpt><trkpt lat="42.091794340656236" lon="12.780833573949838"><ele>281.0</ele><time>2026-03-24T14:20:56Z</time></trkpt><trkpt lat="42.091751063525784" lon="12.780903594729791"><ele>281.0</ele><time>2026-03-24T14:20:57Z</time></trkpt><trkpt lat="42.09170060621053" lon="12.780980081404742"><ele>281.0</ele><time>2026-03-24T14:20:58Z</time></trkpt><trkpt lat="42.09161127474096" lon="12.781108611981871"><ele>281.0</ele><time>2026-03-24T14:21:00Z</time></trkpt><trkpt lat="42.09156485103656" lon="12.781171085468864"><ele>281.0</ele><time>2026-03-24T14:21:01Z</time></trkpt><trkpt lat="42.09151905554951" lon="12.781230020326081"><ele>281.5</ele><time>2026-03-24T14:21:02Z</time></trkpt><trkpt lat="42.091471908868925" lon="12.781287624932194"><ele>282.0</ele><time>2026-03-24T14:21:03Z</time></trkpt><trkpt lat="42.0914232507213" lon="12.781343455749655"><ele>282.5</ele><time>2026-03-24T14:21:04Z</time></trkpt><trkpt lat="42.091329131389664" lon="12.781431660768773"><ele>283.0</ele><time>2026-03-24T14:21:06.001Z</time></trkpt><trkpt lat="42.09123494156583" lon="12.781506996679978"><ele>283.5</ele><time>2026-03-24T14:21:08.001Z</time></trkpt><trkpt lat="42.091175058455335" lon="12.78156208786003"><ele>284.0</ele><time>2026-03-24T14:21:09.001Z</time></trkpt><trkpt lat="42.09112487816969" lon="12.781648866497335"><ele>284.0</ele><time>2026-03-24T14:21:10.001Z</time></trkpt><trkpt lat="42.091014244768786" lon="12.781766803843084"><ele>284.0</ele><time>2026-03-24T14:21:12.001Z</time></trkpt><trkpt lat="42.090965661636716" lon="12.781825173840364"><ele>284.0</ele><time>2026-03-24T14:21:13.001Z</time></trkpt><trkpt lat="42.09087874151769" lon="12.781973102618165"><ele>284.0</ele><time>2026-03-24T14:21:15.001Z</time></trkpt><trkpt lat="42.09080829090391" lon="12.782033748144103"><ele>284.0</ele><time>2026-03-24T14:21:16.001Z</time></trkpt><trkpt lat="42.09075925094415" lon="12.782097103515737"><ele>284.57142857142856</ele><time>2026-03-24T14:21:17.001Z</time></trkpt><trkpt lat="42.09070203663772" lon="12.782167685409588"><ele>285.1428571428571</ele><time>2026-03-24T14:21:18.001Z</time></trkpt><trkpt lat="42.09065084244369" lon="12.782225585554057"><ele>285.7142857142857</ele><time>2026-03-24T14:21:19.001Z</time></trkpt><trkpt lat="42.09059534602672" lon="12.782286352025936"><ele>286.2857142857143</ele><time>2026-03-24T14:21:20.001Z</time></trkpt><trkpt lat="42.09053729913912" lon="12.782345626210727"><ele>286.8571428571429</ele><time>2026-03-24T14:21:21.001Z</time></trkpt><trkpt lat="42.09048411872063" lon="12.782398026362541"><ele>287.42857142857144</ele><time>2026-03-24T14:21:22.001Z</time></trkpt><trkpt lat="42.090425203417404" lon="12.782443205771791"><ele>288.0</ele><time>2026-03-24T14:21:23.001Z</time></trkpt><trkpt lat="42.09036553751191" lon="12.782488291106862"><ele>288.00000000000006</ele><time>2026-03-24T14:21:24.001Z</time></trkpt><trkpt lat="42.09030070591782" lon="12.782533975812253"><ele>288.0</ele><time>2026-03-24T14:21:25.001Z</time></trkpt><trkpt lat="42.0902421850754" lon="12.782574482019667"><ele>288.0</ele><time>2026-03-24T14:21:26.001Z</time></trkpt><trkpt lat="42.090181716770914" lon="12.78261429877713"><ele>288.0</ele><time>2026-03-24T14:21:27.001Z</time></trkpt><trkpt lat="42.09011764012063" lon="12.782656544778687"><ele>288.0</ele><time>2026-03-24T14:21:28.001Z</time></trkpt><trkpt lat="42.09004676092344" lon="12.782705880954198"><ele>288.00000000000006</ele><time>2026-03-24T14:21:29.001Z</time></trkpt><trkpt lat="42.089992074275806" lon="12.78275876865885"><ele>288.0</ele><time>2026-03-24T14:21:30.001Z</time></trkpt><trkpt lat="42.08994046362935" lon="12.782823527627086"><ele>288.5</ele><time>2026-03-24T14:21:31.001Z</time></trkpt><trkpt lat="42.0898949406658" lon="12.782893420776569"><ele>289.0</ele><time>2026-03-24T14:21:32.001Z</time></trkpt><trkpt lat="42.0898626967614" lon="12.782968643660473"><ele>289.5</ele><time>2026-03-24T14:21:33.001Z</time></trkpt><trkpt lat="42.08984658186815" lon="12.783075222801324"><ele>290.0</ele><time>2026-03-24T14:21:35.001Z</time></trkpt><trkpt lat="42.08987049965403" lon="12.783196884921475"><ele>290.5</ele><time>2026-03-24T14:21:37.001Z</time></trkpt><trkpt lat="42.089897346603315" lon="12.783285972162863"><ele>291.0</ele><time>2026-03-24T14:21:38.001Z</time></trkpt><trkpt lat="42.08993348832849" lon="12.78336800919166"><ele>292.5</ele><time>2026-03-24T14:21:39.001Z</time></trkpt><trkpt lat="42.0899780742949" lon="12.78345652194943"><ele>294.0</ele><time>2026-03-24T14:21:40.001Z</time></trkpt><trkpt lat="42.09002148157978" lon="12.783545440857422"><ele>295.5</ele><time>2026-03-24T14:21:41.001Z</time></trkpt><trkpt lat="42.09006190367287" lon="12.783631680054137"><ele>297.0</ele><time>2026-03-24T14:21:42.001Z</time></trkpt><trkpt lat="42.090096017796654" lon="12.783703203723972"><ele>298.5</ele><time>2026-03-24T14:21:43.001Z</time></trkpt><trkpt lat="42.09016750924801" lon="12.783853092796308"><ele>300.0</ele><time>2026-03-24T14:21:45.001Z</time></trkpt><trkpt lat="42.090204023576405" lon="12.783929648759816"><ele>301.5</ele><time>2026-03-24T14:21:46.001Z</time></trkpt><trkpt lat="42.09024934707336" lon="12.784024674177822"><ele>303.0</ele><time>2026-03-24T14:21:47.001Z</time></trkpt><trkpt lat="42.09029657788307" lon="12.784126739511413"><ele>304.5</ele><time>2026-03-24T14:21:48.001Z</time></trkpt><trkpt lat="42.090333692588494" lon="12.784207817713938"><ele>306.0</ele><time>2026-03-24T14:21:49.001Z</time></trkpt><trkpt lat="42.09037242094561" lon="12.784329419010069"><ele>307.5</ele><time>2026-03-24T14:21:51.001Z</time></trkpt><trkpt lat="42.090386887007064" lon="12.784413816159693"><ele>309.0</ele><time>2026-03-24T14:21:53.001Z</time></trkpt><trkpt lat="42.09032474067214" lon="12.78453048320217"><ele>312.2</ele><time>2026-03-24T14:21:56.001Z</time></trkpt><trkpt lat="42.09026625057557" lon="12.78461669839534"><ele>315.4</ele><time>2026-03-24T14:21:57.001Z</time></trkpt><trkpt lat="42.09020638995712" lon="12.784701121389027"><ele>318.6</ele><time>2026-03-24T14:21:58.001Z</time></trkpt><trkpt lat="42.0901348086812" lon="12.784796842858988"><ele>321.8</ele><time>2026-03-24T14:21:59.001Z</time></trkpt><trkpt lat="42.09004952373258" lon="12.78490875792823"><ele>325.0</ele><time>2026-03-24T14:22:00.001Z</time></trkpt><trkpt lat="42.089956282182875" lon="12.785036668513396"><ele>325.2</ele><time>2026-03-24T14:22:01.001Z</time></trkpt><trkpt lat="42.08987629046392" lon="12.785146402556329"><ele>325.4</ele><time>2026-03-24T14:22:02.001Z</time></trkpt><trkpt lat="42.08980528329029" lon="12.785242374730522"><ele>325.6</ele><time>2026-03-24T14:22:03.001Z</time></trkpt><trkpt lat="42.089725638652766" lon="12.78534816616614"><ele>325.8</ele><time>2026-03-24T14:22:04.001Z</time></trkpt><trkpt lat="42.089656738086404" lon="12.78543968632709"><ele>326.0</ele><time>2026-03-24T14:22:05.001Z</time></trkpt><trkpt lat="42.08958758070796" lon="12.785529897548168"><ele>326.0</ele><time>2026-03-24T14:22:06.001Z</time></trkpt><trkpt lat="42.089512740530715" lon="12.785626748678261"><ele>326.0</ele><time>2026-03-24T14:22:07.001Z</time></trkpt><trkpt lat="42.08944716651699" lon="12.785708054505177"><ele>326.0</ele><time>2026-03-24T14:22:08.001Z</time></trkpt><trkpt lat="42.08938905025235" lon="12.785780113601282"><ele>326.0</ele><time>2026-03-24T14:22:09.001Z</time></trkpt><trkpt lat="42.08933081465228" lon="12.785855041054237"><ele>326.0</ele><time>2026-03-24T14:22:10.001Z</time></trkpt><trkpt lat="42.089280627328314" lon="12.785952485158143"><ele>326.0</ele><time>2026-03-24T14:22:11.001Z</time></trkpt><trkpt lat="42.08922064770558" lon="12.786038063231437"><ele>326.83333333333337</ele><time>2026-03-24T14:22:12.001Z</time></trkpt><trkpt lat="42.08917121203958" lon="12.786111016475047"><ele>327.6666666666667</ele><time>2026-03-24T14:22:13.001Z</time></trkpt><trkpt lat="42.089119376584954" lon="12.78617464002589"><ele>328.5</ele><time>2026-03-24T14:22:14.001Z</time></trkpt><trkpt lat="42.08906522167031" lon="12.786239280811966"><ele>329.3333333333333</ele><time>2026-03-24T14:22:15.001Z</time></trkpt><trkpt lat="42.08900015844836" lon="12.786296378042955"><ele>330.16666666666663</ele><time>2026-03-24T14:22:16.001Z</time></trkpt><trkpt lat="42.088896533300414" lon="12.786393180274846"><ele>331.0</ele><time>2026-03-24T14:22:18.001Z</time></trkpt><trkpt lat="42.08881127195217" lon="12.786465264190374"><ele>331.0</ele><time>2026-03-24T14:22:20.001Z</time></trkpt><trkpt lat="42.08870242785432" lon="12.78651290481606"><ele>331.0</ele><time>2026-03-24T14:22:22.001Z</time></trkpt><trkpt lat="42.08864666368834" lon="12.786561960974415"><ele>331.0</ele><time>2026-03-24T14:22:23.001Z</time></trkpt><trkpt lat="42.088538038801595" lon="12.78660199584174"><ele>331.0</ele><time>2026-03-24T14:22:25.001Z</time></trkpt><trkpt lat="42.08847880168526" lon="12.786649713632636"><ele>331.0</ele><time>2026-03-24T14:22:26.001Z</time></trkpt><trkpt lat="42.08836806437893" lon="12.786692867692253"><ele>331.0</ele><time>2026-03-24T14:22:28.001Z</time></trkpt><trkpt lat="42.0883057871935" lon="12.786705925996229"><ele>331.0</ele><time>2026-03-24T14:22:29.001Z</time></trkpt><trkpt lat="42.088245803759555" lon="12.786748360328087"><ele>331.0</ele><time>2026-03-24T14:22:30.001Z</time></trkpt><trkpt lat="42.08813361400985" lon="12.786809370333883"><ele>331.0</ele><time>2026-03-24T14:22:32.001Z</time></trkpt><trkpt lat="42.08806335934396" lon="12.786823046789467"><ele>331.0</ele><time>2026-03-24T14:22:33.001Z</time></trkpt><trkpt lat="42.08795930024452" lon="12.786878920388427"><ele>331.0</ele><time>2026-03-24T14:22:35.001Z</time></trkpt><trkpt lat="42.08787577900707" lon="12.786964862442677"><ele>331.0</ele><time>2026-03-24T14:22:37.001Z</time></trkpt><trkpt lat="42.08780575663571" lon="12.78703241160532"><ele>331.0</ele><time>2026-03-24T14:22:39.001Z</time></trkpt><trkpt lat="42.08775336102065" lon="12.787087975429165"><ele>331.0</ele><time>2026-03-24T14:22:40.001Z</time></trkpt><trkpt lat="42.08769047732109" lon="12.787183402941219"><ele>331.0</ele><time>2026-03-24T14:22:42Z</time></trkpt><trkpt lat="42.08764145523153" lon="12.787263185764273"><ele>331.0</ele><time>2026-03-24T14:22:43Z</time></trkpt><trkpt lat="42.08758481158647" lon="12.787353746060054"><ele>331.0</ele><time>2026-03-24T14:22:45Z</time></trkpt><trkpt lat="42.0875046765836" lon="12.787443488808314"><ele>331.75</ele><time>2026-03-24T14:22:47Z</time></trkpt><trkpt lat="42.087416800085705" lon="12.787527202379843"><ele>332.5</ele><time>2026-03-24T14:22:49Z</time></trkpt><trkpt lat="42.08733912875262" lon="12.787603881925206"><ele>333.25</ele><time>2026-03-24T14:22:51Z</time></trkpt><trkpt lat="42.08726079644944" lon="12.78768121408073"><ele>334.0</ele><time>2026-03-24T14:22:53Z</time></trkpt><trkpt lat="42.08735156604816" lon="12.787970165863417"><ele>334.0</ele><time>2026-03-24T14:22:54Z</time></trkpt><trkpt lat="42.08731570317242" lon="12.788084670816268"><ele>334.0</ele><time>2026-03-24T14:22:56Z</time></trkpt><trkpt lat="42.08726905915161" lon="12.788204873783283"><ele>334.0</ele><time>2026-03-24T14:22:58Z</time></trkpt><trkpt lat="42.08724171319562" lon="12.788336300565959"><ele>334.0</ele><time>2026-03-24T14:23:00Z</time></trkpt><trkpt lat="42.087217571505576" lon="12.788416878245915"><ele>334.0</ele><time>2026-03-24T14:23:01Z</time></trkpt><trkpt lat="42.08715331024349" lon="12.788569390390082"><ele>335.2</ele><time>2026-03-24T14:23:03Z</time></trkpt><trkpt lat="42.08710743242458" lon="12.788709106321432"><ele>336.4</ele><time>2026-03-24T14:23:05Z</time></trkpt><trkpt lat="42.087096341652206" lon="12.788838451862128"><ele>337.6</ele><time>2026-03-24T14:23:07Z</time></trkpt><trkpt lat="42.08709362570212" lon="12.788958896059656"><ele>338.8</ele><time>2026-03-24T14:23:09Z</time></trkpt><trkpt lat="42.087101946013334" lon="12.789113555206606"><ele>340.0</ele><time>2026-03-24T14:23:11Z</time></trkpt><trkpt lat="42.08709613013105" lon="12.789269757997156"><ele>342.0</ele><time>2026-03-24T14:23:13.001Z</time></trkpt><trkpt lat="42.08708725564959" lon="12.789356329819796"><ele>344.0</ele><time>2026-03-24T14:23:14.001Z</time></trkpt><trkpt lat="42.08705961157631" lon="12.789511769555086"><ele>346.0</ele><time>2026-03-24T14:23:16.001Z</time></trkpt><trkpt lat="42.08700572206665" lon="12.789658430796619"><ele>348.0</ele><time>2026-03-24T14:23:18.001Z</time></trkpt><trkpt lat="42.086949782639124" lon="12.78979638481411"><ele>350.0</ele><time>2026-03-24T14:23:20.001Z</time></trkpt><trkpt lat="42.086882707323056" lon="12.7899197575528"><ele>350.0</ele><time>2026-03-24T14:23:22.001Z</time></trkpt><trkpt lat="42.08684905574342" lon="12.789992279248754"><ele>350.0</ele><time>2026-03-24T14:23:23.001Z</time></trkpt><trkpt lat="42.086782530598995" lon="12.79012623990164"><ele>350.0</ele><time>2026-03-24T14:23:25.001Z</time></trkpt><trkpt lat="42.0867099761407" lon="12.790260977526493"><ele>350.0</ele><time>2026-03-24T14:23:27.001Z</time></trkpt><trkpt lat="42.08667286924829" lon="12.790333846059427"><ele>350.0</ele><time>2026-03-24T14:23:28.001Z</time></trkpt><trkpt lat="42.08660446319774" lon="12.790469045727727"><ele>351.0</ele><time>2026-03-24T14:23:30.001Z</time></trkpt><trkpt lat="42.086560328445515" lon="12.790614979258843"><ele>352.0</ele><time>2026-03-24T14:23:32.001Z</time></trkpt><trkpt lat="42.08653697039878" lon="12.790694275095412"><ele>353.0</ele><time>2026-03-24T14:23:33.001Z</time></trkpt><trkpt lat="42.086503393741125" lon="12.790841576138957"><ele>354.0</ele><time>2026-03-24T14:23:35.001Z</time></trkpt><trkpt lat="42.086486567729565" lon="12.790979443363089"><ele>355.0</ele><time>2026-03-24T14:23:37.001Z</time></trkpt><trkpt lat="42.08646664692875" lon="12.791133257763702"><ele>356.3333333333333</ele><time>2026-03-24T14:23:39.001Z</time></trkpt><trkpt lat="42.08644948686099" lon="12.791221149426372"><ele>357.66666666666663</ele><time>2026-03-24T14:23:40.001Z</time></trkpt><trkpt lat="42.08643434488711" lon="12.791308861574954"><ele>359.0</ele><time>2026-03-24T14:23:41.001Z</time></trkpt><trkpt lat="42.086411838540315" lon="12.791402579542392"><ele>360.3333333333333</ele><time>2026-03-24T14:23:42.001Z</time></trkpt><trkpt lat="42.086359737917505" lon="12.791459894539768"><ele>361.6666666666667</ele><time>2026-03-24T14:23:43.001Z</time></trkpt><trkpt lat="42.08634282173097" lon="12.79154287764408"><ele>363.0</ele><time>2026-03-24T14:23:44.001Z</time></trkpt><trkpt lat="42.086310957380405" lon="12.791697143573666"><ele>363.0</ele><time>2026-03-24T14:23:46.001Z</time></trkpt><trkpt lat="42.08628271504386" lon="12.791826682896486"><ele>363.0</ele><time>2026-03-24T14:23:48.001Z</time></trkpt><trkpt lat="42.086257885186384" lon="12.791941412378536"><ele>363.0</ele><time>2026-03-24T14:23:50.001Z</time></trkpt><trkpt lat="42.08622857079422" lon="12.792064161063069"><ele>363.0</ele><time>2026-03-24T14:23:52.001Z</time></trkpt><trkpt lat="42.086192628879736" lon="12.792214660582651"><ele>363.0</ele><time>2026-03-24T14:23:54.001Z</time></trkpt><trkpt lat="42.086154497352894" lon="12.79237398797726"><ele>364.0</ele><time>2026-03-24T14:23:56.001Z</time></trkpt><trkpt lat="42.08613228761146" lon="12.792465882242134"><ele>365.0</ele><time>2026-03-24T14:23:57.001Z</time></trkpt><trkpt lat="42.0861145022704" lon="12.792547572785042"><ele>366.0</ele><time>2026-03-24T14:23:58.001Z</time></trkpt><trkpt lat="42.08609971018837" lon="12.792640526173265"><ele>367.0</ele><time>2026-03-24T14:23:59.001Z</time></trkpt><trkpt lat="42.08609012254413" lon="12.792726368444777"><ele>368.0</ele><time>2026-03-24T14:24:00.001Z</time></trkpt><trkpt lat="42.086076997562046" lon="12.792876012829378"><ele>369.0</ele><time>2026-03-24T14:24:02.001Z</time></trkpt><trkpt lat="42.08606548220477" lon="12.793023884959426"><ele>369.6</ele><time>2026-03-24T14:24:04.001Z</time></trkpt><trkpt lat="42.08606892770075" lon="12.793204843581293"><ele>370.2</ele><time>2026-03-24T14:24:06.001Z</time></trkpt><trkpt lat="42.08609915297767" lon="12.793385241074995"><ele>370.8</ele><time>2026-03-24T14:24:08.001Z</time></trkpt><trkpt lat="42.086127839378335" lon="12.793520139320648"><ele>371.40000000000003</ele><time>2026-03-24T14:24:10.001Z</time></trkpt><trkpt lat="42.08614620660592" lon="12.793603376547177"><ele>372.0</ele><time>2026-03-24T14:24:11.001Z</time></trkpt><trkpt lat="42.08617969831695" lon="12.793676591966515"><ele>372.6666666666667</ele><time>2026-03-24T14:24:12.001Z</time></trkpt><trkpt lat="42.086220870402315" lon="12.793816457724834"><ele>373.3333333333333</ele><time>2026-03-24T14:24:14.001Z</time></trkpt><trkpt lat="42.08626653267947" lon="12.793927107736465"><ele>374.0</ele><time>2026-03-24T14:24:16.001Z</time></trkpt><trkpt lat="42.08629797428358" lon="12.794023427980445"><ele>374.66666666666663</ele><time>2026-03-24T14:24:17.001Z</time></trkpt><trkpt lat="42.08633462737922" lon="12.794106638662612"><ele>375.3333333333333</ele><time>2026-03-24T14:24:18.001Z</time></trkpt><trkpt lat="42.0863917226997" lon="12.79420242173177"><ele>376.0</ele><time>2026-03-24T14:24:20.001Z</time></trkpt><trkpt lat="42.086428783607175" lon="12.794290830198738"><ele>377.3333333333333</ele><time>2026-03-24T14:24:23.001Z</time></trkpt><trkpt lat="42.0864682004374" lon="12.794381758755117"><ele>378.66666666666663</ele><time>2026-03-24T14:24:25.001Z</time></trkpt><trkpt lat="42.086520280939176" lon="12.794493231034446"><ele>380.0</ele><time>2026-03-24T14:24:27.001Z</time></trkpt><trkpt lat="42.08656724611662" lon="12.79460544417027"><ele>381.3333333333333</ele><time>2026-03-24T14:24:29.001Z</time></trkpt><trkpt lat="42.08659281800414" lon="12.794716162575085"><ele>382.6666666666667</ele><time>2026-03-24T14:24:32.001Z</time></trkpt><trkpt lat="42.086633265755374" lon="12.794819762179255"><ele>384.0</ele><time>2026-03-24T14:24:36.001Z</time></trkpt><trkpt lat="42.086667269967435" lon="12.794906407343426"><ele>386.3333333333333</ele><time>2026-03-24T14:24:38.001Z</time></trkpt><trkpt lat="42.086712282963646" lon="12.795018322350172"><ele>388.66666666666663</ele><time>2026-03-24T14:24:40.001Z</time></trkpt><trkpt lat="42.08676110997573" lon="12.795129062776917"><ele>391.0</ele><time>2026-03-24T14:24:42.001Z</time></trkpt><trkpt lat="42.0868113925964" lon="12.79523135331781"><ele>393.3333333333333</ele><time>2026-03-24T14:24:44.001Z</time></trkpt><trkpt lat="42.08685279597008" lon="12.795307668812674"><ele>395.66666666666663</ele><time>2026-03-24T14:24:54Z</time></trkpt><trkpt lat="42.08690440483261" lon="12.795388295745902"><ele>398.0</ele><time>2026-03-24T14:25:17Z</time></trkpt><trkpt lat="42.08695262638425" lon="12.795454906101792"><ele>397.99999999999994</ele><time>2026-03-24T14:25:20Z</time></trkpt><trkpt lat="42.08702274623823" lon="12.79550405129416"><ele>398.0</ele><time>2026-03-24T14:31:17Z</time></trkpt><trkpt lat="42.08707915447755" lon="12.795586104707628"><ele>398.0</ele><time>2026-03-24T14:31:19Z</time></trkpt><trkpt lat="42.087143760559464" lon="12.795646806397743"><ele>398.0</ele><time>2026-03-24T14:31:21Z</time></trkpt><trkpt lat="42.08718868212568" lon="12.79573965257749"><ele>397.99999999999994</ele><time>2026-03-24T14:31:23Z</time></trkpt><trkpt lat="42.08724333654689" lon="12.795812411047514"><ele>398.0</ele><time>2026-03-24T14:31:25Z</time></trkpt><trkpt lat="42.087300926285344" lon="12.795893112840583"><ele>397.99999999999994</ele><time>2026-03-24T14:31:27Z</time></trkpt><trkpt lat="42.08735105995469" lon="12.795975024531096"><ele>398.0</ele><time>2026-03-24T14:31:29Z</time></trkpt><trkpt lat="42.08742073971008" lon="12.796037498730884"><ele>398.0</ele><time>2026-03-24T14:31:31Z</time></trkpt><trkpt lat="42.087472872027924" lon="12.796113703758634"><ele>398.0</ele><time>2026-03-24T14:31:33Z</time></trkpt><trkpt lat="42.08753779840795" lon="12.796213692276899"><ele>397.99999999999994</ele><time>2026-03-24T14:31:35Z</time></trkpt><trkpt lat="42.08759649612847" lon="12.796283315284384"><ele>398.0</ele><time>2026-03-24T14:31:37Z</time></trkpt><trkpt lat="42.08765113760036" lon="12.796346811301577"><ele>400.99999999999994</ele><time>2026-03-24T14:31:39Z</time></trkpt><trkpt lat="42.087735920984244" lon="12.796440728451245"><ele>404.0</ele><time>2026-03-24T14:31:41Z</time></trkpt><trkpt lat="42.08779180777606" lon="12.796513133546098"><ele>407.0</ele><time>2026-03-24T14:31:43Z</time></trkpt><trkpt lat="42.087849263085744" lon="12.796557818289164"><ele>410.0</ele><time>2026-03-24T14:31:45Z</time></trkpt><trkpt lat="42.08790138576904" lon="12.79661819459112"><ele>412.99999999999994</ele><time>2026-03-24T14:31:47Z</time></trkpt><trkpt lat="42.08794857170775" lon="12.796676186084587"><ele>416.0</ele><time>2026-03-24T14:31:49.001Z</time></trkpt><trkpt lat="42.08801098894748" lon="12.796710119031514"><ele>415.99999999999994</ele><time>2026-03-24T14:31:51.001Z</time></trkpt><trkpt lat="42.08806357338832" lon="12.796801077326496"><ele>416.0</ele><time>2026-03-24T14:32:27.001Z</time></trkpt><trkpt lat="42.08806647241995" lon="12.79689796481322"><ele>416.0</ele><time>2026-03-24T14:32:30.001Z</time></trkpt><trkpt lat="42.08802574725712" lon="12.796977773314557"><ele>416.0</ele><time>2026-03-24T14:32:33.001Z</time></trkpt><trkpt lat="42.08796125059011" lon="12.797025199591127"><ele>415.99999999999994</ele><time>2026-03-24T14:32:36.001Z</time></trkpt><trkpt lat="42.08787263821974" lon="12.79707540036396"><ele>416.0</ele><time>2026-03-24T14:32:39.001Z</time></trkpt><trkpt lat="42.0877950901938" lon="12.7971118187099"><ele>419.0</ele><time>2026-03-24T14:32:41.001Z</time></trkpt><trkpt lat="42.087698779953236" lon="12.797165327209386"><ele>422.0</ele><time>2026-03-24T14:32:43.001Z</time></trkpt><trkpt lat="42.08761165486006" lon="12.797181258152841"><ele>425.0</ele><time>2026-03-24T14:32:45.001Z</time></trkpt><trkpt lat="42.08751032761632" lon="12.797206329303746"><ele>428.0</ele><time>2026-03-24T14:32:47.001Z</time></trkpt><trkpt lat="42.08739444501504" lon="12.797210809880347"><ele>431.0</ele><time>2026-03-24T14:32:49.001Z</time></trkpt><trkpt lat="42.08727844222824" lon="12.797226307916448"><ele>431.6</ele><time>2026-03-24T14:32:51.001Z</time></trkpt><trkpt lat="42.087180574738326" lon="12.797255713128173"><ele>432.20000000000005</ele><time>2026-03-24T14:32:53.001Z</time></trkpt><trkpt lat="42.08707314822464" lon="12.797238995908709"><ele>432.79999999999995</ele><time>2026-03-24T14:32:55.001Z</time></trkpt><trkpt lat="42.08695251200895" lon="12.797263430933636"><ele>433.4</ele><time>2026-03-24T14:32:57.001Z</time></trkpt><trkpt lat="42.08687985010606" lon="12.79726383873004"><ele>434.0</ele><time>2026-03-24T14:32:58.001Z</time></trkpt><trkpt lat="42.086771379591866" lon="12.797236470375015"><ele>434.0</ele><time>2026-03-24T14:33:00.001Z</time></trkpt><trkpt lat="42.08668281750203" lon="12.797242890598197"><ele>434.0</ele><time>2026-03-24T14:33:02.001Z</time></trkpt><trkpt lat="42.08659418014809" lon="12.79727944348507"><ele>434.0</ele><time>2026-03-24T14:33:04.001Z</time></trkpt><trkpt lat="42.08647853470301" lon="12.797333698084216"><ele>434.0</ele><time>2026-03-24T14:33:06.001Z</time></trkpt><trkpt lat="42.08639608732008" lon="12.79739085623127"><ele>434.0</ele><time>2026-03-24T14:33:08.001Z</time></trkpt><trkpt lat="42.08633399214572" lon="12.797465929920858"><ele>434.3333333333333</ele><time>2026-03-24T14:33:10Z</time></trkpt><trkpt lat="42.08625482278659" lon="12.79758217020634"><ele>434.66666666666663</ele><time>2026-03-24T14:33:12Z</time></trkpt><trkpt lat="42.086189914874005" lon="12.79769482141189"><ele>435.0</ele><time>2026-03-24T14:33:14Z</time></trkpt><trkpt lat="42.08615364916721" lon="12.79776570801215"><ele>435.33333333333337</ele><time>2026-03-24T14:33:15Z</time></trkpt><trkpt lat="42.08611939263271" lon="12.797843873662183"><ele>435.6666666666667</ele><time>2026-03-24T14:33:16Z</time></trkpt><trkpt lat="42.0860907444131" lon="12.797925713432047"><ele>436.0</ele><time>2026-03-24T14:33:17Z</time></trkpt><trkpt lat="42.08606082941287" lon="12.79804653757157"><ele>436.0</ele><time>2026-03-24T14:33:19Z</time></trkpt><trkpt lat="42.086040143126375" lon="12.798183710496245"><ele>436.0</ele><time>2026-03-24T14:33:21Z</time></trkpt><trkpt lat="42.08603233749952" lon="12.798317763704473"><ele>436.0</ele><time>2026-03-24T14:33:23Z</time></trkpt><trkpt lat="42.08602700340484" lon="12.798459615836268"><ele>436.0</ele><time>2026-03-24T14:33:25Z</time></trkpt><trkpt lat="42.08601789217016" lon="12.798596587179338"><ele>436.0</ele><time>2026-03-24T14:33:27Z</time></trkpt><trkpt lat="42.08600129359642" lon="12.798734889136398"><ele>435.8</ele><time>2026-03-24T14:33:29Z</time></trkpt><trkpt lat="42.08597321003623" lon="12.79884603811142"><ele>435.6</ele><time>2026-03-24T14:33:31Z</time></trkpt><trkpt lat="42.08592755428291" lon="12.798964517288752"><ele>435.4</ele><time>2026-03-24T14:33:33Z</time></trkpt><trkpt lat="42.08585801137487" lon="12.799076155251889"><ele>435.2</ele><time>2026-03-24T14:33:35Z</time></trkpt><trkpt lat="42.08581741875242" lon="12.799141367291584"><ele>435.0</ele><time>2026-03-24T14:33:36Z</time></trkpt><trkpt lat="42.08575012376747" lon="12.799256614343388"><ele>439.0</ele><time>2026-03-24T14:33:38Z</time></trkpt><trkpt lat="42.085679653900456" lon="12.799369147906452"><ele>443.0</ele><time>2026-03-24T14:33:40Z</time></trkpt><trkpt lat="42.085595121900184" lon="12.799478046996503"><ele>447.0</ele><time>2026-03-24T14:33:42Z</time></trkpt><trkpt lat="42.08554090413981" lon="12.799539710313221"><ele>451.0</ele><time>2026-03-24T14:33:43Z</time></trkpt><trkpt lat="42.0854904362163" lon="12.799601201426713"><ele>455.0</ele><time>2026-03-24T14:33:44Z</time></trkpt><trkpt lat="42.085423937961274" lon="12.799708690406241"><ele>454.99999999999994</ele><time>2026-03-24T14:33:46Z</time></trkpt><trkpt lat="42.08536223626178" lon="12.79982242990895"><ele>455.0</ele><time>2026-03-24T14:33:48Z</time></trkpt><trkpt lat="42.08529217979438" lon="12.799940306994317"><ele>455.0</ele><time>2026-03-24T14:33:50Z</time></trkpt><trkpt lat="42.08525044302631" lon="12.800004838132127"><ele>455.0</ele><time>2026-03-24T14:33:51Z</time></trkpt><trkpt lat="42.08520701467677" lon="12.800069678549427"><ele>454.99999999999994</ele><time>2026-03-24T14:33:52Z</time></trkpt><trkpt lat="42.08516087195938" lon="12.800135679177284"><ele>455.0</ele><time>2026-03-24T14:33:53Z</time></trkpt><trkpt lat="42.08508339184313" lon="12.800244063785293"><ele>453.66666666666663</ele><time>2026-03-24T14:33:55Z</time></trkpt><trkpt lat="42.0850081553882" lon="12.80037182362768"><ele>452.3333333333333</ele><time>2026-03-24T14:33:57Z</time></trkpt><trkpt lat="42.08495086732433" lon="12.800426519393445"><ele>451.0</ele><time>2026-03-24T14:33:58Z</time></trkpt><trkpt lat="42.084902869507715" lon="12.800498808647694"><ele>449.66666666666663</ele><time>2026-03-24T14:33:59Z</time></trkpt><trkpt lat="42.08485578057269" lon="12.800578212545998"><ele>448.3333333333333</ele><time>2026-03-24T14:34:00Z</time></trkpt><trkpt lat="42.084812841529555" lon="12.800653960060746"><ele>447.0</ele><time>2026-03-24T14:34:01Z</time></trkpt><trkpt lat="42.08477551436812" lon="12.80072455063895"><ele>446.99999999999994</ele><time>2026-03-24T14:34:02Z</time></trkpt><trkpt lat="42.0847351947671" lon="12.800804393895293"><ele>447.0</ele><time>2026-03-24T14:34:03Z</time></trkpt><trkpt lat="42.084703671515975" lon="12.800900242580905"><ele>447.0</ele><time>2026-03-24T14:34:04Z</time></trkpt><trkpt lat="42.084675930182655" lon="12.800980754883591"><ele>447.0</ele><time>2026-03-24T14:34:05Z</time></trkpt><trkpt lat="42.0846388544263" lon="12.801062095755329"><ele>447.0</ele><time>2026-03-24T14:34:06Z</time></trkpt><trkpt lat="42.084607026242914" lon="12.801142592118582"><ele>446.99999999999994</ele><time>2026-03-24T14:34:07Z</time></trkpt><trkpt lat="42.0845712628093" lon="12.801225409362154"><ele>447.0</ele><time>2026-03-24T14:34:08Z</time></trkpt><trkpt lat="42.08454228131887" lon="12.801305274902742"><ele>452.0</ele><time>2026-03-24T14:34:09Z</time></trkpt><trkpt lat="42.08448395640108" lon="12.801386277473371"><ele>457.0</ele><time>2026-03-24T14:34:10.001Z</time></trkpt><trkpt lat="42.084437206935014" lon="12.801468508213752"><ele>462.0</ele><time>2026-03-24T14:34:11.001Z</time></trkpt><trkpt lat="42.084386839739324" lon="12.80154360664095"><ele>467.0</ele><time>2026-03-24T14:34:12.001Z</time></trkpt><trkpt lat="42.08433243406946" lon="12.801618668790383"><ele>472.0</ele><time>2026-03-24T14:34:13.001Z</time></trkpt><trkpt lat="42.08427777661625" lon="12.801690524801648"><ele>477.0</ele><time>2026-03-24T14:34:14.001Z</time></trkpt><trkpt lat="42.084217408116196" lon="12.801766221292903"><ele>476.20000000000005</ele><time>2026-03-24T14:34:15.001Z</time></trkpt><trkpt lat="42.08417272914071" lon="12.801838773644588"><ele>475.40000000000003</ele><time>2026-03-24T14:34:16.001Z</time></trkpt><trkpt lat="42.084117195913805" lon="12.80190462136164"><ele>474.59999999999997</ele><time>2026-03-24T14:34:17.001Z</time></trkpt><trkpt lat="42.08405527664236" lon="12.801947652658567"><ele>473.79999999999995</ele><time>2026-03-24T14:34:18.001Z</time></trkpt><trkpt lat="42.08396269062611" lon="12.802049942336906"><ele>473.0</ele><time>2026-03-24T14:34:20.001Z</time></trkpt><trkpt lat="42.083863311323924" lon="12.802141247283663"><ele>473.0</ele><time>2026-03-24T14:34:22.001Z</time></trkpt><trkpt lat="42.08377172404531" lon="12.802224490986934"><ele>472.99999999999994</ele><time>2026-03-24T14:34:24.001Z</time></trkpt><trkpt lat="42.083673784568916" lon="12.802305697147123"><ele>472.99999999999994</ele><time>2026-03-24T14:34:26.001Z</time></trkpt><trkpt lat="42.08360728902275" lon="12.802403242075009"><ele>473.0</ele><time>2026-03-24T14:34:28.001Z</time></trkpt><trkpt lat="42.0835638798001" lon="12.802494882874385"><ele>473.0</ele><time>2026-03-24T14:34:31.001Z</time></trkpt><trkpt lat="42.08352652824802" lon="12.802613421111383"><ele>475.59999999999997</ele><time>2026-03-24T14:34:33.001Z</time></trkpt><trkpt lat="42.08350375348843" lon="12.802743646338875"><ele>478.19999999999993</ele><time>2026-03-24T14:34:35.001Z</time></trkpt><trkpt lat="42.083491389344545" lon="12.802880049959656"><ele>480.8</ele><time>2026-03-24T14:34:37.001Z</time></trkpt><trkpt lat="42.08349199444055" lon="12.803013870515608"><ele>483.4</ele><time>2026-03-24T14:34:39.001Z</time></trkpt><trkpt lat="42.08349444315058" lon="12.803166837713276"><ele>486.0</ele><time>2026-03-24T14:34:41.001Z</time></trkpt><trkpt lat="42.08347718543625" lon="12.803320289307404"><ele>486.0</ele><time>2026-03-24T14:34:43.001Z</time></trkpt><trkpt lat="42.08347096923909" lon="12.803475673420753"><ele>486.0</ele><time>2026-03-24T14:34:45.001Z</time></trkpt><trkpt lat="42.08346677658886" lon="12.80356134313774"><ele>486.0</ele><time>2026-03-24T14:34:46.001Z</time></trkpt><trkpt lat="42.08346139114191" lon="12.80373087894041"><ele>486.0</ele><time>2026-03-24T14:34:48.001Z</time></trkpt><trkpt lat="42.0834670651456" lon="12.803899176595129"><ele>486.0</ele><time>2026-03-24T14:34:50.001Z</time></trkpt><trkpt lat="42.08351171568654" lon="12.804054275734298"><ele>486.8</ele><time>2026-03-24T14:34:52.001Z</time></trkpt><trkpt lat="42.08353234457389" lon="12.804137455852985"><ele>487.6</ele><time>2026-03-24T14:34:53.001Z</time></trkpt><trkpt lat="42.08359720607622" lon="12.804289845913287"><ele>488.4</ele><time>2026-03-24T14:34:55.001Z</time></trkpt><trkpt lat="42.08367439525617" lon="12.804418851454798"><ele>489.2</ele><time>2026-03-24T14:34:57.001Z</time></trkpt><trkpt lat="42.08376152488451" lon="12.804535706188005"><ele>490.0</ele><time>2026-03-24T14:34:59.001Z</time></trkpt><trkpt lat="42.0838320361571" lon="12.80461793213744"><ele>487.6</ele><time>2026-03-24T14:35:01.001Z</time></trkpt><trkpt lat="42.083931190627546" lon="12.804677845402828"><ele>485.2</ele><time>2026-03-24T14:35:03.001Z</time></trkpt><trkpt lat="42.08405569885214" lon="12.804709912064162"><ele>482.79999999999995</ele><time>2026-03-24T14:35:05.001Z</time></trkpt><trkpt lat="42.08412241702196" lon="12.804727528158274"><ele>480.4</ele><time>2026-03-24T14:35:06.001Z</time></trkpt><trkpt lat="42.0841962214812" lon="12.804778874746194"><ele>478.0</ele><time>2026-03-24T14:35:07.001Z</time></trkpt><trkpt lat="42.08427843694909" lon="12.804826191326034"><ele>482.1666666666667</ele><time>2026-03-24T14:35:08.001Z</time></trkpt><trkpt lat="42.084346080717935" lon="12.80486420995066"><ele>486.33333333333337</ele><time>2026-03-24T14:35:09.001Z</time></trkpt><trkpt lat="42.0844089091932" lon="12.804897039915556"><ele>490.5</ele><time>2026-03-24T14:35:10.001Z</time></trkpt><trkpt lat="42.08450254317749" lon="12.804927261426016"><ele>494.66666666666663</ele><time>2026-03-24T14:35:12.001Z</time></trkpt><trkpt lat="42.08460845051267" lon="12.80493048748864"><ele>498.8333333333333</ele><time>2026-03-24T14:35:14.001Z</time></trkpt><trkpt lat="42.08467799806766" lon="12.804915812394384"><ele>503.0</ele><time>2026-03-24T14:35:15.001Z</time></trkpt><trkpt lat="42.08474720881834" lon="12.804894116082718"><ele>502.99999999999994</ele><time>2026-03-24T14:35:16Z</time></trkpt><trkpt lat="42.084818061003645" lon="12.804876747042444"><ele>503.0</ele><time>2026-03-24T14:35:17Z</time></trkpt><trkpt lat="42.08489071054562" lon="12.804861091709576"><ele>503.0</ele><time>2026-03-24T14:35:18Z</time></trkpt><trkpt lat="42.08496426892636" lon="12.804846668577103"><ele>503.0</ele><time>2026-03-24T14:35:19Z</time></trkpt><trkpt lat="42.08503840941962" lon="12.804839157307946"><ele>502.99999999999994</ele><time>2026-03-24T14:35:20Z</time></trkpt><trkpt lat="42.0851278494504" lon="12.804834571671549"><ele>503.0</ele><time>2026-03-24T14:35:22Z</time></trkpt><trkpt lat="42.08521835148741" lon="12.804845299152412"><ele>504.7142857142857</ele><time>2026-03-24T14:35:40Z</time></trkpt><trkpt lat="42.08528869304296" lon="12.80484290986019"><ele>506.42857142857144</ele><time>2026-03-24T14:35:41Z</time></trkpt><trkpt lat="42.0853621103325" lon="12.804842142638984"><ele>508.14285714285717</ele><time>2026-03-24T14:35:42Z</time></trkpt><trkpt lat="42.085432293932186" lon="12.804822826848342"><ele>509.8571428571429</ele><time>2026-03-24T14:35:43Z</time></trkpt><trkpt lat="42.08550191248143" lon="12.804833995701005"><ele>511.57142857142856</ele><time>2026-03-24T14:35:44Z</time></trkpt><trkpt lat="42.08557685472116" lon="12.804831823371288"><ele>513.2857142857143</ele><time>2026-03-24T14:35:45Z</time></trkpt><trkpt lat="42.08565772505273" lon="12.804837801306473"><ele>515.0</ele><time>2026-03-24T14:35:46Z</time></trkpt><trkpt lat="42.08572654505966" lon="12.804866719817555"><ele>515.6</ele><time>2026-03-24T14:35:47Z</time></trkpt><trkpt lat="42.085855921365734" lon="12.804870355233225"><ele>516.2</ele><time>2026-03-24T14:35:49Z</time></trkpt><trkpt lat="42.08597733187406" lon="12.804889991059996"><ele>516.8</ele><time>2026-03-24T14:35:51Z</time></trkpt><trkpt lat="42.08605811568521" lon="12.804910211559502"><ele>517.4</ele><time>2026-03-24T14:35:52Z</time></trkpt><trkpt lat="42.086126851849855" lon="12.804923062077963"><ele>518.0</ele><time>2026-03-24T14:35:53Z</time></trkpt><trkpt lat="42.086255155903025" lon="12.804962411887953"><ele>518.0</ele><time>2026-03-24T14:35:55Z</time></trkpt><trkpt lat="42.086323101549986" lon="12.804978812536316"><ele>518.0</ele><time>2026-03-24T14:35:56Z</time></trkpt><trkpt lat="42.086399364033646" lon="12.804998057147797"><ele>518.0</ele><time>2026-03-24T14:35:57Z</time></trkpt><trkpt lat="42.08647970722741" lon="12.805019167410293"><ele>518.0</ele><time>2026-03-24T14:35:58Z</time></trkpt><trkpt lat="42.086555816931735" lon="12.805039216425698"><ele>518.0</ele><time>2026-03-24T14:35:59Z</time></trkpt><trkpt lat="42.08662691824854" lon="12.805059936164211"><ele>518.0</ele><time>2026-03-24T14:36:00Z</time></trkpt><trkpt lat="42.08669689308662" lon="12.805080327560868"><ele>517.8</ele><time>2026-03-24T14:36:01Z</time></trkpt><trkpt lat="42.086769359999096" lon="12.805101445211646"><ele>517.5999999999999</ele><time>2026-03-24T14:36:02Z</time></trkpt><trkpt lat="42.08688826107401" lon="12.805136094260945"><ele>517.4000000000001</ele><time>2026-03-24T14:36:04Z</time></trkpt><trkpt lat="42.08700575925835" lon="12.805168898402028"><ele>517.2</ele><time>2026-03-24T14:36:06Z</time></trkpt><trkpt lat="42.08707370354088" lon="12.80517146687801"><ele>517.0</ele><time>2026-03-24T14:36:07Z</time></trkpt><trkpt lat="42.08718744738863" lon="12.805218930209817"><ele>517.0</ele><time>2026-03-24T14:36:09.001Z</time></trkpt><trkpt lat="42.08731735127974" lon="12.805228103118306"><ele>517.0</ele><time>2026-03-24T14:36:11.001Z</time></trkpt><trkpt lat="42.08739259421361" lon="12.805236487759167"><ele>517.0</ele><time>2026-03-24T14:36:12.001Z</time></trkpt><trkpt lat="42.08747325323504" lon="12.80525582423667"><ele>517.0</ele><time>2026-03-24T14:36:13.001Z</time></trkpt><trkpt lat="42.08753918073068" lon="12.80525450176431"><ele>517.0</ele><time>2026-03-24T14:36:14.001Z</time></trkpt><trkpt lat="42.08766585674433" lon="12.805258890881397"><ele>520.0</ele><time>2026-03-24T14:36:16.001Z</time></trkpt><trkpt lat="42.08778928243704" lon="12.805246364749564"><ele>523.0</ele><time>2026-03-24T14:36:18.001Z</time></trkpt><trkpt lat="42.0878539833147" lon="12.80523983795116"><ele>526.0</ele><time>2026-03-24T14:36:19.001Z</time></trkpt><trkpt lat="42.08796581447306" lon="12.805239109356808"><ele>529.0</ele><time>2026-03-24T14:36:21.001Z</time></trkpt><trkpt lat="42.08803258245086" lon="12.805230473751953"><ele>532.0</ele><time>2026-03-24T14:36:22.001Z</time></trkpt><trkpt lat="42.088107936791445" lon="12.805203293010953"><ele>535.0</ele><time>2026-03-24T14:36:24.001Z</time></trkpt><trkpt lat="42.088190697298735" lon="12.805190121712668"><ele>538.0</ele><time>2026-03-24T14:36:40.001Z</time></trkpt><trkpt lat="42.08827674048422" lon="12.805185501869445"><ele>541.0</ele><time>2026-03-24T14:36:42.001Z</time></trkpt><trkpt lat="42.08837674385108" lon="12.805185573841507"><ele>544.0</ele><time>2026-03-24T14:36:44.001Z</time></trkpt><trkpt lat="42.08850386775989" lon="12.805175728887212"><ele>547.0</ele><time>2026-03-24T14:36:46.001Z</time></trkpt><trkpt lat="42.08862656861935" lon="12.805159211561492"><ele>550.0</ele><time>2026-03-24T14:36:48.001Z</time></trkpt><trkpt lat="42.08869440143803" lon="12.805155407132265"><ele>551.8333333333334</ele><time>2026-03-24T14:36:49.001Z</time></trkpt><trkpt lat="42.088760767467306" lon="12.805159758536655"><ele>553.6666666666667</ele><time>2026-03-24T14:36:50.001Z</time></trkpt><trkpt lat="42.088831985754524" lon="12.805153014628216"><ele>555.5</ele><time>2026-03-24T14:36:51.001Z</time></trkpt><trkpt lat="42.08890481700379" lon="12.805153213151524"><ele>557.3333333333334</ele><time>2026-03-24T14:36:52.001Z</time></trkpt><trkpt lat="42.08897606749588" lon="12.805145908535152"><ele>559.1666666666666</ele><time>2026-03-24T14:36:53.001Z</time></trkpt><trkpt lat="42.08910735267476" lon="12.80514853559461"><ele>561.0</ele><time>2026-03-24T14:36:55.001Z</time></trkpt><trkpt lat="42.08917503646213" lon="12.805142155442962"><ele>561.8571428571429</ele><time>2026-03-24T14:36:56.001Z</time></trkpt><trkpt lat="42.08923776340258" lon="12.80513114390653"><ele>562.7142857142857</ele><time>2026-03-24T14:36:57.001Z</time></trkpt><trkpt lat="42.08931041328197" lon="12.805118390420436"><ele>563.5714285714286</ele><time>2026-03-24T14:36:58.001Z</time></trkpt><trkpt lat="42.08938168460353" lon="12.805118563998304"><ele>564.4285714285714</ele><time>2026-03-24T14:36:59.001Z</time></trkpt><trkpt lat="42.089454133556984" lon="12.805105332712193"><ele>565.2857142857142</ele><time>2026-03-24T14:37:00.001Z</time></trkpt><trkpt lat="42.089526446657175" lon="12.805124301407652"><ele>566.1428571428571</ele><time>2026-03-24T14:37:01.001Z</time></trkpt><trkpt lat="42.089605084972185" lon="12.805131847500324"><ele>567.0</ele><time>2026-03-24T14:37:02.001Z</time></trkpt><trkpt lat="42.08967658017609" lon="12.805149548029139"><ele>567.5</ele><time>2026-03-24T14:37:03.001Z</time></trkpt><trkpt lat="42.089747917376755" lon="12.805170293972902"><ele>568.0</ele><time>2026-03-24T14:37:04.001Z</time></trkpt><trkpt lat="42.08983427727171" lon="12.805184017305603"><ele>568.5</ele><time>2026-03-24T14:37:05.001Z</time></trkpt><trkpt lat="42.089907850371965" lon="12.805210227546253"><ele>569.0</ele><time>2026-03-24T14:37:06.001Z</time></trkpt><trkpt lat="42.08999437545224" lon="12.80522821498443"><ele>569.5</ele><time>2026-03-24T14:37:07.001Z</time></trkpt><trkpt lat="42.090079024745144" lon="12.805243893958458"><ele>570.0</ele><time>2026-03-24T14:37:08.001Z</time></trkpt><trkpt lat="42.09014762429928" lon="12.805256600560242"><ele>571.0</ele><time>2026-03-24T14:37:09.001Z</time></trkpt><trkpt lat="42.090290470135464" lon="12.805283059700082"><ele>572.0</ele><time>2026-03-24T14:37:11.001Z</time></trkpt><trkpt lat="42.09036356485399" lon="12.80529659893389"><ele>573.0</ele><time>2026-03-24T14:37:12.001Z</time></trkpt><trkpt lat="42.09044089230756" lon="12.805289755302693"><ele>574.0</ele><time>2026-03-24T14:37:13.001Z</time></trkpt><trkpt lat="42.09050335139374" lon="12.805317363004775"><ele>575.0</ele><time>2026-03-24T14:37:14.001Z</time></trkpt><trkpt lat="42.090606550086996" lon="12.805373979932215"><ele>575.0</ele><time>2026-03-24T14:37:16.001Z</time></trkpt><trkpt lat="42.090707458402385" lon="12.805410483803565"><ele>575.0</ele><time>2026-03-24T14:37:18.001Z</time></trkpt><trkpt lat="42.09078426623586" lon="12.805444464148135"><ele>575.0</ele><time>2026-03-24T14:37:43Z</time></trkpt><trkpt lat="42.090851982593485" lon="12.805490137296761"><ele>575.0</ele><time>2026-03-24T14:37:45Z</time></trkpt><trkpt lat="42.09091911557929" lon="12.805517194722594"><ele>575.0</ele><time>2026-03-24T14:37:47Z</time></trkpt><trkpt lat="42.09101014811781" lon="12.805561943796132"><ele>575.0</ele><time>2026-03-24T14:37:49Z</time></trkpt><trkpt lat="42.091116481208324" lon="12.805600025641114"><ele>575.8333333333333</ele><time>2026-03-24T14:37:51Z</time></trkpt><trkpt lat="42.09119745378" lon="12.805641636346774"><ele>576.6666666666666</ele><time>2026-03-24T14:37:53Z</time></trkpt><trkpt lat="42.091250847533914" lon="12.805686928001988"><ele>577.5</ele><time>2026-03-24T14:37:55Z</time></trkpt><trkpt lat="42.09133989221454" lon="12.805709313133152"><ele>578.3333333333334</ele><time>2026-03-24T14:37:59Z</time></trkpt><trkpt lat="42.091422231560884" lon="12.805750784524921"><ele>579.1666666666667</ele><time>2026-03-24T14:38:01Z</time></trkpt><trkpt lat="42.09152450901957" lon="12.805782746296728"><ele>580.0</ele><time>2026-03-24T14:38:03.001Z</time></trkpt><trkpt lat="42.09161327632939" lon="12.805823335046256"><ele>582.3333333333334</ele><time>2026-03-24T14:38:05.001Z</time></trkpt><trkpt lat="42.09171138888443" lon="12.805862453514841"><ele>584.6666666666667</ele><time>2026-03-24T14:38:08.001Z</time></trkpt><trkpt lat="42.09179932450325" lon="12.805887483112324"><ele>587.0</ele><time>2026-03-24T14:38:10.001Z</time></trkpt><trkpt lat="42.09187295610279" lon="12.805920441301579"><ele>589.3333333333334</ele><time>2026-03-24T14:38:12.001Z</time></trkpt><trkpt lat="42.09193465367667" lon="12.80594388611132"><ele>591.6666666666666</ele><time>2026-03-24T14:38:13.001Z</time></trkpt><trkpt lat="42.092033637833815" lon="12.805988313475078"><ele>594.0</ele><time>2026-03-24T14:38:15.001Z</time></trkpt><trkpt lat="42.09213294706537" lon="12.806023354813258"><ele>594.0</ele><time>2026-03-24T14:38:17.001Z</time></trkpt><trkpt lat="42.09223484597821" lon="12.806063087973309"><ele>594.0</ele><time>2026-03-24T14:38:19.001Z</time></trkpt><trkpt lat="42.09234269990123" lon="12.80613281783925"><ele>594.0</ele><time>2026-03-24T14:38:21.001Z</time></trkpt><trkpt lat="42.09243005956459" lon="12.80620317147537"><ele>594.0</ele><time>2026-03-24T14:38:23.001Z</time></trkpt><trkpt lat="42.09251294370376" lon="12.806268262396404"><ele>594.0</ele><time>2026-03-24T14:38:25.001Z</time></trkpt><trkpt lat="42.09261424166326" lon="12.806318353924524"><ele>594.2</ele><time>2026-03-24T14:38:27.001Z</time></trkpt><trkpt lat="42.092706363992015" lon="12.806352171943296"><ele>594.4</ele><time>2026-03-24T14:38:29.001Z</time></trkpt><trkpt lat="42.09279878456082" lon="12.806353047223896"><ele>594.6</ele><time>2026-03-24T14:38:31.001Z</time></trkpt><trkpt lat="42.092900948245926" lon="12.806375528555122"><ele>594.8</ele><time>2026-03-24T14:38:33.001Z</time></trkpt><trkpt lat="42.092996057514725" lon="12.806376072660521"><ele>595.0</ele><time>2026-03-24T14:38:35.001Z</time></trkpt><trkpt lat="42.09308414574566" lon="12.806386376432283"><ele>595.0</ele><time>2026-03-24T14:38:37.001Z</time></trkpt><trkpt lat="42.0931544694372" lon="12.806375876514956"><ele>595.0</ele><time>2026-03-24T14:38:41.001Z</time></trkpt><trkpt lat="42.093237063573504" lon="12.806339627827251"><ele>595.0</ele><time>2026-03-24T14:38:43.001Z</time></trkpt><trkpt lat="42.09332261242509" lon="12.806320661141486"><ele>595.0</ele><time>2026-03-24T14:38:45.001Z</time></trkpt><trkpt lat="42.093406362836646" lon="12.806310222909229"><ele>595.0</ele><time>2026-03-24T14:38:47.001Z</time></trkpt><trkpt lat="42.093466170204415" lon="12.806274461001882"><ele>595.0</ele><time>2026-03-24T14:38:49.001Z</time></trkpt><trkpt lat="42.09354690970954" lon="12.806250548658983"><ele>597.0</ele><time>2026-03-24T14:38:51.001Z</time></trkpt><trkpt lat="42.093612135374364" lon="12.806200669575844"><ele>599.0</ele><time>2026-03-24T14:38:53.001Z</time></trkpt><trkpt lat="42.09368984962998" lon="12.806143398025073"><ele>601.0</ele><time>2026-03-24T14:38:55.001Z</time></trkpt><trkpt lat="42.09378571070258" lon="12.806118323967992"><ele>603.0</ele><time>2026-03-24T14:38:57.001Z</time></trkpt><trkpt lat="42.093888756005825" lon="12.806107655530237"><ele>605.0</ele><time>2026-03-24T14:38:59.001Z</time></trkpt><trkpt lat="42.09398974268517" lon="12.806047830151494"><ele>610.25</ele><time>2026-03-24T14:39:01.001Z</time></trkpt><trkpt lat="42.09409279887166" lon="12.805949870134187"><ele>615.5</ele><time>2026-03-24T14:39:03.001Z</time></trkpt><trkpt lat="42.09419994055173" lon="12.805858520486149"><ele>620.75</ele><time>2026-03-24T14:39:05.001Z</time></trkpt><trkpt lat="42.09428606759024" lon="12.805781063158168"><ele>626.0</ele><time>2026-03-24T14:39:07.001Z</time></trkpt><trkpt lat="42.09438279825626" lon="12.805739104147882"><ele>626.0</ele><time>2026-03-24T14:39:09.001Z</time></trkpt><trkpt lat="42.09446910701768" lon="12.805772421912115"><ele>626.0</ele><time>2026-03-24T14:39:11.001Z</time></trkpt><trkpt lat="42.094538658077326" lon="12.805867006499973"><ele>626.0</ele><time>2026-03-24T14:39:13.001Z</time></trkpt><trkpt lat="42.09457995761863" lon="12.805975944997247"><ele>626.0</ele><time>2026-03-24T14:39:16.001Z</time></trkpt><trkpt lat="42.09467118499852" lon="12.80606249666399"><ele>626.0</ele><time>2026-03-24T14:39:18.001Z</time></trkpt><trkpt lat="42.09473369951028" lon="12.806109646729837"><ele>626.2</ele><time>2026-03-24T14:39:19.001Z</time></trkpt><trkpt lat="42.094851120780845" lon="12.806172673270618"><ele>626.4000000000001</ele><time>2026-03-24T14:39:21.001Z</time></trkpt><trkpt lat="42.094923161651586" lon="12.806203034485709"><ele>626.6</ele><time>2026-03-24T14:39:22.001Z</time></trkpt><trkpt lat="42.09498576800462" lon="12.806228895220187"><ele>626.8000000000001</ele><time>2026-03-24T14:39:23.001Z</time></trkpt><trkpt lat="42.09504670613938" lon="12.806272661789764"><ele>627.0</ele><time>2026-03-24T14:39:24.001Z</time></trkpt><trkpt lat="42.09514555778903" lon="12.806371260340818"><ele>627.0</ele><time>2026-03-24T14:39:26.001Z</time></trkpt><trkpt lat="42.095229299455475" lon="12.806456357997751"><ele>627.0</ele><time>2026-03-24T14:39:28Z</time></trkpt><trkpt lat="42.09529433481941" lon="12.806492958492917"><ele>627.0</ele><time>2026-03-24T14:39:29Z</time></trkpt><trkpt lat="42.0953532986652" lon="12.806527172293167"><ele>627.0</ele><time>2026-03-24T14:39:30Z</time></trkpt><trkpt lat="42.09541976888609" lon="12.806555673331133"><ele>627.0</ele><time>2026-03-24T14:39:31Z</time></trkpt><trkpt lat="42.09550332060165" lon="12.806643977891003"><ele>627.0</ele><time>2026-03-24T14:39:33Z</time></trkpt><trkpt lat="42.09557322225806" lon="12.806722628433903"><ele>627.0</ele><time>2026-03-24T14:39:35Z</time></trkpt><trkpt lat="42.09567269666176" lon="12.806815619732541"><ele>627.0</ele><time>2026-03-24T14:39:37Z</time></trkpt><trkpt lat="42.095768971833486" lon="12.806907355287823"><ele>627.0</ele><time>2026-03-24T14:39:39Z</time></trkpt><trkpt lat="42.09586312786633" lon="12.806968367497296"><ele>627.0</ele><time>2026-03-24T14:39:41Z</time></trkpt><trkpt lat="42.095970050963636" lon="12.807032198528994"><ele>629.8</ele><time>2026-03-24T14:39:43Z</time></trkpt><trkpt lat="42.096027564149075" lon="12.80706780157419"><ele>632.6</ele><time>2026-03-24T14:39:44.001Z</time></trkpt><trkpt lat="42.09612950517135" lon="12.807149206559778"><ele>635.4</ele><time>2026-03-24T14:39:46.001Z</time></trkpt><trkpt lat="42.09617693437522" lon="12.807206600149865"><ele>638.1999999999999</ele><time>2026-03-24T14:39:47.001Z</time></trkpt><trkpt lat="42.09625051397668" lon="12.807325771411302"><ele>641.0</ele><time>2026-03-24T14:39:49.001Z</time></trkpt><trkpt lat="42.096307810990254" lon="12.80744963302391"><ele>641.0</ele><time>2026-03-24T14:39:51.001Z</time></trkpt><trkpt lat="42.096338007015675" lon="12.807581222689848"><ele>641.0</ele><time>2026-03-24T14:39:53.001Z</time></trkpt><trkpt lat="42.09632334230511" lon="12.80771930300551"><ele>641.0</ele><time>2026-03-24T14:39:55.001Z</time></trkpt><trkpt lat="42.09626580359749" lon="12.807840881498537"><ele>641.0</ele><time>2026-03-24T14:39:57.001Z</time></trkpt><trkpt lat="42.09618260532453" lon="12.807946722117409"><ele>641.0</ele><time>2026-03-24T14:39:59.001Z</time></trkpt><trkpt lat="42.09611920410517" lon="12.808090432393989"><ele>642.8</ele><time>2026-03-24T14:40:01.001Z</time></trkpt><trkpt lat="42.096096145352774" lon="12.808172511187784"><ele>644.5999999999999</ele><time>2026-03-24T14:40:02.001Z</time></trkpt><trkpt lat="42.09605828148803" lon="12.808307284896568"><ele>646.4</ele><time>2026-03-24T14:40:04.001Z</time></trkpt><trkpt lat="42.09602317022405" lon="12.808418208715848"><ele>648.2</ele><time>2026-03-24T14:40:06.001Z</time></trkpt><trkpt lat="42.09598755994716" lon="12.808552896454318"><ele>650.0</ele><time>2026-03-24T14:40:08.001Z</time></trkpt><trkpt lat="42.09596170249465" lon="12.808679874648876"><ele>651.8</ele><time>2026-03-24T14:40:10.001Z</time></trkpt><trkpt lat="42.0959312922353" lon="12.808830335548167"><ele>653.6</ele><time>2026-03-24T14:40:12.001Z</time></trkpt><trkpt lat="42.09587557609952" lon="12.808965904360543"><ele>655.4000000000001</ele><time>2026-03-24T14:40:14.001Z</time></trkpt><trkpt lat="42.095785845910534" lon="12.809052004557971"><ele>657.2</ele><time>2026-03-24T14:40:16.001Z</time></trkpt><trkpt lat="42.09568445946524" lon="12.809098330818573"><ele>659.0</ele><time>2026-03-24T14:40:18.001Z</time></trkpt><trkpt lat="42.09560035183086" lon="12.809107768741432"><ele>659.0</ele><time>2026-03-24T14:40:20.001Z</time></trkpt><trkpt lat="42.09549111032046" lon="12.809100947585977"><ele>659.0</ele><time>2026-03-24T14:40:22.001Z</time></trkpt><trkpt lat="42.095375006006435" lon="12.809057732838067"><ele>659.0</ele><time>2026-03-24T14:40:24.001Z</time></trkpt><trkpt lat="42.095277716848145" lon="12.808976579608393"><ele>659.0</ele><time>2026-03-24T14:40:26.001Z</time></trkpt><trkpt lat="42.095195490154964" lon="12.80891393764821"><ele>659.0</ele><time>2026-03-24T14:40:28.001Z</time></trkpt><trkpt lat="42.09509386367193" lon="12.808914747757102"><ele>659.0</ele><time>2026-03-24T14:40:30.001Z</time></trkpt><trkpt lat="42.09502709930782" lon="12.808988297442792"><ele>659.0</ele><time>2026-03-24T14:40:32.001Z</time></trkpt><trkpt lat="42.09501459878978" lon="12.8090760409027"><ele>659.0</ele><time>2026-03-24T14:40:34.001Z</time></trkpt><trkpt lat="42.095034419902866" lon="12.80920705011556"><ele>659.0</ele><time>2026-03-24T14:40:36.001Z</time></trkpt><trkpt lat="42.09505019042991" lon="12.809342625567902"><ele>659.0</ele><time>2026-03-24T14:40:38.001Z</time></trkpt><trkpt lat="42.09505856036863" lon="12.809479753203032"><ele>660.6</ele><time>2026-03-24T14:40:40.001Z</time></trkpt><trkpt lat="42.09505779977642" lon="12.809633167891029"><ele>662.2</ele><time>2026-03-24T14:40:42.001Z</time></trkpt><trkpt lat="42.09503772152981" lon="12.809780744037178"><ele>663.8000000000001</ele><time>2026-03-24T14:40:44.001Z</time></trkpt><trkpt lat="42.09501407176711" lon="12.809939934019875"><ele>665.4000000000001</ele><time>2026-03-24T14:40:46.001Z</time></trkpt><trkpt lat="42.09498859705931" lon="12.81007033465906"><ele>667.0</ele><time>2026-03-24T14:40:48.001Z</time></trkpt><trkpt lat="42.094964656490816" lon="12.810204036968125"><ele>666.6</ele><time>2026-03-24T14:40:50.001Z</time></trkpt><trkpt lat="42.09493567450508" lon="12.810361579406297"><ele>666.2</ele><time>2026-03-24T14:40:52.001Z</time></trkpt><trkpt lat="42.09491464371269" lon="12.810443252004701"><ele>665.8</ele><time>2026-03-24T14:40:53.001Z</time></trkpt><trkpt lat="42.094895693629084" lon="12.810525179837843"><ele>665.4</ele><time>2026-03-24T14:40:54.001Z</time></trkpt><trkpt lat="42.09485764405883" lon="12.810691889564795"><ele>665.0</ele><time>2026-03-24T14:40:56.001Z</time></trkpt><trkpt lat="42.09482778706857" lon="12.81085273853996"><ele>667.8</ele><time>2026-03-24T14:40:58.001Z</time></trkpt><trkpt lat="42.0947966477461" lon="12.811005162410174"><ele>670.6</ele><time>2026-03-24T14:41:00.001Z</time></trkpt><trkpt lat="42.094748700414094" lon="12.811136393560494"><ele>673.4000000000001</ele><time>2026-03-24T14:41:02.001Z</time></trkpt><trkpt lat="42.09472047652226" lon="12.811283933162414"><ele>676.2</ele><time>2026-03-24T14:41:04.001Z</time></trkpt><trkpt lat="42.094703685188996" lon="12.811371709173057"><ele>679.0</ele><time>2026-03-24T14:41:06.001Z</time></trkpt><trkpt lat="42.094686813272205" lon="12.811498311743645"><ele>679.0</ele><time>2026-03-24T14:43:30.002Z</time></trkpt><trkpt lat="42.09467901029836" lon="12.811590113296175"><ele>679.0</ele><time>2026-03-24T14:43:32.002Z</time></trkpt><trkpt lat="42.09466229032988" lon="12.811705649209255"><ele>679.0</ele><time>2026-03-24T14:43:34.002Z</time></trkpt><trkpt lat="42.0946379751538" lon="12.811851459328919"><ele>679.0</ele><time>2026-03-24T14:43:36.002Z</time></trkpt><trkpt lat="42.09461804425944" lon="12.81193428446133"><ele>679.0</ele><time>2026-03-24T14:43:37.002Z</time></trkpt><trkpt lat="42.09460244993262" lon="12.812021124052979"><ele>679.0</ele><time>2026-03-24T14:43:38.002Z</time></trkpt><trkpt lat="42.09455829854705" lon="12.812174068692292"><ele>680.4285714285714</ele><time>2026-03-24T14:43:40Z</time></trkpt><trkpt lat="42.09455221542157" lon="12.812265073799914"><ele>681.8571428571429</ele><time>2026-03-24T14:43:41Z</time></trkpt><trkpt lat="42.09452594065952" lon="12.812350663379574"><ele>683.2857142857142</ele><time>2026-03-24T14:43:42Z</time></trkpt><trkpt lat="42.09450992521585" lon="12.812449377629443"><ele>684.7142857142858</ele><time>2026-03-24T14:43:43Z</time></trkpt><trkpt lat="42.09448140846004" lon="12.812543790051658"><ele>686.1428571428571</ele><time>2026-03-24T14:43:44Z</time></trkpt><trkpt lat="42.09445917899886" lon="12.812642142533157"><ele>687.5714285714286</ele><time>2026-03-24T14:43:45Z</time></trkpt><trkpt lat="42.09442844938691" lon="12.8127398678662"><ele>689.0</ele><time>2026-03-24T14:43:46Z</time></trkpt><trkpt lat="42.09439507270591" lon="12.812844777515416"><ele>690.5</ele><time>2026-03-24T14:43:47Z</time></trkpt><trkpt lat="42.094357314594575" lon="12.812940709294372"><ele>692.0</ele><time>2026-03-24T14:43:48Z</time></trkpt><trkpt lat="42.094312136213986" lon="12.813034279605755"><ele>693.5</ele><time>2026-03-24T14:43:49Z</time></trkpt><trkpt lat="42.094282156042254" lon="12.81311155940045"><ele>695.0</ele><time>2026-03-24T14:43:50Z</time></trkpt><trkpt lat="42.09425104953516" lon="12.813189797731068"><ele>696.5</ele><time>2026-03-24T14:43:51Z</time></trkpt><trkpt lat="42.09421758829939" lon="12.813267837375358"><ele>698.0</ele><time>2026-03-24T14:43:52Z</time></trkpt><trkpt lat="42.09416300542092" lon="12.813379363312038"><ele>697.2857142857142</ele><time>2026-03-24T14:43:54Z</time></trkpt><trkpt lat="42.09413363813953" lon="12.813497188105204"><ele>696.5714285714286</ele><time>2026-03-24T14:43:56Z</time></trkpt><trkpt lat="42.094138752413734" lon="12.813590931072314"><ele>695.8571428571429</ele><time>2026-03-24T14:43:57Z</time></trkpt><trkpt lat="42.09416643471662" lon="12.813677273937124"><ele>695.1428571428571</ele><time>2026-03-24T14:43:58Z</time></trkpt><trkpt lat="42.094200753922635" lon="12.81376035933476"><ele>694.4285714285714</ele><time>2026-03-24T14:43:59Z</time></trkpt><trkpt lat="42.09423493313025" lon="12.813832199577366"><ele>693.7142857142857</ele><time>2026-03-24T14:44:00.001Z</time></trkpt><trkpt lat="42.09429202152027" lon="12.813908196191836"><ele>693.0</ele><time>2026-03-24T14:44:01.001Z</time></trkpt><trkpt lat="42.09435649087227" lon="12.813973533769873"><ele>693.0</ele><time>2026-03-24T14:44:02.001Z</time></trkpt><trkpt lat="42.094423344075075" lon="12.814035615961405"><ele>693.0</ele><time>2026-03-24T14:44:03.001Z</time></trkpt><trkpt lat="42.09448966089433" lon="12.81411260848554"><ele>693.0</ele><time>2026-03-24T14:44:04.001Z</time></trkpt><trkpt lat="42.094558455961455" lon="12.814198586608974"><ele>693.0</ele><time>2026-03-24T14:44:05.001Z</time></trkpt><trkpt lat="42.094616068437645" lon="12.814252286096515"><ele>693.0</ele><time>2026-03-24T14:44:06.001Z</time></trkpt><trkpt lat="42.09467996707627" lon="12.81430982323098"><ele>693.0</ele><time>2026-03-24T14:44:07.001Z</time></trkpt><trkpt lat="42.09474346525613" lon="12.814361743552757"><ele>693.2857142857143</ele><time>2026-03-24T14:44:08.001Z</time></trkpt><trkpt lat="42.094802461820535" lon="12.814394108284345"><ele>693.5714285714286</ele><time>2026-03-24T14:44:09.001Z</time></trkpt><trkpt lat="42.09486666330733" lon="12.814437261113302"><ele>693.8571428571429</ele><time>2026-03-24T14:44:10.001Z</time></trkpt><trkpt lat="42.09492579123257" lon="12.814480388152889"><ele>694.1428571428571</ele><time>2026-03-24T14:44:11.001Z</time></trkpt><trkpt lat="42.09498217800483" lon="12.81452981433546"><ele>694.4285714285714</ele><time>2026-03-24T14:44:12.001Z</time></trkpt><trkpt lat="42.09503511941776" lon="12.814591204754963"><ele>694.7142857142858</ele><time>2026-03-24T14:44:13.001Z</time></trkpt><trkpt lat="42.09509477690836" lon="12.814625423994727"><ele>695.0</ele><time>2026-03-24T14:44:14.001Z</time></trkpt><trkpt lat="42.095170270917315" lon="12.81466103976086"><ele>695.0</ele><time>2026-03-24T14:44:15.001Z</time></trkpt><trkpt lat="42.09524207307792" lon="12.814710560685212"><ele>695.0</ele><time>2026-03-24T14:44:16.001Z</time></trkpt><trkpt lat="42.09529935626518" lon="12.814746993232255"><ele>695.0</ele><time>2026-03-24T14:44:17.001Z</time></trkpt><trkpt lat="42.09541663502032" lon="12.814816062701981"><ele>695.0</ele><time>2026-03-24T14:44:19.001Z</time></trkpt><trkpt lat="42.09549305153825" lon="12.81484453560913"><ele>695.0</ele><time>2026-03-24T14:44:20.001Z</time></trkpt><trkpt lat="42.095553879696055" lon="12.814884510213808"><ele>695.0</ele><time>2026-03-24T14:44:21.001Z</time></trkpt><trkpt lat="42.095618376696926" lon="12.814917219267759"><ele>695.0000000000001</ele><time>2026-03-24T14:44:22.001Z</time></trkpt><trkpt lat="42.09567927724821" lon="12.8149538698658"><ele>695.0</ele><time>2026-03-24T14:44:23.001Z</time></trkpt><trkpt lat="42.09575078704907" lon="12.814993775862119"><ele>695.0</ele><time>2026-03-24T14:44:24.001Z</time></trkpt><trkpt lat="42.095824074617" lon="12.815041883096848"><ele>695.0</ele><time>2026-03-24T14:44:25.001Z</time></trkpt><trkpt lat="42.09589008454335" lon="12.815097667284983"><ele>695.0</ele><time>2026-03-24T14:44:26.001Z</time></trkpt><trkpt lat="42.095963099380114" lon="12.815138635017929"><ele>695.0000000000001</ele><time>2026-03-24T14:44:27.001Z</time></trkpt><trkpt lat="42.09602504214519" lon="12.815172279091291"><ele>695.0</ele><time>2026-03-24T14:44:28.001Z</time></trkpt><trkpt lat="42.09608813256548" lon="12.81520860651626"><ele>696.0</ele><time>2026-03-24T14:44:29.001Z</time></trkpt><trkpt lat="42.09615364001653" lon="12.815256567011808"><ele>697.0</ele><time>2026-03-24T14:44:30.001Z</time></trkpt><trkpt lat="42.096214021148036" lon="12.815306684776816"><ele>698.0</ele><time>2026-03-24T14:44:31.001Z</time></trkpt><trkpt lat="42.09627756267259" lon="12.815351754853612"><ele>699.0</ele><time>2026-03-24T14:44:32.001Z</time></trkpt><trkpt lat="42.09635053087126" lon="12.81540819651898"><ele>700.0</ele><time>2026-03-24T14:44:33.001Z</time></trkpt><trkpt lat="42.0963980966609" lon="12.8154955988032"><ele>701.0</ele><time>2026-03-24T14:44:34.001Z</time></trkpt><trkpt lat="42.096455604681275" lon="12.815582976283302"><ele>701.0</ele><time>2026-03-24T14:44:35.001Z</time></trkpt><trkpt lat="42.09651038643585" lon="12.8156757644487"><ele>701.0</ele><time>2026-03-24T14:44:36.001Z</time></trkpt><trkpt lat="42.096577563934964" lon="12.815762507363974"><ele>701.0</ele><time>2026-03-24T14:44:37.001Z</time></trkpt><trkpt lat="42.096614663850865" lon="12.815851883708055"><ele>701.0</ele><time>2026-03-24T14:44:38.001Z</time></trkpt><trkpt lat="42.09665481387339" lon="12.815953383184095"><ele>701.0</ele><time>2026-03-24T14:44:39.001Z</time></trkpt><trkpt lat="42.096700253575634" lon="12.816052244953061"><ele>701.0</ele><time>2026-03-24T14:44:40.001Z</time></trkpt><trkpt lat="42.09675856388883" lon="12.816143469538188"><ele>703.8</ele><time>2026-03-24T14:44:41.001Z</time></trkpt><trkpt lat="42.096809085878164" lon="12.816251314652396"><ele>706.5999999999999</ele><time>2026-03-24T14:44:42.001Z</time></trkpt><trkpt lat="42.09685905597709" lon="12.816350673770998"><ele>709.4</ele><time>2026-03-24T14:44:43.001Z</time></trkpt><trkpt lat="42.09690283694932" lon="12.81645026054064"><ele>712.2</ele><time>2026-03-24T14:44:44.001Z</time></trkpt><trkpt lat="42.09694847845392" lon="12.816568619095273"><ele>715.0</ele><time>2026-03-24T14:44:45.001Z</time></trkpt><trkpt lat="42.096998190806545" lon="12.816664955733346"><ele>715.0</ele><time>2026-03-24T14:44:46.001Z</time></trkpt><trkpt lat="42.097050177598746" lon="12.816770916793937"><ele>715.0</ele><time>2026-03-24T14:44:47.001Z</time></trkpt><trkpt lat="42.09710056362123" lon="12.81688334594175"><ele>715.0</ele><time>2026-03-24T14:44:48.001Z</time></trkpt><trkpt lat="42.09714855747879" lon="12.81698877085084"><ele>715.0</ele><time>2026-03-24T14:44:49.001Z</time></trkpt><trkpt lat="42.0972012751968" lon="12.817088355859763"><ele>715.0</ele><time>2026-03-24T14:44:50.001Z</time></trkpt><trkpt lat="42.097249407279534" lon="12.817183879428452"><ele>714.5</ele><time>2026-03-24T14:44:51.001Z</time></trkpt><trkpt lat="42.09728946701711" lon="12.817275386258949"><ele>714.0</ele><time>2026-03-24T14:44:52.001Z</time></trkpt><trkpt lat="42.09732305438738" lon="12.817377640782553"><ele>713.5</ele><time>2026-03-24T14:44:53.001Z</time></trkpt><trkpt lat="42.097344913820336" lon="12.817473586980956"><ele>713.0</ele><time>2026-03-24T14:44:54.001Z</time></trkpt><trkpt lat="42.09735603585084" lon="12.817579818206992"><ele>712.5</ele><time>2026-03-24T14:44:55.001Z</time></trkpt><trkpt lat="42.09734112475351" lon="12.817692316646307"><ele>712.0</ele><time>2026-03-24T14:44:56.001Z</time></trkpt><trkpt lat="42.09733442602476" lon="12.8177959135891"><ele>714.8333333333334</ele><time>2026-03-24T14:44:57.001Z</time></trkpt><trkpt lat="42.0973162455848" lon="12.817889601997763"><ele>717.6666666666667</ele><time>2026-03-24T14:44:58.001Z</time></trkpt><trkpt lat="42.09728286429016" lon="12.817988801215312"><ele>720.5</ele><time>2026-03-24T14:44:59.001Z</time></trkpt><trkpt lat="42.097242009107696" lon="12.818081623015074"><ele>723.3333333333334</ele><time>2026-03-24T14:45:00.001Z</time></trkpt><trkpt lat="42.0971946673859" lon="12.818174606611933"><ele>726.1666666666666</ele><time>2026-03-24T14:45:01.001Z</time></trkpt><trkpt lat="42.097145951735904" lon="12.818266605961538"><ele>729.0</ele><time>2026-03-24T14:45:02.001Z</time></trkpt><trkpt lat="42.09709713271656" lon="12.818345848337112"><ele>729.0</ele><time>2026-03-24T14:45:03.001Z</time></trkpt><trkpt lat="42.09704119725903" lon="12.818435387263564"><ele>729.0</ele><time>2026-03-24T14:45:04.001Z</time></trkpt><trkpt lat="42.09699257081373" lon="12.818509867974202"><ele>729.0</ele><time>2026-03-24T14:45:05.001Z</time></trkpt><trkpt lat="42.09694469491499" lon="12.818580356144388"><ele>729.0</ele><time>2026-03-24T14:45:06.001Z</time></trkpt><trkpt lat="42.096893766384575" lon="12.818654443274456"><ele>729.0</ele><time>2026-03-24T14:45:07.001Z</time></trkpt><trkpt lat="42.0968520290595" lon="12.818728770703002"><ele>729.0</ele><time>2026-03-24T14:45:08.001Z</time></trkpt><trkpt lat="42.09678427734878" lon="12.818808177934011"><ele>730.1666666666666</ele><time>2026-03-24T14:45:09.001Z</time></trkpt><trkpt lat="42.09673935723811" lon="12.81886875185254"><ele>731.3333333333334</ele><time>2026-03-24T14:45:10.001Z</time></trkpt><trkpt lat="42.09665623216373" lon="12.819005240069545"><ele>732.5</ele><time>2026-03-24T14:45:12.001Z</time></trkpt><trkpt lat="42.096607125581066" lon="12.819066704731595"><ele>733.6666666666667</ele><time>2026-03-24T14:45:13.001Z</time></trkpt><trkpt lat="42.0965549504002" lon="12.819146302921151"><ele>734.8333333333334</ele><time>2026-03-24T14:45:14.001Z</time></trkpt><trkpt lat="42.09648779284424" lon="12.81920549024641"><ele>736.0</ele><time>2026-03-24T14:45:15.001Z</time></trkpt><trkpt lat="42.09643535492107" lon="12.81927483109529"><ele>735.0</ele><time>2026-03-24T14:45:16.001Z</time></trkpt><trkpt lat="42.096360986653956" lon="12.819377517424938"><ele>734.0</ele><time>2026-03-24T14:45:18.001Z</time></trkpt><trkpt lat="42.09631791401718" lon="12.819470403330781"><ele>733.0</ele><time>2026-03-24T14:45:20.001Z</time></trkpt><trkpt lat="42.09631215684733" lon="12.819610522846265"><ele>732.0</ele><time>2026-03-24T14:45:22.001Z</time></trkpt><trkpt lat="42.09633567762379" lon="12.819691416690196"><ele>731.0</ele><time>2026-03-24T14:45:23.001Z</time></trkpt><trkpt lat="42.096365849012805" lon="12.819769021103674"><ele>730.0</ele><time>2026-03-24T14:45:24.001Z</time></trkpt><trkpt lat="42.09645059346709" lon="12.819904297478017"><ele>730.0000000000001</ele><time>2026-03-24T14:45:26.001Z</time></trkpt><trkpt lat="42.09650596670076" lon="12.819978140525384"><ele>730.0</ele><time>2026-03-24T14:45:27.001Z</time></trkpt><trkpt lat="42.09656355841669" lon="12.820045568451615"><ele>730.0</ele><time>2026-03-24T14:45:28.001Z</time></trkpt><trkpt lat="42.09662102426505" lon="12.820111829783595"><ele>730.0</ele><time>2026-03-24T14:45:29.001Z</time></trkpt><trkpt lat="42.09667188758873" lon="12.820186667022462"><ele>730.0</ele><time>2026-03-24T14:45:30.001Z</time></trkpt><trkpt lat="42.09670939487089" lon="12.82026992026599"><ele>730.0000000000001</ele><time>2026-03-24T14:45:31.001Z</time></trkpt><trkpt lat="42.09676283868207" lon="12.820332926359944"><ele>730.0</ele><time>2026-03-24T14:45:32.001Z</time></trkpt><trkpt lat="42.0968187675269" lon="12.820416576862563"><ele>731.8</ele><time>2026-03-24T14:45:33.001Z</time></trkpt><trkpt lat="42.096871410441764" lon="12.82049602200277"><ele>733.6</ele><time>2026-03-24T14:45:34.001Z</time></trkpt><trkpt lat="42.09693439414751" lon="12.820568145555544"><ele>735.4000000000001</ele><time>2026-03-24T14:45:35.001Z</time></trkpt><trkpt lat="42.09701182390435" lon="12.820630118129198"><ele>737.2</ele><time>2026-03-24T14:45:36.001Z</time></trkpt><trkpt lat="42.09710499242514" lon="12.820695058428969"><ele>739.0</ele><time>2026-03-24T14:45:37.001Z</time></trkpt><trkpt lat="42.09719382086347" lon="12.820777814925103"><ele>739.0</ele><time>2026-03-24T14:45:38.001Z</time></trkpt><trkpt lat="42.097262952683366" lon="12.820833286193018"><ele>739.0</ele><time>2026-03-24T14:45:39.001Z</time></trkpt><trkpt lat="42.097326132738715" lon="12.820888787918243"><ele>739.0</ele><time>2026-03-24T14:45:40.001Z</time></trkpt><trkpt lat="42.09739714681756" lon="12.820958584788363"><ele>739.0</ele><time>2026-03-24T14:45:41.001Z</time></trkpt><trkpt lat="42.09746612359801" lon="12.82102661056089"><ele>739.0</ele><time>2026-03-24T14:45:42.001Z</time></trkpt><trkpt lat="42.097545542288145" lon="12.821082742031937"><ele>739.0</ele><time>2026-03-24T14:45:43.001Z</time></trkpt><trkpt lat="42.097602338020295" lon="12.821158297958407"><ele>740.5</ele><time>2026-03-24T14:45:44.001Z</time></trkpt><trkpt lat="42.09765457880648" lon="12.821233669086183"><ele>742.0</ele><time>2026-03-24T14:45:45.001Z</time></trkpt><trkpt lat="42.09771223858534" lon="12.821316499019263"><ele>743.5</ele><time>2026-03-24T14:45:46.001Z</time></trkpt><trkpt lat="42.0977626738217" lon="12.821372727865585"><ele>745.0</ele><time>2026-03-24T14:45:47.001Z</time></trkpt><trkpt lat="42.09782820714223" lon="12.821450431575629"><ele>746.5</ele><time>2026-03-24T14:45:48.001Z</time></trkpt><trkpt lat="42.097908584923054" lon="12.821538623384463"><ele>748.0</ele><time>2026-03-24T14:45:49.001Z</time></trkpt><trkpt lat="42.09798660114212" lon="12.82163110856118"><ele>748.0</ele><time>2026-03-24T14:45:50.001Z</time></trkpt><trkpt lat="42.09805108606723" lon="12.821729795177344"><ele>748.0</ele><time>2026-03-24T14:45:51.001Z</time></trkpt><trkpt lat="42.09811568226153" lon="12.821833433893573"><ele>748.0</ele><time>2026-03-24T14:45:52.001Z</time></trkpt><trkpt lat="42.09817855313518" lon="12.82194169778879"><ele>748.0</ele><time>2026-03-24T14:45:53.001Z</time></trkpt><trkpt lat="42.098225921154246" lon="12.822049209422678"><ele>748.0</ele><time>2026-03-24T14:45:54.001Z</time></trkpt><trkpt lat="42.09827026509571" lon="12.822153436540091"><ele>752.6666666666667</ele><time>2026-03-24T14:45:55.001Z</time></trkpt><trkpt lat="42.09830383914203" lon="12.822267583817673"><ele>757.3333333333334</ele><time>2026-03-24T14:45:56.001Z</time></trkpt><trkpt lat="42.09833216858936" lon="12.822390164623187"><ele>762.0</ele><time>2026-03-24T14:45:57.001Z</time></trkpt><trkpt lat="42.098351064124536" lon="12.822510191946071"><ele>766.6666666666667</ele><time>2026-03-24T14:45:58.001Z</time></trkpt><trkpt lat="42.09836469490559" lon="12.82262420590899"><ele>771.3333333333334</ele><time>2026-03-24T14:45:59.001Z</time></trkpt><trkpt lat="42.098371199398755" lon="12.822740085795727"><ele>776.0</ele><time>2026-03-24T14:46:00.001Z</time></trkpt><trkpt lat="42.09835636637745" lon="12.822844903517066"><ele>775.3333333333334</ele><time>2026-03-24T14:46:01.001Z</time></trkpt><trkpt lat="42.098344601482886" lon="12.822933575321489"><ele>774.6666666666667</ele><time>2026-03-24T14:46:02.001Z</time></trkpt><trkpt lat="42.098313631204384" lon="12.823025207092828"><ele>774.0</ele><time>2026-03-24T14:46:03.001Z</time></trkpt><trkpt lat="42.09827290250852" lon="12.823103660763971"><ele>773.3333333333333</ele><time>2026-03-24T14:46:04.001Z</time></trkpt><trkpt lat="42.098154893061775" lon="12.823193741075245"><ele>772.6666666666666</ele><time>2026-03-24T14:46:06.001Z</time></trkpt><trkpt lat="42.098075857132145" lon="12.823242096002282"><ele>772.0</ele><time>2026-03-24T14:46:07.001Z</time></trkpt><trkpt lat="42.09801931948734" lon="12.82330329738043"><ele>771.9999999999999</ele><time>2026-03-24T14:46:08.001Z</time></trkpt><trkpt lat="42.097984697372986" lon="12.823376767633123"><ele>772.0</ele><time>2026-03-24T14:46:09.001Z</time></trkpt><trkpt lat="42.09796296995851" lon="12.823460155886472"><ele>772.0</ele><time>2026-03-24T14:46:10.001Z</time></trkpt><trkpt lat="42.09794158199863" lon="12.823547597079656"><ele>772.0</ele><time>2026-03-24T14:46:11Z</time></trkpt><trkpt lat="42.09791578476743" lon="12.823692996383512"><ele>771.9999999999999</ele><time>2026-03-24T14:46:13Z</time></trkpt><trkpt lat="42.097901533082094" lon="12.823861983268484"><ele>772.0</ele><time>2026-03-24T14:46:15.001Z</time></trkpt><trkpt lat="42.097902748177056" lon="12.823951330633918"><ele>773.7142857142858</ele><time>2026-03-24T14:46:16.001Z</time></trkpt><trkpt lat="42.097916230265426" lon="12.824043734935087"><ele>775.4285714285714</ele><time>2026-03-24T14:46:17.001Z</time></trkpt><trkpt lat="42.09792095671072" lon="12.824145088662025"><ele>777.1428571428571</ele><time>2026-03-24T14:46:18.001Z</time></trkpt><trkpt lat="42.09791723452434" lon="12.824255014207246"><ele>778.8571428571429</ele><time>2026-03-24T14:46:19.001Z</time></trkpt><trkpt lat="42.09790671558656" lon="12.824360341759947"><ele>780.5714285714286</ele><time>2026-03-24T14:46:20.001Z</time></trkpt><trkpt lat="42.09789443252873" lon="12.824446303972044"><ele>782.2857142857143</ele><time>2026-03-24T14:46:21.001Z</time></trkpt><trkpt lat="42.0978928773014" lon="12.82454907651196"><ele>784.0</ele><time>2026-03-24T14:46:23.001Z</time></trkpt><trkpt lat="42.09794261977914" lon="12.824633523348865"><ele>785.5</ele><time>2026-03-24T14:46:26.001Z</time></trkpt><trkpt lat="42.098021357733494" lon="12.824756202743822"><ele>787.0</ele><time>2026-03-24T14:46:28.001Z</time></trkpt><trkpt lat="42.09811814101776" lon="12.82487045456415"><ele>788.5</ele><time>2026-03-24T14:46:30.001Z</time></trkpt><trkpt lat="42.0982105968524" lon="12.824970964150335"><ele>790.0</ele><time>2026-03-24T14:46:32.001Z</time></trkpt><trkpt lat="42.09830271865036" lon="12.82508712493898"><ele>788.7142857142857</ele><time>2026-03-24T14:46:34.001Z</time></trkpt><trkpt lat="42.098350511517715" lon="12.825147075302464"><ele>787.4285714285714</ele><time>2026-03-24T14:46:35.001Z</time></trkpt><trkpt lat="42.09839879193624" lon="12.825206644345252"><ele>786.1428571428571</ele><time>2026-03-24T14:46:36.001Z</time></trkpt><trkpt lat="42.09844622772656" lon="12.82527231978707"><ele>784.8571428571429</ele><time>2026-03-24T14:46:37.001Z</time></trkpt><trkpt lat="42.098493583202995" lon="12.825334609187708"><ele>783.5714285714287</ele><time>2026-03-24T14:46:38.001Z</time></trkpt><trkpt lat="42.0985501098591" lon="12.825404857902141"><ele>782.2857142857143</ele><time>2026-03-24T14:46:39.001Z</time></trkpt><trkpt lat="42.09860343266124" lon="12.825471252990143"><ele>781.0</ele><time>2026-03-24T14:46:40.001Z</time></trkpt><trkpt lat="42.098651897713594" lon="12.825532702158068"><ele>780.9999999999999</ele><time>2026-03-24T14:46:41.001Z</time></trkpt><trkpt lat="42.09870405470155" lon="12.825587949348824"><ele>781.0</ele><time>2026-03-24T14:46:42.001Z</time></trkpt><trkpt lat="42.098759260139786" lon="12.825655677793442"><ele>781.0</ele><time>2026-03-24T14:46:43.001Z</time></trkpt><trkpt lat="42.09882037531734" lon="12.8257182570297"><ele>781.0</ele><time>2026-03-24T14:46:44.001Z</time></trkpt><trkpt lat="42.098880554342486" lon="12.825778023844073"><ele>780.9999999999999</ele><time>2026-03-24T14:46:45.001Z</time></trkpt><trkpt lat="42.0989467616423" lon="12.825845611654756"><ele>781.0</ele><time>2026-03-24T14:46:46.001Z</time></trkpt><trkpt lat="42.09900583978494" lon="12.825910331632684"><ele>780.9999999999999</ele><time>2026-03-24T14:46:47.001Z</time></trkpt><trkpt lat="42.09906671106127" lon="12.825962415532004"><ele>781.0</ele><time>2026-03-24T14:46:48.001Z</time></trkpt><trkpt lat="42.099132266634214" lon="12.826007037318297"><ele>781.0</ele><time>2026-03-24T14:46:49.001Z</time></trkpt><trkpt lat="42.099201037263015" lon="12.826058274930258"><ele>781.0</ele><time>2026-03-24T14:46:50.001Z</time></trkpt><trkpt lat="42.0992656223833" lon="12.82611623763651"><ele>780.9999999999999</ele><time>2026-03-24T14:46:51.001Z</time></trkpt><trkpt lat="42.0993286777606" lon="12.82617943836884"><ele>781.0</ele><time>2026-03-24T14:46:52.001Z</time></trkpt><trkpt lat="42.099393676501585" lon="12.826242937854811"><ele>779.9999999999999</ele><time>2026-03-24T14:46:53.001Z</time></trkpt><trkpt lat="42.0994616359613" lon="12.826319364635737"><ele>779.0</ele><time>2026-03-24T14:46:54.001Z</time></trkpt><trkpt lat="42.09952978354983" lon="12.826391369777904"><ele>778.0</ele><time>2026-03-24T14:46:55.001Z</time></trkpt><trkpt lat="42.0995955808637" lon="12.82646410023084"><ele>777.0</ele><time>2026-03-24T14:46:56.001Z</time></trkpt><trkpt lat="42.099660219700255" lon="12.826528674005234"><ele>775.9999999999999</ele><time>2026-03-24T14:46:57.001Z</time></trkpt><trkpt lat="42.09972618900992" lon="12.82657938655549"><ele>775.0</ele><time>2026-03-24T14:46:58.001Z</time></trkpt><trkpt lat="42.0997893768947" lon="12.826649550571737"><ele>774.9999999999999</ele><time>2026-03-24T14:46:59.001Z</time></trkpt><trkpt lat="42.099845047699404" lon="12.826707815158025"><ele>775.0</ele><time>2026-03-24T14:47:00.001Z</time></trkpt><trkpt lat="42.099891808083484" lon="12.8267654643642"><ele>775.0</ele><time>2026-03-24T14:47:01.001Z</time></trkpt><trkpt lat="42.09997197396434" lon="12.826881417851016"><ele>775.0</ele><time>2026-03-24T14:47:03.001Z</time></trkpt><trkpt lat="42.100019947050335" lon="12.826941579009981"><ele>774.9999999999999</ele><time>2026-03-24T14:47:04.001Z</time></trkpt><trkpt lat="42.100085828093114" lon="12.826974342793886"><ele>775.0</ele><time>2026-03-24T14:47:05.001Z</time></trkpt><trkpt lat="42.100166197662325" lon="12.82699191070203"><ele>774.8333333333333</ele><time>2026-03-24T14:47:06.001Z</time></trkpt><trkpt lat="42.10023992723063" lon="12.826995218878883"><ele>774.6666666666666</ele><time>2026-03-24T14:47:07.001Z</time></trkpt><trkpt lat="42.10031398498285" lon="12.826993770954896"><ele>774.5</ele><time>2026-03-24T14:47:08.001Z</time></trkpt><trkpt lat="42.10038653924912" lon="12.826982568372816"><ele>774.3333333333333</ele><time>2026-03-24T14:47:09.001Z</time></trkpt><trkpt lat="42.10047657143257" lon="12.826956349718314"><ele>774.1666666666666</ele><time>2026-03-24T14:47:10.001Z</time></trkpt><trkpt lat="42.1005588184771" lon="12.826936730284316"><ele>774.0</ele><time>2026-03-24T14:47:11.001Z</time></trkpt><trkpt lat="42.10064104886936" lon="12.826935823619007"><ele>774.0</ele><time>2026-03-24T14:47:12.001Z</time></trkpt><trkpt lat="42.100710231551325" lon="12.82689286708132"><ele>774.0</ele><time>2026-03-24T14:47:13.001Z</time></trkpt><trkpt lat="42.1007851327501" lon="12.826869870322467"><ele>774.0</ele><time>2026-03-24T14:47:14.001Z</time></trkpt><trkpt lat="42.100850007961235" lon="12.826842224408704"><ele>774.0</ele><time>2026-03-24T14:47:15.001Z</time></trkpt><trkpt lat="42.10097970846124" lon="12.826808527562699"><ele>774.0</ele><time>2026-03-24T14:47:17.001Z</time></trkpt><trkpt lat="42.10105857766057" lon="12.826774911465547"><ele>774.0</ele><time>2026-03-24T14:47:18.001Z</time></trkpt><trkpt lat="42.10114249249288" lon="12.826741397841555"><ele>773.0</ele><time>2026-03-24T14:47:19.001Z</time></trkpt><trkpt lat="42.10124067396778" lon="12.826709553982518"><ele>772.0</ele><time>2026-03-24T14:47:20.001Z</time></trkpt><trkpt lat="42.101329805293105" lon="12.82668139646153"><ele>771.0</ele><time>2026-03-24T14:47:21.001Z</time></trkpt><trkpt lat="42.10141451368657" lon="12.826655907316828"><ele>770.0</ele><time>2026-03-24T14:47:22.001Z</time></trkpt><trkpt lat="42.101498790020464" lon="12.826611320536356"><ele>769.0</ele><time>2026-03-24T14:47:23.001Z</time></trkpt><trkpt lat="42.101575591374875" lon="12.826595200228567"><ele>768.0</ele><time>2026-03-24T14:47:24.001Z</time></trkpt><trkpt lat="42.101652908146285" lon="12.82657456363351"><ele>768.0</ele><time>2026-03-24T14:47:25.001Z</time></trkpt><trkpt lat="42.10172640764979" lon="12.826543230924145"><ele>768.0</ele><time>2026-03-24T14:47:26.001Z</time></trkpt><trkpt lat="42.101791322452" lon="12.826516663533447"><ele>768.0</ele><time>2026-03-24T14:47:27.001Z</time></trkpt><trkpt lat="42.10185893195368" lon="12.826494247754797"><ele>768.0</ele><time>2026-03-24T14:47:28.001Z</time></trkpt><trkpt lat="42.10192725125737" lon="12.826465389444408"><ele>768.0</ele><time>2026-03-24T14:47:29.001Z</time></trkpt><trkpt lat="42.10201192473215" lon="12.826474309672376"><ele>768.0</ele><time>2026-03-24T14:47:30.001Z</time></trkpt><trkpt lat="42.102090238310616" lon="12.826488730398236"><ele>768.0</ele><time>2026-03-24T14:47:31.001Z</time></trkpt><trkpt lat="42.10217650915974" lon="12.826502946667564"><ele>768.0</ele><time>2026-03-24T14:47:32.001Z</time></trkpt><trkpt lat="42.10226753660493" lon="12.826501966159675"><ele>768.0</ele><time>2026-03-24T14:47:33.001Z</time></trkpt><trkpt lat="42.10237372058709" lon="12.826495102326907"><ele>768.0</ele><time>2026-03-24T14:47:34.001Z</time></trkpt><trkpt lat="42.10250206412324" lon="12.82647820809151"><ele>768.0</ele><time>2026-03-24T14:47:35.001Z</time></trkpt><trkpt lat="42.10260510774473" lon="12.826460410065911"><ele>767.5999999999999</ele><time>2026-03-24T14:47:36.001Z</time></trkpt><trkpt lat="42.102695775828515" lon="12.82645851741474"><ele>767.1999999999999</ele><time>2026-03-24T14:47:37.001Z</time></trkpt><trkpt lat="42.10278727673823" lon="12.826459825031579"><ele>766.8</ele><time>2026-03-24T14:47:38.001Z</time></trkpt><trkpt lat="42.10287556635312" lon="12.82646504068052"><ele>766.4</ele><time>2026-03-24T14:47:39.001Z</time></trkpt><trkpt lat="42.10295774821963" lon="12.8265094747779"><ele>766.0</ele><time>2026-03-24T14:47:40.001Z</time></trkpt><trkpt lat="42.10305066158641" lon="12.82655428594643"><ele>766.0</ele><time>2026-03-24T14:47:41.001Z</time></trkpt><trkpt lat="42.103134591537994" lon="12.826590724061822"><ele>766.0</ele><time>2026-03-24T14:47:42.001Z</time></trkpt><trkpt lat="42.10320884900847" lon="12.826622963048841"><ele>766.0</ele><time>2026-03-24T14:47:43.001Z</time></trkpt><trkpt lat="42.10329499943368" lon="12.82665877542668"><ele>766.0</ele><time>2026-03-24T14:47:44.001Z</time></trkpt><trkpt lat="42.103380162200075" lon="12.82666528089996"><ele>766.0</ele><time>2026-03-24T14:47:45.001Z</time></trkpt><trkpt lat="42.1034470408585" lon="12.826702596947635"><ele>766.0</ele><time>2026-03-24T14:47:46.001Z</time></trkpt><trkpt lat="42.1035120080425" lon="12.82671272450103"><ele>766.1666666666667</ele><time>2026-03-24T14:47:47.001Z</time></trkpt><trkpt lat="42.1035806866913" lon="12.826712550184633"><ele>766.3333333333334</ele><time>2026-03-24T14:47:48.001Z</time></trkpt><trkpt lat="42.103645902906834" lon="12.826703759251867"><ele>766.5</ele><time>2026-03-24T14:47:49.001Z</time></trkpt><trkpt lat="42.10370787462691" lon="12.826676475823177"><ele>766.6666666666666</ele><time>2026-03-24T14:47:50.001Z</time></trkpt><trkpt lat="42.1038152501666" lon="12.826612765186143"><ele>766.8333333333333</ele><time>2026-03-24T14:47:52.001Z</time></trkpt><trkpt lat="42.10387584063561" lon="12.82656725341008"><ele>767.0</ele><time>2026-03-24T14:47:53.001Z</time></trkpt><trkpt lat="42.10396161275434" lon="12.826465141017511"><ele>767.0</ele><time>2026-03-24T14:47:55.001Z</time></trkpt><trkpt lat="42.10402034344232" lon="12.826427614104004"><ele>767.0</ele><time>2026-03-24T14:47:56.001Z</time></trkpt><trkpt lat="42.10409486948201" lon="12.82638570323698"><ele>767.0</ele><time>2026-03-24T14:47:57.001Z</time></trkpt><trkpt lat="42.1041856073495" lon="12.826362901704105"><ele>767.0</ele><time>2026-03-24T14:47:58.001Z</time></trkpt><trkpt lat="42.10426203787704" lon="12.826352391393982"><ele>767.0</ele><time>2026-03-24T14:47:59.001Z</time></trkpt><trkpt lat="42.10435455889288" lon="12.826348273188033"><ele>767.0</ele><time>2026-03-24T14:48:00.001Z</time></trkpt><trkpt lat="42.10446124088305" lon="12.826346945650519"><ele>765.8333333333333</ele><time>2026-03-24T14:48:01.001Z</time></trkpt><trkpt lat="42.104548763773394" lon="12.826360210976466"><ele>764.6666666666666</ele><time>2026-03-24T14:48:02.001Z</time></trkpt><trkpt lat="42.10461799437071" lon="12.826383845455918"><ele>763.5</ele><time>2026-03-24T14:48:03.001Z</time></trkpt><trkpt lat="42.10471337403753" lon="12.8264174273874"><ele>762.3333333333334</ele><time>2026-03-24T14:48:05.001Z</time></trkpt><trkpt lat="42.10477610311781" lon="12.82643454727305"><ele>761.1666666666667</ele><time>2026-03-24T14:51:52.001Z</time></trkpt><trkpt lat="42.1047306153798" lon="12.826497296182643"><ele>760.0</ele><time>2026-03-24T14:52:24Z</time></trkpt><trkpt lat="42.1048063907815" lon="12.826474573217672"><ele>760.0</ele><time>2026-03-24T14:57:55Z</time></trkpt><trkpt lat="42.10489390527831" lon="12.826476683795098"><ele>760.0</ele><time>2026-03-24T14:57:56Z</time></trkpt><trkpt lat="42.10500802855146" lon="12.82648800000198"><ele>760.0</ele><time>2026-03-24T14:57:57Z</time></trkpt><trkpt lat="42.1051397128986" lon="12.826523895586412"><ele>760.0</ele><time>2026-03-24T14:57:58Z</time></trkpt><trkpt lat="42.10525502703285" lon="12.826584555319975"><ele>761.0</ele><time>2026-03-24T14:57:59Z</time></trkpt><trkpt lat="42.10536650027628" lon="12.826671619038462"><ele>762.0</ele><time>2026-03-24T14:58:00Z</time></trkpt><trkpt lat="42.105498991147066" lon="12.826789340224442"><ele>763.0</ele><time>2026-03-24T14:58:01Z</time></trkpt><trkpt lat="42.10564408850164" lon="12.826937368116143"><ele>764.5</ele><time>2026-03-24T14:58:02Z</time></trkpt><trkpt lat="42.10578881367838" lon="12.827066181200937"><ele>766.0</ele><time>2026-03-24T14:58:03Z</time></trkpt><trkpt lat="42.105902876559966" lon="12.827170268738662"><ele>767.5</ele><time>2026-03-24T14:58:04Z</time></trkpt><trkpt lat="42.106005627757824" lon="12.827263361895339"><ele>769.0</ele><time>2026-03-24T14:58:05Z</time></trkpt><trkpt lat="42.106101199247" lon="12.827345690722835"><ele>769.0</ele><time>2026-03-24T14:58:06Z</time></trkpt><trkpt lat="42.10621939023127" lon="12.827432584752538"><ele>769.0</ele><time>2026-03-24T14:58:07Z</time></trkpt><trkpt lat="42.106324334090544" lon="12.827503546147678"><ele>769.0</ele><time>2026-03-24T14:58:08Z</time></trkpt><trkpt lat="42.1064635231598" lon="12.827588571639813"><ele>769.0</ele><time>2026-03-24T14:58:09Z</time></trkpt><trkpt lat="42.106583564215825" lon="12.827666688373718"><ele>769.8000000000001</ele><time>2026-03-24T14:58:10Z</time></trkpt><trkpt lat="42.106687170316675" lon="12.82771896804527"><ele>770.6</ele><time>2026-03-24T14:58:11Z</time></trkpt><trkpt lat="42.106782404112224" lon="12.82775227839833"><ele>771.4</ele><time>2026-03-24T14:58:12Z</time></trkpt><trkpt lat="42.1068671935448" lon="12.82776162565793"><ele>772.2</ele><time>2026-03-24T14:58:13Z</time></trkpt><trkpt lat="42.10696000774174" lon="12.827757131110602"><ele>773.0</ele><time>2026-03-24T14:58:14Z</time></trkpt><trkpt lat="42.10703165533493" lon="12.827743980203083"><ele>773.0</ele><time>2026-03-24T14:58:15Z</time></trkpt><trkpt lat="42.107139493747994" lon="12.827736341372637"><ele>773.0</ele><time>2026-03-24T14:58:17Z</time></trkpt><trkpt lat="42.10721180272835" lon="12.827755239744988"><ele>773.0</ele><time>2026-03-24T14:58:18.999Z</time></trkpt><trkpt lat="42.10729309065444" lon="12.82787508629161"><ele>773.0</ele><time>2026-03-24T14:58:21.999Z</time></trkpt><trkpt lat="42.10733505743752" lon="12.827987775578263"><ele>773.0</ele><time>2026-03-24T14:58:23.999Z</time></trkpt><trkpt lat="42.107374951199944" lon="12.828101233199"><ele>773.0</ele><time>2026-03-24T14:58:25.999Z</time></trkpt><trkpt lat="42.10738840802758" lon="12.828228820025629"><ele>773.0</ele><time>2026-03-24T14:58:27.999Z</time></trkpt><trkpt lat="42.10738074947245" lon="12.828321845168965"><ele>773.0</ele><time>2026-03-24T14:58:28.999Z</time></trkpt><trkpt lat="42.10736527556172" lon="12.828460689501656"><ele>773.0</ele><time>2026-03-24T14:58:30Z</time></trkpt><trkpt lat="42.107335098571575" lon="12.8286118021618"><ele>773.0</ele><time>2026-03-24T14:58:30.999Z</time></trkpt><trkpt lat="42.10731182798051" lon="12.828741579549128"><ele>774.1666666666667</ele><time>2026-03-24T14:58:31.999Z</time></trkpt><trkpt lat="42.10729170301123" lon="12.828864893948145"><ele>775.3333333333334</ele><time>2026-03-24T14:58:33Z</time></trkpt><trkpt lat="42.107274894962494" lon="12.82898611959578"><ele>776.5</ele><time>2026-03-24T14:58:34Z</time></trkpt><trkpt lat="42.10726612506751" lon="12.829099569288982"><ele>777.6666666666667</ele><time>2026-03-24T14:58:35Z</time></trkpt><trkpt lat="42.10726243427021" lon="12.829197943567774"><ele>778.8333333333334</ele><time>2026-03-24T14:58:36Z</time></trkpt><trkpt lat="42.10726833391033" lon="12.829301443578137"><ele>780.0</ele><time>2026-03-24T14:58:37Z</time></trkpt><trkpt lat="42.107284946400874" lon="12.829440564071097"><ele>781.6</ele><time>2026-03-24T14:58:38Z</time></trkpt><trkpt lat="42.10727720652008" lon="12.829598375229304"><ele>783.2</ele><time>2026-03-24T14:58:39Z</time></trkpt><trkpt lat="42.107291374864836" lon="12.829747662267858"><ele>784.8</ele><time>2026-03-24T14:58:40Z</time></trkpt><trkpt lat="42.10733091034144" lon="12.829872224063969"><ele>786.4</ele><time>2026-03-24T14:58:41Z</time></trkpt><trkpt lat="42.107368343588554" lon="12.830024288859716"><ele>788.0</ele><time>2026-03-24T14:58:42Z</time></trkpt><trkpt lat="42.107424031895754" lon="12.830177558086168"><ele>789.3333333333334</ele><time>2026-03-24T14:58:43Z</time></trkpt><trkpt lat="42.10748923613617" lon="12.830346229646407"><ele>790.6666666666667</ele><time>2026-03-24T14:58:44Z</time></trkpt><trkpt lat="42.1075570464734" lon="12.830565688658886"><ele>792.0</ele><time>2026-03-24T14:58:45Z</time></trkpt><trkpt lat="42.10766474488639" lon="12.830786107476836"><ele>792.0</ele><time>2026-03-24T14:58:46Z</time></trkpt><trkpt lat="42.107745747706495" lon="12.830993561615038"><ele>792.0</ele><time>2026-03-24T14:58:47Z</time></trkpt><trkpt lat="42.107817933456836" lon="12.831166785219382"><ele>792.0</ele><time>2026-03-24T14:58:48Z</time></trkpt><trkpt lat="42.107884505237635" lon="12.831319349569505"><ele>792.0</ele><time>2026-03-24T14:58:49Z</time></trkpt><trkpt lat="42.107950131156315" lon="12.831459908613551"><ele>792.0</ele><time>2026-03-24T14:58:50Z</time></trkpt><trkpt lat="42.108004588371905" lon="12.831589136653236"><ele>792.0</ele><time>2026-03-24T14:58:51Z</time></trkpt><trkpt lat="42.10805745769451" lon="12.831696439598407"><ele>792.0</ele><time>2026-03-24T14:58:52Z</time></trkpt><trkpt lat="42.10810919844396" lon="12.831785523134368"><ele>792.0</ele><time>2026-03-24T14:58:53Z</time></trkpt><trkpt lat="42.1081698569924" lon="12.831847849738951"><ele>793.0</ele><time>2026-03-24T14:58:54Z</time></trkpt><trkpt lat="42.10823393997407" lon="12.831926729586153"><ele>794.0</ele><time>2026-03-24T14:58:55Z</time></trkpt><trkpt lat="42.10832174377401" lon="12.83196720044224"><ele>795.0</ele><time>2026-03-24T14:58:56Z</time></trkpt><trkpt lat="42.108407206924134" lon="12.832004695154371"><ele>796.0</ele><time>2026-03-24T14:58:57Z</time></trkpt><trkpt lat="42.10847259392306" lon="12.832036381433754"><ele>797.0</ele><time>2026-03-24T14:58:58Z</time></trkpt><trkpt lat="42.108602124765824" lon="12.832050335536048"><ele>797.0000000000001</ele><time>2026-03-24T14:59:00Z</time></trkpt><trkpt lat="42.108686817788566" lon="12.832023385157889"><ele>797.0</ele><time>2026-03-24T14:59:01Z</time></trkpt><trkpt lat="42.10879016102031" lon="12.832013990063983"><ele>797.0</ele><time>2026-03-24T14:59:02Z</time></trkpt><trkpt lat="42.1088821356411" lon="12.831983654711685"><ele>797.0</ele><time>2026-03-24T14:59:03Z</time></trkpt><trkpt lat="42.108958163675624" lon="12.831939929693714"><ele>797.0000000000001</ele><time>2026-03-24T14:59:04Z</time></trkpt><trkpt lat="42.10901997676692" lon="12.831890324746812"><ele>797.0</ele><time>2026-03-24T14:59:05Z</time></trkpt><trkpt lat="42.10908255991568" lon="12.831821815524583"><ele>798.1666666666667</ele><time>2026-03-24T14:59:06Z</time></trkpt><trkpt lat="42.10914325652177" lon="12.831746672472377"><ele>799.3333333333334</ele><time>2026-03-24T14:59:07Z</time></trkpt><trkpt lat="42.10919522666491" lon="12.83168115041482"><ele>800.5</ele><time>2026-03-24T14:59:08Z</time></trkpt><trkpt lat="42.10926309786367" lon="12.831707381648938"><ele>801.6666666666667</ele><time>2026-03-24T14:59:11Z</time></trkpt><trkpt lat="42.10926311285488" lon="12.831794826275381"><ele>802.8333333333334</ele><time>2026-03-24T14:59:13Z</time></trkpt><trkpt lat="42.10931052200996" lon="12.8319285846342"><ele>804.0</ele><time>2026-03-24T14:59:15Z</time></trkpt><trkpt lat="42.109354650050356" lon="12.832023226442915"><ele>804.0</ele><time>2026-03-24T14:59:16Z</time></trkpt><trkpt lat="42.10942552524658" lon="12.832138471637329"><ele>804.0</ele><time>2026-03-24T14:59:17Z</time></trkpt><trkpt lat="42.109482664710654" lon="12.832213075011982"><ele>804.0</ele><time>2026-03-24T14:59:18Z</time></trkpt><trkpt lat="42.109538892625565" lon="12.832282978641423"><ele>804.0</ele><time>2026-03-24T14:59:19Z</time></trkpt><trkpt lat="42.10957292339529" lon="12.832360743284548"><ele>804.0</ele><time>2026-03-24T14:59:20Z</time></trkpt><trkpt lat="42.1096370567666" lon="12.832433691756576"><ele>804.0</ele><time>2026-03-24T14:59:21Z</time></trkpt><trkpt lat="42.10969436227604" lon="12.832514783779219"><ele>804.0</ele><time>2026-03-24T14:59:22Z</time></trkpt><trkpt lat="42.109742142972756" lon="12.832620619236076"><ele>804.0</ele><time>2026-03-24T14:59:23Z</time></trkpt><trkpt lat="42.109819690420544" lon="12.83272684232868"><ele>804.0</ele><time>2026-03-24T14:59:24Z</time></trkpt><trkpt lat="42.10988676894136" lon="12.832852882988155"><ele>804.0</ele><time>2026-03-24T14:59:25Z</time></trkpt><trkpt lat="42.10996378284996" lon="12.832971201058873"><ele>804.0</ele><time>2026-03-24T14:59:26Z</time></trkpt><trkpt lat="42.11006402039116" lon="12.833071018759533"><ele>807.5</ele><time>2026-03-24T14:59:27Z</time></trkpt><trkpt lat="42.110179398001115" lon="12.833169661880365"><ele>811.0</ele><time>2026-03-24T14:59:28Z</time></trkpt><trkpt lat="42.110285430202424" lon="12.833259200290492"><ele>814.5</ele><time>2026-03-24T14:59:29Z</time></trkpt><trkpt lat="42.11038934687947" lon="12.8333699007939"><ele>818.0</ele><time>2026-03-24T14:59:30Z</time></trkpt><trkpt lat="42.11048621209964" lon="12.833503545524186"><ele>819.3333333333334</ele><time>2026-03-24T14:59:31Z</time></trkpt><trkpt lat="42.11056962439371" lon="12.833652591503691"><ele>820.6666666666667</ele><time>2026-03-24T14:59:32Z</time></trkpt><trkpt lat="42.11065652926188" lon="12.833805098971139"><ele>822.0</ele><time>2026-03-24T14:59:33Z</time></trkpt><trkpt lat="42.11077955252267" lon="12.833992002626799"><ele>824.6666666666667</ele><time>2026-03-24T14:59:34Z</time></trkpt><trkpt lat="42.110922750773895" lon="12.834220098096406"><ele>827.3333333333334</ele><time>2026-03-24T14:59:35Z</time></trkpt><trkpt lat="42.11104245357292" lon="12.834397530409786"><ele>830.0</ele><time>2026-03-24T14:59:36Z</time></trkpt><trkpt lat="42.11115541414295" lon="12.834541334989982"><ele>830.25</ele><time>2026-03-24T14:59:37Z</time></trkpt><trkpt lat="42.11125520927808" lon="12.834686540869756"><ele>830.5</ele><time>2026-03-24T14:59:38Z</time></trkpt><trkpt lat="42.1113519607543" lon="12.834819600090505"><ele>830.75</ele><time>2026-03-24T14:59:39Z</time></trkpt><trkpt lat="42.11146285002008" lon="12.834960034920066"><ele>831.0</ele><time>2026-03-24T14:59:40Z</time></trkpt><trkpt lat="42.11157139297561" lon="12.83508306066787"><ele>836.25</ele><time>2026-03-24T14:59:41Z</time></trkpt><trkpt lat="42.11168052870692" lon="12.835183410357002"><ele>841.5</ele><time>2026-03-24T14:59:42Z</time></trkpt><trkpt lat="42.11178881166892" lon="12.835261899345765"><ele>846.75</ele><time>2026-03-24T14:59:43Z</time></trkpt><trkpt lat="42.11192023885898" lon="12.835349608095468"><ele>852.0</ele><time>2026-03-24T14:59:44Z</time></trkpt><trkpt lat="42.112046081073366" lon="12.835433637318806"><ele>852.0</ele><time>2026-03-24T14:59:45Z</time></trkpt><trkpt lat="42.112146441342034" lon="12.835504303042166"><ele>852.0</ele><time>2026-03-24T14:59:46Z</time></trkpt><trkpt lat="42.11222994285821" lon="12.83556332777741"><ele>852.0</ele><time>2026-03-24T14:59:47Z</time></trkpt><trkpt lat="42.11230748404919" lon="12.835632122355682"><ele>852.0</ele><time>2026-03-24T14:59:48Z</time></trkpt><trkpt lat="42.11236594673443" lon="12.835698069404888"><ele>852.0</ele><time>2026-03-24T14:59:49Z</time></trkpt><trkpt lat="42.11241556475376" lon="12.835755593119014"><ele>852.0</ele><time>2026-03-24T14:59:50Z</time></trkpt><trkpt lat="42.112501121771004" lon="12.835852166700754"><ele>852.8</ele><time>2026-03-24T14:59:52Z</time></trkpt><trkpt lat="42.11256114971171" lon="12.835935483174275"><ele>853.6</ele><time>2026-03-24T14:59:54Z</time></trkpt><trkpt lat="42.112616210674354" lon="12.835997174578603"><ele>854.3999999999999</ele><time>2026-03-24T14:59:56Z</time></trkpt><trkpt lat="42.11266354680352" lon="12.836090312896365"><ele>855.1999999999999</ele><time>2026-03-24T15:00:11Z</time></trkpt><trkpt lat="42.11274028385133" lon="12.836206404683379"><ele>856.0</ele><time>2026-03-24T15:00:13Z</time></trkpt><trkpt lat="42.112835973531986" lon="12.836276832658008"><ele>856.0</ele><time>2026-03-24T15:00:15Z</time></trkpt><trkpt lat="42.11292654413712" lon="12.836375690657903"><ele>856.0</ele><time>2026-03-24T15:00:17Z</time></trkpt><trkpt lat="42.11302605394843" lon="12.836467452173942"><ele>856.0</ele><time>2026-03-24T15:00:19Z</time></trkpt><trkpt lat="42.11311908487063" lon="12.836570754732932"><ele>856.0</ele><time>2026-03-24T15:00:21Z</time></trkpt><trkpt lat="42.113201647830664" lon="12.836673900207009"><ele>854.3333333333333</ele><time>2026-03-24T15:00:23Z</time></trkpt><trkpt lat="42.11325468567752" lon="12.836767869737068"><ele>852.6666666666666</ele><time>2026-03-24T15:00:24.999Z</time></trkpt><trkpt lat="42.11330378631748" lon="12.836848794626246"><ele>851.0</ele><time>2026-03-24T15:00:26.999Z</time></trkpt><trkpt lat="42.113354762429424" lon="12.836919161709885"><ele>849.3333333333333</ele><time>2026-03-24T15:00:31.999Z</time></trkpt><trkpt lat="42.11339443781797" lon="12.83705411727889"><ele>847.6666666666666</ele><time>2026-03-24T15:00:33.999Z</time></trkpt><trkpt lat="42.11345286580693" lon="12.837143358159054"><ele>846.0</ele><time>2026-03-24T15:00:36Z</time></trkpt><trkpt lat="42.11350038636119" lon="12.837213451366146"><ele>846.0</ele><time>2026-03-24T15:00:38Z</time></trkpt><trkpt lat="42.11356061100048" lon="12.83718646530344"><ele>846.0</ele><time>2026-03-24T15:00:41Z</time></trkpt><trkpt lat="42.1134719149152" lon="12.837186544974385"><ele>846.0</ele><time>2026-03-24T15:01:23Z</time></trkpt><trkpt lat="42.1134081076574" lon="12.837178678602001"><ele>846.0</ele><time>2026-03-24T15:01:25Z</time></trkpt><trkpt lat="42.11334463802966" lon="12.836969810137576"><ele>846.0</ele><time>2026-03-24T15:01:27Z</time></trkpt><trkpt lat="42.113286905322454" lon="12.836859168430706"><ele>848.0</ele><time>2026-03-24T15:01:28Z</time></trkpt><trkpt lat="42.113222015818195" lon="12.83675194319604"><ele>850.0</ele><time>2026-03-24T15:01:29Z</time></trkpt><trkpt lat="42.11316171968088" lon="12.836662320996949"><ele>851.9999999999999</ele><time>2026-03-24T15:01:30Z</time></trkpt><trkpt lat="42.11308093093097" lon="12.836569035091857"><ele>854.0</ele><time>2026-03-24T15:01:31Z</time></trkpt><trkpt lat="42.1129843639754" lon="12.836468141978088"><ele>856.0</ele><time>2026-03-24T15:01:32Z</time></trkpt><trkpt lat="42.11291028553075" lon="12.836318981552672"><ele>856.0</ele><time>2026-03-24T15:01:33Z</time></trkpt><trkpt lat="42.1128150981384" lon="12.836228461927433"><ele>855.9999999999999</ele><time>2026-03-24T15:01:34Z</time></trkpt><trkpt lat="42.112738014508366" lon="12.836141381679507"><ele>855.9999999999999</ele><time>2026-03-24T15:01:35Z</time></trkpt><trkpt lat="42.11267342407188" lon="12.836037942234368"><ele>856.0</ele><time>2026-03-24T15:01:36Z</time></trkpt><trkpt lat="42.11260485706687" lon="12.835933449985891"><ele>856.0</ele><time>2026-03-24T15:01:37Z</time></trkpt><trkpt lat="42.112554436935696" lon="12.835859954606113"><ele>856.0</ele><time>2026-03-24T15:01:38Z</time></trkpt><trkpt lat="42.11250200520233" lon="12.835792619319314"><ele>856.0</ele><time>2026-03-24T15:01:39Z</time></trkpt><trkpt lat="42.11242878601939" lon="12.835707527725445"><ele>856.0</ele><time>2026-03-24T15:01:41Z</time></trkpt><trkpt lat="42.11236528261033" lon="12.835648895947896"><ele>852.0</ele><time>2026-03-24T15:01:44Z</time></trkpt></trkseg></trk></gpx>